
Distance (Route):
Temperature : 0°C
Humidity : 0%
Pressure : 850.8hPa| Receiver | Frames | First received | Last received |
|---|---|---|---|
| DO3MHA-11 | 486 | 2026-09-02 10:48:10 | 2026-09-02 13:17:51 |
| OE5MMP-10 | 228 | 2026-09-02 11:24:07 | 2026-09-02 13:07:54 |
| DF8AY | 209 | 2026-09-02 11:44:55 | 2026-09-02 12:55:07 |
| DL6DJ-15 | 141 | 2026-09-02 10:52:55 | 2026-09-02 13:07:33 |
| HSKMA3-T | 132 | 2026-09-02 12:10:30 | 2026-09-02 12:50:56 |
| OE5WHR-10 | 110 | 2026-09-02 11:16:12 | 2026-09-02 13:04:21 |
| OE5DRO-10 | 93 | 2026-09-02 11:06:16 | 2026-09-02 13:11:23 |
| PG1ADW-2 | 88 | 2026-09-02 11:26:08 | 2026-09-02 13:04:27 |
| OE5DXL-15 | 83 | 2026-09-02 11:02:22 | 2026-09-02 13:06:32 |
| DO8TBO-1 | 82 | 2026-09-02 10:58:07 | 2026-09-02 13:05:31 |
| DO9HM | 76 | 2026-09-02 10:52:26 | 2026-09-02 11:31:05 |
| EDDB2-11 | 66 | 2026-09-02 11:22:13 | 2026-09-02 13:03:39 |
| DL1XH-west | 64 | 2026-09-02 12:37:34 | 2026-09-02 12:50:22 |
| SONCRA | 60 | 2026-09-02 11:21:53 | 2026-09-02 12:51:58 |
| NBG1-10 | 57 | 2026-09-02 10:48:07 | 2026-09-02 13:13:34 |
| PETON7-10 | 57 | 2026-09-02 12:00:19 | 2026-09-02 12:56:25 |
| DL1XH1-15 | 49 | 2026-09-02 12:39:06 | 2026-09-02 12:50:16 |
| DB0NH | 43 | 2026-09-02 10:49:04 | 2026-09-02 13:10:53 |
| EDDB2-12 | 41 | 2026-09-02 12:01:15 | 2026-09-02 13:03:51 |
| AA1-15 | 37 | 2026-09-02 12:36:17 | 2026-09-02 12:48:19 |
| BAUMI2-15 | 34 | 2026-09-02 12:11:15 | 2026-09-02 12:47:27 |
| OM5KV | 32 | 2026-09-02 11:39:36 | 2026-09-02 11:43:26 |
| S52SK | 30 | 2026-09-02 11:35:34 | 2026-09-02 12:32:35 |
| OE5REO-15 | 29 | 2026-09-02 11:43:24 | 2026-09-02 12:57:28 |
| SP3BTT-10 | 23 | 2026-09-02 11:35:24 | 2026-09-02 12:56:23 |
| SONDE2-11 | 22 | 2026-09-02 11:54:49 | 2026-09-02 13:03:38 |
| DL1JEZ-13 | 18 | 2026-09-02 11:36:14 | 2026-09-02 12:51:33 |
| DF2AP-13 | 16 | 2026-09-02 11:12:46 | 2026-09-02 13:02:23 |
| ANDY1245 | 16 | 2026-09-02 11:23:31 | 2026-09-02 12:51:13 |
| DL1XH-15 | 10 | 2026-09-02 12:41:28 | 2026-09-02 12:43:46 |
| BIOWL1-15 | 10 | 2026-09-02 12:53:37 | 2026-09-02 12:59:21 |
| DK5PH-5 | 6 | 2026-09-02 12:10:27 | 2026-09-02 12:14:06 |
| DL3JIN-12 | 6 | 2026-09-02 12:47:54 | 2026-09-02 12:52:06 |
| DJ2DS-15 | 4 | 2026-09-02 12:42:55 | 2026-09-02 12:47:18 |
| DB0UT-9 | 4 | 2026-09-02 13:00:46 | 2026-09-02 13:02:28 |
| DF7PN | 4 | 2026-09-02 13:01:38 | 2026-09-02 13:03:12 |
| AM1SDL-15 | 3 | 2026-09-02 11:16:51 | 2026-09-02 11:19:24 |
| DM0DOS-11 | 3 | 2026-09-02 11:21:07 | 2026-09-02 12:57:44 |
| DL2RXE-15 | 2 | 2026-09-02 12:10:11 | 2026-09-02 12:11:49 |
| SFWM-10 | 2 | 2026-09-02 12:32:48 | 2026-09-02 12:33:08 |
| DM7RM-13 | 2 | 2026-09-02 13:01:09 | 2026-09-02 13:01:28 |
| DH8WE-5 | 1 | 2026-09-02 11:11:37 | 2026-09-02 11:11:37 |
| DG1MFX-10 | 1 | 2026-09-02 11:19:09 | 2026-09-02 11:19:09 |
| BIOWL9-15 | 1 | 2026-09-02 12:58:01 | 2026-09-02 12:58:01 |
| DL9SK-14 | 1 | 2026-09-02 13:01:54 | 2026-09-02 13:01:54 |
| DB0UT-7 | 1 | 2026-09-02 13:02:11 | 2026-09-02 13:02:11 |
| Receiver | Date | Latitude | Longitude | Direction | Speed | Altitude | Climb | Temperature | Humidity | Pressure | Voltage | Killtimer | Uptime | BKT | XDATA |
|---|---|---|---|---|---|---|---|---|---|---|---|---|---|---|---|
| DO3MHA-11 | 2026-09-02 13:17:51 | 49.35891 | 13.19551 | 94° | 18km/h | 1588m | -6.5m/s | 0°C | 0% | 850.8hPa | 2.7V | 00:00:00 | 02:34:50 | 00:00:00 | |
| DO3MHA-11 | 2026-09-02 13:17:46 | 49.35895 | 13.19514 | 100° | 22km/h | 1622m | -6.0m/s | 0°C | 0% | 847.1hPa | 2.7V | 00:00:00 | 02:34:45 | 00:00:00 | |
| DO3MHA-11 | 2026-09-02 13:17:40 | 49.35899 | 13.19467 | 107° | 20km/h | 1659m | -6.1m/s | 0°C | 0% | 843.3hPa | 2.7V | 02:50:00 | 02:34:39 | 00:00:00 | |
| DO3MHA-11 | 2026-09-02 13:17:35 | 49.35910 | 13.19430 | 117° | 18km/h | 1691m | -6.3m/s | 0°C | 0% | 840.0hPa | 2.6V | 00:00:00 | 02:34:34 | 00:00:00 | |
| DO3MHA-11 | 2026-09-02 13:17:30 | 49.35919 | 13.19398 | 112° | 16km/h | 1726m | -8.0m/s | 0°C | 0% | 836.8hPa | 2.6V | 00:00:00 | 02:34:29 | 00:00:00 | |
| DO3MHA-11 | 2026-09-02 13:17:25 | 49.35926 | 13.19367 | 107° | 18km/h | 1762m | -7.1m/s | 0°C | 0% | 832.8hPa | 2.6V | 02:50:00 | 02:34:24 | 00:00:00 | |
| DO3MHA-11 | 2026-09-02 13:17:20 | 49.35933 | 13.19336 | 111° | 15km/h | 1796m | -7.0m/s | 0°C | 0% | 829.5hPa | 2.7V | 00:00:00 | 02:34:19 | 00:00:00 | |
| DO3MHA-11 | 2026-09-02 13:17:15 | 49.35940 | 13.19307 | 110° | 18km/h | 1840m | -11.4m/s | 0°C | 0% | 825.7hPa | 2.7V | 00:00:00 | 02:34:14 | 00:00:00 | |
| DO3MHA-11 | 2026-09-02 13:17:10 | 49.35946 | 13.19271 | 104° | 20km/h | 1882m | -7.8m/s | 0°C | 0% | 821.1hPa | 2.7V | 02:50:00 | 02:34:09 | 00:00:00 | |
| DO3MHA-11 | 2026-09-02 13:17:05 | 49.35951 | 13.19234 | 96° | 16km/h | 1921m | -7.5m/s | 0°C | 0% | 817.2hPa | 2.7V | 00:00:00 | 02:34:04 | 00:00:00 | |
| DO3MHA-11 | 2026-09-02 13:17:00 | 49.35952 | 13.19201 | 94° | 22km/h | 1955m | -7.4m/s | 0°C | 0% | 813.8hPa | 2.7V | 00:00:00 | 02:33:59 | 00:00:00 | |
| DO3MHA-11 | 2026-09-02 13:16:55 | 49.35954 | 13.19159 | 88° | 22km/h | 1990m | -7.4m/s | 0°C | 0% | 810.3hPa | 2.7V | 02:50:00 | 02:33:54 | 00:00:00 | |
| DO3MHA-11 | 2026-09-02 13:16:50 | 49.35954 | 13.19115 | 95° | 27km/h | 2023m | -6.4m/s | 0°C | 0% | 807.0hPa | 2.7V | 00:00:00 | 02:33:49 | 00:00:00 | |
| DO3MHA-11 | 2026-09-02 13:16:45 | 49.35955 | 13.19061 | 91° | 26km/h | 2054m | -6.2m/s | 0°C | 0% | 804.2hPa | 2.7V | 00:00:00 | 02:33:44 | 00:00:00 | |
| DO3MHA-11 | 2026-09-02 13:16:40 | 49.35956 | 13.19010 | 92° | 29km/h | 2085m | -7.2m/s | 0°C | 0% | 801.1hPa | 2.7V | 02:51:00 | 02:33:39 | 00:00:00 | |
| DO3MHA-11 | 2026-09-02 13:16:35 | 49.35956 | 13.18953 | 93° | 29km/h | 2120m | -6.8m/s | 0°C | 0% | 797.7hPa | 2.7V | 00:00:00 | 02:33:34 | 00:00:00 | |
| DO3MHA-11 | 2026-09-02 13:16:30 | 49.35958 | 13.18896 | 93° | 29km/h | 2151m | -6.5m/s | 0°C | 0% | 794.6hPa | 2.7V | 00:00:00 | 02:33:29 | 00:00:00 | |
| DO3MHA-11 | 2026-09-02 13:16:25 | 49.35958 | 13.18839 | 89° | 29km/h | 2185m | -7.0m/s | 0°C | 0% | 791.5hPa | 2.7V | 02:51:00 | 02:33:24 | 00:00:00 | |
| DO3MHA-11 | 2026-09-02 13:16:20 | 49.35958 | 13.18782 | 92° | 27km/h | 2217m | -5.9m/s | 0°C | 0% | 788.1hPa | 2.7V | 00:00:00 | 02:33:19 | 00:00:00 | |
| DO3MHA-11 | 2026-09-02 13:16:15 | 49.35960 | 13.18728 | 92° | 27km/h | 2249m | -5.8m/s | 0°C | 0% | 785.2hPa | 2.7V | 00:00:00 | 02:33:14 | 00:00:00 | |
| DO3MHA-11 | 2026-09-02 13:16:10 | 49.35960 | 13.18673 | 88° | 31km/h | 2282m | -7.1m/s | 0°C | 0% | 782.1hPa | 2.7V | 02:51:00 | 02:33:09 | 00:00:00 | |
| DO3MHA-11 | 2026-09-02 13:16:05 | 49.35957 | 13.18614 | 82° | 27km/h | 2314m | -8.0m/s | 0°C | 0% | 778.9hPa | 2.7V | 00:00:00 | 02:33:04 | 00:00:00 | |
| DO3MHA-11 | 2026-09-02 13:16:00 | 49.35952 | 13.18561 | 82° | 29km/h | 2349m | -7.6m/s | 0°C | 0% | 775.7hPa | 2.7V | 00:00:00 | 02:32:59 | 00:00:00 | |
| DO3MHA-11 | 2026-09-02 13:15:55 | 49.35945 | 13.18507 | 78° | 26km/h | 2389m | -8.7m/s | 0°C | 0% | 772.1hPa | 2.7V | 02:51:00 | 02:32:54 | 00:00:00 | |
| DO3MHA-11 | 2026-09-02 13:15:50 | 49.35937 | 13.18459 | 73° | 26km/h | 2431m | -8.4m/s | 0°C | 0% | 768.0hPa | 2.6V | 00:00:00 | 02:32:49 | 00:00:00 | |
| DO3MHA-11 | 2026-09-02 13:15:45 | 49.35927 | 13.18414 | 74° | 26km/h | 2470m | -8.1m/s | 0°C | 0% | 764.4hPa | 2.6V | 00:00:00 | 02:32:44 | 00:00:00 | |
| DO3MHA-11 | 2026-09-02 13:15:40 | 49.35919 | 13.18364 | 76° | 29km/h | 2508m | -6.5m/s | 0°C | 0% | 760.8hPa | 2.6V | 02:52:00 | 02:32:39 | 00:00:00 | |
| DO3MHA-11 | 2026-09-02 13:15:35 | 49.35907 | 13.18310 | 74° | 29km/h | 2539m | -6.5m/s | 0°C | 0% | 757.8hPa | 2.7V | 00:00:00 | 02:32:34 | 00:00:00 | |
| DO3MHA-11 | 2026-09-02 13:15:30 | 49.35898 | 13.18254 | 79° | 31km/h | 2571m | -6.2m/s | 0°C | 0% | 755.0hPa | 2.7V | 00:00:00 | 02:32:29 | 00:00:00 | |
| DO3MHA-11 | 2026-09-02 13:15:25 | 49.35889 | 13.18195 | 76° | 31km/h | 2606m | -8.5m/s | 0°C | 0% | 751.7hPa | 2.7V | 02:52:00 | 02:32:24 | 00:00:00 | |
| DO3MHA-11 | 2026-09-02 13:15:20 | 49.35881 | 13.18136 | 82° | 31km/h | 2640m | -7.3m/s | 0°C | 0% | 748.7hPa | 2.7V | 00:00:00 | 02:32:19 | 00:00:00 | |
| DO3MHA-11 | 2026-09-02 13:15:15 | 49.35873 | 13.18077 | 80° | 31km/h | 2676m | -8.3m/s | 0°C | 0% | 745.3hPa | 2.7V | 00:00:00 | 02:32:14 | 00:00:00 | |
| DO3MHA-11 | 2026-09-02 13:15:10 | 49.35867 | 13.18017 | 79° | 31km/h | 2710m | -6.8m/s | 0°C | 0% | 742.1hPa | 2.7V | 02:52:00 | 02:32:09 | 00:00:00 | |
| DO3MHA-11 | 2026-09-02 13:15:05 | 49.35859 | 13.17960 | 78° | 33km/h | 2741m | -5.7m/s | 0°C | 0% | 739.2hPa | 2.7V | 00:00:00 | 02:32:04 | 00:00:00 | |
| DO3MHA-11 | 2026-09-02 13:15:00 | 49.35849 | 13.17898 | 75° | 31km/h | 2770m | -5.5m/s | 0°C | 0% | 736.5hPa | 2.7V | 00:00:00 | 02:31:59 | 00:00:00 | |
| DO3MHA-11 | 2026-09-02 13:14:55 | 49.35838 | 13.17842 | 72° | 31km/h | 2798m | -5.2m/s | 0°C | 0% | 733.9hPa | 2.7V | 02:52:00 | 02:31:54 | 00:00:00 | |
| DO3MHA-11 | 2026-09-02 13:14:50 | 49.35825 | 13.17786 | 70° | 31km/h | 2825m | -6.7m/s | 0°C | 0% | 731.8hPa | 2.7V | 00:00:00 | 02:31:49 | 00:00:00 | |
| DO3MHA-11 | 2026-09-02 13:14:45 | 49.35812 | 13.17727 | 70° | 33km/h | 2858m | -7.0m/s | 0°C | 0% | 728.7hPa | 2.7V | 00:00:00 | 02:31:44 | 00:00:00 | |
| DO3MHA-11 | 2026-09-02 13:14:40 | 49.35798 | 13.17667 | 72° | 31km/h | 2897m | -8.4m/s | 0°C | 0% | 725.4hPa | 2.7V | 02:53:00 | 02:31:39 | 00:00:00 | |
| DO3MHA-11 | 2026-09-02 13:14:35 | 49.35786 | 13.17608 | 75° | 31km/h | 2945m | -9.8m/s | 0°C | 0% | 720.5hPa | 2.6V | 00:00:00 | 02:31:34 | 00:00:00 | |
| DO3MHA-11 | 2026-09-02 13:14:30 | 49.35777 | 13.17550 | 78° | 31km/h | 2981m | -6.5m/s | 0°C | 0% | 718.1hPa | 2.6V | 00:00:00 | 02:31:29 | 00:00:00 | |
| DO3MHA-11 | 2026-09-02 13:14:25 | 49.35768 | 13.17490 | 77° | 33km/h | 3013m | -7.1m/s | 0°C | 0% | 715.3hPa | 2.6V | 02:53:00 | 02:31:24 | 00:00:00 | |
| DO3MHA-11 | 2026-09-02 13:14:20 | 49.35761 | 13.17429 | 81° | 33km/h | 3046m | -6.3m/s | 0°C | 0% | 712.2hPa | 2.7V | 00:00:00 | 02:31:19 | 00:00:00 | |
| DO3MHA-11 | 2026-09-02 13:14:15 | 49.35753 | 13.17366 | 81° | 33km/h | 3081m | -7.2m/s | 0°C | 0% | 709.2hPa | 2.7V | 00:00:00 | 02:31:14 | 00:00:00 | |
| DO3MHA-11 | 2026-09-02 13:14:10 | 49.35747 | 13.17304 | 84° | 33km/h | 3114m | -5.8m/s | 0°C | 0% | 705.9hPa | 2.7V | 02:53:00 | 02:31:09 | 00:00:00 | |
| DO3MHA-11 | 2026-09-02 13:14:05 | 49.35742 | 13.17242 | 82° | 35km/h | 3149m | -7.4m/s | 0°C | 0% | 703.0hPa | 2.6V | 00:00:00 | 02:31:04 | 00:00:00 | |
| DO3MHA-11 | 2026-09-02 13:14:00 | 49.35734 | 13.17177 | 80° | 35km/h | 3185m | -7.7m/s | 0°C | 0% | 700.0hPa | 2.6V | 00:00:00 | 02:30:59 | 00:00:00 | |
| DO3MHA-11 | 2026-09-02 13:13:55 | 49.35727 | 13.17110 | 78° | 35km/h | 3222m | -7.4m/s | 0°C | 0% | 696.6hPa | 2.6V | 02:53:00 | 02:30:54 | 00:00:00 | |
| DO3MHA-11 | 2026-09-02 13:13:50 | 49.35715 | 13.17045 | 74° | 33km/h | 3259m | -7.7m/s | 0°C | 0% | 693.4hPa | 2.7V | 00:00:00 | 02:30:49 | 00:00:00 | |
| DO3MHA-11 | 2026-09-02 13:13:45 | 49.35704 | 13.16983 | 78° | 33km/h | 3299m | -7.9m/s | 0°C | 0% | 690.1hPa | 2.7V | 00:00:00 | 02:30:44 | 00:00:00 | |
| DO3MHA-11 | 2026-09-02 13:13:40 | 49.35694 | 13.16920 | 74° | 33km/h | 3339m | -8.7m/s | 0°C | 0% | 686.7hPa | 2.7V | 02:54:00 | 02:30:39 | 00:00:00 | |
| DO3MHA-11 | 2026-09-02 13:13:35 | 49.35682 | 13.16857 | 73° | 37km/h | 3382m | -7.4m/s | 0°C | 0% | 682.8hPa | 2.6V | 00:00:00 | 02:30:34 | 00:00:00 | |
| NBG1-10 | 2026-09-02 13:13:34 | 49.35680 | 13.16844 | 75° | 40km/h | 3390m | -8.4m/s | 0°C | 0% | 682.3hPa | 2.6V | 00:00:00 | 02:30:33 | 00:00:00 | |
| DO3MHA-11 | 2026-09-02 13:13:30 | 49.35669 | 13.16789 | 73° | 38km/h | 3422m | -7.6m/s | 0°C | 0% | 679.4hPa | 2.6V | 00:00:00 | 02:30:29 | 00:00:00 | |
| DO3MHA-11 | 2026-09-02 13:13:25 | 49.35655 | 13.16719 | 74° | 38km/h | 3461m | -8.6m/s | 0°C | 0% | 676.4hPa | 2.6V | 02:54:00 | 02:30:24 | 00:00:00 | |
| DO3MHA-11 | 2026-09-02 13:13:20 | 49.35641 | 13.16646 | 75° | 37km/h | 3499m | -7.5m/s | 0°C | 0% | 673.1hPa | 2.7V | 00:00:00 | 02:30:19 | 00:00:00 | |
| DO3MHA-11 | 2026-09-02 13:13:15 | 49.35628 | 13.16577 | 75° | 40km/h | 3535m | -7.5m/s | 0°C | 0% | 669.9hPa | 2.7V | 00:00:00 | 02:30:14 | 00:00:00 | |
| DO3MHA-11 | 2026-09-02 13:13:10 | 49.35614 | 13.16501 | 74° | 42km/h | 3574m | -7.1m/s | 0°C | 0% | 666.6hPa | 2.7V | 02:54:00 | 02:30:09 | 00:00:00 | |
| DO3MHA-11 | 2026-09-02 13:13:05 | 49.35601 | 13.16422 | 79° | 42km/h | 3615m | -7.9m/s | 0°C | 0% | 663.4hPa | 2.7V | 00:00:00 | 02:30:04 | 00:00:00 | |
| DO3MHA-11 | 2026-09-02 13:13:00 | 49.35588 | 13.16342 | 77° | 42km/h | 3654m | -7.8m/s | 0°C | 0% | 660.1hPa | 2.7V | 00:00:00 | 02:29:59 | 00:00:00 | |
| NBG1-10 | 2026-09-02 13:12:59 | 49.35585 | 13.16327 | 76° | 44km/h | 3662m | -7.3m/s | 0°C | 0% | 659.4hPa | 2.7V | 02:54:00 | 02:29:58 | 00:00:00 | |
| DO3MHA-11 | 2026-09-02 13:12:55 | 49.35573 | 13.16264 | 73° | 42km/h | 3692m | -7.5m/s | 0°C | 0% | 656.9hPa | 2.6V | 02:54:00 | 02:29:54 | 00:00:00 | |
| DO3MHA-11 | 2026-09-02 13:12:50 | 49.35557 | 13.16187 | 72° | 42km/h | 3731m | -8.0m/s | 0°C | 0% | 653.7hPa | 2.7V | 00:00:00 | 02:29:49 | 00:00:00 | |
| DO3MHA-11 | 2026-09-02 13:12:45 | 49.35540 | 13.16108 | 71° | 44km/h | 3772m | -8.0m/s | 0°C | 0% | 650.4hPa | 2.7V | 00:00:00 | 02:29:44 | 00:00:00 | |
| DO3MHA-11 | 2026-09-02 13:12:40 | 49.35522 | 13.16030 | 73° | 44km/h | 3810m | -7.3m/s | 0°C | 0% | 647.1hPa | 2.7V | 02:55:00 | 02:29:39 | 00:00:00 | |
| DO3MHA-11 | 2026-09-02 13:12:35 | 49.35508 | 13.15947 | 77° | 46km/h | 3849m | -7.5m/s | 0°C | 0% | 643.9hPa | 2.7V | 00:00:00 | 02:29:34 | 00:00:00 | |
| DO3MHA-11 | 2026-09-02 13:12:30 | 49.35492 | 13.15864 | 73° | 44km/h | 3889m | -7.5m/s | 0°C | 0% | 640.7hPa | 2.7V | 00:00:00 | 02:29:29 | 00:00:00 | |
| NBG1-10 | 2026-09-02 13:12:26 | 49.35478 | 13.15799 | 72° | 44km/h | 3919m | -7.4m/s | 0°C | 0% | 638.4hPa | 2.7V | 00:00:00 | 02:29:25 | 00:00:00 | |
| DO3MHA-11 | 2026-09-02 13:12:25 | 49.35475 | 13.15784 | 72° | 44km/h | 3927m | -7.7m/s | 0°C | 0% | 637.7hPa | 2.7V | 02:55:00 | 02:29:24 | 00:00:00 | |
| DO3MHA-11 | 2026-09-02 13:12:20 | 49.35457 | 13.15705 | 72° | 44km/h | 3966m | -8.0m/s | 0°C | 0% | 634.8hPa | 2.7V | 00:00:00 | 02:29:19 | 00:00:00 | |
| DO3MHA-11 | 2026-09-02 13:12:15 | 49.35439 | 13.15623 | 74° | 46km/h | 4005m | -9.0m/s | 0°C | 0% | 631.5hPa | 2.7V | 00:00:00 | 02:29:14 | 00:00:00 | |
| DO3MHA-11 | 2026-09-02 13:12:10 | 49.35424 | 13.15540 | 74° | 44km/h | 4044m | -7.2m/s | 0°C | 0% | 628.5hPa | 2.7V | 02:55:00 | 02:29:09 | 00:00:00 | |
| DO3MHA-11 | 2026-09-02 13:12:05 | 49.35406 | 13.15459 | 73° | 44km/h | 4082m | -7.6m/s | 0°C | 0% | 625.4hPa | 2.7V | 00:00:00 | 02:29:04 | 00:00:00 | |
| DO3MHA-11 | 2026-09-02 13:12:00 | 49.35394 | 13.15375 | 80° | 46km/h | 4121m | -7.9m/s | 0°C | 0% | 622.2hPa | 2.7V | 00:00:00 | 02:28:59 | 00:00:00 | |
| DO3MHA-11 | 2026-09-02 13:11:55 | 49.35382 | 13.15290 | 76° | 46km/h | 4158m | -7.7m/s | 0°C | 0% | 619.2hPa | 2.7V | 02:55:00 | 02:28:54 | 00:00:00 | |
| NBG1-10 | 2026-09-02 13:11:53 | 49.35376 | 13.15255 | 77° | 44km/h | 4174m | -7.9m/s | 0°C | 0% | 618.0hPa | 2.6V | 00:00:00 | 02:28:52 | 00:00:00 | |
| DO3MHA-11 | 2026-09-02 13:11:50 | 49.35368 | 13.15202 | 78° | 46km/h | 4198m | -8.0m/s | 0°C | 0% | 616.1hPa | 2.6V | 00:00:00 | 02:28:49 | 00:00:00 | |
| DO3MHA-11 | 2026-09-02 13:11:45 | 49.35356 | 13.15115 | 77° | 44km/h | 4239m | -7.9m/s | 0°C | 0% | 612.9hPa | 2.6V | 00:00:00 | 02:28:44 | 00:00:00 | |
| DO3MHA-11 | 2026-09-02 13:11:40 | 49.35343 | 13.15034 | 78° | 44km/h | 4280m | -7.4m/s | 0°C | 0% | 609.7hPa | 2.6V | 02:56:00 | 02:28:39 | 00:00:00 | |
| DO3MHA-11 | 2026-09-02 13:11:35 | 49.35331 | 13.14949 | 78° | 46km/h | 4318m | -7.5m/s | 0°C | 0% | 606.6hPa | 2.6V | 00:00:00 | 02:28:34 | 00:00:00 | |
| DO3MHA-11 | 2026-09-02 13:11:30 | 49.35319 | 13.14865 | 77° | 42km/h | 4355m | -7.7m/s | 0°C | 0% | 603.7hPa | 2.6V | 00:00:00 | 02:28:29 | 00:00:00 | |
| DO3MHA-11 | 2026-09-02 13:11:25 | 49.35306 | 13.14785 | 77° | 42km/h | 4394m | -7.6m/s | 0°C | 0% | 600.7hPa | 2.6V | 02:56:00 | 02:28:24 | 00:00:00 | |
| OE5DRO-10 | 2026-09-02 13:11:23 | 49.35301 | 13.14753 | 76° | 44km/h | 4409m | -8.2m/s | 0°C | 0% | 599.6hPa | 2.6V | 00:00:00 | 00:00:00 | 00:00:00 | |
| DO3MHA-11 | 2026-09-02 13:11:20 | 49.35292 | 13.14706 | 74° | 44km/h | 4434m | -8.2m/s | 0°C | 0% | 597.7hPa | 2.6V | 00:00:00 | 02:28:19 | 00:00:00 | |
| DO3MHA-11 | 2026-09-02 13:11:15 | 49.35277 | 13.14626 | 76° | 44km/h | 4474m | -8.4m/s | 0°C | 0% | 594.6hPa | 2.6V | 00:00:00 | 02:28:14 | 00:00:00 | |
| DO3MHA-11 | 2026-09-02 13:11:10 | 49.35264 | 13.14545 | 76° | 44km/h | 4514m | -8.2m/s | 0°C | 0% | 591.6hPa | 2.6V | 02:56:00 | 02:28:09 | 00:00:00 | |
| OE5DRO-10 | 2026-09-02 13:11:07 | 49.35256 | 13.14497 | 76° | 46km/h | 4538m | -7.6m/s | 0°C | 0% | 589.8hPa | 2.7V | 02:56:00 | 00:00:00 | 00:00:00 | |
| DO3MHA-11 | 2026-09-02 13:11:05 | 49.35251 | 13.14464 | 77° | 44km/h | 4554m | -7.3m/s | 0°C | 0% | 588.6hPa | 2.6V | 00:00:00 | 02:28:04 | 00:00:00 | |
| DO3MHA-11 | 2026-09-02 13:11:00 | 49.35239 | 13.14380 | 81° | 46km/h | 4592m | -8.0m/s | 0°C | 0% | 585.7hPa | 2.6V | 00:00:00 | 02:27:59 | 00:00:00 | |
| DO3MHA-11 | 2026-09-02 13:10:55 | 49.35230 | 13.14292 | 82° | 46km/h | 4632m | -8.3m/s | 0°C | 0% | 582.6hPa | 2.6V | 02:56:00 | 02:27:54 | 00:00:00 | |
| DB0NH | 2026-09-02 13:10:53 | 49.35227 | 13.14257 | 81° | 51km/h | 4649m | -7.6m/s | 0°C | 0% | 581.4hPa | 2.7V | 00:00:00 | 02:27:52 | 00:00:00 | |
| OE5DRO-10 | 2026-09-02 13:10:51 | 49.35223 | 13.14221 | 83° | 49km/h | 4665m | -8.6m/s | 0°C | 0% | 580.3hPa | 2.7V | 00:00:00 | 00:00:00 | 00:00:00 | |
| DO3MHA-11 | 2026-09-02 13:10:50 | 49.35221 | 13.14203 | 84° | 47km/h | 4673m | -7.7m/s | 0°C | 0% | 579.6hPa | 2.7V | 00:00:00 | 02:27:49 | 00:00:00 | |
| NBG1-10 | 2026-09-02 13:10:47 | 49.35218 | 13.14148 | 86° | 51km/h | 4697m | -8.7m/s | 0°C | 0% | 577.9hPa | 2.7V | 00:00:00 | 02:27:46 | 00:00:00 | |
| DO3MHA-11 | 2026-09-02 13:10:45 | 49.35216 | 13.14110 | 86° | 49km/h | 4714m | -8.5m/s | 0°C | 0% | 576.6hPa | 2.7V | 00:00:00 | 02:27:44 | 00:00:00 | |
| DO3MHA-11 | 2026-09-02 13:10:40 | 49.35210 | 13.14014 | 87° | 49km/h | 4755m | -7.8m/s | 0°C | 0% | 573.7hPa | 2.7V | 02:57:00 | 02:27:39 | 00:00:00 | |
| DO3MHA-11 | 2026-09-02 13:10:35 | 49.35207 | 13.13920 | 90° | 51km/h | 4795m | -7.3m/s | 0°C | 0% | 570.7hPa | 2.5V | 00:00:00 | 02:27:34 | 00:00:00 | |
| DO3MHA-11 | 2026-09-02 13:10:30 | 49.35206 | 13.13821 | 88° | 53km/h | 4835m | -9.3m/s | 0°C | 0% | 567.8hPa | 2.5V | 00:00:00 | 02:27:29 | 00:00:00 | |
| DO3MHA-11 | 2026-09-02 13:10:25 | 49.35202 | 13.13720 | 86° | 53km/h | 4874m | -8.1m/s | 0°C | 0% | 564.8hPa | 2.5V | 02:57:00 | 02:27:24 | 00:00:00 | |
| DB0NH | 2026-09-02 13:10:23 | 49.35200 | 13.13680 | 86° | 53km/h | 4890m | -8.1m/s | 0°C | 0% | 563.8hPa | 2.7V | 00:00:00 | 02:27:22 | 00:00:00 | |
| DO3MHA-11 | 2026-09-02 13:10:20 | 49.35198 | 13.13617 | 87° | 55km/h | 4914m | -8.1m/s | 0°C | 0% | 562.0hPa | 2.7V | 00:00:00 | 02:27:19 | 00:00:00 | |
| OE5DRO-10 | 2026-09-02 13:10:19 | 49.35197 | 13.13596 | 87° | 53km/h | 4922m | -7.0m/s | 0°C | 0% | 561.3hPa | 2.7V | 02:57:00 | 00:00:00 | 00:00:00 | |
| DO3MHA-11 | 2026-09-02 13:10:15 | 49.35194 | 13.13513 | 87° | 55km/h | 4953m | -8.1m/s | 0°C | 0% | 559.1hPa | 2.5V | 00:00:00 | 02:27:14 | 00:00:00 | |
| NBG1-10 | 2026-09-02 13:10:14 | 49.35193 | 13.13492 | 86° | 51km/h | 4961m | -8.5m/s | 0°C | 0% | 558.5hPa | 2.5V | 00:00:00 | 02:27:13 | 00:00:00 | |
| DO3MHA-11 | 2026-09-02 13:10:10 | 49.35188 | 13.13409 | 83° | 51km/h | 4994m | -8.0m/s | 0°C | 0% | 556.2hPa | 2.5V | 02:57:00 | 02:27:09 | 00:00:00 | |
| DO3MHA-11 | 2026-09-02 13:10:04 | 49.35177 | 13.13292 | 82° | 49km/h | 5042m | -7.8m/s | 0°C | 0% | 552.7hPa | 2.7V | 00:00:00 | 02:27:03 | 00:00:00 | |
| OE5DRO-10 | 2026-09-02 13:10:03 | 49.35175 | 13.13273 | 83° | 51km/h | 5050m | -8.4m/s | 0°C | 0% | 552.1hPa | 2.7V | 00:00:00 | 00:00:00 | 00:00:00 | |
| DO3MHA-11 | 2026-09-02 13:09:54 | 49.35163 | 13.13101 | 83° | 53km/h | 5122m | -7.6m/s | 0°C | 0% | 546.9hPa | 2.7V | 00:00:00 | 02:26:53 | 00:00:00 | |
| DB0NH | 2026-09-02 13:09:53 | 49.35162 | 13.13081 | 82° | 55km/h | 5129m | -7.6m/s | 0°C | 0% | 546.3hPa | 2.7V | 02:57:00 | 02:26:52 | 00:00:00 | |
| OE5DRO-10 | 2026-09-02 13:09:47 | 49.35150 | 13.12958 | 84° | 55km/h | 5176m | -8.0m/s | 0°C | 0% | 543.1hPa | 2.5V | 00:00:00 | 00:00:00 | 00:00:00 | |
| DO3MHA-11 | 2026-09-02 13:09:44 | 49.35146 | 13.12895 | 86° | 55km/h | 5199m | -8.1m/s | 0°C | 0% | 541.4hPa | 2.5V | 02:58:00 | 02:26:43 | 00:00:00 | |
| NBG1-10 | 2026-09-02 13:09:41 | 49.35143 | 13.12834 | 86° | 57km/h | 5222m | -7.3m/s | 0°C | 0% | 539.7hPa | 2.7V | 02:58:00 | 02:26:40 | 00:00:00 | |
| DO3MHA-11 | 2026-09-02 13:09:34 | 49.35138 | 13.12686 | 86° | 57km/h | 5277m | -8.4m/s | 0°C | 0% | 535.9hPa | 2.5V | 00:00:00 | 02:26:33 | 00:00:00 | |
| OE5DRO-10 | 2026-09-02 13:09:31 | 49.35128 | 13.12555 | 84° | 58km/h | 5324m | -8.4m/s | 0°C | 0% | 532.6hPa | 2.5V | 02:58:00 | 00:00:00 | 00:00:00 | |
| DO3MHA-11 | 2026-09-02 13:09:24 | 49.35124 | 13.12470 | 87° | 57km/h | 5356m | -8.3m/s | 0°C | 0% | 530.4hPa | 2.7V | 00:00:00 | 02:26:23 | 00:00:00 | |
| DB0NH | 2026-09-02 13:09:23 | 49.35123 | 13.12448 | 89° | 58km/h | 5364m | -8.3m/s | 0°C | 0% | 529.9hPa | 2.7V | 00:00:00 | 02:26:22 | 00:00:00 | |
| DO3MHA-11 | 2026-09-02 13:09:14 | 49.35125 | 13.12250 | 94° | 58km/h | 5439m | -7.4m/s | 0°C | 0% | 524.5hPa | 2.7V | 02:58:00 | 02:26:13 | 00:00:00 | |
| OE5DRO-10 | 2026-09-02 13:09:10 | 49.35131 | 13.12114 | 94° | 58km/h | 5489m | -8.9m/s | 0°C | 0% | 521.3hPa | 2.5V | 00:00:00 | 00:00:00 | 00:00:00 | |
| NBG1-10 | 2026-09-02 13:09:07 | 49.35132 | 13.12092 | 94° | 58km/h | 5497m | -8.4m/s | 0°C | 0% | 520.6hPa | 2.5V | 00:00:00 | 02:26:06 | 00:00:00 | |
| DO3MHA-11 | 2026-09-02 13:09:04 | 49.35135 | 13.12025 | 96° | 58km/h | 5521m | -7.3m/s | 0°C | 0% | 519.1hPa | 2.5V | 00:00:00 | 02:26:03 | 00:00:00 | |
| DO3MHA-11 | 2026-09-02 13:08:54 | 49.35146 | 13.11802 | 97° | 58km/h | 5602m | -8.1m/s | 0°C | 0% | 513.5hPa | 2.5V | 00:00:00 | 02:25:53 | 00:00:00 | |
| DB0NH | 2026-09-02 13:08:53 | 49.35148 | 13.11780 | 98° | 58km/h | 5610m | -7.9m/s | 0°C | 0% | 513.0hPa | 2.5V | 00:00:00 | 02:25:52 | 00:00:00 | |
| DO3MHA-11 | 2026-09-02 13:08:44 | 49.35167 | 13.11578 | 100° | 60km/h | 5682m | -8.0m/s | 0°C | 0% | 508.1hPa | 2.5V | 02:59:00 | 02:25:43 | 00:00:00 | |
| DO3MHA-11 | 2026-09-02 13:08:34 | 49.35192 | 13.11345 | 101° | 58km/h | 5764m | -8.1m/s | 0°C | 0% | 502.6hPa | 2.5V | 00:00:00 | 02:25:33 | 00:00:00 | |
| DO3MHA-11 | 2026-09-02 13:08:24 | 49.35225 | 13.11124 | 103° | 57km/h | 5849m | -8.8m/s | 0°C | 0% | 496.9hPa | 2.5V | 00:00:00 | 02:25:23 | 00:00:00 | |
| DB0NH | 2026-09-02 13:08:23 | 49.35228 | 13.11102 | 102° | 53km/h | 5856m | -6.1m/s | 0°C | 0% | 496.3hPa | 2.5V | 02:59:00 | 02:25:22 | 00:00:00 | |
| OE5DRO-10 | 2026-09-02 13:08:15 | 49.35258 | 13.10913 | 105° | 53km/h | 5936m | -9.0m/s | 0°C | 0% | 491.2hPa | 2.5V | 00:00:00 | 00:00:00 | 00:00:00 | |
| DO3MHA-11 | 2026-09-02 13:08:14 | 49.35258 | 13.10913 | 105° | 55km/h | 5936m | -9.0m/s | 0°C | 0% | 491.2hPa | 2.5V | 02:59:00 | 02:25:13 | 00:00:00 | |
| DO3MHA-11 | 2026-09-02 13:08:04 | 49.35290 | 13.10707 | 106° | 51km/h | 6027m | -9.4m/s | 0°C | 0% | 485.3hPa | 2.5V | 00:00:00 | 02:25:03 | 00:00:00 | |
| NBG1-10 | 2026-09-02 13:08:01 | 49.35301 | 13.10649 | 105° | 53km/h | 6052m | -8.3m/s | 0°C | 0% | 483.7hPa | 2.5V | 02:59:00 | 02:25:00 | 00:00:00 | |
| OE5DRO-10 | 2026-09-02 13:07:56 | 49.35316 | 13.10535 | 101° | 53km/h | 6105m | -8.3m/s | 0°C | 0% | 480.1hPa | 2.5V | 00:00:00 | 00:00:00 | 00:00:00 | |
| OE5MMP-10 | 2026-09-02 13:07:54 | 49.35318 | 13.10516 | 101° | 53km/h | 6113m | -8.9m/s | 0°C | 0% | 479.6hPa | 2.5V | 00:00:00 | 02:24:53 | 00:00:00 | |
| DB0NH | 2026-09-02 13:07:53 | 49.35321 | 13.10497 | 102° | 57km/h | 6122m | -9.0m/s | 0°C | 0% | 479.0hPa | 2.5V | 00:00:00 | 02:24:52 | 00:00:00 | |
| DO3MHA-11 | 2026-09-02 13:07:44 | 49.35346 | 13.10321 | 103° | 57km/h | 6206m | -9.6m/s | 0°C | 0% | 473.6hPa | 2.5V | 00:00:00 | 02:24:43 | 00:00:00 | |
| OE5MMP-10 | 2026-09-02 13:07:40 | 49.35360 | 13.10238 | 105° | 58km/h | 6244m | -9.9m/s | 0°C | 0% | 471.1hPa | 2.5V | 00:00:00 | 02:24:39 | 00:00:00 | |
| OE5DRO-10 | 2026-09-02 13:07:38 | 49.35376 | 13.10153 | 108° | 58km/h | 6282m | -9.7m/s | 0°C | 0% | 468.7hPa | 2.5V | 00:00:00 | 00:00:00 | 00:00:00 | |
| DO3MHA-11 | 2026-09-02 13:07:34 | 49.35385 | 13.10111 | 109° | 58km/h | 6302m | -9.7m/s | 0°C | 0% | 467.6hPa | 2.6V | 00:00:00 | 02:24:33 | 00:00:00 | |
| DL6DJ-15 | 2026-09-02 13:07:33 | 49.35394 | 13.10068 | 107° | 58km/h | 6320m | -8.9m/s | 0°C | 100.0% | 466.4hPa | 2.6V | 00:00:00 | 00:00:00 | 00:00:00 | |
| OE5MMP-10 | 2026-09-02 13:07:30 | 49.35404 | 13.10025 | 109° | 58km/h | 6340m | -9.7m/s | 0°C | 0% | 465.2hPa | 2.6V | 00:00:00 | 02:24:29 | 00:00:00 | |
| NBG1-10 | 2026-09-02 13:07:28 | 49.35414 | 13.09982 | 109° | 60km/h | 6358m | -9.6m/s | 0°C | 0% | 464.1hPa | 2.6V | 03:00:00 | 02:24:27 | 00:00:00 | |
| DO3MHA-11 | 2026-09-02 13:07:24 | 49.35433 | 13.09895 | 109° | 60km/h | 6396m | -9.7m/s | 0°C | 0% | 461.6hPa | 2.6V | 00:00:00 | 02:24:23 | 00:00:00 | |
| DB0NH | 2026-09-02 13:07:22 | 49.35442 | 13.09852 | 110° | 60km/h | 6415m | -8.9m/s | 0°C | 0% | 460.5hPa | 2.6V | 00:00:00 | 02:24:21 | 00:00:00 | |
| OE5MMP-10 | 2026-09-02 13:07:20 | 49.35453 | 13.09809 | 112° | 60km/h | 6433m | -8.6m/s | 0°C | 0% | 459.4hPa | 2.6V | 00:00:00 | 02:24:19 | 00:00:00 | |
| OE5DRO-10 | 2026-09-02 13:07:18 | 49.35464 | 13.09766 | 111° | 60km/h | 6451m | -9.5m/s | 0°C | 0% | 458.3hPa | 2.6V | 00:00:00 | 00:00:00 | 00:00:00 | |
| DO3MHA-11 | 2026-09-02 13:07:14 | 49.35486 | 13.09680 | 112° | 60km/h | 6488m | -9.2m/s | 0°C | 0% | 456.0hPa | 2.6V | 03:00:00 | 02:24:13 | 00:00:00 | |
| DO3MHA-11 | 2026-09-02 13:07:04 | 49.35540 | 13.09462 | 110° | 62km/h | 6582m | -9.6m/s | 0°C | 0% | 450.3hPa | 2.5V | 00:00:00 | 02:24:03 | 00:00:00 | |
| DL6DJ-15 | 2026-09-02 13:07:02 | 49.35551 | 13.09416 | 110° | 62km/h | 6600m | -9.8m/s | 0°C | 100.0% | 449.2hPa | 2.5V | 00:00:00 | 00:00:00 | 00:00:00 | |
| OE5DRO-10 | 2026-09-02 13:06:59 | 49.35569 | 13.09349 | 114° | 64km/h | 6628m | -8.7m/s | 0°C | 0% | 447.4hPa | 2.5V | 03:00:00 | 00:00:00 | 00:00:00 | |
| NBG1-10 | 2026-09-02 13:06:55 | 49.35594 | 13.09261 | 114° | 66km/h | 6667m | -8.8m/s | 0°C | 0% | 445.0hPa | 2.5V | 00:00:00 | 02:23:54 | 00:00:00 | |
| DO3MHA-11 | 2026-09-02 13:06:54 | 49.35600 | 13.09240 | 113° | 64km/h | 6676m | -8.8m/s | 0°C | 0% | 444.5hPa | 2.5V | 00:00:00 | 02:23:53 | 00:00:00 | |
| OE5MMP-10 | 2026-09-02 13:06:50 | 49.35623 | 13.09149 | 112° | 66km/h | 6712m | -9.9m/s | 0°C | 0% | 442.4hPa | 2.5V | 03:01:00 | 02:23:49 | 00:00:00 | |
| DO3MHA-11 | 2026-09-02 13:06:44 | 49.35658 | 13.09009 | 112° | 66km/h | 6770m | -9.8m/s | 0°C | 0% | 438.9hPa | 2.6V | 00:00:00 | 02:23:43 | 00:00:00 | |
| OE5DRO-10 | 2026-09-02 13:06:40 | 49.35680 | 13.08913 | 110° | 66km/h | 6810m | -10.7m/s | 0°C | 0% | 436.6hPa | 2.5V | 00:00:00 | 00:00:00 | 00:00:00 | |
| OE5MMP-10 | 2026-09-02 13:06:37 | 49.35697 | 13.08840 | 110° | 68km/h | 6840m | -10.3m/s | 0°C | 0% | 434.8hPa | 2.6V | 00:00:00 | 02:23:36 | 00:00:00 | |
| DO3MHA-11 | 2026-09-02 13:06:34 | 49.35713 | 13.08765 | 109° | 68km/h | 6871m | -11.1m/s | 0°C | 0% | 432.9hPa | 2.6V | 03:01:00 | 02:23:33 | 00:00:00 | |
| OE5DXL-15 | 2026-09-02 13:06:32 | 49.35724 | 13.08716 | 109° | 66km/h | 6894m | -10.5m/s | 0°C | 0% | 431.7hPa | 2.6V | 00:00:00 | 00:00:00 | 00:00:00 | |
| DL6DJ-15 | 2026-09-02 13:06:31 | 49.35729 | 13.08691 | 109° | 66km/h | 6904m | -10.7m/s | 0°C | 100.0% | 431.0hPa | 2.6V | 00:00:00 | 00:00:00 | 00:00:00 | |
| OE5MMP-10 | 2026-09-02 13:06:27 | 49.35751 | 13.08593 | 109° | 66km/h | 6942m | -9.5m/s | 0°C | 0% | 428.6hPa | 2.6V | 00:00:00 | 02:23:26 | 00:00:00 | |
| DO3MHA-11 | 2026-09-02 13:06:24 | 49.35767 | 13.08520 | 109° | 66km/h | 6971m | -10.3m/s | 0°C | 0% | 427.0hPa | 2.6V | 00:00:00 | 02:23:23 | 00:00:00 | |
| NBG1-10 | 2026-09-02 13:06:22 | 49.35777 | 13.08473 | 108° | 66km/h | 6991m | -9.9m/s | 0°C | 0% | 425.9hPa | 2.6V | 00:00:00 | 02:23:21 | 00:00:00 | |
| OE5DRO-10 | 2026-09-02 13:06:21 | 49.35782 | 13.08449 | 109° | 66km/h | 7000m | -9.8m/s | 0°C | 0% | 425.3hPa | 2.6V | 00:00:00 | 00:00:00 | 00:00:00 | |
| OE5MMP-10 | 2026-09-02 13:06:17 | 49.35803 | 13.08352 | 108° | 66km/h | 7041m | -9.8m/s | 0°C | 0% | 423.0hPa | 2.6V | 00:00:00 | 02:23:16 | 00:00:00 | |
| DO3MHA-11 | 2026-09-02 13:06:14 | 49.35817 | 13.08278 | 105° | 66km/h | 7070m | -10.8m/s | 0°C | 0% | 421.3hPa | 2.5V | 00:00:00 | 02:23:13 | 00:00:00 | |
| DO3MHA-11 | 2026-09-02 13:06:04 | 49.35858 | 13.08030 | 104° | 66km/h | 7170m | -10.0m/s | 0°C | 0% | 415.5hPa | 2.6V | 00:00:00 | 02:23:03 | 00:00:00 | |
| DL6DJ-15 | 2026-09-02 13:06:00 | 49.35918 | 13.07715 | 109° | 66km/h | 7302m | -9.7m/s | 0°C | 100.0% | 408.2hPa | 2.6V | 00:00:00 | 00:00:00 | 00:00:00 | |
| OE5MMP-10 | 2026-09-02 13:05:57 | 49.35888 | 13.07860 | 106° | 66km/h | 7240m | -10.3m/s | 0°C | 0% | 411.5hPa | 2.6V | 00:00:00 | 02:22:56 | 00:00:00 | |
| DB0NH | 2026-09-02 13:05:56 | 49.35893 | 13.07836 | 108° | 68km/h | 7251m | -10.6m/s | 0°C | 0% | 411.0hPa | 2.6V | 00:00:00 | 02:22:55 | 00:00:00 | |
| NBG1-10 | 2026-09-02 13:05:49 | 49.35929 | 13.07667 | 111° | 69km/h | 7323m | -11.1m/s | 0°C | 0% | 406.9hPa | 2.5V | 00:00:00 | 02:22:48 | 00:00:00 | |
| OE5MMP-10 | 2026-09-02 13:05:47 | 49.35940 | 13.07618 | 110° | 66km/h | 7343m | -10.2m/s | 0°C | 0% | 405.7hPa | 2.5V | 00:00:00 | 02:22:46 | 00:00:00 | |
| DO3MHA-11 | 2026-09-02 13:05:44 | 49.35957 | 13.07547 | 111° | 68km/h | 7373m | -9.8m/s | 0°C | 0% | 404.1hPa | 2.5V | 00:00:00 | 02:22:43 | 00:00:00 | |
| OE5DRO-10 | 2026-09-02 13:05:43 | 49.35963 | 13.07523 | 111° | 68km/h | 7383m | -10.3m/s | 0°C | 0% | 403.5hPa | 2.5V | 03:02:00 | 00:00:00 | 00:00:00 | |
| OE5MMP-10 | 2026-09-02 13:05:37 | 49.35997 | 13.07377 | 112° | 68km/h | 7446m | -10.0m/s | 0°C | 0% | 399.9hPa | 2.5V | 00:00:00 | 02:22:36 | 00:00:00 | |
| DO3MHA-11 | 2026-09-02 13:05:34 | 49.36016 | 13.07303 | 111° | 68km/h | 7475m | -10.1m/s | 0°C | 0% | 398.2hPa | 2.5V | 00:00:00 | 02:22:33 | 00:00:00 | |
| DO8TBO-1 | 2026-09-02 13:05:31 | 49.36034 | 13.07230 | 112° | 73km/h | 7505m | -10.2m/s | 0°C | 0% | 396.5hPa | 2.5V | 00:00:00 | 02:22:30 | 00:00:00 | |
| DL6DJ-15 | 2026-09-02 13:05:29 | 49.36046 | 13.07182 | 110° | 68km/h | 7525m | -10.5m/s | 0°C | 100.0% | 395.5hPa | 2.6V | 00:00:00 | 00:00:00 | 00:00:00 | |
| OE5MMP-10 | 2026-09-02 13:05:27 | 49.36059 | 13.07133 | 113° | 73km/h | 7547m | -11.3m/s | 0°C | 0% | 394.2hPa | 2.6V | 03:02:00 | 02:22:26 | 00:00:00 | |
| DB0NH | 2026-09-02 13:05:25 | 49.36072 | 13.07083 | 113° | 73km/h | 7569m | -11.1m/s | 0°C | 0% | 393.0hPa | 2.6V | 03:02:00 | 02:22:24 | 00:00:00 | |
| DO3MHA-11 | 2026-09-02 13:05:24 | 49.36079 | 13.07057 | 113° | 73km/h | 7580m | -11.2m/s | 0°C | 0% | 392.4hPa | 2.6V | 00:00:00 | 02:22:23 | 00:00:00 | |
| OE5MMP-10 | 2026-09-02 13:05:17 | 49.36128 | 13.06874 | 113° | 75km/h | 7655m | -10.9m/s | 0°C | 0% | 388.3hPa | 2.6V | 00:00:00 | 02:22:16 | 00:00:00 | |
| NBG1-10 | 2026-09-02 13:05:16 | 49.36136 | 13.06848 | 114° | 75km/h | 7666m | -10.9m/s | 0°C | 0% | 387.7hPa | 2.5V | 03:02:00 | 02:22:15 | 00:00:00 | |
| DO3MHA-11 | 2026-09-02 13:05:14 | 49.36151 | 13.06795 | 113° | 77km/h | 7687m | -10.3m/s | 0°C | 0% | 386.4hPa | 2.5V | 03:02:00 | 02:22:13 | 00:00:00 | |
| OE5MMP-10 | 2026-09-02 13:05:07 | 49.36199 | 13.06602 | 112° | 77km/h | 7763m | -11.4m/s | 0°C | 0% | 382.4hPa | 2.5V | 00:00:00 | 02:22:06 | 00:00:00 | |
| OE5DRO-10 | 2026-09-02 13:05:05 | 49.36213 | 13.06546 | 111° | 75km/h | 7786m | -11.9m/s | 0°C | 0% | 381.3hPa | 2.5V | 00:00:00 | 00:00:00 | 00:00:00 | |
| DO3MHA-11 | 2026-09-02 13:05:04 | 49.36220 | 13.06518 | 111° | 77km/h | 7797m | -11.6m/s | 0°C | 0% | 380.6hPa | 2.5V | 00:00:00 | 02:22:03 | 00:00:00 | |
| DL6DJ-15 | 2026-09-02 13:04:58 | 49.36256 | 13.06349 | 106° | 75km/h | 7864m | -11.1m/s | 0°C | 100.0% | 377.1hPa | 2.5V | 00:00:00 | 00:00:00 | 00:00:00 | |
| OE5MMP-10 | 2026-09-02 13:04:57 | 49.36262 | 13.06320 | 107° | 75km/h | 7875m | -10.1m/s | 0°C | 0% | 376.4hPa | 2.5V | 00:00:00 | 02:21:56 | 00:00:00 | |
| DB0NH | 2026-09-02 13:04:55 | 49.36273 | 13.06264 | 107° | 75km/h | 7896m | -11.6m/s | 0°C | 0% | 375.3hPa | 2.5V | 00:00:00 | 02:21:54 | 00:00:00 | |
| DO3MHA-11 | 2026-09-02 13:04:54 | 49.36278 | 13.06237 | 107° | 75km/h | 7907m | -11.2m/s | 0°C | 0% | 374.8hPa | 2.5V | 00:00:00 | 02:21:53 | 00:00:00 | |
| OE5MMP-10 | 2026-09-02 13:04:47 | 49.36317 | 13.06042 | 109° | 75km/h | 7987m | -10.9m/s | 0°C | 0% | 370.5hPa | 2.5V | 03:03:00 | 02:21:46 | 00:00:00 | |
| OE5DRO-10 | 2026-09-02 13:04:46 | 49.36323 | 13.06015 | 110° | 75km/h | 7997m | -10.3m/s | 0°C | 0% | 369.9hPa | 2.5V | 00:00:00 | 00:00:00 | 00:00:00 | |
| DO3MHA-11 | 2026-09-02 13:04:44 | 49.36335 | 13.05960 | 110° | 73km/h | 8018m | -9.8m/s | 0°C | 0% | 368.8hPa | 2.6V | 00:00:00 | 02:21:43 | 00:00:00 | |
| NBG1-10 | 2026-09-02 13:04:43 | 49.36342 | 13.05933 | 110° | 77km/h | 8028m | -11.7m/s | 0°C | 0% | 368.3hPa | 2.5V | 00:00:00 | 02:21:42 | 00:00:00 | |
| DO3MHA-11 | 2026-09-02 13:04:34 | 49.36397 | 13.05689 | 109° | 77km/h | 8139m | -13.3m/s | 0°C | 0% | 362.8hPa | 2.6V | 03:03:00 | 02:21:33 | 00:00:00 | |
| OE5DXL-15 | 2026-09-02 13:04:31 | 49.36414 | 13.05606 | 106° | 78km/h | 8177m | -14.2m/s | 0°C | 0% | 360.8hPa | 2.6V | 00:00:00 | 02:21:30 | 00:00:00 | |
| DO8TBO-1 | 2026-09-02 13:04:29 | 49.36425 | 13.05549 | 107° | 78km/h | 8205m | -13.6m/s | 0°C | 0% | 359.5hPa | 2.6V | 00:00:00 | 02:21:28 | 00:00:00 | |
| PG1ADW-2 | 2026-09-02 13:04:27 | 49.36436 | 13.05492 | 108° | 78km/h | 8234m | -14.1m/s | 0°C | 0% | 358.0hPa | 2.6V | 03:03:00 | 00:00:00 | 00:00:00 | |
| DB0NH | 2026-09-02 13:04:25 | 49.36447 | 13.05434 | 108° | 78km/h | 8260m | -13.2m/s | 0°C | 0% | 356.6hPa | 2.6V | 00:00:00 | 02:21:24 | 00:00:00 | |
| DO3MHA-11 | 2026-09-02 13:04:24 | 49.36453 | 13.05406 | 107° | 78km/h | 8273m | -15.1m/s | 0°C | 0% | 356.0hPa | 2.5V | 00:00:00 | 02:21:23 | 00:00:00 | |
| OE5WHR-10 | 2026-09-02 13:04:21 | 49.36469 | 13.05319 | 107° | 78km/h | 8316m | -14.2m/s | 0°C | 0% | 353.8hPa | 2.5V | 00:00:00 | 02:21:20 | 00:00:00 | |
| DO3MHA-11 | 2026-09-02 13:04:14 | 49.36506 | 13.05113 | 105° | 78km/h | 8418m | -15.3m/s | 0°C | 0% | 348.7hPa | 2.5V | 00:00:00 | 02:21:13 | 00:00:00 | |
| OE5MMP-10 | 2026-09-02 13:04:11 | 49.36522 | 13.05025 | 107° | 78km/h | 8463m | -15.2m/s | 0°C | 0% | 346.3hPa | 2.5V | 00:00:00 | 02:21:10 | 00:00:00 | |
| NBG1-10 | 2026-09-02 13:04:10 | 49.36527 | 13.04995 | 106° | 78km/h | 8478m | -15.5m/s | 0°C | 0% | 345.6hPa | 2.5V | 00:00:00 | 02:21:09 | 00:00:00 | |
| PG1ADW-2 | 2026-09-02 13:04:07 | 49.36543 | 13.04907 | 105° | 78km/h | 8525m | -16.2m/s | 0°C | 0% | 343.4hPa | 2.5V | 00:00:00 | 00:00:00 | 00:00:00 | |
| DO3MHA-11 | 2026-09-02 13:04:04 | 49.36560 | 13.04819 | 107° | 78km/h | 8571m | -15.6m/s | 0°C | 0% | 341.0hPa | 2.6V | 00:00:00 | 02:21:03 | 00:00:00 | |
| DL6DJ-15 | 2026-09-02 13:03:56 | 49.36614 | 13.04560 | 109° | 75km/h | 8713m | -16.2m/s | 0°C | 100.0% | 334.1hPa | 2.6V | 00:00:00 | 00:00:00 | 00:00:00 | |
| EDDB2-12 | 2026-09-02 13:03:51 | 49.36638 | 13.04445 | 107° | 78km/h | 8778m | -16.3m/s | 0°C | 100.0% | 330.9hPa | 2.6V | 00:00:00 | 00:00:00 | 00:00:00 | |
| OE5MMP-10 | 2026-09-02 13:03:50 | 49.36645 | 13.04417 | 110° | 78km/h | 8794m | -16.0m/s | 0°C | 0% | 330.1hPa | 2.6V | 00:00:00 | 02:20:49 | 00:00:00 | |
| PG1ADW-2 | 2026-09-02 13:03:47 | 49.36664 | 13.04332 | 111° | 78km/h | 8843m | -17.0m/s | 0°C | 0% | 327.9hPa | 2.6V | 00:00:00 | 02:20:46 | 00:00:00 | |
| DO3MHA-11 | 2026-09-02 13:03:44 | 49.36683 | 13.04247 | 109° | 78km/h | 8892m | -15.8m/s | 0°C | 0% | 325.5hPa | 2.6V | 00:00:00 | 02:20:43 | 00:00:00 | |
| OE5MMP-10 | 2026-09-02 13:03:40 | 49.36708 | 13.04132 | 109° | 78km/h | 8954m | -15.6m/s | 0°C | 0% | 322.6hPa | 2.6V | 03:04:00 | 02:20:39 | 00:00:00 | |
| EDDB2-11 | 2026-09-02 13:03:39 | 49.36719 | 13.04075 | 108° | 77km/h | 8986m | -15.3m/s | 0°C | 100.0% | 321.1hPa | 2.6V | 00:00:00 | 00:00:00 | 00:00:00 | |
| SONDE2-11 | 2026-09-02 13:03:38 | 49.36719 | 13.04075 | 108° | 77km/h | 8986m | -15.3m/s | 0°C | 100.0% | 321.1hPa | 2.6V | 00:00:00 | 00:00:00 | 00:00:00 | |
| OE5DRO-10 | 2026-09-02 13:03:37 | 49.36731 | 13.04017 | 107° | 78km/h | 9018m | -16.5m/s | 0°C | 0% | 319.7hPa | 2.6V | 00:00:00 | 00:00:00 | 00:00:00 | |
| DO3MHA-11 | 2026-09-02 13:03:34 | 49.36742 | 13.03958 | 106° | 78km/h | 9050m | -16.6m/s | 0°C | 0% | 318.2hPa | 2.5V | 00:00:00 | 02:20:33 | 00:00:00 | |
| OE5MMP-10 | 2026-09-02 13:03:30 | 49.36765 | 13.03842 | 108° | 78km/h | 9116m | -14.9m/s | 0°C | 0% | 315.1hPa | 2.5V | 00:00:00 | 02:20:29 | 00:00:00 | |
| DO8TBO-1 | 2026-09-02 13:03:29 | 49.36771 | 13.03813 | 106° | 77km/h | 9132m | -16.9m/s | 0°C | 0% | 314.5hPa | 2.5V | 00:00:00 | 02:20:28 | 00:00:00 | |
| PG1ADW-2 | 2026-09-02 13:03:27 | 49.36782 | 13.03755 | 107° | 78km/h | 9164m | -15.8m/s | 0°C | 0% | 312.9hPa | 2.5V | 00:00:00 | 00:00:00 | 00:00:00 | |
| DL6DJ-15 | 2026-09-02 13:03:25 | 49.36799 | 13.03668 | 104° | 77km/h | 9212m | -16.3m/s | 0°C | 100.0% | 310.8hPa | 2.5V | 00:00:00 | 00:00:00 | 00:00:00 | |
| DO3MHA-11 | 2026-09-02 13:03:24 | 49.36799 | 13.03668 | 105° | 78km/h | 9212m | -16.3m/s | 0°C | 0% | 310.7hPa | 2.5V | 00:00:00 | 02:20:23 | 00:00:00 | |
| OE5MMP-10 | 2026-09-02 13:03:20 | 49.36821 | 13.03551 | 107° | 78km/h | 9275m | -15.4m/s | 0°C | 0% | 307.8hPa | 2.5V | 00:00:00 | 02:20:19 | 00:00:00 | |
| OE5DRO-10 | 2026-09-02 13:03:17 | 49.36838 | 13.03464 | 108° | 77km/h | 9321m | -16.4m/s | 0°C | 0% | 305.7hPa | 2.6V | 00:00:00 | 00:00:00 | 00:00:00 | |
| DO3MHA-11 | 2026-09-02 13:03:14 | 49.36855 | 13.03377 | 106° | 77km/h | 9370m | -15.5m/s | 0°C | 0% | 303.5hPa | 2.6V | 03:04:00 | 02:20:13 | 00:00:00 | |
| DF7PN | 2026-09-02 13:03:12 | 49.36873 | 13.03292 | 108° | 75km/h | 9416m | -16.0m/s | 0°C | 100.0% | 301.5hPa | 2.6V | 00:00:00 | 00:00:00 | 00:00:00 | |
| OE5MMP-10 | 2026-09-02 13:03:10 | 49.36879 | 13.03263 | 108° | 77km/h | 9431m | -15.8m/s | 0°C | 0% | 300.6hPa | 2.6V | 00:00:00 | 02:20:09 | 00:00:00 | |
| PG1ADW-2 | 2026-09-02 13:03:07 | 49.36896 | 13.03178 | 108° | 78km/h | 9479m | -15.2m/s | 0°C | 0% | 298.5hPa | 2.6V | 03:04:00 | 00:00:00 | 00:00:00 | |
| NBG1-10 | 2026-09-02 13:03:04 | 49.36914 | 13.03094 | 109° | 78km/h | 9527m | -15.4m/s | 0°C | 0% | 296.4hPa | 2.5V | 03:04:00 | 02:20:03 | 00:00:00 | |
| DL6DJ-15 | 2026-09-02 13:02:54 | 49.36976 | 13.02776 | 109° | 78km/h | 9704m | -15.6m/s | 0°C | 100.0% | 288.8hPa | 2.5V | 00:00:00 | 00:00:00 | 00:00:00 | |
| EDDB2-12 | 2026-09-02 13:02:49 | 49.37001 | 13.02658 | 109° | 77km/h | 9769m | -17.0m/s | 0°C | 100.0% | 286.1hPa | 2.5V | 00:00:00 | 00:00:00 | 00:00:00 | |
| PG1ADW-2 | 2026-09-02 13:02:47 | 49.37014 | 13.02600 | 108° | 77km/h | 9803m | -16.0m/s | 0°C | 0% | 284.5hPa | 2.5V | 00:00:00 | 00:00:00 | 00:00:00 | |
| DO3MHA-11 | 2026-09-02 13:02:44 | 49.37032 | 13.02514 | 109° | 77km/h | 9849m | -16.6m/s | 0°C | 0% | 282.5hPa | 2.5V | 00:00:00 | 02:19:43 | 00:00:00 | |
| DF7PN | 2026-09-02 13:02:41 | 49.37055 | 13.02400 | 107° | 77km/h | 9912m | -15.4m/s | 0°C | 100.0% | 279.8hPa | 2.6V | 00:00:00 | 00:00:00 | 00:00:00 | |
| OE5MMP-10 | 2026-09-02 13:02:40 | 49.37055 | 13.02400 | 108° | 77km/h | 9912m | -15.4m/s | 0°C | 0% | 279.8hPa | 2.6V | 00:00:00 | 02:19:39 | 00:00:00 | |
| OE5DRO-10 | 2026-09-02 13:02:39 | 49.37061 | 13.02372 | 110° | 78km/h | 9928m | -16.3m/s | 0°C | 0% | 279.2hPa | 2.6V | 00:00:00 | 00:00:00 | 00:00:00 | |
| DO3MHA-11 | 2026-09-02 13:02:34 | 49.37094 | 13.02231 | 111° | 78km/h | 10007m | -15.6m/s | 0°C | 0% | 275.7hPa | 2.5V | 03:05:00 | 02:19:33 | 00:00:00 | |
| NBG1-10 | 2026-09-02 13:02:31 | 49.37115 | 13.02147 | 113° | 78km/h | 10055m | -15.6m/s | 0°C | 0% | 273.8hPa | 2.5V | 00:00:00 | 02:19:30 | 00:00:00 | |
| OE5MMP-10 | 2026-09-02 13:02:30 | 49.37123 | 13.02119 | 113° | 78km/h | 10071m | -15.8m/s | 0°C | 0% | 273.2hPa | 2.5V | 00:00:00 | 02:19:29 | 00:00:00 | |
| DO8TBO-1 | 2026-09-02 13:02:29 | 49.37130 | 13.02092 | 114° | 78km/h | 10087m | -15.8m/s | 0°C | 0% | 272.5hPa | 2.5V | 00:00:00 | 02:19:28 | 00:00:00 | |
| DB0UT-9 | 2026-09-02 13:02:28 | 49.37130 | 13.02092 | 115° | 78km/h | 10087m | -15.8m/s | 0°C | 0% | 272.5hPa | 2.6V | 03:05:00 | 00:00:00 | 00:00:00 | |
| PG1ADW-2 | 2026-09-02 13:02:27 | 49.37146 | 13.02036 | 114° | 78km/h | 10118m | -14.3m/s | 0°C | 0% | 271.1hPa | 2.6V | 00:00:00 | 02:19:26 | 00:00:00 | |
| DO3MHA-11 | 2026-09-02 13:02:24 | 49.37171 | 13.01952 | 115° | 78km/h | 10160m | -12.2m/s | 0°C | 0% | 269.3hPa | 2.6V | 00:00:00 | 02:19:23 | 00:00:00 | |
| DF2AP-13 | 2026-09-02 13:02:23 | 49.37179 | 13.01924 | 116° | 78km/h | 10172m | -11.7m/s | 0°C | 0% | 268.8hPa | 2.6V | 03:05:00 | 02:19:22 | 00:00:00 | |
| DL6DJ-15 | 2026-09-02 13:02:22 | 49.37188 | 13.01897 | 115° | 78km/h | 10183m | -10.9m/s | 0°C | 100.0% | 268.3hPa | 2.6V | 00:00:00 | 00:00:00 | 00:00:00 | |
| OE5MMP-10 | 2026-09-02 13:02:20 | 49.37206 | 13.01841 | 117° | 78km/h | 10204m | -10.8m/s | 0°C | 0% | 267.4hPa | 2.6V | 03:05:00 | 02:19:19 | 00:00:00 | |
| EDDB2-12 | 2026-09-02 13:02:18 | 49.37224 | 13.01787 | 117° | 78km/h | 10226m | -10.7m/s | 0°C | 100.0% | 266.6hPa | 2.5V | 00:00:00 | 00:00:00 | 00:00:00 | |
| DO3MHA-11 | 2026-09-02 13:02:14 | 49.37262 | 13.01678 | 119° | 77km/h | 10268m | -10.4m/s | 0°C | 0% | 264.8hPa | 2.5V | 00:00:00 | 02:19:13 | 00:00:00 | |
| DB0UT-7 | 2026-09-02 13:02:11 | 49.37290 | 13.01599 | 119° | 75km/h | 10299m | -10.0m/s | 0°C | 0% | 0hPa | 2.5V | 00:00:00 | 02:19:10 | 00:00:00 | |
| DF7PN | 2026-09-02 13:02:10 | 49.37308 | 13.01546 | 118° | 77km/h | 10320m | -11.0m/s | 0°C | 100.0% | 262.7hPa | 2.5V | 00:00:00 | 00:00:00 | 00:00:00 | |
| DB0UT-9 | 2026-09-02 13:02:08 | 49.37308 | 13.01546 | 119° | 77km/h | 10320m | -11.0m/s | 0°C | 0% | 0hPa | 2.5V | 00:00:00 | 00:00:00 | 00:00:00 | |
| PG1ADW-2 | 2026-09-02 13:02:07 | 49.37327 | 13.01495 | 119° | 78km/h | 10341m | -10.1m/s | 0°C | 0% | 261.8hPa | 2.5V | 00:00:00 | 00:00:00 | 00:00:00 | |
| EDDB2-11 | 2026-09-02 13:02:05 | 49.37345 | 13.01443 | 117° | 75km/h | 10361m | -10.5m/s | 0°C | 100.0% | 261.1hPa | 2.5V | 00:00:00 | 00:00:00 | 00:00:00 | |
| DO3MHA-11 | 2026-09-02 13:02:04 | 49.37354 | 13.01416 | 118° | 78km/h | 10372m | -10.3m/s | 0°C | 0% | 260.6hPa | 2.5V | 00:00:00 | 02:19:03 | 00:00:00 | |
| DL9SK-14 | 2026-09-02 13:01:54 | 49.37469 | 13.01098 | 117° | 80km/h | 10510m | -12.5m/s | 0°C | 100.0% | 255.3hPa | 2.5V | 00:00:00 | 00:00:00 | 00:00:00 | |
| DL6DJ-15 | 2026-09-02 13:01:51 | 49.37478 | 13.01070 | 116° | 80km/h | 10523m | -11.9m/s | 0°C | 100.0% | 254.7hPa | 2.5V | 00:00:00 | 00:00:00 | 00:00:00 | |
| OE5MMP-10 | 2026-09-02 13:01:50 | 49.37487 | 13.01042 | 117° | 78km/h | 10535m | -12.4m/s | 0°C | 0% | 254.2hPa | 2.5V | 00:00:00 | 02:18:49 | 00:00:00 | |
| PG1ADW-2 | 2026-09-02 13:01:47 | 49.37514 | 13.00958 | 117° | 73km/h | 10571m | -11.7m/s | 0°C | 0% | 252.8hPa | 2.5V | 03:06:00 | 00:00:00 | 00:00:00 | |
| DO3MHA-11 | 2026-09-02 13:01:44 | 49.37540 | 13.00877 | 117° | 73km/h | 10606m | -12.0m/s | 0°C | 0% | 251.4hPa | 2.5V | 00:00:00 | 02:18:43 | 00:00:00 | |
| DF7PN | 2026-09-02 13:01:38 | 49.37588 | 13.00720 | 114° | 71km/h | 10684m | -14.2m/s | 0°C | 100.0% | 248.5hPa | 2.6V | 00:00:00 | 00:00:00 | 00:00:00 | |
| DO3MHA-11 | 2026-09-02 13:01:34 | 49.37615 | 13.00617 | 111° | 71km/h | 10740m | -14.5m/s | 0°C | 0% | 246.4hPa | 2.6V | 00:00:00 | 02:18:33 | 00:00:00 | |
| OE5MMP-10 | 2026-09-02 13:01:30 | 49.37639 | 13.00514 | 108° | 73km/h | 10792m | -12.0m/s | 0°C | 0% | 244.3hPa | 2.6V | 00:00:00 | 02:18:29 | 00:00:00 | |
| DM7RM-13 | 2026-09-02 13:01:28 | 49.37644 | 13.00488 | 107° | 71km/h | 10804m | -11.9m/s | 0°C | 0% | 0hPa | 2.6V | 03:07:00 | 00:00:00 | 00:00:00 | |
| PG1ADW-2 | 2026-09-02 13:01:27 | 49.37653 | 13.00434 | 104° | 75km/h | 10830m | -13.4m/s | 0°C | 0% | 243.0hPa | 2.6V | 00:00:00 | 00:00:00 | 00:00:00 | |
| NBG1-10 | 2026-09-02 13:01:25 | 49.37661 | 13.00380 | 102° | 78km/h | 10856m | -11.9m/s | 0°C | 0% | 241.8hPa | 2.6V | 00:00:00 | 02:18:24 | 00:00:00 | |
| DO3MHA-11 | 2026-09-02 13:01:24 | 49.37664 | 13.00352 | 101° | 75km/h | 10868m | -11.7m/s | 0°C | 0% | 241.3hPa | 2.7V | 00:00:00 | 02:18:23 | 00:00:00 | |
| DB0NH | 2026-09-02 13:01:23 | 49.37668 | 13.00324 | 100° | 88km/h | 10880m | -12.2m/s | 0°C | 0% | 0hPa | 2.7V | 03:06:00 | 02:18:22 | 00:00:00 | |
| OE5MMP-10 | 2026-09-02 13:01:20 | 49.37677 | 13.00239 | 100° | 75km/h | 10920m | -14.1m/s | 0°C | 0% | 239.6hPa | 2.7V | 00:00:00 | 02:18:19 | 00:00:00 | |
| EDDB2-12 | 2026-09-02 13:01:16 | 49.37690 | 13.00123 | 100° | 75km/h | 10974m | -12.8m/s | 0°C | 100.0% | 237.5hPa | 2.5V | 00:00:00 | 00:00:00 | 00:00:00 | |
| DO3MHA-11 | 2026-09-02 13:01:14 | 49.37697 | 13.00065 | 100° | 77km/h | 11000m | -12.8m/s | 0°C | 0% | 236.5hPa | 2.5V | 03:06:00 | 02:18:13 | 00:00:00 | |
| OE5MMP-10 | 2026-09-02 13:01:10 | 49.37710 | 12.99950 | 102° | 78km/h | 11049m | -11.9m/s | 0°C | 0% | 234.7hPa | 2.5V | 00:00:00 | 02:18:09 | 00:00:00 | |
| DM7RM-13 | 2026-09-02 13:01:09 | 49.37714 | 12.99921 | 103° | 75km/h | 11061m | -11.7m/s | 0°C | 0% | 0hPa | 2.5V | 03:07:00 | 00:00:00 | 00:00:00 | |
| PG1ADW-2 | 2026-09-02 13:01:08 | 49.37722 | 12.99864 | 101° | 86km/h | 11085m | -11.8m/s | 0°C | 0% | 233.4hPa | 2.5V | 00:00:00 | 02:18:06 | 00:00:00 | |
| DB0UT-9 | 2026-09-02 13:01:06 | 49.37722 | 12.99864 | 101° | 77km/h | 11085m | -11.9m/s | 0°C | 0% | 0hPa | 2.5V | 03:07:00 | 00:00:00 | 00:00:00 | |
| DO3MHA-11 | 2026-09-02 13:01:04 | 49.37734 | 12.99775 | 104° | 84km/h | 11124m | -13.9m/s | 0°C | 0% | 231.9hPa | 2.5V | 00:00:00 | 02:18:03 | 00:00:00 | |
| EDDB2-11 | 2026-09-02 13:01:03 | 49.37739 | 12.99745 | 102° | 78km/h | 11137m | -13.0m/s | 0°C | 100.0% | 231.4hPa | 2.5V | 00:00:00 | 00:00:00 | 00:00:00 | |
| OE5MMP-10 | 2026-09-02 13:01:00 | 49.37753 | 12.99652 | 104° | 88km/h | 11175m | -11.3m/s | 0°C | 0% | 230.0hPa | 2.5V | 03:06:00 | 02:17:59 | 00:00:00 | |
| DO3MHA-11 | 2026-09-02 13:00:54 | 49.37779 | 12.99453 | 100° | 89km/h | 11252m | -14.7m/s | 0°C | 0% | 227.3hPa | 2.5V | 00:00:00 | 02:17:53 | 00:00:00 | |
| NBG1-10 | 2026-09-02 13:00:52 | 49.37787 | 12.99384 | 100° | 89km/h | 11281m | -15.4m/s | 0°C | 0% | 226.4hPa | 2.5V | 03:06:00 | 02:17:51 | 00:00:00 | |
| OE5MMP-10 | 2026-09-02 13:00:50 | 49.37795 | 12.99317 | 102° | 89km/h | 11309m | -13.7m/s | 0°C | 0% | 225.3hPa | 2.5V | 00:00:00 | 02:17:49 | 00:00:00 | |
| DF2AP-13 | 2026-09-02 13:00:49 | 49.37800 | 12.99283 | 103° | 89km/h | 11322m | -12.4m/s | 0°C | 0% | 224.8hPa | 2.5V | 00:00:00 | 02:17:48 | 00:00:00 | |
| PG1ADW-2 | 2026-09-02 13:00:47 | 49.37810 | 12.99215 | 104° | 89km/h | 11348m | -13.2m/s | 0°C | 0% | 224.0hPa | 2.5V | 00:00:00 | 00:00:00 | 00:00:00 | |
| DB0UT-9 | 2026-09-02 13:00:46 | 49.37810 | 12.99215 | 104° | 89km/h | 11348m | -13.3m/s | 0°C | 0% | 0hPa | 2.5V | 03:07:00 | 00:00:00 | 00:00:00 | |
| OE5DRO-10 | 2026-09-02 13:00:45 | 49.37827 | 12.99113 | 105° | 89km/h | 11387m | -12.9m/s | 0°C | 0% | 222.6hPa | 2.5V | 00:00:00 | 00:00:00 | 00:00:00 | |
| DO3MHA-11 | 2026-09-02 13:00:44 | 49.37827 | 12.99113 | 105° | 89km/h | 11387m | -12.9m/s | 0°C | 0% | 222.6hPa | 2.5V | 00:00:00 | 02:17:43 | 00:00:00 | |
| DO8TBO-1 | 2026-09-02 13:00:42 | 49.37838 | 12.99045 | 106° | 88km/h | 11411m | -12.2m/s | 0°C | 0% | 221.7hPa | 2.7V | 00:00:00 | 02:17:41 | 00:00:00 | |
| OE5MMP-10 | 2026-09-02 13:00:40 | 49.37851 | 12.98979 | 107° | 89km/h | 11436m | -11.9m/s | 0°C | 0% | 220.8hPa | 2.7V | 00:00:00 | 02:17:39 | 00:00:00 | |
| DB0NH | 2026-09-02 13:00:37 | 49.37871 | 12.98879 | 109° | 89km/h | 11475m | -13.3m/s | 0°C | 0% | 0hPa | 2.7V | 00:00:00 | 02:17:36 | 00:00:00 | |
| DO3MHA-11 | 2026-09-02 13:00:34 | 49.37892 | 12.98780 | 108° | 89km/h | 11513m | -13.1m/s | 0°C | 0% | 218.3hPa | 2.7V | 03:07:00 | 02:17:33 | 00:00:00 | |
| SONDE2-11 | 2026-09-02 13:00:32 | 49.37905 | 12.98713 | 106° | 89km/h | 11538m | -13.3m/s | 0°C | 100.0% | 217.5hPa | 2.7V | 00:00:00 | 00:00:00 | 00:00:00 | |
| OE5MMP-10 | 2026-09-02 13:00:30 | 49.37918 | 12.98646 | 106° | 88km/h | 11567m | -15.9m/s | 0°C | 0% | 216.6hPa | 2.7V | 00:00:00 | 02:17:29 | 00:00:00 | |
| PG1ADW-2 | 2026-09-02 13:00:27 | 49.37936 | 12.98546 | 107° | 89km/h | 11614m | -14.6m/s | 0°C | 0% | 215.0hPa | 2.7V | 03:07:00 | 00:00:00 | 00:00:00 | |
| OE5DRO-10 | 2026-09-02 13:00:25 | 49.37949 | 12.98481 | 107° | 89km/h | 11642m | -13.4m/s | 0°C | 0% | 214.0hPa | 2.7V | 03:07:00 | 00:00:00 | 00:00:00 | |
| DO3MHA-11 | 2026-09-02 13:00:24 | 49.37956 | 12.98448 | 108° | 89km/h | 11656m | -13.1m/s | 0°C | 0% | 213.5hPa | 2.7V | 00:00:00 | 02:17:23 | 00:00:00 | |
| OE5MMP-10 | 2026-09-02 13:00:20 | 49.37984 | 12.98320 | 109° | 91km/h | 11711m | -14.4m/s | 0°C | 0% | 211.8hPa | 2.7V | 03:07:00 | 02:17:19 | 00:00:00 | |
| DF2AP-13 | 2026-09-02 13:00:19 | 49.37991 | 12.98288 | 109° | 89km/h | 11725m | -15.2m/s | 0°C | 0% | 211.3hPa | 2.5V | 03:07:00 | 02:17:18 | 00:00:00 | |
| DL6DJ-15 | 2026-09-02 13:00:18 | 49.37998 | 12.98255 | 108° | 89km/h | 11740m | -14.4m/s | 0°C | 100.0% | 210.9hPa | 2.6V | 00:00:00 | 00:00:00 | 00:00:00 | |
| DO3MHA-11 | 2026-09-02 13:00:14 | 49.38028 | 12.98121 | 108° | 91km/h | 11799m | -15.1m/s | 0°C | 0% | 208.9hPa | 2.6V | 00:00:00 | 02:17:13 | 00:00:00 | |
| OE5MMP-10 | 2026-09-02 13:00:10 | 49.38058 | 12.97984 | 108° | 88km/h | 11855m | -15.9m/s | 0°C | 0% | 207.1hPa | 2.6V | 00:00:00 | 02:17:09 | 00:00:00 | |
| DB0NH | 2026-09-02 13:00:07 | 49.38080 | 12.97884 | 109° | 88km/h | 11898m | -13.2m/s | 0°C | 0% | 0hPa | 2.6V | 00:00:00 | 02:17:06 | 00:00:00 | |
| OE5DRO-10 | 2026-09-02 13:00:06 | 49.38087 | 12.97851 | 110° | 88km/h | 11912m | -14.7m/s | 0°C | 0% | 205.2hPa | 2.6V | 00:00:00 | 00:00:00 | 00:00:00 | |
| DO3MHA-11 | 2026-09-02 13:00:04 | 49.38101 | 12.97786 | 108° | 86km/h | 11943m | -16.1m/s | 0°C | 0% | 204.3hPa | 2.6V | 00:00:00 | 02:17:03 | 00:00:00 | |
| SONDE2-11 | 2026-09-02 13:00:01 | 49.38122 | 12.97691 | 109° | 84km/h | 11990m | -15.6m/s | 0°C | 100.0% | 202.8hPa | 2.6V | 00:00:00 | 00:00:00 | 00:00:00 | |
| OE5MMP-10 | 2026-09-02 13:00:00 | 49.38129 | 12.97660 | 110° | 88km/h | 12005m | -14.6m/s | 0°C | 0% | 202.3hPa | 2.6V | 00:00:00 | 02:16:59 | 00:00:00 | |
| DO8TBO-1 | 2026-09-02 12:59:56 | 49.38157 | 12.97534 | 111° | 69km/h | 12068m | -15.7m/s | 0°C | 0% | 200.3hPa | 2.6V | 00:00:00 | 02:16:55 | 00:00:00 | |
| DO3MHA-11 | 2026-09-02 12:59:54 | 49.38173 | 12.97471 | 112° | 88km/h | 12099m | -15.7m/s | 0°C | 0% | 199.4hPa | 2.7V | 03:07:00 | 02:16:53 | 00:00:00 | |
| OE5MMP-10 | 2026-09-02 12:59:50 | 49.38208 | 12.97342 | 116° | 86km/h | 12161m | -14.8m/s | 0°C | 0% | 197.5hPa | 2.7V | 00:00:00 | 02:16:49 | 00:00:00 | |
| DF2AP-13 | 2026-09-02 12:59:49 | 49.38218 | 12.97311 | 115° | 86km/h | 12176m | -15.5m/s | 0°C | 0% | 197.0hPa | 2.7V | 00:00:00 | 02:16:48 | 00:00:00 | |
| PG1ADW-2 | 2026-09-02 12:59:47 | 49.38237 | 12.97251 | 118° | 75km/h | 12206m | -13.1m/s | 0°C | 0% | 196.1hPa | 2.7V | 00:00:00 | 02:16:46 | 00:00:00 | |
| DO3MHA-11 | 2026-09-02 12:59:44 | 49.38268 | 12.97162 | 120° | 88km/h | 12247m | -14.7m/s | 0°C | 0% | 194.9hPa | 2.7V | 00:00:00 | 02:16:43 | 00:00:00 | |
| EDDB2-12 | 2026-09-02 12:59:43 | 49.38278 | 12.97134 | 118° | 84km/h | 12262m | -16.0m/s | 0°C | 100.0% | 194.5hPa | 2.5V | 00:00:00 | 00:00:00 | 00:00:00 | |
| OE5MMP-10 | 2026-09-02 12:59:40 | 49.38311 | 12.97047 | 120° | 89km/h | 12309m | -15.4m/s | 0°C | 0% | 193.1hPa | 2.5V | 03:08:00 | 02:16:39 | 00:00:00 | |
| BIOWL1-15 | 2026-09-02 12:59:21 | 49.38562 | 12.96457 | 119° | 78km/h | 12618m | -14.7m/s | -250.5°C | 100% | 0hPa | 2.5V | 03:09:41 | 02:16:18 | 00:00:00 | |
| BIOWL1-15 | 2026-09-02 12:59:12 | 49.38640 | 12.96237 | 119° | 68km/h | 12752m | -14.5m/s | -250.5°C | 100% | 0hPa | 2.6V | 03:09:41 | 02:16:09 | 00:00:00 | |
| OE5MMP-10 | 2026-09-02 12:59:10 | 49.38640 | 12.96237 | 120° | 69km/h | 12752m | -14.4m/s | 0°C | 0% | 180.2hPa | 2.5V | 00:00:00 | 02:16:09 | 00:00:00 | |
| OE5DRO-10 | 2026-09-02 12:59:09 | 49.38649 | 12.96214 | 121° | 69km/h | 12766m | -13.3m/s | 0°C | 0% | 179.8hPa | 2.5V | 03:08:00 | 00:00:00 | 00:00:00 | |
| DB0NH | 2026-09-02 12:59:04 | 49.38695 | 12.96097 | 124° | 93km/h | 12837m | -13.1m/s | 0°C | 0% | 0hPa | 2.5V | 00:00:00 | 02:16:03 | 00:00:00 | |
| EDDB2-11 | 2026-09-02 12:58:59 | 49.38755 | 12.95962 | 125° | 73km/h | 12920m | -14.0m/s | 0°C | 100.0% | 175.8hPa | 2.5V | 00:00:00 | 00:00:00 | 00:00:00 | |
| DO3MHA-11 | 2026-09-02 12:58:54 | 49.38797 | 12.95873 | 125° | 62km/h | 12980m | -14.2m/s | 0°C | 0% | 174.1hPa | 2.5V | 00:00:00 | 02:15:53 | 00:00:00 | |
| OE5MMP-10 | 2026-09-02 12:58:50 | 49.38835 | 12.95785 | 124° | 57km/h | 13036m | -14.1m/s | 0°C | 0% | 172.5hPa | 2.5V | 00:00:00 | 02:15:49 | 00:00:00 | |
| DF2AP-13 | 2026-09-02 12:58:49 | 49.38843 | 12.95765 | 123° | 58km/h | 13051m | -14.3m/s | 0°C | 0% | 172.2hPa | 2.5V | 00:00:00 | 02:15:48 | 00:00:00 | |
| DO3MHA-11 | 2026-09-02 12:58:44 | 49.38881 | 12.95669 | 120° | 55km/h | 13128m | -16.1m/s | 0°C | 0% | 170.3hPa | 2.7V | 00:00:00 | 02:15:43 | 00:00:00 | |
| EDDB2-12 | 2026-09-02 12:58:41 | 49.38901 | 12.95613 | 118° | 53km/h | 13175m | -13.7m/s | 0°C | 100.0% | 169.2hPa | 2.6V | 00:00:00 | 00:00:00 | 00:00:00 | |
| OE5MMP-10 | 2026-09-02 12:58:40 | 49.38907 | 12.95594 | 116° | 57km/h | 13189m | -14.0m/s | 0°C | 0% | 168.8hPa | 2.6V | 00:00:00 | 02:15:39 | 00:00:00 | |
| PG1ADW-2 | 2026-09-02 12:58:39 | 49.38913 | 12.95575 | 114° | 60km/h | 13203m | -15.0m/s | 0°C | 0% | 168.4hPa | 2.6V | 00:00:00 | 00:00:00 | 00:00:00 | |
| BIOWL1-15 | 2026-09-02 12:58:23 | 49.38982 | 12.95094 | 97° | 69km/h | 13525m | -15.5m/s | -250.5°C | 100% | 0hPa | 2.6V | 03:09:41 | 02:15:17 | 00:00:00 | |
| BIOWL1-15 | 2026-09-02 12:58:08 | 49.39016 | 12.94811 | 105° | 66km/h | 13697m | -15.1m/s | 0°C | 0% | 0hPa | 2.6V | 18:12:15 | 02:15:06 | 00:00:00 | |
| DO8TBO-1 | 2026-09-02 12:58:08 | 49.39012 | 12.94836 | 105° | 75km/h | 13683m | -13.9m/s | 0°C | 0% | 156.3hPa | 2.6V | 03:09:00 | 02:15:07 | 00:00:00 | |
| NBG1-10 | 2026-09-02 12:58:07 | 49.39016 | 12.94811 | 106° | 73km/h | 13697m | -15.1m/s | 0°C | 0% | 155.9hPa | 2.6V | 00:00:00 | 02:15:06 | 00:00:00 | |
| DO3MHA-11 | 2026-09-02 12:58:04 | 49.39027 | 12.94736 | 101° | 64km/h | 13744m | -16.3m/s | 0°C | 0% | 154.9hPa | 2.7V | 00:00:00 | 02:15:03 | 00:00:00 | |
| BIOWL9-15 | 2026-09-02 12:58:01 | 49.39036 | 12.94664 | 99° | 62km/h | 13792m | -16.4m/s | 0°C | -1.0% | 153.8hPa | 2.7V | 00:00:00 | 00:00:00 | 00:00:00 | |
| EDDB2-11 | 2026-09-02 12:57:57 | 49.39045 | 12.94539 | 94° | 66km/h | 13873m | -16.5m/s | 0°C | 100.0% | 151.8hPa | 2.7V | 00:00:00 | 00:00:00 | 00:00:00 | |
| DO3MHA-11 | 2026-09-02 12:57:54 | 49.39047 | 12.94487 | 93° | 73km/h | 13905m | -16.7m/s | 0°C | 0% | 151.1hPa | 2.7V | 03:09:00 | 02:14:53 | 00:00:00 | |
| OE5DRO-10 | 2026-09-02 12:57:53 | 49.39048 | 12.94461 | 95° | 78km/h | 13922m | -17.7m/s | 0°C | 0% | 150.7hPa | 2.7V | 03:09:00 | 00:00:00 | 00:00:00 | |
| OE5MMP-10 | 2026-09-02 12:57:50 | 49.39053 | 12.94380 | 94° | 80km/h | 13973m | -16.8m/s | 0°C | 0% | 149.5hPa | 2.6V | 00:00:00 | 02:14:49 | 00:00:00 | |
| DF2AP-13 | 2026-09-02 12:57:49 | 49.39054 | 12.94352 | 95° | 80km/h | 13990m | -18.0m/s | 0°C | 0% | 149.1hPa | 2.6V | 00:00:00 | 02:14:48 | 00:00:00 | |
| DM0DOS-11 | 2026-09-02 12:57:44 | 49.39077 | 12.94073 | 100° | 82km/h | 14134m | -16m/s | 0°C | 0% | 0hPa | 2.6V | 00:00:00 | 02:14:39 | 00:00:00 | |
| DO3MHA-11 | 2026-09-02 12:57:44 | 49.39064 | 12.94200 | 98° | 84km/h | 14075m | -15.5m/s | 0°C | 0% | 147.1hPa | 2.7V | 00:00:00 | 02:14:43 | 00:00:00 | |
| DL6DJ-15 | 2026-09-02 12:57:43 | 49.39067 | 12.94168 | 97° | 84km/h | 14090m | -14.3m/s | 0°C | 100.0% | 146.7hPa | 2.6V | 00:00:00 | 00:00:00 | 00:00:00 | |
| OE5MMP-10 | 2026-09-02 12:57:40 | 49.39077 | 12.94073 | 101° | 84km/h | 14134m | -16.0m/s | 0°C | 0% | 145.7hPa | 2.6V | 03:10:00 | 02:14:39 | 00:00:00 | |
| EDDB2-12 | 2026-09-02 12:57:39 | 49.39086 | 12.94011 | 104° | 82km/h | 14166m | -16.0m/s | 0°C | 100.0% | 145.1hPa | 2.6V | 00:00:00 | 00:00:00 | 00:00:00 | |
| OE5WHR-10 | 2026-09-02 12:57:37 | 49.39091 | 12.93980 | 106° | 80km/h | 14182m | -15.2m/s | 0°C | 0% | 144.6hPa | 2.6V | 03:10:00 | 02:14:36 | 00:00:00 | |
| DO3MHA-11 | 2026-09-02 12:57:34 | 49.39109 | 12.93886 | 108° | 84km/h | 14228m | -14.6m/s | 0°C | 0% | 143.6hPa | 2.6V | 00:00:00 | 02:14:33 | 00:00:00 | |
| OE5MMP-10 | 2026-09-02 12:57:30 | 49.39134 | 12.93762 | 108° | 80km/h | 14288m | -15.7m/s | 0°C | 0% | 142.3hPa | 2.6V | 00:00:00 | 02:14:29 | 00:00:00 | |
| OE5DXL-15 | 2026-09-02 12:57:29 | 49.39140 | 12.93730 | 107° | 75km/h | 14304m | -16.6m/s | 0°C | 0% | 141.9hPa | 2.6V | 00:00:00 | 00:00:00 | 00:00:00 | |
| OE5REO-15 | 2026-09-02 12:57:28 | 49.39146 | 12.93699 | 106° | 84km/h | 14320m | -15.9m/s | 0°C | 0% | 141.6hPa | 2.7V | 00:00:00 | 00:00:00 | 00:00:00 | |
| SONDE2-11 | 2026-09-02 12:57:26 | 49.39162 | 12.93607 | 103° | 80km/h | 14368m | -17.6m/s | 0°C | 100.0% | 140.6hPa | 2.7V | 00:00:00 | 00:00:00 | 00:00:00 | |
| DO3MHA-11 | 2026-09-02 12:57:24 | 49.39167 | 12.93576 | 105° | 75km/h | 14386m | -18.6m/s | 0°C | 0% | 140.2hPa | 2.7V | 00:00:00 | 02:14:23 | 00:00:00 | |
| OE5MMP-10 | 2026-09-02 12:57:20 | 49.39185 | 12.93461 | 107° | 73km/h | 14458m | -19.1m/s | 0°C | 0% | 138.7hPa | 2.7V | 00:00:00 | 02:14:19 | 00:00:00 | |
| DF2AP-13 | 2026-09-02 12:57:19 | 49.39190 | 12.93433 | 106° | 66km/h | 14477m | -18.0m/s | 0°C | 0% | 138.3hPa | 2.6V | 00:00:00 | 02:14:18 | 00:00:00 | |
| OE5WHR-10 | 2026-09-02 12:57:16 | 49.39208 | 12.93354 | 109° | 66km/h | 14529m | -15.8m/s | 0°C | 0% | 137.1hPa | 2.7V | 00:00:00 | 00:00:00 | 00:00:00 | |
| OE5DRO-10 | 2026-09-02 12:57:15 | 49.39214 | 12.93327 | 110° | 66km/h | 14545m | -15.6m/s | 0°C | 0% | 136.8hPa | 2.6V | 00:00:00 | 00:00:00 | 00:00:00 | |
| DO3MHA-11 | 2026-09-02 12:57:14 | 49.39221 | 12.93301 | 113° | 71km/h | 14561m | -16.7m/s | 0°C | 0% | 136.5hPa | 2.6V | 03:10:00 | 02:14:13 | 00:00:00 | |
| OE5REO-15 | 2026-09-02 12:57:11 | 49.39235 | 12.93250 | 114° | 75km/h | 14597m | -18.6m/s | 0°C | 0% | 135.8hPa | 2.7V | 03:11:00 | 00:00:00 | 00:00:00 | |
| OE5MMP-10 | 2026-09-02 12:57:10 | 49.39251 | 12.93199 | 117° | 68km/h | 14633m | -18.1m/s | 0°C | 0% | 135.0hPa | 2.7V | 00:00:00 | 02:14:09 | 00:00:00 | |
| EDDB2-12 | 2026-09-02 12:57:08 | 49.39275 | 12.93124 | 114° | 71km/h | 14690m | -19.4m/s | 0°C | 100.0% | 133.9hPa | 2.7V | 00:00:00 | 00:00:00 | 00:00:00 | |
| DM0DOS-11 | 2026-09-02 12:57:07 | 49.39298 | 12.93055 | 113° | 64km/h | 14746m | -18.5m/s | 0°C | 0% | 0hPa | 2.7V | 00:00:00 | 02:14:03 | 00:00:00 | |
| DO8TBO-1 | 2026-09-02 12:57:03 | 49.39304 | 12.93032 | 114° | 64km/h | 14764m | -17.0m/s | 0°C | 0% | 132.2hPa | 2.7V | 00:00:00 | 02:14:02 | 00:00:00 | |
| EDDB2-11 | 2026-09-02 12:56:55 | 49.39346 | 12.92839 | 102° | 57km/h | 14923m | -19.4m/s | 0°C | 100.0% | 129.2hPa | 2.7V | 00:00:00 | 00:00:00 | 00:00:00 | |
| DO3MHA-11 | 2026-09-02 12:56:54 | 49.39346 | 12.92839 | 103° | 60km/h | 14923m | -19.3m/s | 0°C | 0% | 129.1hPa | 2.7V | 00:00:00 | 02:13:53 | 00:00:00 | |
| OE5MMP-10 | 2026-09-02 12:56:50 | 49.39357 | 12.92749 | 98° | 64km/h | 15001m | -18.4m/s | 0°C | 0% | 127.6hPa | 2.7V | 00:00:00 | 02:13:49 | 00:00:00 | |
| DF2AP-13 | 2026-09-02 12:56:49 | 49.39358 | 12.92725 | 96° | 69km/h | 15019m | -18.0m/s | 0°C | 0% | 127.2hPa | 2.7V | 00:00:00 | 02:13:48 | 00:00:00 | |
| DO3MHA-11 | 2026-09-02 12:56:44 | 49.39363 | 12.92603 | 94° | 69km/h | 15110m | -19.3m/s | 0°C | 0% | 125.5hPa | 2.7V | 00:00:00 | 02:13:43 | 00:00:00 | |
| DL6DJ-15 | 2026-09-02 12:56:41 | 49.39366 | 12.92524 | 92° | 71km/h | 15164m | -17.9m/s | 0°C | 100.0% | 124.4hPa | 2.6V | 00:00:00 | 00:00:00 | 00:00:00 | |
| OE5REO-15 | 2026-09-02 12:56:40 | 49.39367 | 12.92497 | 97° | 69km/h | 15183m | -19.5m/s | 0°C | 0% | 124.1hPa | 2.6V | 03:11:00 | 00:00:00 | 00:00:00 | |
| PG1ADW-2 | 2026-09-02 12:56:39 | 49.39369 | 12.92470 | 95° | 69km/h | 15202m | -18.9m/s | 0°C | 0% | 123.6hPa | 2.6V | 00:00:00 | 00:00:00 | 00:00:00 | |
| OE5DRO-10 | 2026-09-02 12:56:37 | 49.39377 | 12.92388 | 102° | 71km/h | 15259m | -18.3m/s | 0°C | 0% | 122.5hPa | 2.6V | 03:11:00 | 00:00:00 | 00:00:00 | |
| OE5WHR-10 | 2026-09-02 12:56:34 | 49.39384 | 12.92334 | 106° | 69km/h | 15296m | -18.4m/s | 0°C | 0% | 121.8hPa | 2.6V | 00:00:00 | 02:13:33 | 00:00:00 | |
| DO8TBO-1 | 2026-09-02 12:56:33 | 49.39389 | 12.92308 | 105° | 62km/h | 15315m | -19.8m/s | 0°C | 0% | 121.5hPa | 2.6V | 00:00:00 | 02:13:32 | 00:00:00 | |
| OE5MMP-10 | 2026-09-02 12:56:30 | 49.39403 | 12.92233 | 107° | 71km/h | 15370m | -16.7m/s | 0°C | 0% | 120.3hPa | 2.6V | 00:00:00 | 02:13:29 | 00:00:00 | |
| OE5DXL-15 | 2026-09-02 12:56:29 | 49.39408 | 12.92208 | 106° | 60km/h | 15387m | -16.1m/s | 0°C | 0% | 120.0hPa | 2.6V | 00:00:00 | 00:00:00 | 00:00:00 | |
| NBG1-10 | 2026-09-02 12:56:26 | 49.39422 | 12.92132 | 108° | 57km/h | 15435m | -17.1m/s | 0°C | 0% | 119.2hPa | 2.6V | 03:11:00 | 02:13:25 | 00:00:00 | |
| PETON7-10 | 2026-09-02 12:56:25 | 49.39427 | 12.92106 | 109° | 69km/h | 15452m | -17.0m/s | 0°C | 0% | 118.8hPa | 2.6V | 00:00:00 | 02:13:24 | 00:00:00 | |
| SONDE2-11 | 2026-09-02 12:56:24 | 49.39439 | 12.92052 | 109° | 73km/h | 15487m | -17.1m/s | 0°C | 100.0% | 118.2hPa | 2.6V | 00:00:00 | 00:00:00 | 00:00:00 | |
| SP3BTT-10 | 2026-09-02 12:56:23 | 49.39439 | 12.92052 | 110° | 46km/h | 15487m | -17.1m/s | 0°C | 0% | 118.2hPa | 2.6V | 00:00:00 | 00:00:00 | 00:00:00 | |
| OE5MMP-10 | 2026-09-02 12:56:20 | 49.39458 | 12.91973 | 113° | 66km/h | 15537m | -15.2m/s | 0°C | 0% | 117.2hPa | 2.6V | 03:11:00 | 02:13:19 | 00:00:00 | |
| DF2AP-13 | 2026-09-02 12:56:19 | 49.39465 | 12.91947 | 111° | 49km/h | 15552m | -13.4m/s | 0°C | 0% | 116.9hPa | 2.6V | 03:11:00 | 02:13:18 | 00:00:00 | |
| BIOWL1-15 | 2026-09-02 12:56:05 | 49.39588 | 12.91621 | 114° | 40km/h | 15883m | -18.2m/s | -250.5°C | 100% | 111.2hPa | 2.6V | 18:12:15 | 02:13:00 | 00:00:00 | |
| BIOWL1-15 | 2026-09-02 12:55:50 | 49.39627 | 12.91452 | 109° | 38km/h | 16096m | -21.7m/s | -250.5°C | 100% | 107.8hPa | 2.7V | 18:12:15 | 02:12:49 | 00:00:00 | |
| OE5MMP-10 | 2026-09-02 12:55:50 | 49.39627 | 12.91452 | 109° | 38km/h | 16096m | -21.7m/s | 0°C | 0% | 107.8hPa | 2.7V | 00:00:00 | 02:12:49 | 00:00:00 | |
| BIOWL1-15 | 2026-09-02 12:55:27 | 49.39663 | 12.91102 | 104° | 40km/h | 16567m | -20.5m/s | -250.5°C | 100% | 0hPa | 2.6V | 18:12:15 | 02:12:26 | 00:00:00 | |
| BIOWL1-15 | 2026-09-02 12:55:17 | 49.39687 | 12.90914 | 95° | 40km/h | 16829m | -19.2m/s | -250.5°C | 100% | 0hPa | 2.7V | 18:12:15 | 02:12:13 | 00:00:00 | |
| DF8AY | 2026-09-02 12:55:07 | 49.39690 | 12.90802 | 92° | 44km/h | 16964m | -20m/s | -250.5°C | 100% | 94.2hPa | 2.6V | 03:13:05 | 02:12:06 | 00:00:00 | |
| DF8AY | 2026-09-02 12:54:57 | 49.39696 | 12.90631 | 95° | 44km/h | 17154m | -18.9m/s | -250.5°C | 100% | 91.4hPa | 2.7V | 03:13:05 | 02:11:56 | 00:00:00 | |
| BIOWL1-15 | 2026-09-02 12:54:47 | 49.39711 | 12.90477 | 98° | 40km/h | 17346m | -18.1m/s | 0°C | 0% | 0hPa | 2.6V | 18:12:15 | 02:11:46 | 00:00:00 | |
| DF8AY | 2026-09-02 12:54:46 | 49.39712 | 12.90462 | 92° | 38km/h | 17365m | -19.9m/s | -250.5°C | 100% | 88.5hPa | 2.6V | 03:13:05 | 02:11:45 | 00:00:00 | |
| DF8AY | 2026-09-02 12:54:36 | 49.39703 | 12.90302 | 96° | 44km/h | 17567m | -20.6m/s | -250.5°C | 100% | 85.7hPa | 2.6V | 03:13:56 | 02:11:35 | 00:00:00 | |
| DF8AY | 2026-09-02 12:54:26 | 49.39719 | 12.90136 | 89° | 40km/h | 17783m | -18.7m/s | -250.5°C | 100% | 82.8hPa | 2.6V | 03:13:56 | 02:11:24 | 00:00:00 | |
| DO3MHA-11 | 2026-09-02 12:54:24 | 49.39718 | 12.90120 | 86° | 49km/h | 17804m | -21.6m/s | 0°C | 0% | 82.6hPa | 2.6V | 00:00:00 | 02:11:23 | 00:00:00 | |
| PETON7-10 | 2026-09-02 12:54:22 | 49.39716 | 12.90085 | 83° | 47km/h | 17844m | -19.7m/s | 0°C | 0% | 82.1hPa | 2.6V | 00:00:00 | 00:00:00 | 00:00:00 | |
| OE5MMP-10 | 2026-09-02 12:54:20 | 49.39712 | 12.90047 | 84° | 49km/h | 17883m | -20.0m/s | 0°C | 0% | 81.5hPa | 2.6V | 03:13:00 | 02:11:19 | 00:00:00 | |
| DF8AY | 2026-09-02 12:54:14 | 49.39724 | 12.89723 | 99° | 40km/h | 18242m | -22.8m/s | -250.5°C | 100% | 77.2hPa | 2.7V | 03:13:56 | 02:11:01 | 00:00:00 | |
| DF8AY | 2026-09-02 12:54:06 | 49.39726 | 12.89708 | 98° | 42km/h | 18264m | -21.1m/s | -250.5°C | 100% | 76.9hPa | 2.7V | 03:13:56 | 02:11:00 | 00:00:00 | |
| DF8AY | 2026-09-02 12:53:51 | 49.39736 | 12.89536 | 99° | 47km/h | 18475m | -21m/s | 0°C | 0% | 74.5hPa | 2.7V | 18:12:15 | 02:10:50 | 00:00:00 | |
| SONDE2-11 | 2026-09-02 12:53:48 | 49.39743 | 12.89485 | 103° | 42km/h | 18541m | -21.4m/s | 0°C | 100.0% | 73.7hPa | 2.6V | 00:00:00 | 00:00:00 | 00:00:00 | |
| DF8AY | 2026-09-02 12:53:40 | 49.39768 | 12.89376 | 114° | 27km/h | 18712m | -21.1m/s | 0°C | 0% | 0hPa | 2.6V | 18:12:15 | 02:10:39 | 00:00:00 | |
| BIOWL1-15 | 2026-09-02 12:53:37 | 49.39777 | 12.89341 | 108° | 24km/h | 18793m | -22.7m/s | 0°C | 0% | 0hPa | 2.6V | 18:12:15 | 02:10:35 | 00:00:00 | |
| DF8AY | 2026-09-02 12:53:28 | 49.39790 | 12.89266 | 92° | 26km/h | 18950m | -20.3m/s | 0°C | 0% | 0hPa | 2.6V | 18:12:15 | 02:10:27 | 00:00:00 | |
| DF8AY | 2026-09-02 12:53:14 | 49.39783 | 12.89109 | 86° | 40km/h | 19258m | -24.5m/s | 0°C | 0% | 0hPa | 2.7V | 18:12:15 | 02:10:13 | 00:00:00 | |
| DF8AY | 2026-09-02 12:53:03 | 49.39810 | 12.88938 | 108° | 18km/h | 19547m | -25.7m/s | 0°C | 0% | 0hPa | 2.6V | 18:12:15 | 02:09:59 | 00:00:00 | |
| DF8AY | 2026-09-02 12:52:53 | 49.39817 | 12.88883 | 109° | 20km/h | 19754m | -26.4m/s | 0°C | 0% | 0hPa | 2.6V | 18:12:15 | 02:09:51 | 00:00:00 | |
| EDDB2-11 | 2026-09-02 12:52:47 | 49.39829 | 12.88842 | 120° | 15km/h | 19915m | -27.5m/s | 0°C | 100.0% | 59.8hPa | 2.6V | 00:00:00 | 00:00:00 | 00:00:00 | |
| DF8AY | 2026-09-02 12:52:41 | 49.39835 | 12.88825 | 84° | 7km/h | 20055m | -29m/s | 0°C | 0% | 0hPa | 2.6V | 18:12:15 | 02:09:40 | 00:00:00 | |
| DF8AY | 2026-09-02 12:52:30 | 49.39818 | 12.88794 | 39° | 16km/h | 20362m | -26.8m/s | 0°C | 0% | 0hPa | 2.6V | 18:12:15 | 02:09:29 | 00:00:00 | |
| DF8AY | 2026-09-02 12:52:20 | 49.39803 | 12.88714 | 105° | 24km/h | 20622m | -27.1m/s | 0°C | 0% | 0hPa | 2.7V | 18:12:15 | 02:09:19 | 00:00:00 | |
| DF8AY | 2026-09-02 12:52:10 | 49.39812 | 12.88618 | 114° | 16km/h | 20946m | -26.7m/s | 0°C | 0% | 0hPa | 2.7V | 18:12:15 | 02:09:07 | 00:00:00 | |
| OE5MMP-10 | 2026-09-02 12:52:10 | 49.39810 | 12.88631 | 103° | 16km/h | 20892m | -27.2m/s | 0°C | 0% | 51.3hPa | 2.7V | 00:00:00 | 02:09:09 | 00:00:00 | |
| DO3MHA-11 | 2026-09-02 12:52:08 | 49.39812 | 12.88618 | 114° | 16km/h | 20946m | -26.6m/s | 0°C | 0% | 50.8hPa | 2.7V | 00:00:00 | 02:09:07 | 00:00:00 | |
| PETON7-10 | 2026-09-02 12:52:07 | 49.39813 | 12.88612 | 104° | 15km/h | 20973m | -27.4m/s | 0°C | 0% | 50.7hPa | 2.6V | 03:15:00 | 00:00:00 | 00:00:00 | |
| DL3JIN-12 | 2026-09-02 12:52:06 | 49.39813 | 12.88612 | 104° | 16km/h | 20973m | -27.5m/s | 0°C | 0% | 50.7hPa | 2.6V | 03:16:00 | 00:00:00 | 00:00:00 | |
| DL6DJ-15 | 2026-09-02 12:52:01 | 49.39815 | 12.88578 | 74° | 15km/h | 21142m | -29.5m/s | 0°C | 100.0% | 49.4hPa | 2.6V | 00:00:00 | 00:00:00 | 00:00:00 | |
| SONCRA | 2026-09-02 12:51:58 | 49.39812 | 12.88557 | 85° | 9km/h | 21261m | -30.1m/s | 0°C | 100.0% | 48.6hPa | 2.6V | 00:00:00 | 00:00:00 | 00:00:00 | |
| EDDB2-12 | 2026-09-02 12:51:57 | 49.39812 | 12.88557 | 85° | 9km/h | 21261m | -30.1m/s | 0°C | 100.0% | 48.6hPa | 2.6V | 00:00:00 | 00:00:00 | 00:00:00 | |
| PETON7-10 | 2026-09-02 12:51:52 | 49.39816 | 12.88536 | 124° | 9km/h | 21405m | -28.8m/s | 0°C | 0% | 47.4hPa | 2.6V | 00:00:00 | 02:08:51 | 00:00:00 | |
| DF2AP-13 | 2026-09-02 12:51:50 | 49.39823 | 12.88530 | 176° | 7km/h | 21492m | -31.2m/s | 0°C | 0% | 0hPa | 2.6V | 00:00:00 | 02:08:48 | 00:00:00 | |
| SONDE2-11 | 2026-09-02 12:51:45 | 49.39835 | 12.88532 | 203° | 5km/h | 21650m | -32.0m/s | 0°C | 100.0% | 45.7hPa | 2.6V | 00:00:00 | 00:00:00 | 00:00:00 | |
| EDDB2-11 | 2026-09-02 12:51:44 | 49.39835 | 12.88532 | 203° | 5km/h | 21650m | -32.0m/s | 0°C | 100.0% | 45.7hPa | 2.6V | 00:00:00 | 00:00:00 | 00:00:00 | |
| DO8TBO-1 | 2026-09-02 12:51:43 | 49.39836 | 12.88533 | 206° | 7km/h | 21681m | -31.6m/s | 0°C | 0% | 45.5hPa | 2.6V | 00:00:00 | 02:08:42 | 00:00:00 | |
| OE5MMP-10 | 2026-09-02 12:51:40 | 49.39840 | 12.88536 | 209° | 5km/h | 21775m | -30.1m/s | 0°C | 0% | 44.8hPa | 2.6V | 03:16:00 | 02:08:39 | 00:00:00 | |
| SP3BTT-10 | 2026-09-02 12:51:38 | 49.39842 | 12.88538 | 227° | 9km/h | 21833m | -28.6m/s | 0°C | 0% | 44.3hPa | 2.6V | 00:00:00 | 00:00:00 | 00:00:00 | |
| PETON7-10 | 2026-09-02 12:51:37 | 49.39842 | 12.88540 | 249° | 7km/h | 21863m | -29.3m/s | 0°C | 0% | 44.1hPa | 2.6V | 00:00:00 | 00:00:00 | 00:00:00 | |
| OE5WHR-10 | 2026-09-02 12:51:35 | 49.39842 | 12.88543 | 273° | 7km/h | 21922m | -31.0m/s | 0°C | 0% | 43.8hPa | 2.7V | 00:00:00 | 02:08:34 | 00:00:00 | |
| DL1JEZ-13 | 2026-09-02 12:51:33 | 49.39842 | 12.88546 | 280° | 7km/h | 21952m | -28.7m/s | 0°C | 0% | 43.6hPa | 2.7V | 00:00:00 | 00:00:00 | 00:00:00 | |
| OE5MMP-10 | 2026-09-02 12:51:30 | 49.39838 | 12.88555 | 331° | 7km/h | 22068m | -26.7m/s | 0°C | 0% | 42.7hPa | 2.7V | 00:00:00 | 02:08:29 | 00:00:00 | |
| OE5DXL-15 | 2026-09-02 12:51:28 | 49.39834 | 12.88555 | 7° | 7km/h | 22123m | -28.6m/s | 0°C | 0% | 42.4hPa | 2.7V | 00:00:00 | 00:00:00 | 00:00:00 | |
| SONCRA | 2026-09-02 12:51:27 | 49.39831 | 12.88551 | 63° | 7km/h | 22182m | -29.8m/s | 0°C | 100.0% | 42.1hPa | 2.7V | 00:00:00 | 00:00:00 | 00:00:00 | |
| EDDB2-12 | 2026-09-02 12:51:26 | 49.39831 | 12.88551 | 63° | 7km/h | 22182m | -29.8m/s | 0°C | 100.0% | 42.1hPa | 2.7V | 00:00:00 | 00:00:00 | 00:00:00 | |
| DO3MHA-11 | 2026-09-02 12:51:25 | 49.39830 | 12.88548 | 65° | 7km/h | 22213m | -29.9m/s | 0°C | 0% | 41.8hPa | 2.7V | 00:00:00 | 02:08:24 | 00:00:00 | |
| DL3JIN-12 | 2026-09-02 12:51:23 | 49.39829 | 12.88544 | 66° | 4km/h | 22273m | -30.8m/s | 0°C | 0% | 41.5hPa | 2.7V | 03:16:00 | 00:00:00 | 00:00:00 | |
| PETON7-10 | 2026-09-02 12:51:22 | 49.39828 | 12.88542 | 56° | 9km/h | 22304m | -30.5m/s | 0°C | 0% | 41.3hPa | 2.7V | 00:00:00 | 00:00:00 | 00:00:00 | |
| OE5MMP-10 | 2026-09-02 12:51:20 | 49.39827 | 12.88538 | 60° | 9km/h | 22361m | -26.4m/s | 0°C | 0% | 40.8hPa | 2.7V | 00:00:00 | 02:08:19 | 00:00:00 | |
| PG1ADW-2 | 2026-09-02 12:51:19 | 49.39825 | 12.88534 | 59° | 7km/h | 22411m | -21.9m/s | 0°C | 0% | 40.4hPa | 2.7V | 03:16:00 | 00:00:00 | 00:00:00 | |
| DF2AP-13 | 2026-09-02 12:51:18 | 49.39825 | 12.88534 | 59° | 9km/h | 22411m | -21.9m/s | 0°C | 0% | 0hPa | 2.7V | 00:00:00 | 02:08:17 | 00:00:00 | |
| DO3MHA-11 | 2026-09-02 12:51:15 | 49.39823 | 12.88524 | 89° | 9km/h | 22477m | -22.0m/s | 0°C | 0% | 40.0hPa | 2.7V | 03:16:00 | 02:08:14 | 00:00:00 | |
| OE5WHR-10 | 2026-09-02 12:51:14 | 49.39822 | 12.88519 | 82° | 7km/h | 22500m | -23.9m/s | 0°C | 0% | 39.9hPa | 2.7V | 03:16:00 | 00:00:00 | 00:00:00 | |
| ANDY1245 | 2026-09-02 12:51:13 | 49.39822 | 12.88519 | 82° | 15km/h | 22500m | -23.9m/s | 0°C | 0% | 40.0hPa | 2.6V | 00:00:00 | 00:00:00 | 00:00:00 | |
| HSKMA3-T | 2026-09-02 12:50:56 | 49.39823 | 12.88498 | 351° | 7km/h | 23001m | -27.6m/s | -250.6°C | 100% | 37.1hPa | 2.6V | 03:17:20 | 02:07:55 | 00:00:00 | |
| HSKMA3-T | 2026-09-02 12:50:45 | 49.39792 | 12.88471 | 41° | 18km/h | 23279m | -25m/s | -250.6°C | 100% | 35.5hPa | 2.6V | 03:17:20 | 02:07:44 | 00:00:00 | |
| HSKMA3-T | 2026-09-02 12:50:33 | 49.39761 | 12.88399 | 59° | 16km/h | 23608m | -28.2m/s | -250.6°C | 100% | 33.7hPa | 2.7V | 03:17:20 | 02:07:31 | 00:00:00 | |
| HSKMA3-T | 2026-09-02 12:50:22 | 49.39756 | 12.88352 | 131° | 11km/h | 23874m | -23.8m/s | -250.6°C | 100% | 32.3hPa | 2.7V | 03:18:11 | 02:07:21 | 00:00:00 | |
| DL1XH-west | 2026-09-02 12:50:22 | 49.39758 | 12.88348 | 120° | 11km/h | 23897m | -21m/s | -250.6°C | 100% | 32.2hPa | 2.7V | 03:18:11 | 02:07:20 | 00:00:00 | |
| PETON7-10 | 2026-09-02 12:50:21 | 49.39758 | 12.88348 | 120° | 7km/h | 23897m | -20.9m/s | 0°C | 0% | 32.1hPa | 2.6V | 00:00:00 | 02:07:20 | 00:00:00 | |
| OE5MMP-10 | 2026-09-02 12:50:20 | 49.39759 | 12.88345 | 119° | 7km/h | 23919m | -22.6m/s | 0°C | 0% | 32.0hPa | 2.6V | 03:17:00 | 02:07:19 | 00:00:00 | |
| DL3JIN-12 | 2026-09-02 12:50:19 | 49.39759 | 12.88344 | 120° | 11km/h | 23919m | -22.6m/s | 0°C | 0% | 32.0hPa | 2.6V | 03:18:00 | 00:00:00 | 00:00:00 | |
| DF2AP-13 | 2026-09-02 12:50:18 | 49.39761 | 12.88339 | 106° | 5km/h | 23964m | -23.7m/s | 0°C | 0% | 0hPa | 2.6V | 00:00:00 | 02:07:17 | 00:00:00 | |
| DL1XH1-15 | 2026-09-02 12:50:16 | 49.39759 | 12.88333 | 359° | 5km/h | 24065m | -23.1m/s | 0°C | 0% | 0hPa | 2.6V | 03:17:37 | 02:07:13 | 00:00:00 | |
| HSKMA3-T | 2026-09-02 12:50:12 | 49.39756 | 12.88333 | 360° | 7km/h | 24109m | -22.5m/s | -250.6°C | 100% | 31.1hPa | 2.7V | 03:18:11 | 02:07:11 | 00:00:00 | |
| DL1XH-west | 2026-09-02 12:50:11 | 49.39754 | 12.88333 | 6° | 7km/h | 24133m | -24.8m/s | -250.6°C | 100% | 31hPa | 2.7V | 03:18:11 | 02:07:10 | 00:00:00 | |
| OE5WHR-10 | 2026-09-02 12:50:11 | 49.39754 | 12.88333 | 6° | 5km/h | 24133m | -24.8m/s | 0°C | 0% | 31.0hPa | 2.7V | 00:00:00 | 00:00:00 | 00:00:00 | |
| OE5MMP-10 | 2026-09-02 12:50:10 | 49.39753 | 12.88333 | 348° | 4km/h | 24157m | -23.1m/s | 0°C | 0% | 30.9hPa | 2.6V | 00:00:00 | 02:07:09 | 00:00:00 | |
| DL1XH1-15 | 2026-09-02 12:50:08 | 49.39748 | 12.88328 | 111° | 4km/h | 24304m | -23.4m/s | 0°C | 0% | 0hPa | 2.6V | 03:17:47 | 02:07:03 | 00:00:00 | |
| DL1XH-west | 2026-09-02 12:50:01 | 49.39749 | 12.88325 | 102° | 4km/h | 24374m | -22.8m/s | -250.6°C | 100% | 29.9hPa | 2.7V | 03:18:11 | 02:07:00 | 00:00:00 | |
| HSKMA3-T | 2026-09-02 12:49:50 | 49.39759 | 12.88319 | 210° | 16km/h | 24617m | -21.6m/s | -250.6°C | 100% | 28.8hPa | 2.7V | 03:18:11 | 02:06:49 | 00:00:00 | |
| DF8AY | 2026-09-02 12:49:49 | 49.39773 | 12.88335 | 228° | 11km/h | 24728m | -24.9m/s | -250.6°C | 100% | 28.3hPa | 2.7V | 03:18:11 | 02:06:44 | 00:00:00 | |
| DF2AP-13 | 2026-09-02 12:49:48 | 49.39765 | 12.88324 | 218° | 58km/h | 24662m | -22.9m/s | 0°C | 0% | 0hPa | 2.6V | 00:00:00 | 02:06:47 | 00:00:00 | |
| DO3MHA-11 | 2026-09-02 12:49:45 | 49.39773 | 12.88335 | 228° | 11km/h | 24729m | -24.9m/s | 0°C | 0% | 28.2hPa | 2.6V | 00:00:00 | 02:06:44 | 00:00:00 | |
| DO8TBO-1 | 2026-09-02 12:49:42 | 49.39777 | 12.88344 | 231° | 11km/h | 24806m | -28.1m/s | 0°C | 0% | 28.0hPa | 2.6V | 00:00:00 | 02:06:41 | 00:00:00 | |
| DL1XH1-15 | 2026-09-02 12:49:41 | 49.39785 | 12.88356 | 219° | 7km/h | 24913m | -26.3m/s | 0°C | 0% | 0hPa | 2.6V | 03:18:13 | 02:06:37 | 00:00:00 | |
| HSKMA3-T | 2026-09-02 12:49:39 | 49.39783 | 12.88354 | 230° | 9km/h | 24886m | -27.4m/s | -250.6°C | 100% | 27.6hPa | 2.7V | 03:19:02 | 02:06:38 | 00:00:00 | |
| DF8AY | 2026-09-02 12:49:33 | 49.39792 | 12.88364 | 194° | 7km/h | 25036m | -23.9m/s | -250.6°C | 100% | 27hPa | 2.7V | 03:19:02 | 02:06:32 | 00:00:00 | |
| DL1XH-west | 2026-09-02 12:49:32 | 49.39793 | 12.88365 | 198° | 7km/h | 25060m | -22.6m/s | -250.6°C | 100% | 26.9hPa | 2.6V | 03:19:02 | 02:06:31 | 00:00:00 | |
| HSKMA3-T | 2026-09-02 12:49:28 | 49.39803 | 12.88371 | 210° | 11km/h | 25157m | -25.8m/s | -250.6°C | 100% | 26.5hPa | 2.7V | 03:19:02 | 02:06:27 | 00:00:00 | |
| DL6DJ-15 | 2026-09-02 12:49:26 | 49.39811 | 12.88381 | 229° | 13km/h | 25230m | -24.6m/s | 0°C | 100.0% | 26.2hPa | 2.7V | 00:00:00 | 00:00:00 | 00:00:00 | |
| DL1XH1-15 | 2026-09-02 12:49:24 | 49.39818 | 12.88401 | 256° | 5km/h | 25364m | -19.6m/s | 0°C | 0% | 0hPa | 2.7V | 03:18:32 | 02:06:18 | 00:00:00 | |
| DL1XH-west | 2026-09-02 12:49:22 | 49.39816 | 12.88392 | 247° | 9km/h | 25300m | -23.1m/s | -250.6°C | 100% | 25.9hPa | 2.7V | 03:19:02 | 02:06:21 | 00:00:00 | |
| HSKMA3-T | 2026-09-02 12:49:18 | 49.39818 | 12.88403 | 249° | 7km/h | 25386m | -23.8m/s | -250.6°C | 100% | 25.6hPa | 2.7V | 03:19:02 | 02:06:17 | 00:00:00 | |
| DL3JIN-12 | 2026-09-02 12:49:17 | 49.39818 | 12.88403 | 250° | 7km/h | 25386m | -23.8m/s | 0°C | 0% | 25.6hPa | 2.6V | 03:19:00 | 00:00:00 | 00:00:00 | |
| DL1XH1-15 | 2026-09-02 12:49:14 | 49.39813 | 12.88404 | 70° | 5km/h | 25618m | -21.4m/s | 0°C | 0% | 0hPa | 2.6V | 03:18:42 | 02:06:08 | 00:00:00 | |
| DF8AY | 2026-09-02 12:49:13 | 49.39814 | 12.88406 | 61° | 5km/h | 25595m | -24.1m/s | -250.6°C | 100% | 24.8hPa | 2.6V | 03:19:02 | 02:06:09 | 00:00:00 | |
| DL1XH-west | 2026-09-02 12:49:12 | 49.39816 | 12.88409 | 25° | 2km/h | 25542m | -26.8m/s | -250.6°C | 100% | 25hPa | 2.7V | 03:19:02 | 02:06:11 | 00:00:00 | |
| HSKMA3-T | 2026-09-02 12:49:08 | 49.39813 | 12.88402 | 75° | 7km/h | 25638m | -18.3m/s | -250.6°C | 100% | 24.6hPa | 2.7V | 03:19:02 | 02:06:07 | 00:00:00 | |
| PETON7-10 | 2026-09-02 12:49:06 | 49.39812 | 12.88396 | 71° | 9km/h | 25669m | -12.0m/s | 0°C | 0% | 24.4hPa | 2.6V | 03:18:00 | 00:00:00 | 00:00:00 | |
| DO3MHA-11 | 2026-09-02 12:49:04 | 49.39810 | 12.88389 | 70° | 9km/h | 25691m | -10.1m/s | 0°C | 0% | 24.3hPa | 2.6V | 00:00:00 | 02:06:03 | 00:00:00 | |
| DL1XH1-15 | 2026-09-02 12:49:02 | 49.39808 | 12.88370 | 127° | 9km/h | 25763m | -13.2m/s | 0°C | 0% | 0hPa | 2.6V | 03:18:53 | 02:05:57 | 00:00:00 | |
| DL1XH-west | 2026-09-02 12:49:02 | 49.39808 | 12.88382 | 73° | 11km/h | 25713m | -13m/s | -250.6°C | 100% | 24.3hPa | 2.7V | 03:19:02 | 02:06:01 | 00:00:00 | |
| DF8AY | 2026-09-02 12:49:00 | 49.39807 | 12.88375 | 81° | 7km/h | 25739m | -11.3m/s | -250.6°C | 100% | 24.2hPa | 2.7V | 03:19:02 | 02:05:59 | 00:00:00 | |
| HSKMA3-T | 2026-09-02 12:48:58 | 49.39808 | 12.88370 | 128° | 9km/h | 25763m | -13.2m/s | -250.6°C | 100% | 24.1hPa | 2.6V | 03:19:02 | 02:05:57 | 00:00:00 | |
| DL1XH-west | 2026-09-02 12:48:51 | 49.39822 | 12.88363 | 202° | 4km/h | 25887m | -21.1m/s | -250.6°C | 100% | 23.7hPa | 2.7V | 03:19:02 | 02:05:50 | 00:00:00 | |
| DF8AY | 2026-09-02 12:48:50 | 49.39823 | 12.88365 | 224° | 5km/h | 25932m | -24.3m/s | -250.6°C | 100% | 23.5hPa | 2.7V | 03:19:02 | 02:05:48 | 00:00:00 | |
| DL1XH1-15 | 2026-09-02 12:48:50 | 49.39824 | 12.88367 | 228° | 7km/h | 25957m | -25.6m/s | 0°C | 0% | 0hPa | 2.7V | 03:19:03 | 02:05:47 | 00:00:00 | |
| HSKMA3-T | 2026-09-02 12:48:47 | 49.39826 | 12.88370 | 230° | 9km/h | 25983m | -24.7m/s | -250.6°C | 100% | 23.4hPa | 2.6V | 03:19:53 | 02:05:46 | 00:00:00 | |
| DL1XH-west | 2026-09-02 12:48:42 | 49.39831 | 12.88389 | 248° | 7km/h | 26128m | -25.3m/s | -250.6°C | 100% | 22.8hPa | 2.6V | 03:19:53 | 02:05:40 | 00:00:00 | |
| DL1XH1-15 | 2026-09-02 12:48:40 | 49.39835 | 12.88394 | 175° | 5km/h | 26206m | -29.2m/s | 0°C | 0% | 0hPa | 2.7V | 03:19:13 | 02:05:37 | 00:00:00 | |
| DF8AY | 2026-09-02 12:48:40 | 49.39833 | 12.88394 | 210° | 5km/h | 26177m | -27.4m/s | -250.6°C | 100% | 22.7hPa | 2.7V | 03:22:26 | 02:05:38 | 00:00:00 | |
| HSKMA3-T | 2026-09-02 12:48:36 | 49.39839 | 12.88393 | 155° | 9km/h | 26262m | -26.9m/s | -250.6°C | 100% | 22.4hPa | 2.6V | 03:19:53 | 02:05:35 | 00:00:00 | |
| DL1XH-west | 2026-09-02 12:48:31 | 49.39847 | 12.88382 | 131° | 7km/h | 26397m | -23.8m/s | -250.6°C | 100% | 21.9hPa | 2.7V | 03:19:53 | 02:05:30 | 00:00:00 | |
| DL1XH1-15 | 2026-09-02 12:48:30 | 49.39848 | 12.88376 | 76° | 4km/h | 26469m | -25.3m/s | 0°C | 0% | 0hPa | 2.7V | 03:19:23 | 02:05:27 | 00:00:00 | |
| DF8AY | 2026-09-02 12:48:28 | 49.39848 | 12.88375 | 45° | 4km/h | 26494m | -24.4m/s | -250.6°C | 100% | 21.6hPa | 2.7V | 03:22:26 | 02:05:26 | 00:00:00 | |
| HSKMA3-T | 2026-09-02 12:48:25 | 49.39846 | 12.88375 | 327° | 4km/h | 26543m | -25m/s | -250.6°C | 100% | 21.5hPa | 2.6V | 03:19:53 | 02:05:24 | 00:00:00 | |
| DL1XH-west | 2026-09-02 12:48:20 | 49.39838 | 12.88390 | 312° | 11km/h | 26677m | -29.1m/s | -250.6°C | 100% | 21.1hPa | 2.7V | 03:19:53 | 02:05:19 | 00:00:00 | |
| AA1-15 | 2026-09-02 12:48:19 | 49.39834 | 12.88395 | 331° | 9km/h | 26733m | -26.4m/s | -250.6°C | 100% | 20.9hPa | 2.6V | 03:24:08 | 02:05:17 | 00:00:00 | |
| HSKMA3-T | 2026-09-02 12:48:15 | 49.39829 | 12.88397 | 359° | 7km/h | 26814m | -26.2m/s | -250.6°C | 100% | 20.6hPa | 2.7V | 03:19:53 | 02:05:14 | 00:00:00 | |
| DL3JIN-12 | 2026-09-02 12:48:14 | 49.39829 | 12.88397 | 360° | 7km/h | 26814m | -26.2m/s | 0°C | 0% | 20.6hPa | 2.6V | 03:19:00 | 00:00:00 | 00:00:00 | |
| DL1XH1-15 | 2026-09-02 12:48:13 | 49.39822 | 12.88397 | 353° | 5km/h | 26918m | -26.2m/s | 0°C | 0% | 0hPa | 2.6V | 03:19:40 | 02:05:10 | 00:00:00 | |
| DL1XH-west | 2026-09-02 12:48:09 | 49.39820 | 12.88400 | 323° | 7km/h | 26970m | -26.9m/s | -250.6°C | 100% | 20.1hPa | 2.7V | 03:19:53 | 02:05:08 | 00:00:00 | |
| HSKMA3-T | 2026-09-02 12:48:05 | 49.39815 | 12.88410 | 321° | 9km/h | 27087m | -28.7m/s | -250.6°C | 100% | 19.8hPa | 2.6V | 03:19:53 | 02:05:04 | 00:00:00 | |
| DF8AY | 2026-09-02 12:48:04 | 49.39810 | 12.88414 | 341° | 13km/h | 27139m | -23.5m/s | -250.6°C | 100% | 19.6hPa | 2.7V | 03:22:26 | 02:05:02 | 00:00:00 | |
| DL1XH1-15 | 2026-09-02 12:48:03 | 49.39802 | 12.88415 | 6° | 18km/h | 27190m | -26m/s | 0°C | 0% | 0hPa | 2.7V | 03:19:50 | 02:05:00 | 00:00:00 | |
| DL1XH-west | 2026-09-02 12:47:58 | 49.39787 | 12.88409 | 21° | 24km/h | 27264m | -22.7m/s | -250.6°C | 100% | 19.2hPa | 2.6V | 03:19:53 | 02:04:57 | 00:00:00 | |
| HSKMA3-T | 2026-09-02 12:47:55 | 49.39772 | 12.88397 | 36° | 20km/h | 27329m | -20.5m/s | -250.6°C | 100% | 19hPa | 2.7V | 03:20:44 | 02:04:54 | 00:00:00 | |
| DL3JIN-12 | 2026-09-02 12:47:54 | 49.39771 | 12.88397 | 37° | 20km/h | 27329m | -20.5m/s | 0°C | 0% | 19.0hPa | 2.7V | 03:20:00 | 00:00:00 | 00:00:00 | |
| DF8AY | 2026-09-02 12:47:54 | 49.39766 | 12.88388 | 56° | 13km/h | 27365m | -15.4m/s | -250.6°C | 100% | 18.9hPa | 2.6V | 03:22:26 | 02:04:52 | 00:00:00 | |
| DL1XH1-15 | 2026-09-02 12:47:53 | 49.39763 | 12.88380 | 74° | 13km/h | 27392m | -12.3m/s | 0°C | 0% | 0hPa | 2.7V | 03:20:00 | 02:04:50 | 00:00:00 | |
| DL1XH-west | 2026-09-02 12:47:48 | 49.39760 | 12.88367 | 49° | 15km/h | 27429m | -11.8m/s | -250.6°C | 100% | 18.7hPa | 2.6V | 03:20:44 | 02:04:47 | 00:00:00 | |
| DL1XH1-15 | 2026-09-02 12:47:47 | 49.39735 | 12.88328 | 71° | 18km/h | 27532m | -24.1m/s | 0°C | 0% | 0hPa | 2.6V | 03:20:10 | 02:04:40 | 00:00:00 | |
| HSKMA3-T | 2026-09-02 12:47:44 | 49.39745 | 12.88348 | 40° | 24km/h | 27477m | -13.2m/s | -250.6°C | 100% | 18.5hPa | 2.7V | 03:20:44 | 02:04:43 | 00:00:00 | |
| DF8AY | 2026-09-02 12:47:43 | 49.39735 | 12.88317 | 108° | 11km/h | 27588m | -30m/s | -250.6°C | 100% | 18.3hPa | 2.7V | 03:22:26 | 02:04:38 | 00:00:00 | |
| DL1XH-west | 2026-09-02 12:47:38 | 49.39736 | 12.88314 | 130° | 7km/h | 27619m | -30.6m/s | -250.6°C | 100% | 18.2hPa | 2.7V | 03:20:44 | 02:04:37 | 00:00:00 | |
| HSKMA3-T | 2026-09-02 12:47:33 | 49.39739 | 12.88318 | 303° | 9km/h | 27767m | -27.5m/s | -250.6°C | 100% | 17.8hPa | 2.7V | 03:20:44 | 02:04:32 | 00:00:00 | |
| DF8AY | 2026-09-02 12:47:32 | 49.39737 | 12.88320 | 322° | 9km/h | 27794m | -26.7m/s | -250.6°C | 100% | 17.7hPa | 2.7V | 03:22:26 | 02:04:31 | 00:00:00 | |
| DL1XH-west | 2026-09-02 12:47:27 | 49.39724 | 12.88318 | 39° | 16km/h | 27932m | -24m/s | -250.6°C | 100% | 17.4hPa | 2.7V | 03:20:44 | 02:04:26 | 00:00:00 | |
| BAUMI2-15 | 2026-09-02 12:47:27 | 49.39724 | 12.88318 | 39° | 18km/h | 27932m | -24.0m/s | 0°C | 0% | 17.3hPa | 2.7V | 00:00:00 | 02:04:26 | 00:00:00 | |
| OE5DRO-10 | 2026-09-02 12:47:26 | 49.39721 | 12.88314 | 36° | 11km/h | 27954m | -19.6m/s | 0°C | 0% | 17.2hPa | 2.7V | 00:00:00 | 00:00:00 | 00:00:00 | |
| DL1XH1-15 | 2026-09-02 12:47:23 | 49.39703 | 12.88295 | 27° | 15km/h | 28034m | -15.8m/s | 0°C | 0% | 0hPa | 2.7V | 03:20:30 | 02:04:20 | 00:00:00 | |
| HSKMA3-T | 2026-09-02 12:47:23 | 49.39709 | 12.88301 | 36° | 18km/h | 28004m | -15.8m/s | -250.6°C | 100% | 17.1hPa | 2.6V | 03:20:44 | 02:04:22 | 00:00:00 | |
| DF8AY | 2026-09-02 12:47:22 | 49.39706 | 12.88298 | 28° | 15km/h | 28018m | -14.9m/s | -250.6°C | 100% | 17.1hPa | 2.6V | 03:22:26 | 02:04:21 | 00:00:00 | |
| DL6DJ-15 | 2026-09-02 12:47:22 | 49.39703 | 12.88295 | 27° | 15km/h | 28034m | -15.8m/s | 0°C | 100.0% | 17.0hPa | 2.7V | 00:00:00 | 00:00:00 | 00:00:00 | |
| PETON7-10 | 2026-09-02 12:47:21 | 49.39703 | 12.88295 | 28° | 7km/h | 28034m | -15.8m/s | 0°C | 0% | 17.0hPa | 2.7V | 00:00:00 | 02:04:20 | 00:00:00 | |
| OE5MMP-10 | 2026-09-02 12:47:20 | 49.39700 | 12.88293 | 17° | 11km/h | 28050m | -15.0m/s | 0°C | 0% | 16.9hPa | 2.7V | 00:00:00 | 02:04:19 | 00:00:00 | |
| DJ2DS-15 | 2026-09-02 12:47:18 | 49.39695 | 12.88291 | 32° | 11km/h | 28084m | -20.9m/s | 0°C | 0% | 16.9hPa | 2.6V | 00:00:00 | 02:04:17 | 00:00:00 | |
| DL1XH1-15 | 2026-09-02 12:47:16 | 49.39687 | 12.88266 | 76° | 5km/h | 28285m | -32m/s | 0°C | 0% | 0hPa | 2.6V | 03:20:40 | 02:04:10 | 00:00:00 | |
| DL1XH-west | 2026-09-02 12:47:16 | 49.39691 | 12.88284 | 60° | 13km/h | 28137m | -30.3m/s | -250.6°C | 100% | 16.9hPa | 2.7V | 03:20:44 | 02:04:15 | 00:00:00 | |
| HSKMA3-T | 2026-09-02 12:47:13 | 49.39687 | 12.88272 | 78° | 7km/h | 28224m | -30.1m/s | -250.6°C | 100% | 16.6hPa | 2.6V | 03:20:44 | 02:04:12 | 00:00:00 | |
| DF8AY | 2026-09-02 12:47:11 | 49.39686 | 12.88265 | 78° | 2km/h | 28317m | -32.1m/s | -250.6°C | 100% | 16.4hPa | 2.7V | 03:22:26 | 02:04:09 | 00:00:00 | |
| DL1XH-west | 2026-09-02 12:47:06 | 49.39680 | 12.88263 | 7° | 13km/h | 28470m | -31.7m/s | -250.6°C | 100% | 16hPa | 2.6V | 03:21:35 | 02:04:04 | 00:00:00 | |
| DL1XH1-15 | 2026-09-02 12:47:05 | 49.39665 | 12.88260 | 16° | 15km/h | 28588m | -31.5m/s | 0°C | 0% | 0hPa | 2.7V | 03:20:50 | 02:04:00 | 00:00:00 | |
| HSKMA3-T | 2026-09-02 12:47:02 | 49.39669 | 12.88261 | 8° | 15km/h | 28558m | -30.4m/s | -250.6°C | 100% | 15.8hPa | 2.7V | 03:21:35 | 02:04:01 | 00:00:00 | |
| DF8AY | 2026-09-02 12:46:58 | 49.39658 | 12.88251 | 66° | 15km/h | 28683m | -32.1m/s | -250.6°C | 100% | 15.5hPa | 2.7V | 03:22:26 | 02:03:57 | 00:00:00 | |
| DL1XH-west | 2026-09-02 12:46:55 | 49.39655 | 12.88235 | 64° | 16km/h | 28782m | -35.5m/s | -250.6°C | 100% | 15.3hPa | 2.6V | 03:21:35 | 02:03:54 | 00:00:00 | |
| DL1XH1-15 | 2026-09-02 12:46:54 | 49.39646 | 12.88222 | 14° | 13km/h | 28916m | -32.3m/s | 0°C | 0% | 0hPa | 2.7V | 03:21:00 | 02:03:50 | 00:00:00 | |
| HSKMA3-T | 2026-09-02 12:46:52 | 49.39649 | 12.88224 | 26° | 11km/h | 28883m | -32.5m/s | -250.6°C | 100% | 15.1hPa | 2.7V | 03:21:35 | 02:03:51 | 00:00:00 | |
| AA1-15 | 2026-09-02 12:46:50 | 49.39640 | 12.88219 | 23° | 11km/h | 28977m | -30.5m/s | -250.6°C | 100% | 14.8hPa | 2.7V | 03:24:08 | 02:03:48 | 00:00:00 | |
| DF8AY | 2026-09-02 12:46:48 | 49.39638 | 12.88218 | 28° | 7km/h | 29006m | -27.9m/s | -250.6°C | 100% | 14.8hPa | 2.6V | 03:22:26 | 02:03:47 | 00:00:00 | |
| DL1XH-west | 2026-09-02 12:46:45 | 49.39634 | 12.88209 | 70° | 13km/h | 29081m | -21.3m/s | -250.6°C | 100% | 14.6hPa | 2.7V | 03:21:35 | 02:03:44 | 00:00:00 | |
| DL1XH1-15 | 2026-09-02 12:46:43 | 49.39627 | 12.88185 | 48° | 16km/h | 29182m | -31.4m/s | 0°C | 0% | 0hPa | 2.6V | 03:21:10 | 02:03:40 | 00:00:00 | |
| HSKMA3-T | 2026-09-02 12:46:42 | 49.39628 | 12.88185 | 49° | 16km/h | 29182m | -31.4m/s | -250.6°C | 100% | 14.4hPa | 2.6V | 03:21:35 | 02:03:40 | 00:00:00 | |
| DL1XH-west | 2026-09-02 12:46:35 | 49.39603 | 12.88177 | 356° | 18km/h | 29370m | -30.7m/s | -250.6°C | 100% | 14hPa | 2.6V | 03:21:35 | 02:03:34 | 00:00:00 | |
| PETON7-10 | 2026-09-02 12:46:34 | 49.39599 | 12.88177 | 12° | 18km/h | 29400m | -30.2m/s | 0°C | 0% | 13.9hPa | 2.7V | 00:00:00 | 02:03:33 | 00:00:00 | |
| DL1XH1-15 | 2026-09-02 12:46:33 | 49.39589 | 12.88165 | 58° | 20km/h | 29501m | -36.3m/s | 0°C | 0% | 0hPa | 2.7V | 03:21:20 | 02:03:30 | 00:00:00 | |
| HSKMA3-T | 2026-09-02 12:46:30 | 49.39586 | 12.88158 | 64° | 20km/h | 29537m | -35.2m/s | -250.6°C | 100% | 13.7hPa | 2.6V | 03:21:35 | 02:03:29 | 00:00:00 | |
| DL1XH-west | 2026-09-02 12:46:25 | 49.39572 | 12.88117 | 63° | 15km/h | 29720m | -29.2m/s | -250.6°C | 100% | 13.3hPa | 2.7V | 03:21:35 | 02:03:23 | 00:00:00 | |
| DF8AY | 2026-09-02 12:46:23 | 49.39571 | 12.88112 | 72° | 15km/h | 29748m | -27.5m/s | -250.6°C | 100% | 13.2hPa | 2.6V | 03:22:26 | 02:03:22 | 00:00:00 | |
| DL1XH1-15 | 2026-09-02 12:46:22 | 49.39570 | 12.88098 | 97° | 20km/h | 29804m | -27.7m/s | 0°C | 0% | 0hPa | 2.6V | 03:21:30 | 02:03:20 | 00:00:00 | |
| HSKMA3-T | 2026-09-02 12:46:20 | 49.39571 | 12.88090 | 98° | 22km/h | 29831m | -26.7m/s | -250.6°C | 100% | 13.1hPa | 2.7V | 03:21:35 | 02:03:19 | 00:00:00 | |
| DL1XH-west | 2026-09-02 12:46:14 | 49.39572 | 12.88035 | 105° | 11km/h | 30045m | -32.6m/s | -250.6°C | 100% | 12.7hPa | 2.7V | 03:22:26 | 02:03:12 | 00:00:00 | |
| HSKMA3-T | 2026-09-02 12:46:09 | 49.39575 | 12.88018 | 103° | 16km/h | 30165m | -32.1m/s | -250.6°C | 100% | 12.5hPa | 2.6V | 03:22:26 | 02:03:08 | 00:00:00 | |
| DL1XH-west | 2026-09-02 12:46:04 | 49.39583 | 12.87960 | 119° | 24km/h | 30379m | -30.1m/s | -250.6°C | 100% | 12hPa | 2.7V | 03:22:26 | 02:03:01 | 00:00:00 | |
| DF8AY | 2026-09-02 12:46:02 | 49.39596 | 12.87919 | 117° | 11km/h | 30539m | -24.2m/s | -250.6°C | 100% | 11.7hPa | 2.6V | 03:22:26 | 02:02:55 | 00:00:00 | |
| HSKMA3-T | 2026-09-02 12:45:59 | 49.39592 | 12.87930 | 112° | 20km/h | 30490m | -24.5m/s | -250.6°C | 100% | 11.8hPa | 2.6V | 03:22:26 | 02:02:57 | 00:00:00 | |
| OE5WHR-10 | 2026-09-02 12:45:58 | 49.39592 | 12.87930 | 112° | 15km/h | 30491m | -24.4m/s | 0°C | 0% | 11.8hPa | 2.6V | 00:00:00 | 00:00:00 | 00:00:00 | |
| DL1XH1-15 | 2026-09-02 12:45:57 | 49.39593 | 12.87910 | 21° | 2km/h | 30701m | -39.1m/s | 0°C | 0% | 0hPa | 2.6V | 03:22:00 | 02:02:50 | 00:00:00 | |
| DL1XH-west | 2026-09-02 12:45:53 | 49.39595 | 12.87911 | 48° | 5km/h | 30629m | -32.3m/s | -250.6°C | 100% | 11.6hPa | 2.7V | 03:22:26 | 02:02:52 | 00:00:00 | |
| DF8AY | 2026-09-02 12:45:52 | 49.39588 | 12.87901 | 60° | 13km/h | 30890m | -37.8m/s | -250.6°C | 100% | 11.2hPa | 2.7V | 03:22:26 | 02:02:45 | 00:00:00 | |
| HSKMA3-T | 2026-09-02 12:45:48 | 49.39590 | 12.87904 | 51° | 9km/h | 30853m | -36.4m/s | -250.6°C | 100% | 11.2hPa | 2.7V | 03:22:26 | 02:02:46 | 00:00:00 | |
| DL1XH1-15 | 2026-09-02 12:45:45 | 49.39572 | 12.87852 | 68° | 29km/h | 31096m | -30.9m/s | 0°C | 0% | 0hPa | 2.6V | 03:22:11 | 02:02:39 | 00:00:00 | |
| DL1XH-west | 2026-09-02 12:45:43 | 49.39578 | 12.87872 | 65° | 27km/h | 31030m | -32.9m/s | -250.6°C | 100% | 10.9hPa | 2.7V | 03:22:26 | 02:02:41 | 00:00:00 | |
| DF8AY | 2026-09-02 12:45:41 | 49.39549 | 12.87761 | 63° | 18km/h | 31545m | -35.1m/s | -250.6°C | 100% | 10.1hPa | 2.7V | 03:22:26 | 02:02:26 | 00:00:00 | |
| HSKMA3-T | 2026-09-02 12:45:37 | 49.39564 | 12.87821 | 69° | 26km/h | 31195m | -37.1m/s | -250.6°C | 100% | 10.6hPa | 2.7V | 03:22:26 | 02:02:36 | 00:00:00 | |
| DL1XH1-15 | 2026-09-02 12:45:35 | 49.39552 | 12.87773 | 83° | 13km/h | 31478m | -30.7m/s | 0°C | 0% | 0hPa | 2.7V | 03:22:22 | 02:02:28 | 00:00:00 | |
| DL1XH-west | 2026-09-02 12:45:32 | 49.39553 | 12.87783 | 79° | 13km/h | 31414m | -34.2m/s | -250.6°C | 100% | 10.3hPa | 2.6V | 03:22:26 | 02:02:30 | 00:00:00 | |
| DF8AY | 2026-09-02 12:45:30 | 49.39521 | 12.87704 | 50° | 22km/h | 31839m | -35.7m/s | -250.6°C | 100% | 9.7hPa | 2.6V | 03:23:17 | 02:02:18 | 00:00:00 | |
| HSKMA3-T | 2026-09-02 12:45:27 | 49.39546 | 12.87754 | 57° | 22km/h | 31581m | -38.3m/s | -250.6°C | 100% | 10.1hPa | 2.6V | 03:22:26 | 02:02:25 | 00:00:00 | |
| DF8AY | 2026-09-02 12:45:19 | 49.39515 | 12.87690 | 65° | 24km/h | 31908m | -35m/s | -250.6°C | 100% | 9.6hPa | 2.7V | 03:23:17 | 02:02:16 | 00:00:00 | |
| DJ2DS-15 | 2026-09-02 12:45:18 | 49.39518 | 12.87697 | 58° | 26km/h | 31874m | -33.6m/s | 0°C | 0% | 9.6hPa | 2.6V | 03:22:00 | 02:02:17 | 00:00:00 | |
| DL6DJ-15 | 2026-09-02 12:45:17 | 49.39515 | 12.87690 | 65° | 22km/h | 31908m | -35.0m/s | 0°C | 100.0% | 9.6hPa | 2.6V | 00:00:00 | 00:00:00 | 00:00:00 | |
| HSKMA3-T | 2026-09-02 12:45:17 | 49.39513 | 12.87681 | 74° | 26km/h | 31943m | -36.4m/s | -250.6°C | 100% | 9.5hPa | 2.7V | 03:23:17 | 02:02:15 | 00:00:00 | |
| OE5WHR-10 | 2026-09-02 12:45:16 | 49.39513 | 12.87681 | 74° | 24km/h | 31944m | -36.4m/s | 0°C | 0% | 9.5hPa | 2.6V | 00:00:00 | 02:02:15 | 00:00:00 | |
| PG1ADW-2 | 2026-09-02 12:45:15 | 49.39511 | 12.87671 | 80° | 26km/h | 31979m | -34.2m/s | 0°C | 0% | 9.4hPa | 2.6V | 03:22:00 | 00:00:00 | 00:00:00 | |
| SONCRA | 2026-09-02 12:45:14 | 49.39509 | 12.87650 | 82° | 29km/h | 32049m | -34.4m/s | 0°C | 100.0% | 9.4hPa | 2.6V | 00:00:00 | 00:00:00 | 00:00:00 | |
| DL1XH1-15 | 2026-09-02 12:45:12 | 49.39500 | 12.87607 | 59° | 18km/h | 32247m | -42m/s | 0°C | 0% | 0hPa | 2.6V | 03:22:43 | 02:02:07 | 00:00:00 | |
| DL1XH-west | 2026-09-02 12:45:11 | 49.39507 | 12.87629 | 76° | 24km/h | 32123m | -40.8m/s | -250.6°C | 100% | 9.3hPa | 2.7V | 03:23:17 | 02:02:10 | 00:00:00 | |
| HSKMA3-T | 2026-09-02 12:45:07 | 49.39493 | 12.87574 | 87° | 26km/h | 32413m | -40.9m/s | -250.6°C | 100% | 8.9hPa | 2.7V | 03:23:17 | 02:02:03 | 00:00:00 | |
| DF8AY | 2026-09-02 12:45:05 | 49.39499 | 12.87464 | 88° | 13km/h | 32935m | -38.5m/s | -250.6°C | 100% | 8.2hPa | 2.7V | 03:23:17 | 02:01:50 | 00:00:00 | |
| DL1XH-west | 2026-09-02 12:45:01 | 49.39494 | 12.87540 | 97° | 33km/h | 32536m | -43m/s | -250.6°C | 100% | 8.8hPa | 2.6V | 03:23:17 | 02:02:00 | 00:00:00 | |
| PETON7-10 | 2026-09-02 12:45:01 | 49.39494 | 12.87540 | 98° | 15km/h | 32536m | -42.9m/s | 0°C | 0% | 8.7hPa | 2.7V | 00:00:00 | 00:00:00 | 00:00:00 | |
| DL1XH1-15 | 2026-09-02 12:45:00 | 49.39499 | 12.87507 | 98° | 26km/h | 32663m | -40.3m/s | 0°C | 0% | 0hPa | 2.7V | 03:22:53 | 02:01:57 | 00:00:00 | |
| AA1-15 | 2026-09-02 12:44:59 | 49.39497 | 12.87517 | 103° | 27km/h | 32622m | -42.9m/s | -250.6°C | 100% | 8.7hPa | 2.6V | 03:24:08 | 02:01:58 | 00:00:00 | |
| HSKMA3-T | 2026-09-02 12:44:56 | 49.39500 | 12.87490 | 93° | 18km/h | 32742m | -38.4m/s | -250.6°C | 100% | 8.5hPa | 2.7V | 03:23:17 | 02:01:55 | 00:00:00 | |
| PG1ADW-2 | 2026-09-02 12:44:55 | 49.39500 | 12.87483 | 90° | 13km/h | 32780m | -37.5m/s | 0°C | 0% | 8.4hPa | 2.6V | 00:00:00 | 00:00:00 | 00:00:00 | |
| DF8AY | 2026-09-02 12:44:53 | 49.39513 | 12.87420 | 40° | 2km/h | 33568m | -38.5m/s | -250.6°C | 100% | 7.5hPa | 2.6V | 03:23:17 | 02:01:33 | 00:00:00 | |
| OE5WHR-10 | 2026-09-02 12:44:52 | 49.39499 | 12.87469 | 86° | 7km/h | 32898m | -37.3m/s | 0°C | 0% | 8.2hPa | 2.7V | 00:00:00 | 00:00:00 | 00:00:00 | |
| SP3BTT-10 | 2026-09-02 12:44:51 | 49.39499 | 12.87464 | 89° | 18km/h | 32935m | -38.5m/s | 0°C | 0% | 8.2hPa | 2.6V | 00:00:00 | 00:00:00 | 00:00:00 | |
| DL1XH-west | 2026-09-02 12:44:51 | 49.39499 | 12.87459 | 93° | 16km/h | 32973m | -37.2m/s | -250.6°C | 100% | 8.2hPa | 2.6V | 03:23:17 | 02:01:49 | 00:00:00 | |
| DL1XH1-15 | 2026-09-02 12:44:49 | 49.39501 | 12.87444 | 111° | 20km/h | 33045m | -33.8m/s | 0°C | 0% | 0hPa | 2.6V | 03:23:03 | 02:01:47 | 00:00:00 | |
| HSKMA3-T | 2026-09-02 12:44:46 | 49.39505 | 12.87430 | 120° | 22km/h | 33112m | -34.3m/s | -250.6°C | 100% | 8hPa | 2.7V | 03:23:17 | 02:01:45 | 00:00:00 | |
| DL6DJ-15 | 2026-09-02 12:44:46 | 49.39505 | 12.87430 | 119° | 22km/h | 33113m | -34.3m/s | 0°C | 100.0% | 8.0hPa | 2.7V | 00:00:00 | 00:00:00 | 00:00:00 | |
| DF8AY | 2026-09-02 12:44:42 | 49.39514 | 12.87420 | 219° | 2km/h | 33644m | -39.6m/s | -250.6°C | 100% | 7.4hPa | 2.7V | 03:25:50 | 02:01:31 | 00:00:00 | |
| AA1-15 | 2026-09-02 12:44:42 | 49.39517 | 12.87412 | 167° | 7km/h | 33255m | -37m/s | -250.6°C | 100% | 7.9hPa | 2.6V | 03:24:08 | 02:01:41 | 00:00:00 | |
| DL1XH-west | 2026-09-02 12:44:40 | 49.39519 | 12.87413 | 262° | 4km/h | 33331m | -38m/s | -250.6°C | 100% | 7.8hPa | 2.7V | 03:23:17 | 02:01:39 | 00:00:00 | |
| DL1XH1-15 | 2026-09-02 12:44:39 | 49.39518 | 12.87418 | 312° | 7km/h | 33410m | -42.9m/s | 0°C | 0% | 0hPa | 2.7V | 03:23:13 | 02:01:37 | 00:00:00 | |
| HSKMA3-T | 2026-09-02 12:44:35 | 49.39514 | 12.87420 | 2° | 4km/h | 33529m | -39.3m/s | -250.6°C | 100% | 7.5hPa | 2.6V | 03:23:17 | 02:01:34 | 00:00:00 | |
| PG1ADW-2 | 2026-09-02 12:44:35 | 49.39514 | 12.87420 | 2° | 9km/h | 33529m | -39.3m/s | 0°C | 0% | 7.5hPa | 2.7V | 00:00:00 | 02:01:34 | 00:00:00 | |
| DF8AY | 2026-09-02 12:44:32 | 49.39483 | 12.87447 | 31° | 26km/h | 34406m | -36.8m/s | -250.6°C | 100% | 6.6hPa | 2.7V | 03:25:50 | 02:01:12 | 00:00:00 | |
| AA1-15 | 2026-09-02 12:44:31 | 49.39515 | 12.87430 | 261° | 11km/h | 33797m | -38.9m/s | -250.6°C | 100% | 7.3hPa | 2.7V | 03:24:08 | 02:01:27 | 00:00:00 | |
| DL1XH-west | 2026-09-02 12:44:29 | 49.39517 | 12.87446 | 260° | 9km/h | 33964m | -43.1m/s | -250.6°C | 100% | 7.1hPa | 2.6V | 03:24:08 | 02:01:23 | 00:00:00 | |
| HSKMA3-T | 2026-09-02 12:44:25 | 49.39516 | 12.87443 | 256° | 11km/h | 33920m | -44.9m/s | -250.6°C | 100% | 7.1hPa | 2.6V | 03:24:08 | 02:01:24 | 00:00:00 | |
| OE5WHR-10 | 2026-09-02 12:44:25 | 49.39516 | 12.87442 | 257° | 16km/h | 33921m | -44.8m/s | 0°C | 0% | 7.1hPa | 2.7V | 00:00:00 | 00:00:00 | 00:00:00 | |
| PETON7-10 | 2026-09-02 12:44:22 | 49.39517 | 12.87453 | 272° | 11km/h | 34049m | -43.4m/s | 0°C | 0% | 7.0hPa | 2.7V | 00:00:00 | 00:00:00 | 00:00:00 | |
| DL1XH1-15 | 2026-09-02 12:44:21 | 49.39511 | 12.87464 | 2° | 16km/h | 34215m | -40.9m/s | 0°C | 0% | 0hPa | 2.6V | 03:23:33 | 02:01:17 | 00:00:00 | |
| AA1-15 | 2026-09-02 12:44:20 | 49.39516 | 12.87460 | 300° | 11km/h | 34134m | -40.9m/s | -250.6°C | 100% | 6.9hPa | 2.7V | 03:24:08 | 02:01:19 | 00:00:00 | |
| DL1XH-west | 2026-09-02 12:44:19 | 49.39514 | 12.87463 | 336° | 11km/h | 34174m | -40.4m/s | -250.6°C | 100% | 6.9hPa | 2.7V | 03:24:08 | 02:01:18 | 00:00:00 | |
| HSKMA3-T | 2026-09-02 12:44:15 | 49.39495 | 12.87457 | 27° | 27km/h | 34331m | -37.8m/s | -250.6°C | 100% | 6.7hPa | 2.7V | 03:24:08 | 02:01:14 | 00:00:00 | |
| PG1ADW-2 | 2026-09-02 12:44:15 | 49.39495 | 12.87457 | 27° | 27km/h | 34332m | -37.7m/s | 0°C | 0% | 6.7hPa | 2.7V | 00:00:00 | 00:00:00 | 00:00:00 | |
| DL1XH1-15 | 2026-09-02 12:44:11 | 49.39461 | 12.87445 | 330° | 20km/h | 34570m | -27.3m/s | 0°C | 0% | 0hPa | 2.7V | 03:23:43 | 02:01:07 | 00:00:00 | |
| DF8AY | 2026-09-02 12:44:10 | 49.39422 | 12.87418 | 67° | 37km/h | 34752m | -21.3m/s | -250.6°C | 100% | 6.3hPa | 2.7V | 03:25:50 | 02:01:00 | 00:00:00 | |
| DL1XH-west | 2026-09-02 12:44:09 | 49.39465 | 12.87442 | 341° | 18km/h | 34541m | -31.1m/s | -250.6°C | 100% | 6.5hPa | 2.6V | 03:24:08 | 02:01:08 | 00:00:00 | |
| AA1-15 | 2026-09-02 12:44:09 | 49.39456 | 12.87449 | 346° | 22km/h | 34597m | -27.8m/s | -250.6°C | 100% | 6.4hPa | 2.7V | 03:24:08 | 02:01:06 | 00:00:00 | |
| HSKMA3-T | 2026-09-02 12:44:04 | 49.39438 | 12.87444 | 31° | 29km/h | 34684m | -26.5m/s | -250.6°C | 100% | 6.3hPa | 2.6V | 03:24:08 | 02:01:03 | 00:00:00 | |
| DL1XH-west | 2026-09-02 12:44:00 | 49.39413 | 12.87396 | 65° | 31km/h | 34799m | -27.2m/s | -250.6°C | 100% | 6.2hPa | 2.6V | 03:24:08 | 02:00:58 | 00:00:00 | |
| AA1-15 | 2026-09-02 12:43:58 | 49.39409 | 12.87389 | 47° | 29km/h | 34820m | -26.9m/s | -250.6°C | 100% | 6.2hPa | 2.6V | 03:24:08 | 02:00:57 | 00:00:00 | |
| HSKMA3-T | 2026-09-02 12:43:54 | 49.39377 | 12.87399 | 316° | 44km/h | 34889m | -32.2m/s | -250.6°C | 100% | 6.1hPa | 2.7V | 03:24:08 | 02:00:53 | 00:00:00 | |
| DL1XH-west | 2026-09-02 12:43:49 | 49.39394 | 12.87370 | 90° | 37km/h | 35153m | -13.3m/s | -31.9°C | 0% | 5.9hPa | 2.7V | 03:24:08 | 02:00:47 | 00:00:00 | |
| OE5MMP-10 | 2026-09-02 12:43:47 | 49.39393 | 12.87356 | 89° | 22km/h | 35162m | -3.8m/s | -31.9°C | 1.6% | 5.8hPa | 2.6V | 00:00:00 | 02:00:46 | 00:00:00 | |
| DL1XH-15 | 2026-09-02 12:43:46 | 49.39391 | 12.87318 | 41° | 20km/h | 35138m | 6.4m/s | 0°C | 0% | 0hPa | 2.7V | 03:24:07 | 02:00:43 | 00:00:00 | |
| DF8AY | 2026-09-02 12:43:45 | 49.39327 | 12.87179 | 61° | 35km/h | 35004m | 4.8m/s | -31.6°C | 0% | 6hPa | 2.7V | 03:25:50 | 02:00:18 | 00:00:00 | |
| HSKMA3-T | 2026-09-02 12:43:43 | 49.39387 | 12.87315 | 6° | 20km/h | 35132m | 6.6m/s | -32.3°C | 0% | 5.9hPa | 2.7V | 03:24:08 | 02:00:42 | 00:00:00 | |
| OE5WHR-10 | 2026-09-02 12:43:43 | 49.39386 | 12.87315 | 6° | 27km/h | 35132m | 6.5m/s | -32.3°C | 1.6% | 5.9hPa | 2.7V | 00:00:00 | 00:00:00 | 00:00:00 | |
| DL1XH1-15 | 2026-09-02 12:43:42 | 49.39377 | 12.87303 | 102° | 40km/h | 35088m | 5.3m/s | -32°C | 1.6% | 5.9hPa | 2.6V | 03:24:16 | 02:00:34 | 00:00:00 | |
| AA1-15 | 2026-09-02 12:43:38 | 49.39370 | 12.87328 | 136° | 5km/h | 35106m | 5.5m/s | -32.1°C | 0% | 5.9hPa | 2.7V | 03:25:50 | 02:00:37 | 00:00:00 | |
| DL1XH-west | 2026-09-02 12:43:36 | 49.39377 | 12.87303 | 103° | 40km/h | 35088m | 5.3m/s | -32°C | 0% | 5.9hPa | 2.6V | 03:24:59 | 02:00:34 | 00:00:00 | |
| DF8AY | 2026-09-02 12:43:36 | 49.39267 | 12.87137 | 64° | 29km/h | 34945m | 5.5m/s | -31.9°C | 0% | 6.1hPa | 2.7V | 03:25:50 | 02:00:07 | 00:00:00 | |
| DJ2DS-15 | 2026-09-02 12:43:35 | 49.39377 | 12.87303 | 103° | 31km/h | 35089m | 5.3m/s | 0°C | 0% | 0hPa | 2.7V | 00:00:00 | 02:00:34 | 00:00:00 | |
| DL1XH-15 | 2026-09-02 12:43:34 | 49.39374 | 12.87253 | 64° | 44km/h | 35074m | 5.4m/s | 0°C | 0% | 0hPa | 2.7V | 03:24:19 | 02:00:31 | 00:00:00 | |
| HSKMA3-T | 2026-09-02 12:43:33 | 49.39377 | 12.87269 | 80° | 46km/h | 35079m | 4.7m/s | -32°C | 0% | 6hPa | 2.6V | 03:24:59 | 02:00:32 | 00:00:00 | |
| PETON7-10 | 2026-09-02 12:43:31 | 49.39368 | 12.87239 | 47° | 31km/h | 35069m | 5.8m/s | -32.0°C | 1.6% | 5.9hPa | 2.7V | 00:00:00 | 02:00:30 | 00:00:00 | |
| DL1XH1-15 | 2026-09-02 12:43:30 | 49.39328 | 12.87232 | 350° | 5km/h | 35037m | 5.6m/s | -31.8°C | 1.6% | 6hPa | 2.7V | 03:24:26 | 02:00:24 | 00:00:00 | |
| DL1XH-west | 2026-09-02 12:43:26 | 49.39331 | 12.87230 | 334° | 15km/h | 35042m | 4.8m/s | -31.9°C | 0% | 6hPa | 2.7V | 03:24:59 | 02:00:25 | 00:00:00 | |
| AA1-15 | 2026-09-02 12:43:25 | 49.39328 | 12.87232 | 350° | 5km/h | 35037m | 5.6m/s | -31.8°C | 0% | 6hPa | 2.7V | 03:25:50 | 02:00:24 | 00:00:00 | |
| DL1XH-15 | 2026-09-02 12:43:24 | 49.39331 | 12.87204 | 90° | 33km/h | 35014m | 5m/s | 0°C | 0% | 0hPa | 2.7V | 03:24:30 | 02:00:20 | 00:00:00 | |
| HSKMA3-T | 2026-09-02 12:43:23 | 49.39329 | 12.87225 | 107° | 20km/h | 35025m | 5.9m/s | -31.8°C | 0% | 6hPa | 2.6V | 03:24:59 | 02:00:22 | 00:00:00 | |
| OE5WHR-10 | 2026-09-02 12:43:23 | 49.39330 | 12.87216 | 101° | 29km/h | 35020m | 5.6m/s | -31.8°C | 1.6% | 6.0hPa | 2.6V | 00:00:00 | 00:00:00 | 00:00:00 | |
| DF8AY | 2026-09-02 12:43:21 | 49.39216 | 12.87107 | 15° | 20km/h | 34898m | 5.7m/s | -31.8°C | 0% | 6.1hPa | 2.6V | 03:25:50 | 01:59:58 | 00:00:00 | |
| DL1XH1-15 | 2026-09-02 12:43:16 | 49.39299 | 12.87157 | 355° | 33km/h | 34983m | 5.3m/s | -31.8°C | 1.6% | 6hPa | 2.6V | 03:24:36 | 02:00:14 | 00:00:00 | |
| DL1XH-west | 2026-09-02 12:43:16 | 49.39307 | 12.87158 | 8° | 35km/h | 34988m | 5.8m/s | -31.8°C | 0% | 6hPa | 2.6V | 03:24:59 | 02:00:15 | 00:00:00 | |
| AA1-15 | 2026-09-02 12:43:14 | 49.39291 | 12.87159 | 350° | 29km/h | 34977m | 5m/s | -31.7°C | 0% | 6hPa | 2.7V | 03:25:50 | 02:00:13 | 00:00:00 | |
| DL1XH-15 | 2026-09-02 12:43:13 | 49.39275 | 12.87159 | 33° | 16km/h | 34962m | 5.7m/s | 0°C | 0% | 0hPa | 2.6V | 03:24:40 | 02:00:10 | 00:00:00 | |
| HSKMA3-T | 2026-09-02 12:43:13 | 49.39284 | 12.87160 | 351° | 24km/h | 34972m | 4.8m/s | -31.7°C | 0% | 6hPa | 2.7V | 03:24:59 | 02:00:12 | 00:00:00 | |
| DF8AY | 2026-09-02 12:43:10 | 49.39207 | 12.87098 | 45° | 26km/h | 34886m | 5.6m/s | -32°C | 0% | 6.1hPa | 2.7V | 03:25:50 | 01:59:56 | 00:00:00 | |
| DL1XH1-15 | 2026-09-02 12:43:10 | 49.39246 | 12.87107 | 14° | 27km/h | 34923m | 5.5m/s | -31.8°C | 1.6% | 6.1hPa | 2.6V | 03:24:47 | 02:00:03 | 00:00:00 | |
| DL1XH-west | 2026-09-02 12:43:05 | 49.39253 | 12.87111 | 31° | 29km/h | 34929m | 5.6m/s | -31.9°C | 0% | 6.1hPa | 2.6V | 03:24:59 | 02:00:04 | 00:00:00 | |
| HSKMA3-T | 2026-09-02 12:43:02 | 49.39233 | 12.87106 | 353° | 27km/h | 34913m | 4.8m/s | -31.7°C | 0% | 6.1hPa | 2.7V | 03:24:59 | 02:00:01 | 00:00:00 | |
| DL1XH-west | 2026-09-02 12:42:55 | 49.39196 | 12.87082 | 42° | 33km/h | 34876m | 4.4m/s | -32.2°C | 0% | 6.1hPa | 2.6V | 03:24:59 | 01:59:54 | 00:00:00 | |
| DJ2DS-15 | 2026-09-02 12:42:55 | 49.39196 | 12.87082 | 42° | 33km/h | 34876m | 4.4m/s | 0°C | 0% | 0hPa | 2.7V | 00:00:00 | 01:59:54 | 00:00:00 | |
| DL1XH-15 | 2026-09-02 12:42:53 | 49.39174 | 12.87067 | 2° | 35km/h | 34860m | 6m/s | 0°C | 0% | 0hPa | 2.7V | 03:24:59 | 01:59:51 | 00:00:00 | |
| HSKMA3-T | 2026-09-02 12:42:52 | 49.39174 | 12.87067 | 3° | 35km/h | 34860m | 6m/s | -32.4°C | 0% | 6.1hPa | 2.7V | 03:24:59 | 01:59:51 | 00:00:00 | |
| AA1-15 | 2026-09-02 12:42:52 | 49.39166 | 12.87068 | 349° | 35km/h | 34854m | 5.6m/s | -32.3°C | 0% | 6.2hPa | 2.7V | 03:25:50 | 01:59:50 | 00:00:00 | |
| PG1ADW-2 | 2026-09-02 12:42:51 | 49.39166 | 12.87068 | 350° | 26km/h | 34855m | 5.5m/s | -32.3°C | 1.7% | 6.1hPa | 2.7V | 00:00:00 | 00:00:00 | 00:00:00 | |
| DL1XH1-15 | 2026-09-02 12:42:49 | 49.39128 | 12.87081 | 26° | 20km/h | 34823m | 4.9m/s | -32.4°C | 1.6% | 6.2hPa | 2.7V | 03:25:06 | 01:59:44 | 00:00:00 | |
| DF8AY | 2026-09-02 12:42:45 | 49.39028 | 12.87040 | 8° | 5km/h | 34750m | 4.2m/s | -32.7°C | 0% | 6.3hPa | 2.6V | 03:25:50 | 01:59:30 | 00:00:00 | |
| DL1XH-west | 2026-09-02 12:42:44 | 49.39123 | 12.87076 | 30° | 26km/h | 34818m | 4.6m/s | -32.4°C | 0% | 6.2hPa | 2.7V | 03:25:50 | 01:59:43 | 00:00:00 | |
| PETON7-10 | 2026-09-02 12:42:44 | 49.39123 | 12.87076 | 30° | 31km/h | 34819m | 4.5m/s | -32.4°C | 1.6% | 6.1hPa | 2.6V | 00:00:00 | 01:59:43 | 00:00:00 | |
| DL1XH-15 | 2026-09-02 12:42:43 | 49.39052 | 12.87056 | 6° | 42km/h | 34783m | 4.3m/s | 0°C | 0% | 0hPa | 2.6V | 03:25:14 | 01:59:36 | 00:00:00 | |
| HSKMA3-T | 2026-09-02 12:42:42 | 49.39109 | 12.87067 | 18° | 37km/h | 34808m | 6.2m/s | -32.5°C | 0% | 6.2hPa | 2.6V | 03:25:50 | 01:59:41 | 00:00:00 | |
| AA1-15 | 2026-09-02 12:42:42 | 49.39088 | 12.87060 | 7° | 49km/h | 34796m | 5.4m/s | -32.7°C | 0% | 0hPa | 2.7V | 03:25:50 | 01:59:39 | 00:00:00 | |
| DL1XH1-15 | 2026-09-02 12:42:39 | 49.39036 | 12.87051 | 21° | 24km/h | 34772m | 6.4m/s | -32.8°C | 1.6% | 6.2hPa | 2.6V | 03:25:16 | 01:59:34 | 00:00:00 | |
| DF8AY | 2026-09-02 12:42:35 | 49.39017 | 12.87046 | 342° | 29km/h | 34733m | 5.6m/s | -32.8°C | 0% | 6.3hPa | 2.7V | 03:25:50 | 01:59:27 | 00:00:00 | |
| DL1XH-west | 2026-09-02 12:42:33 | 49.39030 | 12.87044 | 60° | 9km/h | 34759m | 5.6m/s | -32.8°C | 0% | 6.2hPa | 2.7V | 03:25:50 | 01:59:32 | 00:00:00 | |
| DL1XH-15 | 2026-09-02 12:42:32 | 49.39009 | 12.87049 | 348° | 35km/h | 34728m | 4.9m/s | 0°C | 0% | 0hPa | 2.7V | 03:25:24 | 01:59:26 | 00:00:00 | |
| HSKMA3-T | 2026-09-02 12:42:32 | 49.39029 | 12.87041 | 66° | 5km/h | 34755m | 4.6m/s | -32.7°C | 0% | 6.2hPa | 2.7V | 03:25:50 | 01:59:31 | 00:00:00 | |
| AA1-15 | 2026-09-02 12:42:30 | 49.39023 | 12.87043 | 338° | 20km/h | 34739m | 6.1m/s | -32.8°C | 0% | 0hPa | 2.7V | 03:25:50 | 01:59:28 | 00:00:00 | |
| DL1XH-west | 2026-09-02 12:42:23 | 49.38969 | 12.87034 | 53° | 27km/h | 34702m | 5.1m/s | -33.1°C | 0% | 6.3hPa | 2.7V | 03:25:50 | 01:59:21 | 00:00:00 | |
| HSKMA3-T | 2026-09-02 12:42:21 | 49.38966 | 12.87025 | 69° | 22km/h | 34697m | 4.8m/s | -33.2°C | 0% | 6.3hPa | 2.7V | 03:25:50 | 01:59:20 | 00:00:00 | |
| DL1XH1-15 | 2026-09-02 12:42:18 | 49.38962 | 12.87023 | 306° | 16km/h | 34664m | 4.3m/s | -33.5°C | 1.7% | 6.3hPa | 2.7V | 03:25:36 | 01:59:14 | 00:00:00 | |
| AA1-15 | 2026-09-02 12:42:17 | 49.38965 | 12.87014 | 283° | 7km/h | 34675m | 6.1m/s | -33.4°C | 0% | 0hPa | 2.6V | 03:25:50 | 01:59:16 | 00:00:00 | |
| OE5MMP-10 | 2026-09-02 12:42:17 | 49.38965 | 12.87014 | 283° | 20km/h | 34675m | 6.0m/s | -33.3°C | 1.7% | 6.3hPa | 2.6V | 03:25:00 | 01:59:16 | 00:00:00 | |
| DL1XH-15 | 2026-09-02 12:42:16 | 49.38955 | 12.87030 | 350° | 15km/h | 34655m | 4.9m/s | 0°C | 0% | 0hPa | 2.6V | 03:25:38 | 01:59:12 | 00:00:00 | |
| DL1XH-west | 2026-09-02 12:42:13 | 49.38944 | 12.87017 | 58° | 27km/h | 34637m | 6.2m/s | -33.9°C | 0% | 6.4hPa | 2.7V | 03:25:50 | 01:59:09 | 00:00:00 | |
| HSKMA3-T | 2026-09-02 12:42:12 | 49.38947 | 12.87025 | 45° | 22km/h | 34644m | 6.6m/s | -33.9°C | 0% | 6.3hPa | 2.7V | 03:25:50 | 01:59:10 | 00:00:00 | |
| DF8AY | 2026-09-02 12:42:11 | 49.38940 | 12.87007 | 63° | 31km/h | 34632m | 5.1m/s | -33.8°C | 0% | 6.3hPa | 2.7V | 03:25:50 | 01:59:08 | 00:00:00 | |
| AA1-15 | 2026-09-02 12:42:06 | 49.38929 | 12.86980 | 40° | 22km/h | 34619m | 5.1m/s | -33.9°C | 0% | 0hPa | 2.6V | 03:25:50 | 01:59:05 | 00:00:00 | |
| DL1XH1-15 | 2026-09-02 12:42:06 | 49.38924 | 12.86977 | 12° | 18km/h | 34613m | 6.5m/s | -34°C | 1.7% | 6.4hPa | 2.7V | 03:25:46 | 01:59:04 | 00:00:00 | |
| HSKMA3-T | 2026-09-02 12:42:01 | 49.38907 | 12.86995 | 309° | 20km/h | 34592m | 3.6m/s | -34.3°C | 0% | 6.4hPa | 2.6V | 03:25:50 | 01:59:00 | 00:00:00 | |
| DF8AY | 2026-09-02 12:42:00 | 49.38899 | 12.86993 | 73° | 22km/h | 34571m | 5.7m/s | -34.6°C | 0% | 6.4hPa | 2.6V | 03:26:41 | 01:58:56 | 00:00:00 | |
| AA1-15 | 2026-09-02 12:41:55 | 49.38894 | 12.86974 | 57° | 33km/h | 34562m | 3.9m/s | -34.8°C | 0% | 0hPa | 2.6V | 03:26:41 | 01:58:54 | 00:00:00 | |
| HSKMA3-T | 2026-09-02 12:41:51 | 49.38861 | 12.86951 | 355° | 46km/h | 34540m | 6.4m/s | -35.1°C | 0% | 6.4hPa | 2.7V | 03:26:41 | 01:58:50 | 00:00:00 | |
| DF8AY | 2026-09-02 12:41:48 | 49.38812 | 12.86971 | 1° | 22km/h | 34516m | 5.9m/s | -34.9°C | 0% | 6.5hPa | 2.7V | 03:26:41 | 01:58:45 | 00:00:00 | |
| OE5MMP-10 | 2026-09-02 12:41:47 | 49.38819 | 12.86969 | 346° | 27km/h | 34522m | 4.6m/s | -34.8°C | 1.9% | 6.4hPa | 2.7V | 00:00:00 | 01:58:46 | 00:00:00 | |
| DL1XH-15 | 2026-09-02 12:41:45 | 49.38798 | 12.86946 | 62° | 27km/h | 34494m | 4.2m/s | 0°C | 0% | 0hPa | 2.7V | 03:26:09 | 01:58:41 | 00:00:00 | |
| DL1XH1-15 | 2026-09-02 12:41:41 | 49.38748 | 12.86945 | 335° | 31km/h | 34458m | 4.3m/s | -35°C | 1.8% | 6.5hPa | 2.7V | 03:26:16 | 01:58:34 | 00:00:00 | |
| AA1-15 | 2026-09-02 12:41:40 | 49.38789 | 12.86932 | 26° | 27km/h | 34484m | 5.4m/s | -35.1°C | 0% | 0hPa | 2.7V | 03:26:41 | 01:58:39 | 00:00:00 | |
| DF8AY | 2026-09-02 12:41:36 | 49.38748 | 12.86945 | 335° | 31km/h | 34458m | 4.3m/s | -35°C | 0% | 6.5hPa | 2.7V | 03:26:41 | 01:58:34 | 00:00:00 | |
| DL1XH-west | 2026-09-02 12:41:31 | 49.38731 | 12.86942 | 77° | 13km/h | 34431m | 5.4m/s | -35.3°C | 0% | 6.5hPa | 2.7V | 03:26:41 | 01:58:29 | 00:00:00 | |
| HSKMA3-T | 2026-09-02 12:41:29 | 49.38730 | 12.86937 | 74° | 13km/h | 34426m | 5.5m/s | -35.3°C | 0% | 6.5hPa | 2.7V | 03:26:41 | 01:58:28 | 00:00:00 | |
| DL1XH-15 | 2026-09-02 12:41:28 | 49.38722 | 12.86935 | 325° | 16km/h | 34403m | 5.4m/s | 0°C | 0% | 0hPa | 2.7V | 03:26:26 | 01:58:24 | 00:00:00 | |
| DF8AY | 2026-09-02 12:41:24 | 49.38693 | 12.86928 | 34° | 11km/h | 34356m | 4.2m/s | -35.8°C | 0% | 6.6hPa | 2.6V | 03:26:41 | 01:58:15 | 00:00:00 | |
| EDDB2-11 | 2026-09-02 12:41:24 | 49.38715 | 12.86943 | 328° | 16km/h | 34393m | 5.2m/s | -35.4°C | 0.5% | 6.6hPa | 2.6V | 00:00:00 | 00:00:00 | 00:00:00 | |
| DL1XH1-15 | 2026-09-02 12:41:20 | 49.38691 | 12.86927 | 334° | 7km/h | 34351m | 5.4m/s | -35.9°C | 2% | 6.6hPa | 2.6V | 03:26:36 | 01:58:14 | 00:00:00 | |
| AA1-15 | 2026-09-02 12:41:19 | 49.38701 | 12.86941 | 45° | 18km/h | 34370m | 5.8m/s | -35.7°C | 0% | 0hPa | 2.7V | 03:26:41 | 01:58:18 | 00:00:00 | |
| HSKMA3-T | 2026-09-02 12:41:18 | 49.38698 | 12.86936 | 53° | 18km/h | 34365m | 5m/s | -35.6°C | 0% | 6.6hPa | 2.7V | 03:26:41 | 01:58:17 | 00:00:00 | |
| DF8AY | 2026-09-02 12:41:11 | 49.38689 | 12.86958 | 265° | 29km/h | 34327m | 4m/s | -35.7°C | 0% | 6.7hPa | 2.6V | 03:26:41 | 01:58:10 | 00:00:00 | |
| PETON7-10 | 2026-09-02 12:41:11 | 49.38689 | 12.86958 | 266° | 27km/h | 34327m | 4.0m/s | -35.7°C | 2.0% | 6.6hPa | 2.6V | 03:26:00 | 01:58:10 | 00:00:00 | |
| DL1XH1-15 | 2026-09-02 12:41:10 | 49.38692 | 12.86957 | 77° | 31km/h | 34295m | 5m/s | -35.8°C | 2% | 6.7hPa | 2.6V | 03:26:46 | 01:58:04 | 00:00:00 | |
| DL1XH-west | 2026-09-02 12:41:09 | 49.38691 | 12.86975 | 247° | 13km/h | 34319m | 4.3m/s | -35.7°C | 0% | 6.7hPa | 2.7V | 03:27:32 | 01:58:08 | 00:00:00 | |
| HSKMA3-T | 2026-09-02 12:41:08 | 49.38692 | 12.86978 | 184° | 5km/h | 34314m | 6.2m/s | -35.7°C | 0% | 6.7hPa | 2.7V | 03:27:32 | 01:58:07 | 00:00:00 | |
| AA1-15 | 2026-09-02 12:41:07 | 49.38693 | 12.86975 | 104° | 13km/h | 34307m | 7.2m/s | -35.8°C | 0% | 0hPa | 2.7V | 03:27:32 | 01:58:06 | 00:00:00 | |
| DF8AY | 2026-09-02 12:41:00 | 49.38677 | 12.86983 | 190° | 16km/h | 34235m | 5.8m/s | -35.5°C | 0% | 6.7hPa | 2.6V | 03:27:32 | 01:57:53 | 00:00:00 | |
| DL1XH-west | 2026-09-02 12:40:59 | 49.38668 | 12.86952 | 275° | 31km/h | 34258m | 5.6m/s | -35.8°C | 0% | 6.7hPa | 2.7V | 03:27:32 | 01:57:57 | 00:00:00 | |
| DL1XH1-15 | 2026-09-02 12:40:58 | 49.38673 | 12.86980 | 219° | 20km/h | 34241m | 5.8m/s | -35.6°C | 2% | 6.7hPa | 2.6V | 03:26:56 | 01:57:54 | 00:00:00 | |
| HSKMA3-T | 2026-09-02 12:40:57 | 49.38668 | 12.86963 | 260° | 29km/h | 34252m | 5.7m/s | -35.8°C | 0% | 6.7hPa | 2.7V | 03:27:32 | 01:57:56 | 00:00:00 | |
| AA1-15 | 2026-09-02 12:40:53 | 49.38684 | 12.86979 | 133° | 15km/h | 34224m | 4.5m/s | -35.6°C | 0% | 0hPa | 2.7V | 03:27:32 | 01:57:51 | 00:00:00 | |
| SONDE2-11 | 2026-09-02 12:40:52 | 49.38684 | 12.86979 | 133° | 13km/h | 34225m | 4.5m/s | -35.6°C | 0.5% | 6.8hPa | 2.7V | 00:00:00 | 00:00:00 | 00:00:00 | |
| DF8AY | 2026-09-02 12:40:50 | 49.38667 | 12.87009 | 283° | 24km/h | 34180m | 5.6m/s | -35.9°C | 0% | 6.8hPa | 2.7V | 03:27:32 | 01:57:43 | 00:00:00 | |
| HSKMA3-T | 2026-09-02 12:40:47 | 49.38676 | 12.86981 | 311° | 26km/h | 34196m | 5.8m/s | -35.8°C | 0% | 6.8hPa | 2.6V | 03:27:32 | 01:57:46 | 00:00:00 | |
| DL1XH-west | 2026-09-02 12:40:47 | 49.38672 | 12.86989 | 301° | 29km/h | 34191m | 5.1m/s | -35.9°C | 0% | 6.8hPa | 2.6V | 03:27:32 | 01:57:45 | 00:00:00 | |
| DL1XH1-15 | 2026-09-02 12:40:46 | 49.38669 | 12.86999 | 292° | 27km/h | 34185m | 5.2m/s | -35.9°C | 2% | 6.8hPa | 2.7V | 03:27:06 | 01:57:44 | 00:00:00 | |
| DF8AY | 2026-09-02 12:40:39 | 49.38675 | 12.87034 | 234° | 9km/h | 34145m | 6.5m/s | -36°C | 0% | 6.8hPa | 2.6V | 03:27:32 | 01:57:37 | 00:00:00 | |
| HSKMA3-T | 2026-09-02 12:40:37 | 49.38676 | 12.87038 | 263° | 11km/h | 34139m | 6.3m/s | -36°C | 0% | 6.9hPa | 2.6V | 03:27:32 | 01:57:36 | 00:00:00 | |
| DL1XH-west | 2026-09-02 12:40:35 | 49.38675 | 12.87049 | 279° | 16km/h | 34127m | 5.5m/s | -35.8°C | 0% | 6.9hPa | 2.7V | 03:27:32 | 01:57:34 | 00:00:00 | |
| AA1-15 | 2026-09-02 12:40:32 | 49.38677 | 12.87073 | 233° | 15km/h | 34103m | 6.6m/s | -36°C | 0% | 0hPa | 2.6V | 03:27:32 | 01:57:30 | 00:00:00 | |
| DL1XH1-15 | 2026-09-02 12:40:30 | 49.38690 | 12.87099 | 268° | 18km/h | 34067m | 6.9m/s | -35.7°C | 2% | 6.9hPa | 2.6V | 03:27:26 | 01:57:24 | 00:00:00 | |
| DF8AY | 2026-09-02 12:40:28 | 49.38693 | 12.87143 | 238° | 24km/h | 34038m | 6.6m/s | -35.6°C | 0% | 7hPa | 2.6V | 03:27:32 | 01:57:19 | 00:00:00 | |
| HSKMA3-T | 2026-09-02 12:40:27 | 49.38688 | 12.87087 | 235° | 13km/h | 34080m | 5.9m/s | -35.7°C | 0% | 6.9hPa | 2.7V | 03:27:32 | 01:57:26 | 00:00:00 | |
| DL1XH-west | 2026-09-02 12:40:25 | 49.38690 | 12.87107 | 274° | 24km/h | 34060m | 6.4m/s | -35.7°C | 0% | 6.9hPa | 2.6V | 03:27:32 | 01:57:23 | 00:00:00 | |
| BAUMI2-15 | 2026-09-02 12:40:22 | 49.38689 | 12.87125 | 267° | 22km/h | 34050m | 4.9m/s | -35.7°C | 2.0% | 6.9hPa | 2.7V | 00:00:00 | 01:57:21 | 00:00:00 | |
| EDDB2-11 | 2026-09-02 12:40:21 | 49.38690 | 12.87135 | 253° | 24km/h | 34044m | 5.2m/s | -35.7°C | 0.5% | 6.9hPa | 2.7V | 00:00:00 | 00:00:00 | 00:00:00 | |
| DL1XH1-15 | 2026-09-02 12:40:20 | 49.38713 | 12.87159 | 327° | 2km/h | 34001m | 7.4m/s | -35.7°C | 1.9% | 7hPa | 2.7V | 00:00:00 | 01:57:13 | 00:00:00 | |
| AA1-15 | 2026-09-02 12:40:18 | 49.38701 | 12.87155 | 203° | 22km/h | 34025m | 6.1m/s | 0°C | 0% | 0hPa | 2.7V | 03:29:14 | 01:57:17 | 00:00:00 | |
| DF8AY | 2026-09-02 12:40:17 | 49.38713 | 12.87158 | 184° | 7km/h | 34008m | 6.5m/s | -35.7°C | 0% | 7hPa | 2.6V | 03:28:23 | 01:57:14 | 00:00:00 | |
| HSKMA3-T | 2026-09-02 12:40:16 | 49.38710 | 12.87158 | 184° | 13km/h | 34014m | 5.1m/s | -35.7°C | 0% | 7hPa | 2.6V | 03:28:23 | 01:57:15 | 00:00:00 | |
| DL1XH-west | 2026-09-02 12:40:14 | 49.38712 | 12.87160 | 337° | 11km/h | 33994m | 6.8m/s | -35.7°C | 0% | 7hPa | 2.7V | 03:28:23 | 01:57:12 | 00:00:00 | |
| PETON7-10 | 2026-09-02 12:40:10 | 49.38704 | 12.87171 | 292° | 18km/h | 33977m | 5.7m/s | -35.7°C | 1.9% | 7.0hPa | 2.6V | 03:27:00 | 00:00:00 | 00:00:00 | |
| SP3BTT-10 | 2026-09-02 12:40:09 | 49.38703 | 12.87177 | 265° | 16km/h | 33971m | 6.9m/s | -35.6°C | 1.9% | 7.0hPa | 2.7V | 00:00:00 | 00:00:00 | 00:00:00 | |
| DL1XH1-15 | 2026-09-02 12:40:08 | 49.38719 | 12.87207 | 221° | 27km/h | 33945m | 5.6m/s | -35.4°C | 1.9% | 7hPa | 2.7V | 00:00:00 | 01:57:04 | 00:00:00 | |
| AA1-15 | 2026-09-02 12:40:08 | 49.38705 | 12.87185 | 241° | 22km/h | 33963m | 6.9m/s | 0°C | 0% | 0hPa | 2.7V | 03:29:14 | 01:57:07 | 00:00:00 | |
| DF8AY | 2026-09-02 12:40:06 | 49.38725 | 12.87222 | 36° | 7km/h | 33907m | 7.1m/s | -35.3°C | 0% | 7.1hPa | 2.7V | 03:28:23 | 01:56:58 | 00:00:00 | |
| HSKMA3-T | 2026-09-02 12:40:05 | 49.38719 | 12.87207 | 221° | 27km/h | 33945m | 5.6m/s | -35.4°C | 0% | 7hPa | 2.7V | 03:28:23 | 01:57:04 | 00:00:00 | |
| DL1XH-west | 2026-09-02 12:40:03 | 49.38728 | 12.87221 | 254° | 7km/h | 33927m | 6.4m/s | -35.4°C | 0% | 7.1hPa | 2.6V | 03:28:23 | 01:57:01 | 00:00:00 | |
| EDDB2-12 | 2026-09-02 12:40:03 | 49.38727 | 12.87218 | 231° | 13km/h | 33933m | 6.4m/s | -35.4°C | 0.5% | 7.1hPa | 2.7V | 00:00:00 | 00:00:00 | 00:00:00 | |
| BAUMI2-15 | 2026-09-02 12:40:00 | 49.38726 | 12.87223 | 17° | 5km/h | 33914m | 6.6m/s | -35.3°C | 1.9% | 7.0hPa | 2.7V | 00:00:00 | 01:56:59 | 00:00:00 | |
| DL1XH1-15 | 2026-09-02 12:39:57 | 49.38724 | 12.87238 | 271° | 22km/h | 33863m | 6.4m/s | -35.5°C | 2% | 7.1hPa | 2.7V | 00:00:00 | 01:56:51 | 00:00:00 | |
| DF8AY | 2026-09-02 12:39:56 | 49.38723 | 12.87219 | 243° | 2km/h | 33888m | 5.4m/s | -35.1°C | 0% | 7.1hPa | 2.6V | 03:28:23 | 01:56:55 | 00:00:00 | |
| HSKMA3-T | 2026-09-02 12:39:54 | 49.38724 | 12.87224 | 267° | 13km/h | 33877m | 6.5m/s | -35.3°C | 0% | 7.1hPa | 2.7V | 03:28:23 | 01:56:53 | 00:00:00 | |
| AA1-15 | 2026-09-02 12:39:53 | 49.38724 | 12.87230 | 271° | 18km/h | 33870m | 7.2m/s | 0°C | 0% | 0hPa | 2.7V | 03:29:14 | 01:56:52 | 00:00:00 | |
| DL1XH-west | 2026-09-02 12:39:52 | 49.38724 | 12.87246 | 267° | 22km/h | 33857m | 5.4m/s | -35.6°C | 0% | 7.1hPa | 2.6V | 03:28:23 | 01:56:50 | 00:00:00 | |
| EDDB2-11 | 2026-09-02 12:39:50 | 49.38725 | 12.87254 | 254° | 18km/h | 33852m | 5.1m/s | -35.5°C | 0.5% | 7.1hPa | 2.7V | 00:00:00 | 00:00:00 | 00:00:00 | |
| BAUMI2-15 | 2026-09-02 12:39:49 | 49.38726 | 12.87260 | 233° | 16km/h | 33847m | 6.1m/s | -35.5°C | 2.0% | 7.1hPa | 2.7V | 03:28:00 | 01:56:48 | 00:00:00 | |
| DL1XH1-15 | 2026-09-02 12:39:47 | 49.38740 | 12.87241 | 35° | 13km/h | 33802m | 7.2m/s | -35.6°C | 0% | 7.2hPa | 2.7V | 00:00:00 | 01:56:41 | 00:00:00 | |
| DF8AY | 2026-09-02 12:39:46 | 49.38740 | 12.87256 | 126° | 18km/h | 33821m | 5m/s | -35.6°C | 0% | 7.2hPa | 2.6V | 03:28:23 | 01:56:44 | 00:00:00 | |
| HSKMA3-T | 2026-09-02 12:39:43 | 49.38742 | 12.87245 | 73° | 13km/h | 33809m | 6.9m/s | -35.8°C | 0% | 7.2hPa | 2.7V | 03:28:23 | 01:56:42 | 00:00:00 | |
| DL1XH-west | 2026-09-02 12:39:40 | 49.38729 | 12.87242 | 324° | 15km/h | 33784m | 5.2m/s | -35.7°C | 0% | 7.2hPa | 2.7V | 03:28:23 | 01:56:38 | 00:00:00 | |
| AA1-15 | 2026-09-02 12:39:39 | 49.38727 | 12.87246 | 297° | 13km/h | 33779m | 5.9m/s | 0°C | 0% | 0hPa | 2.7V | 03:29:14 | 01:56:37 | 00:00:00 | |
| DF8AY | 2026-09-02 12:39:35 | 49.38732 | 12.87254 | 181° | 16km/h | 33759m | 6m/s | -36°C | 0% | 7.2hPa | 2.6V | 03:28:23 | 01:56:34 | 00:00:00 | |
| HSKMA3-T | 2026-09-02 12:39:33 | 49.38739 | 12.87251 | 145° | 15km/h | 33748m | 4.5m/s | -35.8°C | 0% | 7.2hPa | 2.7V | 03:28:23 | 01:56:32 | 00:00:00 | |
| DL1XH-west | 2026-09-02 12:39:29 | 49.38734 | 12.87238 | 10° | 26km/h | 33723m | 7m/s | -35.8°C | 0% | 7.3hPa | 2.6V | 03:28:23 | 01:56:28 | 00:00:00 | |
| HSKMA3-T | 2026-09-02 12:39:23 | 49.38715 | 12.87243 | 194° | 16km/h | 33687m | 6.7m/s | -35.6°C | 0% | 7.3hPa | 2.6V | 03:29:14 | 01:56:22 | 00:00:00 | |
| AA1-15 | 2026-09-02 12:39:22 | 49.38719 | 12.87244 | 193° | 22km/h | 33681m | 5.7m/s | 0°C | 0% | 0hPa | 2.7V | 03:29:14 | 01:56:21 | 00:00:00 | |
| DL1XH-west | 2026-09-02 12:39:19 | 49.38730 | 12.87258 | 337° | 16km/h | 33651m | 6.7m/s | -35.8°C | 0% | 7.3hPa | 2.7V | 03:29:14 | 01:56:16 | 00:00:00 | |
| OE5MMP-10 | 2026-09-02 12:39:17 | 49.38730 | 12.87258 | 338° | 15km/h | 33652m | 6.6m/s | -35.8°C | 2.0% | 7.3hPa | 2.7V | 00:00:00 | 01:56:16 | 00:00:00 | |
| DL1XH1-15 | 2026-09-02 12:39:16 | 49.38705 | 12.87256 | 40° | 11km/h | 33620m | 6.5m/s | 0°C | 0% | 0hPa | 2.6V | 00:00:00 | 01:56:11 | 00:00:00 | |
| HSKMA3-T | 2026-09-02 12:39:13 | 49.38708 | 12.87258 | 19° | 18km/h | 33627m | 6.3m/s | -35.8°C | 0% | 7.4hPa | 2.6V | 03:29:14 | 01:56:12 | 00:00:00 | |
| AA1-15 | 2026-09-02 12:39:12 | 49.38705 | 12.87256 | 40° | 11km/h | 33620m | 6.5m/s | 0°C | 0% | 0hPa | 2.6V | 03:29:14 | 01:56:11 | 00:00:00 | |
| DL1XH-west | 2026-09-02 12:39:07 | 49.38711 | 12.87253 | 241° | 11km/h | 33591m | 6.6m/s | -35.7°C | 0% | 7.4hPa | 2.6V | 03:29:14 | 01:56:06 | 00:00:00 | |
| OE5MMP-10 | 2026-09-02 12:39:07 | 49.38711 | 12.87253 | 241° | 13km/h | 33591m | 6.6m/s | -35.7°C | 2.0% | 7.4hPa | 2.6V | 00:00:00 | 01:56:06 | 00:00:00 | |
| DL1XH1-15 | 2026-09-02 12:39:06 | 49.38701 | 12.87279 | 331° | 16km/h | 33560m | 6.2m/s | 0°C | 0% | 0hPa | 2.6V | 00:00:00 | 01:56:01 | 00:00:00 | |
| HSKMA3-T | 2026-09-02 12:39:02 | 49.38701 | 12.87279 | 332° | 16km/h | 33560m | 6.2m/s | -35.7°C | 0% | 7.4hPa | 2.6V | 03:29:14 | 01:56:01 | 00:00:00 | |
| DF8AY | 2026-09-02 12:39:01 | 49.38698 | 12.87281 | 350° | 11km/h | 33554m | 6.9m/s | -35.7°C | 0% | 7.5hPa | 2.6V | 03:29:14 | 01:56:00 | 00:00:00 | |
| AA1-15 | 2026-09-02 12:38:59 | 49.38694 | 12.87279 | 62° | 7km/h | 33541m | 5.7m/s | 0°C | 0% | 0hPa | 2.7V | 03:29:14 | 01:55:58 | 00:00:00 | |
| DL1XH-west | 2026-09-02 12:38:57 | 49.38689 | 12.87280 | 303° | 15km/h | 33511m | 6.7m/s | -35.6°C | 0% | 7.5hPa | 2.7V | 03:29:14 | 01:55:53 | 00:00:00 | |
| HSKMA3-T | 2026-09-02 12:38:52 | 49.38685 | 12.87300 | 275° | 16km/h | 33494m | 5.5m/s | -35.6°C | 0% | 7.5hPa | 2.7V | 03:29:14 | 01:55:50 | 00:00:00 | |
| AA1-15 | 2026-09-02 12:38:49 | 49.38686 | 12.87309 | 216° | 11km/h | 33481m | 6.7m/s | 0°C | 0% | 0hPa | 2.7V | 03:29:14 | 01:55:48 | 00:00:00 | |
| SONDE2-11 | 2026-09-02 12:38:49 | 49.38692 | 12.87309 | 148° | 11km/h | 33469m | 5.5m/s | -35.5°C | 0.5% | 7.5hPa | 2.7V | 00:00:00 | 00:00:00 | 00:00:00 | |
| EDDB2-11 | 2026-09-02 12:38:48 | 49.38692 | 12.87309 | 148° | 11km/h | 33469m | 5.5m/s | -35.5°C | 0.5% | 7.5hPa | 2.7V | 00:00:00 | 00:00:00 | 00:00:00 | |
| DL1XH-west | 2026-09-02 12:38:46 | 49.38692 | 12.87293 | 36° | 15km/h | 33444m | 6.1m/s | 0°C | 0% | 7.6hPa | 2.7V | 03:29:14 | 01:55:42 | 00:00:00 | |
| HSKMA3-T | 2026-09-02 12:38:42 | 49.38686 | 12.87290 | 4° | 11km/h | 33434m | 5m/s | -35.6°C | 0% | 7.6hPa | 2.6V | 03:29:14 | 01:55:40 | 00:00:00 | |
| DF8AY | 2026-09-02 12:38:38 | 49.38694 | 12.87297 | 193° | 20km/h | 33404m | 4.6m/s | -35.3°C | 0% | 7.6hPa | 2.6V | 03:32:38 | 01:55:35 | 00:00:00 | |
| AA1-15 | 2026-09-02 12:38:37 | 49.38690 | 12.87295 | 197° | 18km/h | 33409m | 5.5m/s | 0°C | 0% | 0hPa | 2.6V | 03:29:14 | 01:55:36 | 00:00:00 | |
| DL1XH-west | 2026-09-02 12:38:34 | 49.38704 | 12.87299 | 153° | 4km/h | 33387m | 6.7m/s | 0°C | 0% | 7.6hPa | 2.7V | 18:12:15 | 01:55:32 | 00:00:00 | |
| HSKMA3-T | 2026-09-02 12:38:32 | 49.38702 | 12.87296 | 33° | 11km/h | 33375m | 5.8m/s | -35.2°C | 0% | 7.7hPa | 2.6V | 03:30:05 | 01:55:30 | 00:00:00 | |
| DF8AY | 2026-09-02 12:38:24 | 49.38709 | 12.87280 | 173° | 15km/h | 33335m | 5.1m/s | -35.2°C | 0% | 0hPa | 2.7V | 03:32:38 | 01:55:23 | 00:00:00 | |
| DL1XH-west | 2026-09-02 12:38:24 | 49.38714 | 12.87279 | 183° | 7km/h | 33323m | 6.6m/s | 0°C | 0% | 0hPa | 2.6V | 18:12:15 | 01:55:21 | 00:00:00 | |
| HSKMA3-T | 2026-09-02 12:38:22 | 49.38716 | 12.87279 | 200° | 2km/h | 33317m | 6.1m/s | -35.2°C | 0% | 7.7hPa | 2.6V | 03:30:05 | 01:55:20 | 00:00:00 | |
| AA1-15 | 2026-09-02 12:38:19 | 49.38715 | 12.87278 | 110° | 4km/h | 33301m | 5.5m/s | 0°C | 0% | 0hPa | 2.7V | 18:12:15 | 01:55:17 | 00:00:00 | |
| DF8AY | 2026-09-02 12:38:13 | 49.38730 | 12.87258 | 139° | 20km/h | 33271m | 5m/s | -35.1°C | 0% | 0hPa | 2.7V | 03:32:38 | 01:55:12 | 00:00:00 | |
| DL1XH-west | 2026-09-02 12:38:13 | 49.38736 | 12.87241 | 82° | 9km/h | 33248m | 5.1m/s | 0°C | 0% | 0hPa | 2.6V | 18:12:15 | 01:55:08 | 00:00:00 | |
| HSKMA3-T | 2026-09-02 12:38:11 | 49.38736 | 12.87245 | 95° | 9km/h | 33253m | 5.7m/s | -35.2°C | 0% | 7.8hPa | 2.6V | 03:30:05 | 01:55:09 | 00:00:00 | |
| AA1-15 | 2026-09-02 12:38:06 | 49.38739 | 12.87233 | 145° | 13km/h | 33231m | 6.6m/s | 0°C | 0% | 0hPa | 2.7V | 18:12:15 | 01:55:05 | 00:00:00 | |
| DF8AY | 2026-09-02 12:38:03 | 49.38753 | 12.87223 | 158° | 24km/h | 33214m | 4.5m/s | -35.1°C | 0% | 0hPa | 2.7V | 03:32:38 | 01:55:02 | 00:00:00 | |
| HSKMA3-T | 2026-09-02 12:38:01 | 49.38766 | 12.87213 | 136° | 11km/h | 33198m | 6.6m/s | -35.1°C | 0% | 7.8hPa | 2.6V | 03:30:05 | 01:54:59 | 00:00:00 | |
| AA1-15 | 2026-09-02 12:37:53 | 49.38778 | 12.87183 | 144° | 29km/h | 33157m | 5.7m/s | 0°C | 0% | 0hPa | 2.7V | 18:12:15 | 01:54:52 | 00:00:00 | |
| DF8AY | 2026-09-02 12:37:52 | 49.38784 | 12.87177 | 147° | 31km/h | 33152m | 5.1m/s | -35°C | 0% | 0hPa | 2.7V | 03:32:38 | 01:54:51 | 00:00:00 | |
| HSKMA3-T | 2026-09-02 12:37:50 | 49.38795 | 12.87165 | 144° | 24km/h | 33142m | 5.8m/s | -35°C | 0% | 7.9hPa | 2.6V | 03:30:05 | 01:54:49 | 00:00:00 | |
| EDDB2-11 | 2026-09-02 12:37:46 | 49.38803 | 12.87143 | 102° | 11km/h | 33112m | 5.6m/s | -35.1°C | 0.5% | 8.0hPa | 2.7V | 00:00:00 | 00:00:00 | 00:00:00 | |
| AA1-15 | 2026-09-02 12:37:42 | 49.38810 | 12.87125 | 129° | 24km/h | 33094m | 5.2m/s | 0°C | 0% | 0hPa | 2.7V | 18:12:15 | 01:54:41 | 00:00:00 | |
| HSKMA3-T | 2026-09-02 12:37:40 | 49.38818 | 12.87111 | 128° | 22km/h | 33084m | 5.9m/s | -35.3°C | 0% | 8hPa | 2.6V | 03:30:56 | 01:54:39 | 00:00:00 | |
| DL1XH-west | 2026-09-02 12:37:34 | 49.38832 | 12.87081 | 132° | 18km/h | 33049m | 6.4m/s | 0°C | 0% | 0hPa | 2.6V | 18:12:15 | 01:54:33 | 00:00:00 | |
| HSKMA3-T | 2026-09-02 12:37:29 | 49.38839 | 12.87050 | 65° | 16km/h | 33023m | 6.9m/s | -35.9°C | 0% | 8hPa | 2.7V | 03:30:56 | 01:54:28 | 00:00:00 | |
| HSKMA3-T | 2026-09-02 12:37:19 | 49.38842 | 12.86982 | 28° | 9km/h | 32956m | 6.9m/s | -35.9°C | 0% | 8.1hPa | 2.7V | 03:30:56 | 01:54:16 | 00:00:00 | |
| AA1-15 | 2026-09-02 12:37:16 | 49.38830 | 12.86976 | 27° | 20km/h | 32939m | 4.8m/s | 0°C | 0% | 0hPa | 2.7V | 18:12:15 | 01:54:13 | 00:00:00 | |
| HSKMA3-T | 2026-09-02 12:37:08 | 49.38830 | 12.86925 | 116° | 26km/h | 32907m | 4.8m/s | -36.1°C | 0% | 8.2hPa | 2.7V | 03:30:56 | 01:54:07 | 00:00:00 | |
| DF8AY | 2026-09-02 12:37:02 | 49.38830 | 12.86914 | 321° | 7km/h | 32871m | 6.1m/s | 0°C | 0% | 0hPa | 2.7V | 03:32:38 | 01:54:01 | 00:00:00 | |
| HSKMA3-T | 2026-09-02 12:36:57 | 49.38827 | 12.86898 | 78° | 20km/h | 32845m | 6.1m/s | -36.5°C | 0% | 8.3hPa | 2.7V | 03:30:56 | 01:53:56 | 00:00:00 | |
| DF8AY | 2026-09-02 12:36:50 | 49.38831 | 12.86843 | 129° | 16km/h | 32799m | 4.6m/s | 0°C | 0% | 0hPa | 2.7V | 03:32:38 | 01:53:48 | 00:00:00 | |
| HSKMA3-T | 2026-09-02 12:36:46 | 49.38832 | 12.86828 | 63° | 16km/h | 32782m | 6.4m/s | -36.5°C | 0% | 0hPa | 2.7V | 18:12:15 | 01:53:45 | 00:00:00 | |
| HSKMA3-T | 2026-09-02 12:36:36 | 49.38845 | 12.86720 | 119° | 24km/h | 32727m | 6m/s | -36.5°C | 0% | 0hPa | 2.7V | 18:12:15 | 01:53:35 | 00:00:00 | |
| DF8AY | 2026-09-02 12:36:30 | 49.38852 | 12.86669 | 105° | 29km/h | 32688m | 5.3m/s | 0°C | 0% | 0hPa | 2.6V | 03:32:38 | 01:53:28 | 00:00:00 | |
| HSKMA3-T | 2026-09-02 12:36:26 | 49.38855 | 12.86616 | 85° | 38km/h | 32665m | 6.3m/s | -36.8°C | 0% | 0hPa | 2.7V | 18:12:15 | 01:53:24 | 00:00:00 | |
| AA1-15 | 2026-09-02 12:36:17 | 49.38865 | 12.86511 | 89° | 29km/h | 32615m | 6.4m/s | 0°C | 0% | 0hPa | 2.7V | 18:12:15 | 01:53:15 | 00:00:00 | |
| HSKMA3-T | 2026-09-02 12:36:15 | 49.38864 | 12.86499 | 77° | 35km/h | 32609m | 6.2m/s | -36.9°C | 0% | 0hPa | 2.7V | 18:12:15 | 01:53:14 | 00:00:00 | |
| HSKMA3-T | 2026-09-02 12:36:05 | 49.38861 | 12.86354 | 86° | 29km/h | 32554m | 6.2m/s | 0°C | 0% | 0hPa | 2.7V | 18:12:15 | 01:53:04 | 00:00:00 | |
| DF8AY | 2026-09-02 12:36:02 | 49.38845 | 12.86282 | 95° | 26km/h | 32509m | 4.9m/s | 0°C | 0% | 0hPa | 2.6V | 03:32:38 | 01:52:56 | 00:00:00 | |
| HSKMA3-T | 2026-09-02 12:35:52 | 49.38836 | 12.86221 | 60° | 37km/h | 32481m | 4.6m/s | 0°C | 0% | 0hPa | 2.6V | 18:12:15 | 01:52:51 | 00:00:00 | |
| DF8AY | 2026-09-02 12:35:51 | 49.38831 | 12.86210 | 57° | 33km/h | 32476m | 5m/s | 0°C | 0% | 0hPa | 2.6V | 03:32:38 | 01:52:50 | 00:00:00 | |
| DF8AY | 2026-09-02 12:35:43 | 49.38797 | 12.86137 | 68° | 26km/h | 32411m | 6.6m/s | 0°C | 0% | 0hPa | 2.6V | 03:32:38 | 01:52:39 | 00:00:00 | |
| HSKMA3-T | 2026-09-02 12:35:34 | 49.38783 | 12.86091 | 42° | 24km/h | 32376m | 6.2m/s | 0°C | 0% | 0hPa | 2.7V | 18:12:15 | 01:52:33 | 00:00:00 | |
| DF8AY | 2026-09-02 12:35:29 | 49.38762 | 12.86072 | 62° | 7km/h | 32342m | 4.9m/s | 0°C | 0% | 0hPa | 2.7V | 03:32:38 | 01:52:27 | 00:00:00 | |
| DF8AY | 2026-09-02 12:35:15 | 49.38729 | 12.85946 | 58° | 26km/h | 32256m | 5.2m/s | 0°C | 0% | 0hPa | 2.7V | 03:32:38 | 01:52:12 | 00:00:00 | |
| DF8AY | 2026-09-02 12:34:58 | 49.38690 | 12.85795 | 70° | 24km/h | 32162m | 6.6m/s | 0°C | 0% | 0hPa | 2.6V | 18:12:15 | 01:51:56 | 00:00:00 | |
| DL6DJ-15 | 2026-09-02 12:34:56 | 49.38688 | 12.85786 | 64° | 29km/h | 32156m | 6.4m/s | -37.9°C | 0.5% | 9.2hPa | 2.6V | 00:00:00 | 00:00:00 | 00:00:00 | |
| BAUMI2-15 | 2026-09-02 12:34:54 | 49.38680 | 12.85762 | 63° | 33km/h | 32145m | 5.0m/s | -38.0°C | 2.1% | 9.1hPa | 2.6V | 00:00:00 | 01:51:53 | 00:00:00 | |
| OE5WHR-10 | 2026-09-02 12:34:52 | 49.38673 | 12.85738 | 68° | 27km/h | 32134m | 6.3m/s | -38.0°C | 2.1% | 9.1hPa | 2.7V | 00:00:00 | 00:00:00 | 00:00:00 | |
| DO3MHA-11 | 2026-09-02 12:34:50 | 49.38668 | 12.85718 | 73° | 26km/h | 32122m | 5.1m/s | -38.2°C | 2.1% | 9.2hPa | 2.7V | 03:33:00 | 01:51:49 | 00:00:00 | |
| BAUMI2-15 | 2026-09-02 12:34:49 | 49.38666 | 12.85709 | 70° | 26km/h | 32117m | 4.5m/s | -38.3°C | 2.2% | 9.2hPa | 2.6V | 00:00:00 | 01:51:48 | 00:00:00 | |
| OE5REO-15 | 2026-09-02 12:34:48 | 49.38666 | 12.85709 | 71° | 22km/h | 32117m | 4.5m/s | -38.3°C | 0.6% | 9.2hPa | 2.6V | 03:33:00 | 00:00:00 | 00:00:00 | |
| OE5MMP-10 | 2026-09-02 12:34:47 | 49.38661 | 12.85693 | 57° | 24km/h | 32107m | 6.0m/s | -38.6°C | 2.2% | 9.2hPa | 2.6V | 00:00:00 | 01:51:46 | 00:00:00 | |
| BAUMI2-15 | 2026-09-02 12:34:44 | 49.38647 | 12.85667 | 52° | 27km/h | 32089m | 4.9m/s | -38.6°C | 2.2% | 9.2hPa | 2.7V | 03:33:00 | 01:51:43 | 00:00:00 | |
| DO3MHA-11 | 2026-09-02 12:34:40 | 49.38635 | 12.85633 | 89° | 24km/h | 32066m | 6.9m/s | -38.7°C | 2.2% | 9.2hPa | 2.7V | 00:00:00 | 01:51:39 | 00:00:00 | |
| SONDE2-11 | 2026-09-02 12:34:39 | 49.38636 | 12.85628 | 105° | 11km/h | 32059m | 5.9m/s | -38.8°C | 0.6% | 9.3hPa | 2.7V | 00:00:00 | 00:00:00 | 00:00:00 | |
| OE5MMP-10 | 2026-09-02 12:34:37 | 49.38636 | 12.85619 | 78° | 27km/h | 32050m | 4.2m/s | -38.8°C | 2.2% | 9.3hPa | 2.7V | 00:00:00 | 01:51:36 | 00:00:00 | |
| PG1ADW-2 | 2026-09-02 12:34:35 | 49.38632 | 12.85608 | 47° | 26km/h | 32038m | 7.2m/s | -38.9°C | 2.2% | 9.3hPa | 2.7V | 00:00:00 | 00:00:00 | 00:00:00 | |
| OE5REO-15 | 2026-09-02 12:34:32 | 49.38619 | 12.85592 | 41° | 37km/h | 32025m | 5.9m/s | -39.1°C | 0.6% | 9.4hPa | 2.7V | 03:33:00 | 00:00:00 | 00:00:00 | |
| OE5WHR-10 | 2026-09-02 12:34:31 | 49.38606 | 12.85573 | 45° | 27km/h | 32013m | 5.8m/s | -38.9°C | 2.2% | 9.3hPa | 2.7V | 03:33:00 | 01:51:30 | 00:00:00 | |
| DO3MHA-11 | 2026-09-02 12:34:30 | 49.38600 | 12.85564 | 52° | 20km/h | 32008m | 5.8m/s | -38.9°C | 2.2% | 9.3hPa | 2.7V | 00:00:00 | 01:51:29 | 00:00:00 | |
| OE5MMP-10 | 2026-09-02 12:34:27 | 49.38591 | 12.85536 | 75° | 20km/h | 31991m | 6.1m/s | -39.1°C | 2.2% | 9.3hPa | 2.7V | 00:00:00 | 01:51:26 | 00:00:00 | |
| DL6DJ-15 | 2026-09-02 12:34:25 | 49.38588 | 12.85518 | 70° | 24km/h | 31978m | 5.6m/s | -39.3°C | 0.6% | 9.4hPa | 2.7V | 00:00:00 | 00:00:00 | 00:00:00 | |
| EDDB2-12 | 2026-09-02 12:34:22 | 49.38576 | 12.85493 | 27° | 15km/h | 31957m | 6.6m/s | -39.3°C | 0.6% | 9.4hPa | 2.7V | 00:00:00 | 00:00:00 | 00:00:00 | |
| OE5MMP-10 | 2026-09-02 12:34:17 | 49.38559 | 12.85481 | 40° | 31km/h | 31935m | 5.8m/s | -39.0°C | 2.2% | 9.4hPa | 2.7V | 03:33:00 | 01:51:16 | 00:00:00 | |
| OE5REO-15 | 2026-09-02 12:34:16 | 49.38559 | 12.85481 | 41° | 26km/h | 31935m | 5.9m/s | -39.0°C | 0.6% | 9.5hPa | 2.6V | 03:34:00 | 00:00:00 | 00:00:00 | |
| PG1ADW-2 | 2026-09-02 12:34:15 | 49.38548 | 12.85463 | 53° | 33km/h | 31921m | 6.5m/s | -39.0°C | 2.2% | 9.4hPa | 2.6V | 00:00:00 | 01:51:14 | 00:00:00 | |
| SONDE2-11 | 2026-09-02 12:34:08 | 49.38509 | 12.85406 | 19° | 20km/h | 31880m | 6.1m/s | -39.3°C | 0.6% | 9.5hPa | 2.6V | 00:00:00 | 00:00:00 | 00:00:00 | |
| OE5MMP-10 | 2026-09-02 12:34:07 | 49.38503 | 12.85402 | 25° | 29km/h | 31874m | 6.4m/s | -39.3°C | 2.3% | 9.5hPa | 2.6V | 00:00:00 | 01:51:06 | 00:00:00 | |
| DL6DJ-15 | 2026-09-02 12:33:54 | 49.38410 | 12.85308 | 33° | 40km/h | 31800m | 4.8m/s | -39.7°C | 0.6% | 9.6hPa | 2.6V | 00:00:00 | 00:00:00 | 00:00:00 | |
| EDDB2-12 | 2026-09-02 12:33:50 | 49.38384 | 12.85294 | 0° | 18km/h | 31776m | 4.6m/s | -39.8°C | 0.6% | 9.7hPa | 2.6V | 00:00:00 | 00:00:00 | 00:00:00 | |
| DL1JEZ-13 | 2026-09-02 12:33:48 | 49.38379 | 12.85293 | 11° | 18km/h | 31771m | 4.7m/s | -39.7°C | 0.6% | 9.7hPa | 2.6V | 00:00:00 | 00:00:00 | 00:00:00 | |
| OE5MMP-10 | 2026-09-02 12:33:47 | 49.38369 | 12.85286 | 39° | 29km/h | 31760m | 6.3m/s | -39.6°C | 2.3% | 9.6hPa | 2.6V | 00:00:00 | 01:50:46 | 00:00:00 | |
| OE5REO-15 | 2026-09-02 12:33:45 | 49.38364 | 12.85278 | 45° | 35km/h | 31753m | 6.0m/s | -39.7°C | 0.6% | 9.7hPa | 2.7V | 03:34:00 | 00:00:00 | 00:00:00 | |
| OE5WHR-10 | 2026-09-02 12:33:41 | 49.38329 | 12.85232 | 32° | 20km/h | 31724m | 5.4m/s | -39.7°C | 2.3% | 9.7hPa | 2.7V | 00:00:00 | 00:00:00 | 00:00:00 | |
| DO3MHA-11 | 2026-09-02 12:33:37 | 49.38312 | 12.85215 | 48° | 24km/h | 31701m | 5.9m/s | -39.7°C | 2.3% | 9.7hPa | 2.7V | 03:34:00 | 01:50:36 | 00:00:00 | |
| PG1ADW-2 | 2026-09-02 12:33:35 | 49.38307 | 12.85206 | 47° | 22km/h | 31690m | 5.3m/s | -39.9°C | 2.3% | 9.8hPa | 2.7V | 03:34:00 | 00:00:00 | 00:00:00 | |
| OE5REO-15 | 2026-09-02 12:33:29 | 49.38286 | 12.85182 | 43° | 33km/h | 31662m | 6.3m/s | -40.2°C | 0.6% | 9.9hPa | 2.7V | 03:35:00 | 00:00:00 | 00:00:00 | |
| DO3MHA-11 | 2026-09-02 12:33:27 | 49.38269 | 12.85149 | 57° | 13km/h | 31644m | 4.2m/s | -40.1°C | 2.3% | 9.9hPa | 2.7V | 00:00:00 | 01:50:26 | 00:00:00 | |
| DL6DJ-15 | 2026-09-02 12:33:23 | 49.38258 | 12.85124 | 47° | 2km/h | 31621m | 5.7m/s | -40.3°C | 0.6% | 9.9hPa | 2.7V | 00:00:00 | 00:00:00 | 00:00:00 | |
| OE5WHR-10 | 2026-09-02 12:33:20 | 49.38259 | 12.85124 | 113° | 16km/h | 31605m | 5.9m/s | -40.3°C | 2.4% | 9.9hPa | 2.7V | 00:00:00 | 01:50:19 | 00:00:00 | |
| OE5MMP-10 | 2026-09-02 12:33:17 | 49.38257 | 12.85109 | 70° | 22km/h | 31588m | 5.4m/s | -40.3°C | 2.4% | 9.9hPa | 2.7V | 00:00:00 | 01:50:16 | 00:00:00 | |
| DO3MHA-11 | 2026-09-02 12:33:15 | 49.38251 | 12.85092 | 57° | 20km/h | 31577m | 5.9m/s | -40.3°C | 2.4% | 9.9hPa | 2.6V | 00:00:00 | 01:50:14 | 00:00:00 | |
| OE5REO-15 | 2026-09-02 12:33:13 | 49.38247 | 12.85084 | 47° | 26km/h | 31571m | 6.3m/s | -40.4°C | 0.6% | 10.0hPa | 2.6V | 03:35:00 | 00:00:00 | 00:00:00 | |
| SFWM-10 | 2026-09-02 12:33:08 | 49.38225 | 12.85061 | 48° | 18km/h | 31542m | 6.5m/s | 0°C | 0% | 0hPa | 2.6V | 00:00:00 | 00:00:00 | 00:00:00 | |
| OE5MMP-10 | 2026-09-02 12:33:07 | 49.38222 | 12.85051 | 77° | 13km/h | 31530m | 5.4m/s | -40.6°C | 2.4% | 10.0hPa | 2.6V | 00:00:00 | 01:50:06 | 00:00:00 | |
| DO3MHA-11 | 2026-09-02 12:33:05 | 49.38222 | 12.85043 | 109° | 18km/h | 31519m | 6.6m/s | -40.6°C | 2.4% | 10.0hPa | 2.6V | 00:00:00 | 01:50:04 | 00:00:00 | |
| DL6DJ-15 | 2026-09-02 12:32:52 | 49.38193 | 12.84995 | 261° | 0km/h | 31445m | 5.0m/s | -41.0°C | 0.6% | 10.2hPa | 2.6V | 00:00:00 | 00:00:00 | 00:00:00 | |
| SFWM-10 | 2026-09-02 12:32:48 | 49.38194 | 12.84988 | 86° | 15km/h | 31428m | 5.2m/s | 0°C | 0% | 0hPa | 2.6V | 00:00:00 | 00:00:00 | 00:00:00 | |
| OE5MMP-10 | 2026-09-02 12:32:47 | 49.38192 | 12.84975 | 70° | 22km/h | 31418m | 5.3m/s | -41.2°C | 2.5% | 10.2hPa | 2.6V | 00:00:00 | 01:49:46 | 00:00:00 | |
| DO3MHA-11 | 2026-09-02 12:32:45 | 49.38187 | 12.84962 | 57° | 22km/h | 31406m | 5.8m/s | -41.1°C | 2.5% | 10.2hPa | 2.7V | 00:00:00 | 01:49:44 | 00:00:00 | |
| OE5REO-15 | 2026-09-02 12:32:41 | 49.38178 | 12.84943 | 57° | 22km/h | 31391m | 5.0m/s | -41.2°C | 0.6% | 10.3hPa | 2.7V | 03:35:00 | 00:00:00 | 00:00:00 | |
| BAUMI2-15 | 2026-09-02 12:32:38 | 49.38166 | 12.84895 | 75° | 16km/h | 31362m | 5.0m/s | -41.4°C | 2.5% | 10.3hPa | 2.7V | 00:00:00 | 01:49:36 | 00:00:00 | |
| OE5MMP-10 | 2026-09-02 12:32:37 | 49.38166 | 12.84895 | 75° | 22km/h | 31362m | 5.0m/s | -41.4°C | 2.5% | 10.3hPa | 2.6V | 00:00:00 | 01:49:36 | 00:00:00 | |
| S52SK | 2026-09-02 12:32:35 | 49.38164 | 12.84886 | 75° | 18km/h | 31356m | 6.7m/s | -41.6°C | 0.6% | 10.3hPa | 2.6V | 00:00:00 | 00:00:00 | 00:00:00 | |
| DO3MHA-11 | 2026-09-02 12:32:33 | 49.38161 | 12.84873 | 61° | 26km/h | 31339m | 4.4m/s | -41.6°C | 2.5% | 10.3hPa | 2.6V | 00:00:00 | 01:49:32 | 00:00:00 | |
| BAUMI2-15 | 2026-09-02 12:32:32 | 49.38159 | 12.84869 | 62° | 29km/h | 31334m | 4.7m/s | -41.6°C | 2.5% | 10.3hPa | 2.6V | 00:00:00 | 01:49:31 | 00:00:00 | |
| S52SK | 2026-09-02 12:32:29 | 49.38154 | 12.84853 | 64° | 29km/h | 31322m | 6.6m/s | -41.6°C | 0.7% | 10.4hPa | 2.6V | 00:00:00 | 00:00:00 | 00:00:00 | |
| OE5MMP-10 | 2026-09-02 12:32:27 | 49.38142 | 12.84819 | 62° | 22km/h | 31305m | 5.8m/s | -41.7°C | 2.5% | 10.4hPa | 2.6V | 00:00:00 | 01:49:26 | 00:00:00 | |
| BAUMI2-15 | 2026-09-02 12:32:26 | 49.38138 | 12.84808 | 62° | 24km/h | 31299m | 5.9m/s | -41.6°C | 2.5% | 10.4hPa | 2.6V | 00:00:00 | 01:49:25 | 00:00:00 | |
| OE5REO-15 | 2026-09-02 12:32:25 | 49.38138 | 12.84808 | 62° | 29km/h | 31299m | 5.9m/s | -41.7°C | 0.6% | 10.4hPa | 2.6V | 03:36:00 | 00:00:00 | 00:00:00 | |
| DO3MHA-11 | 2026-09-02 12:32:23 | 49.38132 | 12.84786 | 82° | 22km/h | 31283m | 5.7m/s | -41.8°C | 2.5% | 10.4hPa | 2.6V | 00:00:00 | 01:49:22 | 00:00:00 | |
| DL6DJ-15 | 2026-09-02 12:32:21 | 49.38132 | 12.84771 | 95° | 20km/h | 31271m | 6.1m/s | -41.8°C | 0.6% | 10.4hPa | 2.6V | 00:00:00 | 00:00:00 | 00:00:00 | |
| OE5MMP-10 | 2026-09-02 12:32:17 | 49.38130 | 12.84742 | 57° | 33km/h | 31249m | 6.7m/s | -42.1°C | 2.6% | 10.4hPa | 2.6V | 03:35:00 | 01:49:16 | 00:00:00 | |
| BAUMI2-15 | 2026-09-02 12:32:16 | 49.38127 | 12.84737 | 45° | 35km/h | 31243m | 5.7m/s | -42.2°C | 2.6% | 10.4hPa | 2.7V | 00:00:00 | 01:49:15 | 00:00:00 | |
| DO3MHA-11 | 2026-09-02 12:32:13 | 49.38112 | 12.84712 | 54° | 33km/h | 31226m | 6.9m/s | -42.4°C | 2.6% | 10.5hPa | 2.7V | 03:35:00 | 01:49:12 | 00:00:00 | |
| BAUMI2-15 | 2026-09-02 12:32:10 | 49.38097 | 12.84670 | 67° | 27km/h | 31209m | 4.7m/s | -42.4°C | 2.7% | 10.5hPa | 2.6V | 00:00:00 | 01:49:09 | 00:00:00 | |
| OE5REO-15 | 2026-09-02 12:32:09 | 49.38097 | 12.84670 | 68° | 42km/h | 31209m | 4.7m/s | -42.4°C | 0.7% | 10.6hPa | 2.6V | 03:36:00 | 00:00:00 | 00:00:00 | |
| OE5MMP-10 | 2026-09-02 12:32:07 | 49.38087 | 12.84636 | 60° | 29km/h | 31191m | 6.1m/s | -42.5°C | 2.7% | 10.5hPa | 2.6V | 00:00:00 | 01:49:06 | 00:00:00 | |
| BAUMI2-15 | 2026-09-02 12:32:04 | 49.38079 | 12.84615 | 66° | 29km/h | 31176m | 5.6m/s | -42.6°C | 2.8% | 10.5hPa | 2.6V | 00:00:00 | 01:49:03 | 00:00:00 | |
| DO3MHA-11 | 2026-09-02 12:32:03 | 49.38077 | 12.84606 | 72° | 27km/h | 31169m | 6.6m/s | -42.4°C | 2.7% | 10.6hPa | 2.6V | 00:00:00 | 01:49:02 | 00:00:00 | |
| DL6DJ-15 | 2026-09-02 12:31:50 | 49.38038 | 12.84487 | 55° | 18km/h | 31090m | 6.6m/s | -42.3°C | 0.6% | 10.7hPa | 2.6V | 00:00:00 | 00:00:00 | 00:00:00 | |
| EDDB2-12 | 2026-09-02 12:31:46 | 49.38024 | 12.84462 | 56° | 24km/h | 31067m | 6.4m/s | -42.1°C | 0.7% | 10.8hPa | 2.6V | 00:00:00 | 00:00:00 | 00:00:00 | |
| DF8AY | 2026-09-02 12:31:37 | 49.38004 | 12.84418 | 113° | 11km/h | 31003m | 4.7m/s | 0°C | 0% | 0hPa | 2.6V | 18:12:15 | 01:48:33 | 00:00:00 | |
| OE5WHR-10 | 2026-09-02 12:31:34 | 49.38004 | 12.84418 | 114° | 13km/h | 31003m | 4.7m/s | -41.6°C | 2.6% | 10.8hPa | 2.6V | 03:36:00 | 00:00:00 | 00:00:00 | |
| PETON7-10 | 2026-09-02 12:31:33 | 49.38005 | 12.84414 | 92° | 11km/h | 30998m | 4.6m/s | -41.7°C | 2.6% | 10.8hPa | 2.6V | 00:00:00 | 00:00:00 | 00:00:00 | |
| OE5MMP-10 | 2026-09-02 12:31:32 | 49.38004 | 12.84410 | 66° | 16km/h | 30993m | 6.2m/s | -41.8°C | 2.6% | 10.9hPa | 2.7V | 03:36:00 | 01:48:31 | 00:00:00 | |
| NBG1-10 | 2026-09-02 12:31:28 | 49.37988 | 12.84392 | 35° | 18km/h | 30970m | 5.4m/s | -41.9°C | 2.5% | 10.9hPa | 2.7V | 00:00:00 | 01:48:27 | 00:00:00 | |
| BAUMI2-15 | 2026-09-02 12:31:23 | 49.37979 | 12.84370 | 170° | 11km/h | 30942m | 6.4m/s | -42.1°C | 2.5% | 10.9hPa | 2.7V | 00:00:00 | 01:48:22 | 00:00:00 | |
| DL6DJ-15 | 2026-09-02 12:31:19 | 49.37983 | 12.84389 | 253° | 7km/h | 30912m | 6.4m/s | -42.1°C | 0.7% | 11.0hPa | 2.7V | 00:00:00 | 00:00:00 | 00:00:00 | |
| BAUMI2-15 | 2026-09-02 12:31:18 | 49.37983 | 12.84389 | 254° | 11km/h | 30912m | 6.3m/s | -42.0°C | 2.6% | 11.0hPa | 2.7V | 03:36:00 | 01:48:17 | 00:00:00 | |
| SP3BTT-10 | 2026-09-02 12:31:16 | 49.37983 | 12.84391 | 16° | 13km/h | 30900m | 5.2m/s | -42.0°C | 2.6% | 11.0hPa | 2.7V | 00:00:00 | 00:00:00 | 00:00:00 | |
| EDDB2-12 | 2026-09-02 12:31:15 | 49.37977 | 12.84389 | 9° | 15km/h | 30888m | 7.1m/s | -42.0°C | 0.7% | 11.1hPa | 2.7V | 00:00:00 | 00:00:00 | 00:00:00 | |
| OE5WHR-10 | 2026-09-02 12:31:13 | 49.37973 | 12.84388 | 2° | 13km/h | 30882m | 6.2m/s | -41.8°C | 2.6% | 11.0hPa | 2.7V | 00:00:00 | 01:48:12 | 00:00:00 | |
| OE5MMP-10 | 2026-09-02 12:31:12 | 49.37968 | 12.84389 | 355° | 15km/h | 30876m | 4.7m/s | -41.7°C | 2.5% | 11.0hPa | 2.7V | 00:00:00 | 01:48:11 | 00:00:00 | |
| PETON7-10 | 2026-09-02 12:31:10 | 49.37962 | 12.84392 | 325° | 9km/h | 30866m | 6.3m/s | -41.8°C | 2.6% | 11.0hPa | 2.7V | 03:36:00 | 00:00:00 | 00:00:00 | |
| BAUMI2-15 | 2026-09-02 12:31:08 | 49.37962 | 12.84396 | 222° | 11km/h | 30853m | 5.9m/s | -41.9°C | 2.6% | 11.1hPa | 2.7V | 00:00:00 | 01:48:07 | 00:00:00 | |
| EDDB2-11 | 2026-09-02 12:31:03 | 49.37966 | 12.84410 | 23° | 9km/h | 30820m | 5.6m/s | -42.1°C | 0.7% | 11.2hPa | 2.7V | 00:00:00 | 00:00:00 | 00:00:00 | |
| OE5REO-15 | 2026-09-02 12:31:01 | 49.37966 | 12.84410 | 24° | 11km/h | 30820m | 5.6m/s | -42.1°C | 0.7% | 11.2hPa | 2.7V | 03:36:00 | 00:00:00 | 00:00:00 | |
| OE5MMP-10 | 2026-09-02 12:30:58 | 49.37956 | 12.84389 | 62° | 15km/h | 30796m | 4.5m/s | -42.1°C | 2.5% | 11.2hPa | 2.7V | 00:00:00 | 01:47:57 | 00:00:00 | |
| DO3MHA-11 | 2026-09-02 12:30:56 | 49.37951 | 12.84379 | 31° | 13km/h | 30785m | 6.2m/s | -42.0°C | 2.5% | 11.2hPa | 2.7V | 00:00:00 | 01:47:55 | 00:00:00 | |
| PETON7-10 | 2026-09-02 12:30:55 | 49.37949 | 12.84379 | 342° | 7km/h | 30779m | 6.4m/s | -42.0°C | 2.5% | 11.2hPa | 2.7V | 00:00:00 | 01:47:54 | 00:00:00 | |
| BAUMI2-15 | 2026-09-02 12:30:53 | 49.37946 | 12.84386 | 272° | 15km/h | 30768m | 5.1m/s | -42.0°C | 2.5% | 11.2hPa | 2.7V | 00:00:00 | 01:47:52 | 00:00:00 | |
| S52SK | 2026-09-02 12:30:52 | 49.37947 | 12.84391 | 252° | 15km/h | 30763m | 5.9m/s | -42.1°C | 0.7% | 11.3hPa | 2.7V | 00:00:00 | 00:00:00 | 00:00:00 | |
| OE5MMP-10 | 2026-09-02 12:30:48 | 49.37958 | 12.84399 | 159° | 7km/h | 30740m | 4.9m/s | -42.0°C | 2.6% | 11.3hPa | 2.7V | 03:37:00 | 01:47:47 | 00:00:00 | |
| OE5REO-15 | 2026-09-02 12:30:47 | 49.37960 | 12.84397 | 136° | 7km/h | 30735m | 5.9m/s | -42.1°C | 0.7% | 11.3hPa | 2.7V | 03:37:00 | 00:00:00 | 00:00:00 | |
| DO3MHA-11 | 2026-09-02 12:30:46 | 49.37960 | 12.84394 | 24° | 7km/h | 30722m | 5.8m/s | -42.0°C | 2.7% | 11.3hPa | 2.7V | 03:37:00 | 01:47:44 | 00:00:00 | |
| EDDB2-12 | 2026-09-02 12:30:44 | 49.37958 | 12.84393 | 8° | 7km/h | 30717m | 4.9m/s | -41.9°C | 0.7% | 11.4hPa | 2.7V | 00:00:00 | 00:00:00 | 00:00:00 | |
| PETON7-10 | 2026-09-02 12:30:40 | 49.37958 | 12.84390 | 155° | 11km/h | 30694m | 6.3m/s | -41.8°C | 2.6% | 11.4hPa | 2.7V | 00:00:00 | 00:00:00 | 00:00:00 | |
| OE5MMP-10 | 2026-09-02 12:30:38 | 49.37964 | 12.84386 | 157° | 18km/h | 30682m | 4.8m/s | -41.7°C | 2.5% | 11.4hPa | 2.6V | 00:00:00 | 01:47:37 | 00:00:00 | |
| DO3MHA-11 | 2026-09-02 12:30:35 | 49.37971 | 12.84382 | 116° | 13km/h | 30666m | 6.6m/s | -41.5°C | 2.5% | 11.4hPa | 2.7V | 00:00:00 | 01:47:34 | 00:00:00 | |
| OE5WHR-10 | 2026-09-02 12:30:31 | 49.37966 | 12.84385 | 306° | 11km/h | 30643m | 5.6m/s | -41.7°C | 2.5% | 11.4hPa | 2.7V | 00:00:00 | 00:00:00 | 00:00:00 | |
| OE5MMP-10 | 2026-09-02 12:30:23 | 49.37983 | 12.84353 | 102° | 7km/h | 30595m | 5.2m/s | -41.6°C | 2.5% | 11.5hPa | 2.7V | 00:00:00 | 01:47:22 | 00:00:00 | |
| PETON7-10 | 2026-09-02 12:30:19 | 49.37988 | 12.84339 | 172° | 11km/h | 30571m | 5.3m/s | -41.7°C | 2.5% | 11.6hPa | 2.7V | 00:00:00 | 00:00:00 | 00:00:00 | |
| DL6DJ-15 | 2026-09-02 12:30:18 | 49.37988 | 12.84341 | 352° | 4km/h | 30553m | 5.4m/s | -41.9°C | 0.7% | 11.6hPa | 2.7V | 00:00:00 | 00:00:00 | 00:00:00 | |
| SP3BTT-10 | 2026-09-02 12:30:15 | 49.37986 | 12.84340 | 42° | 22km/h | 30548m | 4.3m/s | -41.8°C | 2.6% | 11.6hPa | 2.7V | 00:00:00 | 00:00:00 | 00:00:00 | |
| OE5MMP-10 | 2026-09-02 12:30:13 | 49.37986 | 12.84333 | 106° | 27km/h | 30538m | 6.8m/s | -41.6°C | 2.5% | 11.6hPa | 2.7V | 00:00:00 | 01:47:12 | 00:00:00 | |
| OE5REO-15 | 2026-09-02 12:30:12 | 49.37986 | 12.84333 | 107° | 16km/h | 30538m | 6.9m/s | -41.7°C | 0.6% | 11.7hPa | 2.7V | 03:37:00 | 00:00:00 | 00:00:00 | |
| OE5WHR-10 | 2026-09-02 12:30:10 | 49.37994 | 12.84303 | 112° | 24km/h | 30518m | 5.3m/s | -41.8°C | 2.5% | 11.7hPa | 2.7V | 03:37:00 | 01:47:09 | 00:00:00 | |
| SONDE2-11 | 2026-09-02 12:30:00 | 49.37996 | 12.84183 | 69° | 29km/h | 30438m | 4.7m/s | -42.0°C | 0.7% | 11.8hPa | 2.7V | 00:00:00 | 00:00:00 | 00:00:00 | |
| DL6DJ-15 | 2026-09-02 12:29:46 | 49.37990 | 12.84071 | 84° | 37km/h | 30378m | 5.0m/s | -42.3°C | 0.7% | 11.9hPa | 2.7V | 00:00:00 | 00:00:00 | 00:00:00 | |
| HSKMA3-T | 2026-09-02 12:29:34 | 49.37994 | 12.83959 | 88° | 35km/h | 30311m | 5.6m/s | -42.1°C | 0% | 12.1hPa | 2.7V | 03:47:05 | 01:46:32 | 00:00:00 | |
| HSKMA3-T | 2026-09-02 12:29:23 | 49.38011 | 12.83889 | 84° | 16km/h | 30253m | 4.6m/s | -42°C | 0% | 12.2hPa | 2.6V | 03:47:05 | 01:46:22 | 00:00:00 | |
| OE5MMP-10 | 2026-09-02 12:29:20 | 49.38010 | 12.83873 | 96° | 15km/h | 30237m | 6.7m/s | -42.1°C | 2.6% | 12.2hPa | 2.6V | 03:38:00 | 01:46:19 | 00:00:00 | |
| HSKMA3-T | 2026-09-02 12:29:02 | 49.38000 | 12.83771 | 52° | 22km/h | 30125m | 6.5m/s | -42.1°C | 0% | 12.4hPa | 2.6V | 03:47:05 | 01:46:00 | 00:00:00 | |
| SONDE2-11 | 2026-09-02 12:28:58 | 49.37976 | 12.83627 | 64° | 35km/h | 30032m | 4.8m/s | -42.2°C | 0.7% | 12.6hPa | 2.7V | 00:00:00 | 00:00:00 | 00:00:00 | |
| HSKMA3-T | 2026-09-02 12:28:42 | 49.37971 | 12.83590 | 95° | 29km/h | 30014m | 6.6m/s | -42.2°C | 0% | 12.6hPa | 2.7V | 03:47:05 | 01:45:41 | 00:00:00 | |
| DF8AY | 2026-09-02 12:28:40 | 49.37978 | 12.83547 | 103° | 27km/h | 29989m | 5.6m/s | 0°C | 0% | 0hPa | 2.6V | 03:40:17 | 01:45:37 | 00:00:00 | |
| HSKMA3-T | 2026-09-02 12:28:31 | 49.37970 | 12.83509 | 54° | 16km/h | 29950m | 5.5m/s | -42.3°C | 0% | 12.8hPa | 2.6V | 03:47:05 | 01:45:30 | 00:00:00 | |
| DF8AY | 2026-09-02 12:28:27 | 49.37965 | 12.83470 | 92° | 31km/h | 29926m | 5.1m/s | 0°C | 0% | 0hPa | 2.6V | 03:40:17 | 01:45:26 | 00:00:00 | |
| DF8AY | 2026-09-02 12:28:18 | 49.37953 | 12.83382 | 84° | 26km/h | 29866m | 4.8m/s | 0°C | 0% | 0hPa | 2.7V | 03:40:17 | 01:45:15 | 00:00:00 | |
| DF8AY | 2026-09-02 12:28:08 | 49.37943 | 12.83300 | 48° | 27km/h | 29801m | 6.3m/s | 0°C | 0% | 0hPa | 2.6V | 03:40:17 | 01:45:04 | 00:00:00 | |
| HSKMA3-T | 2026-09-02 12:28:06 | 49.37948 | 12.83308 | 53° | 31km/h | 29808m | 6.3m/s | -42.3°C | 0% | 13hPa | 2.7V | 03:47:05 | 01:45:05 | 00:00:00 | |
| DF8AY | 2026-09-02 12:27:56 | 49.37928 | 12.83230 | 89° | 22km/h | 29750m | 6.5m/s | 0°C | 0% | 0hPa | 2.6V | 03:40:17 | 01:44:55 | 00:00:00 | |
| DF8AY | 2026-09-02 12:27:45 | 49.37902 | 12.83153 | 104° | 13km/h | 29688m | 5.5m/s | 0°C | 0% | 0hPa | 2.7V | 03:40:17 | 01:44:44 | 00:00:00 | |
| DF8AY | 2026-09-02 12:27:34 | 49.37870 | 12.83078 | 11° | 27km/h | 29627m | 5.1m/s | 0°C | 0% | 0hPa | 2.6V | 03:40:17 | 01:44:33 | 00:00:00 | |
| DF8AY | 2026-09-02 12:27:20 | 49.37808 | 12.82999 | 10° | 35km/h | 29549m | 6m/s | 0°C | 0% | 0hPa | 2.7V | 18:12:15 | 01:44:19 | 00:00:00 | |
| DF8AY | 2026-09-02 12:27:09 | 49.37755 | 12.82967 | 6° | 26km/h | 29484m | 5.2m/s | 0°C | 0% | 0hPa | 2.7V | 18:12:15 | 01:44:07 | 00:00:00 | |
| DF8AY | 2026-09-02 12:26:59 | 49.37702 | 12.82971 | 6° | 18km/h | 29424m | 4.5m/s | 0°C | 0% | 0hPa | 2.7V | 18:12:15 | 01:43:56 | 00:00:00 | |
| SONDE2-11 | 2026-09-02 12:26:54 | 49.37683 | 12.82957 | 27° | 22km/h | 29402m | 5.0m/s | -42.6°C | 0.7% | 13.8hPa | 2.7V | 00:00:00 | 00:00:00 | 00:00:00 | |
| EDDB2-11 | 2026-09-02 12:26:53 | 49.37683 | 12.82957 | 27° | 22km/h | 29402m | 5.0m/s | -42.6°C | 0.7% | 13.8hPa | 2.7V | 00:00:00 | 00:00:00 | 00:00:00 | |
| DF8AY | 2026-09-02 12:26:45 | 49.37624 | 12.82936 | 38° | 18km/h | 29316m | 6.3m/s | 0°C | 0% | 0hPa | 2.7V | 18:12:15 | 01:43:36 | 00:00:00 | |
| BAUMI2-15 | 2026-09-02 12:26:45 | 49.37650 | 12.82958 | 49° | 18km/h | 29359m | 4.9m/s | -42.4°C | 2.6% | 13.9hPa | 2.7V | 03:41:00 | 01:43:44 | 00:00:00 | |
| HSKMA3-T | 2026-09-02 12:26:26 | 49.37590 | 12.82889 | 63° | 20km/h | 29258m | 5.1m/s | -43°C | 0% | 14.1hPa | 2.7V | 03:47:05 | 01:43:25 | 00:00:00 | |
| DF8AY | 2026-09-02 12:26:24 | 49.37565 | 12.82827 | 15° | 13km/h | 29194m | 4.4m/s | 0°C | 0% | 0hPa | 2.7V | 18:12:15 | 01:43:13 | 00:00:00 | |
| HSKMA3-T | 2026-09-02 12:26:13 | 49.37562 | 12.82825 | 24° | 15km/h | 29190m | 4.3m/s | -43.1°C | 0% | 14.3hPa | 2.7V | 03:47:05 | 01:43:12 | 00:00:00 | |
| DF8AY | 2026-09-02 12:26:03 | 49.37538 | 12.82780 | 255° | 4km/h | 29120m | 4.4m/s | 0°C | 0% | 0hPa | 2.6V | 18:12:15 | 01:42:59 | 00:00:00 | |
| HSKMA3-T | 2026-09-02 12:25:56 | 49.37532 | 12.82785 | 17° | 13km/h | 29099m | 4.7m/s | -43.2°C | 0% | 14.5hPa | 2.7V | 03:47:05 | 01:42:55 | 00:00:00 | |
| EDDB2-11 | 2026-09-02 12:25:51 | 49.37521 | 12.82755 | 72° | 18km/h | 29073m | 3.9m/s | -43.3°C | 0.7% | 14.5hPa | 2.6V | 00:00:00 | 00:00:00 | 00:00:00 | |
| HSKMA3-T | 2026-09-02 12:25:41 | 49.37506 | 12.82748 | 56° | 15km/h | 29018m | 6.4m/s | -43.3°C | 0% | 14.7hPa | 2.6V | 03:47:05 | 01:42:40 | 00:00:00 | |
| DF8AY | 2026-09-02 12:25:35 | 49.37485 | 12.82698 | 51° | 15km/h | 28981m | 5.3m/s | 0°C | 0% | 0hPa | 2.6V | 18:12:15 | 01:42:33 | 00:00:00 | |
| EDDB2-12 | 2026-09-02 12:25:34 | 49.37483 | 12.82696 | 23° | 9km/h | 28975m | 6.7m/s | -43.6°C | 0.7% | 14.7hPa | 2.7V | 00:00:00 | 00:00:00 | 00:00:00 | |
| SONCRA | 2026-09-02 12:25:33 | 49.37483 | 12.82696 | 23° | 9km/h | 28975m | 6.7m/s | -43.6°C | 0.7% | 14.7hPa | 2.7V | 00:00:00 | 00:00:00 | 00:00:00 | |
| OE5WHR-10 | 2026-09-02 12:25:32 | 49.37481 | 12.82695 | 344° | 15km/h | 28969m | 5.6m/s | -43.5°C | 2.8% | 14.7hPa | 2.7V | 00:00:00 | 00:00:00 | 00:00:00 | |
| OE5MMP-10 | 2026-09-02 12:25:30 | 49.37478 | 12.82699 | 298° | 20km/h | 28959m | 5.3m/s | -43.4°C | 2.7% | 14.8hPa | 2.6V | 00:00:00 | 01:42:29 | 00:00:00 | |
| PG1ADW-2 | 2026-09-02 12:25:26 | 49.37480 | 12.82688 | 90° | 20km/h | 28936m | 6.3m/s | -43.6°C | 2.7% | 14.8hPa | 2.6V | 00:00:00 | 00:00:00 | 00:00:00 | |
| S52SK | 2026-09-02 12:25:24 | 49.37479 | 12.82681 | 79° | 22km/h | 28929m | 6.4m/s | -43.6°C | 0.7% | 14.8hPa | 2.6V | 00:00:00 | 00:00:00 | 00:00:00 | |
| OE5MMP-10 | 2026-09-02 12:25:20 | 49.37472 | 12.82628 | 85° | 13km/h | 28902m | 4.4m/s | -43.7°C | 2.7% | 14.9hPa | 2.6V | 03:42:00 | 01:42:19 | 00:00:00 | |
| S52SK | 2026-09-02 12:25:18 | 49.37471 | 12.82621 | 84° | 13km/h | 28898m | 5.1m/s | -43.7°C | 0.7% | 14.9hPa | 2.6V | 00:00:00 | 00:00:00 | 00:00:00 | |
| SP3BTT-10 | 2026-09-02 12:25:12 | 49.37474 | 12.82628 | 119° | 13km/h | 28858m | 5.6m/s | -43.7°C | 2.7% | 15.0hPa | 2.6V | 00:00:00 | 00:00:00 | 00:00:00 | |
| PETON7-10 | 2026-09-02 12:25:11 | 49.37475 | 12.82621 | 102° | 18km/h | 28852m | 5.6m/s | -43.8°C | 2.7% | 15.0hPa | 2.6V | 00:00:00 | 01:42:10 | 00:00:00 | |
| OE5MMP-10 | 2026-09-02 12:25:10 | 49.37476 | 12.82611 | 90° | 22km/h | 28847m | 6.4m/s | -43.9°C | 2.7% | 15.0hPa | 2.6V | 00:00:00 | 01:42:09 | 00:00:00 | |
| PG1ADW-2 | 2026-09-02 12:25:06 | 49.37465 | 12.82565 | 58° | 18km/h | 28825m | 4.5m/s | -43.9°C | 2.7% | 15.0hPa | 2.6V | 03:42:00 | 00:00:00 | 00:00:00 | |
| ANDY1245 | 2026-09-02 12:25:05 | 49.37461 | 12.82557 | 58° | 24km/h | 28819m | 5.7m/s | -44.0°C | 0% | 0hPa | 2.6V | 00:00:00 | 00:00:00 | 00:00:00 | |
| EDDB2-12 | 2026-09-02 12:25:03 | 49.37456 | 12.82548 | 302° | 5km/h | 28802m | 6.1m/s | -44.0°C | 0.7% | 15.1hPa | 2.6V | 00:00:00 | 00:00:00 | 00:00:00 | |
| SONCRA | 2026-09-02 12:25:02 | 49.37456 | 12.82548 | 302° | 5km/h | 28802m | 6.1m/s | -44.0°C | 0.7% | 15.1hPa | 2.6V | 00:00:00 | 00:00:00 | 00:00:00 | |
| OE5MMP-10 | 2026-09-02 12:25:00 | 49.37454 | 12.82556 | 282° | 18km/h | 28789m | 5.6m/s | -43.9°C | 2.8% | 15.1hPa | 2.6V | 00:00:00 | 01:41:59 | 00:00:00 | |
| PETON7-10 | 2026-09-02 12:24:56 | 49.37455 | 12.82563 | 110° | 15km/h | 28769m | 6.6m/s | -44.1°C | 2.8% | 15.1hPa | 2.7V | 00:00:00 | 00:00:00 | 00:00:00 | |
| OE5MMP-10 | 2026-09-02 12:24:50 | 49.37443 | 12.82512 | 17° | 15km/h | 28737m | 5.2m/s | -44.1°C | 2.8% | 15.2hPa | 2.6V | 00:00:00 | 01:41:49 | 00:00:00 | |
| OE5DRO-10 | 2026-09-02 12:24:49 | 49.37438 | 12.82511 | 349° | 13km/h | 28732m | 5.3m/s | -44.0°C | 2.7% | 15.2hPa | 2.6V | 03:43:00 | 00:00:00 | 00:00:00 | |
| PG1ADW-2 | 2026-09-02 12:24:46 | 49.37431 | 12.82524 | 267° | 13km/h | 28715m | 5.3m/s | -44.1°C | 2.8% | 15.3hPa | 2.6V | 00:00:00 | 00:00:00 | 00:00:00 | |
| OE5MMP-10 | 2026-09-02 12:24:40 | 49.37428 | 12.82508 | 58° | 16km/h | 28681m | 5.0m/s | -44.2°C | 2.8% | 15.4hPa | 2.7V | 03:43:00 | 01:41:39 | 00:00:00 | |
| BAUMI2-15 | 2026-09-02 12:24:36 | 49.37413 | 12.82476 | 48° | 11km/h | 28660m | 5.4m/s | -44.3°C | 2.8% | 15.4hPa | 2.7V | 00:00:00 | 01:41:35 | 00:00:00 | |
| DL6DJ-15 | 2026-09-02 12:24:35 | 49.37411 | 12.82474 | 23° | 7km/h | 28654m | 5.7m/s | -44.4°C | 0.8% | 15.5hPa | 2.7V | 00:00:00 | 00:00:00 | 00:00:00 | |
| EDDB2-12 | 2026-09-02 12:24:32 | 49.37404 | 12.82483 | 308° | 11km/h | 28631m | 5.0m/s | -44.4°C | 0.8% | 15.5hPa | 2.7V | 00:00:00 | 00:00:00 | 00:00:00 | |
| BAUMI2-15 | 2026-09-02 12:24:31 | 49.37404 | 12.82483 | 309° | 5km/h | 28631m | 5.0m/s | -44.4°C | 2.8% | 15.5hPa | 2.7V | 00:00:00 | 01:41:30 | 00:00:00 | |
| OE5MMP-10 | 2026-09-02 12:24:30 | 49.37403 | 12.82486 | 311° | 9km/h | 28626m | 4.5m/s | -44.4°C | 2.8% | 15.5hPa | 2.6V | 00:00:00 | 01:41:29 | 00:00:00 | |
| OE5WHR-10 | 2026-09-02 12:24:29 | 49.37402 | 12.82487 | 316° | 9km/h | 28622m | 4.9m/s | -44.5°C | 2.8% | 15.5hPa | 2.6V | 03:43:00 | 00:00:00 | 00:00:00 | |
| SP3BTT-10 | 2026-09-02 12:24:26 | 49.37402 | 12.82486 | 98° | 9km/h | 28604m | 5.4m/s | -44.4°C | 2.8% | 15.6hPa | 2.7V | 00:00:00 | 00:00:00 | 00:00:00 | |
| OE5DRO-10 | 2026-09-02 12:24:25 | 49.37402 | 12.82484 | 49° | 7km/h | 28598m | 5.1m/s | -44.6°C | 2.8% | 15.6hPa | 2.7V | 00:00:00 | 00:00:00 | 00:00:00 | |
| DF8AY | 2026-09-02 12:24:07 | 49.37392 | 12.82512 | 185° | 7km/h | 28497m | 5.3m/s | -45°C | 0.1% | 15.8hPa | 2.7V | 03:44:32 | 01:41:06 | 00:00:00 | |
| OE5WHR-10 | 2026-09-02 12:24:07 | 49.37392 | 12.82512 | 186° | 7km/h | 28497m | 5.2m/s | -44.9°C | 2.9% | 15.8hPa | 2.6V | 00:00:00 | 00:00:00 | 00:00:00 | |
| PG1ADW-2 | 2026-09-02 12:24:06 | 49.37393 | 12.82512 | 193° | 7km/h | 28491m | 5.3m/s | -45.0°C | 2.9% | 15.8hPa | 2.6V | 00:00:00 | 00:00:00 | 00:00:00 | |
| BAUMI2-15 | 2026-09-02 12:24:05 | 49.37395 | 12.82513 | 216° | 5km/h | 28486m | 6.7m/s | -45.0°C | 3.0% | 15.8hPa | 2.6V | 00:00:00 | 01:41:04 | 00:00:00 | |
| OE5DRO-10 | 2026-09-02 12:24:04 | 49.37395 | 12.82515 | 248° | 7km/h | 28479m | 6.1m/s | -44.9°C | 3.0% | 15.8hPa | 2.6V | 00:00:00 | 00:00:00 | 00:00:00 | |
| S52SK | 2026-09-02 12:24:02 | 49.37396 | 12.82517 | 261° | 5km/h | 28474m | 5.1m/s | -45.0°C | 0.8% | 15.9hPa | 2.7V | 00:00:00 | 00:00:00 | 00:00:00 | |
| EDDB2-12 | 2026-09-02 12:24:01 | 49.37398 | 12.82520 | 166° | 5km/h | 28456m | 6.6m/s | -45.0°C | 0.8% | 15.9hPa | 2.7V | 00:00:00 | 00:00:00 | 00:00:00 | |
| SONCRA | 2026-09-02 12:24:00 | 49.37398 | 12.82520 | 166° | 5km/h | 28456m | 6.6m/s | -45.0°C | 0.8% | 15.9hPa | 2.7V | 00:00:00 | 00:00:00 | 00:00:00 | |
| DF8AY | 2026-09-02 12:23:51 | 49.37424 | 12.82500 | 121° | 13km/h | 28355m | 5.5m/s | -44.8°C | 0.1% | 16.2hPa | 2.7V | 03:44:32 | 01:40:42 | 00:00:00 | |
| SONDE2-11 | 2026-09-02 12:23:47 | 49.37418 | 12.82504 | 212° | 7km/h | 28379m | 5.3m/s | -44.9°C | 0.8% | 16.1hPa | 2.7V | 00:00:00 | 00:00:00 | 00:00:00 | |
| HSKMA3-T | 2026-09-02 12:23:45 | 49.37423 | 12.82504 | 137° | 9km/h | 28361m | 6.3m/s | -44.8°C | 0% | 16.2hPa | 2.7V | 03:47:05 | 01:40:43 | 00:00:00 | |
| HSKMA3-T | 2026-09-02 12:23:33 | 49.37435 | 12.82464 | 154° | 15km/h | 28298m | 5.9m/s | -44.8°C | 0.1% | 16.3hPa | 2.7V | 03:47:05 | 01:40:32 | 00:00:00 | |
| DF8AY | 2026-09-02 12:23:29 | 49.37442 | 12.82458 | 102° | 7km/h | 28275m | 5m/s | -44.8°C | 0.1% | 16.4hPa | 2.6V | 03:44:32 | 01:40:28 | 00:00:00 | |
| DF8AY | 2026-09-02 12:23:20 | 49.37442 | 12.82401 | 124° | 5km/h | 28217m | 6.6m/s | -44.8°C | 0% | 16.5hPa | 2.7V | 03:44:32 | 01:40:18 | 00:00:00 | |
| HSKMA3-T | 2026-09-02 12:23:13 | 49.37452 | 12.82383 | 104° | 15km/h | 28170m | 6.6m/s | -44.8°C | 0% | 16.6hPa | 2.6V | 03:47:05 | 01:40:10 | 00:00:00 | |
| DF8AY | 2026-09-02 12:23:08 | 49.37453 | 12.82365 | 80° | 13km/h | 28155m | 5.4m/s | -45°C | 0.1% | 16.7hPa | 2.7V | 03:47:05 | 01:40:07 | 00:00:00 | |
| DF8AY | 2026-09-02 12:22:57 | 49.37451 | 12.82354 | 14° | 5km/h | 28087m | 4.9m/s | -45.2°C | 0% | 16.9hPa | 2.7V | 03:47:05 | 01:39:55 | 00:00:00 | |
| DF8AY | 2026-09-02 12:22:46 | 49.37436 | 12.82307 | 32° | 15km/h | 28032m | 4.5m/s | -45.3°C | 0% | 17hPa | 2.6V | 03:47:05 | 01:39:45 | 00:00:00 | |
| EDDB2-11 | 2026-09-02 12:22:45 | 49.37433 | 12.82304 | 42° | 13km/h | 28027m | 6.0m/s | -45.4°C | 0.8% | 17.0hPa | 2.6V | 00:00:00 | 00:00:00 | 00:00:00 | |
| DF8AY | 2026-09-02 12:22:37 | 49.37417 | 12.82267 | 87° | 11km/h | 27966m | 5.7m/s | -45.6°C | 0.1% | 17.2hPa | 2.6V | 03:47:05 | 01:39:33 | 00:00:00 | |
| DF8AY | 2026-09-02 12:22:24 | 49.37397 | 12.82226 | 47° | 5km/h | 27912m | 5.2m/s | 0°C | 0% | 17.3hPa | 2.7V | 03:47:05 | 01:39:23 | 00:00:00 | |
| DF8AY | 2026-09-02 12:22:13 | 49.37383 | 12.82224 | 357° | 9km/h | 27850m | 5.8m/s | 0°C | 0% | 17.5hPa | 2.7V | 03:47:05 | 01:39:12 | 00:00:00 | |
| DF8AY | 2026-09-02 12:22:02 | 49.37380 | 12.82216 | 137° | 11km/h | 27774m | 4.9m/s | 0°C | 0% | 17.7hPa | 2.6V | 03:47:05 | 01:38:58 | 00:00:00 | |
| DL6DJ-15 | 2026-09-02 12:22:00 | 49.37380 | 12.82216 | 136° | 11km/h | 27775m | 4.9m/s | -45.9°C | 0.9% | 17.7hPa | 2.6V | 00:00:00 | 00:00:00 | 00:00:00 | |
| SONCRA | 2026-09-02 12:21:56 | 49.37385 | 12.82215 | 247° | 7km/h | 27753m | 4.9m/s | -46.0°C | 0.8% | 17.7hPa | 2.6V | 00:00:00 | 00:00:00 | 00:00:00 | |
| DF8AY | 2026-09-02 12:21:41 | 49.37422 | 12.82207 | 166° | 13km/h | 27677m | 5.7m/s | 0°C | 0% | 17.9hPa | 2.6V | 03:47:05 | 01:38:40 | 00:00:00 | |
| DF8AY | 2026-09-02 12:21:30 | 49.37454 | 12.82202 | 132° | 11km/h | 27619m | 5m/s | 0°C | 0% | 18.1hPa | 2.6V | 03:47:05 | 01:38:29 | 00:00:00 | |
| DF8AY | 2026-09-02 12:21:20 | 49.37462 | 12.82154 | 135° | 9km/h | 27554m | 5.5m/s | 0°C | 0% | 18.3hPa | 2.6V | 03:47:05 | 01:38:17 | 00:00:00 | |
| HSKMA3-T | 2026-09-02 12:21:11 | 49.37457 | 12.82116 | 59° | 20km/h | 27519m | 5.3m/s | -46.1°C | 0.2% | 18.4hPa | 2.6V | 03:47:05 | 01:38:10 | 00:00:00 | |
| DF8AY | 2026-09-02 12:21:08 | 49.37450 | 12.82086 | 70° | 18km/h | 27498m | 5.2m/s | 0°C | 0% | 18.4hPa | 2.7V | 03:47:05 | 01:38:06 | 00:00:00 | |
| DF8AY | 2026-09-02 12:20:57 | 49.37426 | 12.82044 | 31° | 20km/h | 27439m | 5m/s | 0°C | 0% | 18.6hPa | 2.7V | 03:47:05 | 01:37:55 | 00:00:00 | |
| HSKMA3-T | 2026-09-02 12:20:53 | 49.37415 | 12.82029 | 57° | 20km/h | 27423m | 6.2m/s | -45.8°C | 0.2% | 18.6hPa | 2.6V | 03:47:05 | 01:37:52 | 00:00:00 | |
| DF8AY | 2026-09-02 12:20:46 | 49.37398 | 12.81994 | 52° | 13km/h | 27373m | 4.3m/s | 0°C | 0% | 18.8hPa | 2.7V | 03:49:38 | 01:37:43 | 00:00:00 | |
| HSKMA3-T | 2026-09-02 12:20:42 | 49.37393 | 12.81987 | 28° | 15km/h | 27363m | 6.5m/s | -46°C | 0.2% | 18.8hPa | 2.6V | 03:47:56 | 01:37:41 | 00:00:00 | |
| HSKMA3-T | 2026-09-02 12:20:31 | 49.37362 | 12.81956 | 21° | 11km/h | 27306m | 4.4m/s | -45.8°C | 0.2% | 19hPa | 2.7V | 03:47:56 | 01:37:30 | 00:00:00 | |
| DF8AY | 2026-09-02 12:20:29 | 49.37358 | 12.81950 | 57° | 15km/h | 27295m | 6m/s | 0°C | 0% | 0hPa | 2.6V | 03:49:38 | 01:37:28 | 00:00:00 | |
| HSKMA3-T | 2026-09-02 12:20:21 | 49.37318 | 12.81920 | 357° | 20km/h | 27251m | 6.2m/s | -46.1°C | 0.2% | 19.1hPa | 2.7V | 03:47:56 | 01:37:20 | 00:00:00 | |
| DF8AY | 2026-09-02 12:20:20 | 49.37311 | 12.81921 | 351° | 11km/h | 27240m | 5m/s | 0°C | 0% | 0hPa | 2.6V | 03:49:38 | 01:37:18 | 00:00:00 | |
| HSKMA3-T | 2026-09-02 12:20:12 | 49.37284 | 12.81909 | 29° | 20km/h | 27196m | 4.4m/s | -46.4°C | 0.2% | 19.3hPa | 2.6V | 03:47:56 | 01:37:10 | 00:00:00 | |
| HSKMA3-T | 2026-09-02 12:20:01 | 49.37239 | 12.81926 | 18° | 7km/h | 27142m | 6.2m/s | -46.4°C | 0.2% | 19.5hPa | 2.6V | 03:47:56 | 01:37:00 | 00:00:00 | |
| DF8AY | 2026-09-02 12:19:58 | 49.37229 | 12.81921 | 14° | 18km/h | 27125m | 5.1m/s | 0°C | 0% | 0hPa | 2.7V | 03:49:38 | 01:36:57 | 00:00:00 | |
| HSKMA3-T | 2026-09-02 12:19:51 | 49.37204 | 12.81937 | 319° | 22km/h | 27086m | 5.9m/s | -46.5°C | 0.2% | 19.6hPa | 2.6V | 03:48:47 | 01:36:50 | 00:00:00 | |
| DF8AY | 2026-09-02 12:19:47 | 49.37192 | 12.81954 | 296° | 5km/h | 27064m | 6.5m/s | 0°C | 0% | 0hPa | 2.6V | 03:49:38 | 01:36:46 | 00:00:00 | |
| HSKMA3-T | 2026-09-02 12:19:40 | 49.37187 | 12.81976 | 287° | 18km/h | 27018m | 6.5m/s | -46.6°C | 0.3% | 19.8hPa | 2.7V | 03:48:47 | 01:36:38 | 00:00:00 | |
| DF8AY | 2026-09-02 12:19:36 | 49.37175 | 12.82040 | 321° | 15km/h | 26940m | 5m/s | 0°C | 0% | 0hPa | 2.6V | 03:49:38 | 01:36:24 | 00:00:00 | |
| HSKMA3-T | 2026-09-02 12:19:29 | 49.37177 | 12.82029 | 221° | 9km/h | 26964m | 4.8m/s | -46.6°C | 0.2% | 20hPa | 2.7V | 03:48:47 | 01:36:28 | 00:00:00 | |
| HSKMA3-T | 2026-09-02 12:19:19 | 49.37165 | 12.82067 | 307° | 5km/h | 26904m | 6.1m/s | -46.8°C | 0.2% | 20.2hPa | 2.6V | 03:48:47 | 01:36:17 | 00:00:00 | |
| DF8AY | 2026-09-02 12:19:16 | 49.37162 | 12.82070 | 323° | 7km/h | 26892m | 5.8m/s | 0°C | 0% | 0hPa | 2.7V | 03:49:38 | 01:36:15 | 00:00:00 | |
| HSKMA3-T | 2026-09-02 12:19:08 | 49.37153 | 12.82096 | 306° | 9km/h | 26847m | 5m/s | -46.9°C | 0.3% | 20.4hPa | 2.7V | 03:48:47 | 01:36:07 | 00:00:00 | |
| DF8AY | 2026-09-02 12:19:05 | 49.37151 | 12.82108 | 350° | 4km/h | 26820m | 6.5m/s | 0°C | 0% | 0hPa | 2.6V | 03:49:38 | 01:36:02 | 00:00:00 | |
| HSKMA3-T | 2026-09-02 12:18:58 | 49.37138 | 12.82110 | 295° | 11km/h | 26781m | 5.3m/s | -46.7°C | 0.3% | 20.6hPa | 2.6V | 03:51:20 | 01:35:55 | 00:00:00 | |
| DF8AY | 2026-09-02 12:18:54 | 49.37132 | 12.82120 | 333° | 15km/h | 26764m | 6.3m/s | 0°C | 0% | 0hPa | 2.7V | 03:49:38 | 01:35:52 | 00:00:00 | |
| HSKMA3-T | 2026-09-02 12:18:46 | 49.37114 | 12.82153 | 293° | 11km/h | 26718m | 5.7m/s | -46.8°C | 0.3% | 20.7hPa | 2.6V | 03:51:20 | 01:35:44 | 00:00:00 | |
| DF8AY | 2026-09-02 12:18:41 | 49.37114 | 12.82173 | 260° | 11km/h | 26690m | 5.3m/s | 0°C | 0% | 0hPa | 2.6V | 03:49:38 | 01:35:39 | 00:00:00 | |
| HSKMA3-T | 2026-09-02 12:18:35 | 49.37106 | 12.82190 | 306° | 16km/h | 26662m | 6.1m/s | -46.8°C | 0.3% | 20.9hPa | 2.6V | 03:51:20 | 01:35:34 | 00:00:00 | |
| DF8AY | 2026-09-02 12:18:31 | 49.37092 | 12.82230 | 299° | 13km/h | 26624m | 5m/s | 0°C | 0% | 0hPa | 2.7V | 03:49:38 | 01:35:27 | 00:00:00 | |
| HSKMA3-T | 2026-09-02 12:18:22 | 49.37086 | 12.82264 | 313° | 16km/h | 26590m | 6.1m/s | -47°C | 0.2% | 21.2hPa | 2.7V | 03:51:20 | 01:35:21 | 00:00:00 | |
| DF8AY | 2026-09-02 12:18:19 | 49.37075 | 12.82279 | 305° | 13km/h | 26568m | 5.7m/s | 0°C | 0% | 0hPa | 2.6V | 03:49:38 | 01:35:17 | 00:00:00 | |
| DF8AY | 2026-09-02 12:18:08 | 49.37058 | 12.82306 | 311° | 11km/h | 26514m | 5.8m/s | 0°C | 0% | 0hPa | 2.6V | 18:12:15 | 01:35:07 | 00:00:00 | |
| DF8AY | 2026-09-02 12:17:59 | 49.37041 | 12.82351 | 307° | 9km/h | 26456m | 6m/s | 0°C | 0% | 0hPa | 2.7V | 18:12:15 | 01:34:56 | 00:00:00 | |
| DF8AY | 2026-09-02 12:17:48 | 49.37027 | 12.82348 | 200° | 4km/h | 26398m | 5.9m/s | 0°C | 0% | 0hPa | 2.7V | 18:12:15 | 01:34:45 | 00:00:00 | |
| EDDB2-12 | 2026-09-02 12:17:48 | 49.37026 | 12.82349 | 100° | 4km/h | 26407m | 4.3m/s | -47.7°C | 0.9% | 21.8hPa | 2.6V | 00:00:00 | 00:00:00 | 00:00:00 | |
| SONCRA | 2026-09-02 12:17:47 | 49.37026 | 12.82348 | 136° | 2km/h | 26403m | 4.0m/s | -47.6°C | 0.9% | 21.8hPa | 2.6V | 00:00:00 | 00:00:00 | 00:00:00 | |
| DF8AY | 2026-09-02 12:17:37 | 49.37018 | 12.82357 | 12° | 2km/h | 26348m | 5.4m/s | 0°C | 0% | 0hPa | 2.6V | 18:12:15 | 01:34:36 | 00:00:00 | |
| EDDB2-11 | 2026-09-02 12:17:35 | 49.37019 | 12.82354 | 130° | 5km/h | 26333m | 6.2m/s | -47.7°C | 0.9% | 22.0hPa | 2.6V | 00:00:00 | 00:00:00 | 00:00:00 | |
| HSKMA3-T | 2026-09-02 12:17:16 | 49.37034 | 12.82345 | 165° | 9km/h | 26238m | 5.4m/s | -48.2°C | 0.3% | 22.3hPa | 2.6V | 03:51:20 | 01:34:15 | 00:00:00 | |
| OE5REO-15 | 2026-09-02 12:17:14 | 49.37036 | 12.82344 | 170° | 11km/h | 26233m | 6.2m/s | -48.3°C | 0.9% | 22.3hPa | 2.7V | 03:51:00 | 00:00:00 | 00:00:00 | |
| OE5MMP-10 | 2026-09-02 12:17:10 | 49.37042 | 12.82341 | 16° | 15km/h | 26207m | 6.1m/s | -48.0°C | 3.4% | 22.4hPa | 2.7V | 00:00:00 | 01:34:09 | 00:00:00 | |
| OE5WHR-10 | 2026-09-02 12:17:07 | 49.37032 | 12.82344 | 330° | 11km/h | 26193m | 5.3m/s | -48.2°C | 3.4% | 22.4hPa | 2.7V | 00:00:00 | 00:00:00 | 00:00:00 | |
| EDDB2-11 | 2026-09-02 12:17:04 | 49.37026 | 12.82369 | 255° | 15km/h | 26172m | 4.3m/s | -48.4°C | 0.9% | 22.6hPa | 2.6V | 00:00:00 | 00:00:00 | 00:00:00 | |
| DL6DJ-15 | 2026-09-02 12:16:49 | 49.37024 | 12.82410 | 265° | 20km/h | 26096m | 5.2m/s | -48.6°C | 1.0% | 22.8hPa | 2.6V | 00:00:00 | 00:00:00 | 00:00:00 | |
| EDDB2-12 | 2026-09-02 12:16:46 | 49.37025 | 12.82424 | 267° | 15km/h | 26086m | 5.7m/s | -48.6°C | 1.0% | 22.9hPa | 2.6V | 00:00:00 | 00:00:00 | 00:00:00 | |
| SONCRA | 2026-09-02 12:16:45 | 49.37024 | 12.82428 | 277° | 9km/h | 26080m | 6.1m/s | -48.7°C | 1.0% | 22.9hPa | 2.6V | 00:00:00 | 00:00:00 | 00:00:00 | |
| HSKMA3-T | 2026-09-02 12:16:33 | 49.37016 | 12.82466 | 274° | 18km/h | 26017m | 4.3m/s | -48.5°C | 0.5% | 23.1hPa | 2.6V | 03:51:20 | 01:33:32 | 00:00:00 | |
| HSKMA3-T | 2026-09-02 12:16:22 | 49.37013 | 12.82485 | 58° | 4km/h | 25962m | 6.1m/s | -48.7°C | 0.3% | 23.3hPa | 2.6V | 03:52:11 | 01:33:21 | 00:00:00 | |
| HSKMA3-T | 2026-09-02 12:16:11 | 49.37013 | 12.82508 | 219° | 7km/h | 25905m | 5.5m/s | -49.1°C | 0.4% | 23.5hPa | 2.7V | 03:52:11 | 01:33:10 | 00:00:00 | |
| HSKMA3-T | 2026-09-02 12:15:59 | 49.37024 | 12.82498 | 305° | 9km/h | 25842m | 5.5m/s | -49.6°C | 0.5% | 23.7hPa | 2.7V | 03:52:11 | 01:32:58 | 00:00:00 | |
| HSKMA3-T | 2026-09-02 12:15:49 | 49.37014 | 12.82482 | 64° | 15km/h | 25790m | 6.1m/s | -49.9°C | 0.6% | 23.9hPa | 2.7V | 03:52:11 | 01:32:48 | 00:00:00 | |
| DL6DJ-15 | 2026-09-02 12:15:47 | 49.37009 | 12.82469 | 31° | 9km/h | 25775m | 4.8m/s | -50.0°C | 1.0% | 24.0hPa | 2.7V | 00:00:00 | 00:00:00 | 00:00:00 | |
| HSKMA3-T | 2026-09-02 12:15:39 | 49.36992 | 12.82473 | 78° | 5km/h | 25736m | 4.8m/s | -50.2°C | 0.6% | 24.1hPa | 2.7V | 03:53:02 | 01:32:38 | 00:00:00 | |
| HSKMA3-T | 2026-09-02 12:15:28 | 49.36964 | 12.82448 | 358° | 11km/h | 25678m | 6.6m/s | -50°C | 0.5% | 0hPa | 2.6V | 03:53:02 | 01:32:27 | 00:00:00 | |
| HSKMA3-T | 2026-09-02 12:15:18 | 49.36945 | 12.82459 | 16° | 9km/h | 25618m | 6.3m/s | -50°C | 0.6% | 0hPa | 2.6V | 03:53:02 | 01:32:16 | 00:00:00 | |
| DF8AY | 2026-09-02 12:15:08 | 49.36944 | 12.82484 | 222° | 11km/h | 25568m | 4.9m/s | 0°C | 0% | 0hPa | 2.6V | 18:12:15 | 01:32:07 | 00:00:00 | |
| HSKMA3-T | 2026-09-02 12:15:07 | 49.36946 | 12.82487 | 220° | 9km/h | 25563m | 5.2m/s | -50.3°C | 0.6% | 0hPa | 2.6V | 03:53:02 | 01:32:06 | 00:00:00 | |
| HSKMA3-T | 2026-09-02 12:14:56 | 49.36934 | 12.82512 | 313° | 13km/h | 25504m | 4.5m/s | -50.5°C | 0.6% | 0hPa | 2.6V | 03:53:02 | 01:31:55 | 00:00:00 | |
| HSKMA3-T | 2026-09-02 12:14:46 | 49.36939 | 12.82531 | 277° | 13km/h | 25451m | 5.4m/s | 0°C | 0% | 0hPa | 2.6V | 18:12:15 | 01:31:45 | 00:00:00 | |
| DF8AY | 2026-09-02 12:14:45 | 49.36940 | 12.82540 | 251° | 11km/h | 25440m | 5.3m/s | 0°C | 0% | 0hPa | 2.7V | 18:12:15 | 01:31:43 | 00:00:00 | |
| HSKMA3-T | 2026-09-02 12:14:35 | 49.36959 | 12.82563 | 220° | 9km/h | 25386m | 6.6m/s | 0°C | 0% | 0hPa | 2.6V | 18:12:15 | 01:31:33 | 00:00:00 | |
| DF8AY | 2026-09-02 12:14:31 | 49.36961 | 12.82572 | 258° | 9km/h | 25369m | 6.3m/s | 0°C | 0% | 0hPa | 2.7V | 18:12:15 | 01:31:30 | 00:00:00 | |
| DF8AY | 2026-09-02 12:14:13 | 49.36997 | 12.82606 | 235° | 7km/h | 25271m | 4.6m/s | 0°C | 0% | 0hPa | 2.6V | 18:12:15 | 01:31:12 | 00:00:00 | |
| DO3MHA-11 | 2026-09-02 12:14:13 | 49.36997 | 12.82606 | 235° | 11km/h | 25271m | 4.5m/s | -50.5°C | 3.7% | 25.9hPa | 2.6V | 00:00:00 | 01:31:12 | 00:00:00 | |
| OE5REO-15 | 2026-09-02 12:14:12 | 49.36997 | 12.82606 | 236° | 7km/h | 25271m | 4.6m/s | -50.5°C | 1.1% | 25.9hPa | 2.6V | 03:53:00 | 00:00:00 | 00:00:00 | |
| EDDB2-12 | 2026-09-02 12:14:11 | 49.37000 | 12.82610 | 181° | 5km/h | 25249m | 4.7m/s | -50.4°C | 1.1% | 26.0hPa | 2.6V | 00:00:00 | 00:00:00 | 00:00:00 | |
| SONCRA | 2026-09-02 12:14:10 | 49.37000 | 12.82610 | 181° | 5km/h | 25249m | 4.7m/s | -50.4°C | 1.1% | 26.0hPa | 2.6V | 00:00:00 | 00:00:00 | 00:00:00 | |
| DK5PH-5 | 2026-09-02 12:14:06 | 49.37011 | 12.82610 | 184° | 11km/h | 25232m | 4.7m/s | -50.3°C | 3.9% | 26.0hPa | 2.6V | 00:00:00 | 01:31:05 | 00:00:00 | |
| PETON7-10 | 2026-09-02 12:14:05 | 49.37016 | 12.82611 | 188° | 9km/h | 25228m | 4.0m/s | -50.3°C | 3.8% | 26.0hPa | 2.6V | 00:00:00 | 00:00:00 | 00:00:00 | |
| DO3MHA-11 | 2026-09-02 12:14:03 | 49.37025 | 12.82614 | 196° | 5km/h | 25218m | 5.7m/s | -50.3°C | 3.7% | 26.1hPa | 2.6V | 00:00:00 | 01:31:02 | 00:00:00 | |
| EDDB2-11 | 2026-09-02 12:13:57 | 49.37026 | 12.82614 | 175° | 4km/h | 25185m | 4.9m/s | -50.4°C | 1.0% | 26.3hPa | 2.7V | 00:00:00 | 00:00:00 | 00:00:00 | |
| OE5REO-15 | 2026-09-02 12:13:56 | 49.37026 | 12.82614 | 177° | 4km/h | 25186m | 4.9m/s | -50.4°C | 1.0% | 26.3hPa | 2.7V | 00:00:00 | 00:00:00 | 00:00:00 | |
| OE5DXL-15 | 2026-09-02 12:13:55 | 49.37029 | 12.82615 | 212° | 11km/h | 25176m | 5.8m/s | -50.3°C | 3.7% | 26.3hPa | 2.7V | 00:00:00 | 00:00:00 | 00:00:00 | |
| DO3MHA-11 | 2026-09-02 12:13:53 | 49.37032 | 12.82618 | 204° | 11km/h | 25165m | 4.4m/s | -50.2°C | 3.7% | 26.3hPa | 2.7V | 00:00:00 | 01:30:52 | 00:00:00 | |
| PETON7-10 | 2026-09-02 12:13:50 | 49.37040 | 12.82616 | 148° | 13km/h | 25149m | 6.1m/s | -50.4°C | 3.8% | 26.3hPa | 2.7V | 00:00:00 | 01:30:49 | 00:00:00 | |
| DO3MHA-11 | 2026-09-02 12:13:43 | 49.37056 | 12.82607 | 217° | 13km/h | 25109m | 6.2m/s | -50.5°C | 3.8% | 26.5hPa | 2.7V | 03:54:00 | 01:30:42 | 00:00:00 | |
| DL6DJ-15 | 2026-09-02 12:13:42 | 49.37058 | 12.82611 | 218° | 15km/h | 25103m | 4.9m/s | -50.5°C | 1.1% | 26.6hPa | 2.7V | 00:00:00 | 00:00:00 | 00:00:00 | |
| EDDB2-12 | 2026-09-02 12:13:40 | 49.37069 | 12.82629 | 230° | 11km/h | 25082m | 4.8m/s | -50.4°C | 1.1% | 26.6hPa | 2.7V | 00:00:00 | 00:00:00 | 00:00:00 | |
| SONCRA | 2026-09-02 12:13:38 | 49.37069 | 12.82629 | 230° | 11km/h | 25082m | 4.8m/s | -50.4°C | 1.1% | 26.6hPa | 2.7V | 00:00:00 | 00:00:00 | 00:00:00 | |
| OE5WHR-10 | 2026-09-02 12:13:37 | 49.37071 | 12.82632 | 211° | 9km/h | 25077m | 4.9m/s | -50.4°C | 3.8% | 26.6hPa | 2.7V | 00:00:00 | 00:00:00 | 00:00:00 | |
| PETON7-10 | 2026-09-02 12:13:35 | 49.37076 | 12.82631 | 146° | 9km/h | 25065m | 5.8m/s | -50.3°C | 3.8% | 26.7hPa | 2.7V | 03:54:00 | 00:00:00 | 00:00:00 | |
| DO3MHA-11 | 2026-09-02 12:13:33 | 49.37080 | 12.82624 | 127° | 9km/h | 25055m | 4.5m/s | -50.2°C | 3.7% | 26.7hPa | 2.7V | 00:00:00 | 01:30:32 | 00:00:00 | |
| HSKMA3-T | 2026-09-02 12:13:16 | 49.37108 | 12.82639 | 212° | 5km/h | 24959m | 5.9m/s | 0°C | 0% | 0hPa | 2.6V | 18:12:15 | 01:30:14 | 00:00:00 | |
| HSKMA3-T | 2026-09-02 12:13:05 | 49.37136 | 12.82673 | 234° | 13km/h | 24906m | 4.9m/s | 0°C | 0% | 0hPa | 2.6V | 18:12:15 | 01:30:04 | 00:00:00 | |
| PETON7-10 | 2026-09-02 12:13:04 | 49.37138 | 12.82677 | 232° | 11km/h | 24901m | 5.3m/s | -49.9°C | 3.7% | 27.4hPa | 2.7V | 00:00:00 | 01:30:03 | 00:00:00 | |
| DO3MHA-11 | 2026-09-02 12:13:03 | 49.37139 | 12.82679 | 216° | 7km/h | 24895m | 6.1m/s | -49.9°C | 3.7% | 27.4hPa | 2.7V | 03:54:00 | 01:30:02 | 00:00:00 | |
| OE5MMP-10 | 2026-09-02 12:13:00 | 49.37143 | 12.82681 | 227° | 11km/h | 24881m | 5.3m/s | -49.9°C | 3.7% | 27.5hPa | 2.6V | 00:00:00 | 01:29:59 | 00:00:00 | |
| DK5PH-5 | 2026-09-02 12:12:59 | 49.37143 | 12.82683 | 259° | 13km/h | 24875m | 5.7m/s | -49.9°C | 3.7% | 27.5hPa | 2.6V | 03:54:00 | 01:29:58 | 00:00:00 | |
| OE5DXL-15 | 2026-09-02 12:12:55 | 49.37147 | 12.82693 | 214° | 13km/h | 24853m | 5.1m/s | -49.9°C | 3.6% | 27.6hPa | 2.7V | 00:00:00 | 00:00:00 | 00:00:00 | |
| DO3MHA-11 | 2026-09-02 12:12:53 | 49.37151 | 12.82698 | 218° | 15km/h | 24842m | 6.0m/s | -49.9°C | 3.6% | 27.6hPa | 2.6V | 00:00:00 | 01:29:52 | 00:00:00 | |
| OE5MMP-10 | 2026-09-02 12:12:50 | 49.37163 | 12.82712 | 213° | 11km/h | 24826m | 5.5m/s | -49.8°C | 3.7% | 27.7hPa | 2.6V | 00:00:00 | 01:29:49 | 00:00:00 | |
| PETON7-10 | 2026-09-02 12:12:49 | 49.37167 | 12.82715 | 204° | 13km/h | 24820m | 5.7m/s | -49.8°C | 3.7% | 27.7hPa | 2.6V | 00:00:00 | 00:00:00 | 00:00:00 | |
| S52SK | 2026-09-02 12:12:48 | 49.37167 | 12.82715 | 204° | 18km/h | 24820m | 5.8m/s | -49.9°C | 1.0% | 27.8hPa | 2.7V | 00:00:00 | 00:00:00 | 00:00:00 | |
| DO3MHA-11 | 2026-09-02 12:12:43 | 49.37180 | 12.82731 | 261° | 15km/h | 24789m | 5.0m/s | -49.8°C | 3.6% | 27.9hPa | 2.7V | 00:00:00 | 01:29:42 | 00:00:00 | |
| S52SK | 2026-09-02 12:12:42 | 49.37180 | 12.82731 | 261° | 7km/h | 24789m | 5.0m/s | -49.8°C | 1.0% | 27.9hPa | 2.7V | 00:00:00 | 00:00:00 | 00:00:00 | |
| OE5MMP-10 | 2026-09-02 12:12:40 | 49.37184 | 12.82736 | 199° | 16km/h | 24774m | 4.1m/s | -49.8°C | 3.6% | 27.9hPa | 2.7V | 03:55:00 | 01:29:39 | 00:00:00 | |
| EDDB2-12 | 2026-09-02 12:12:38 | 49.37194 | 12.82744 | 208° | 20km/h | 24758m | 4.8m/s | -49.8°C | 1.0% | 28.1hPa | 2.7V | 00:00:00 | 00:00:00 | 00:00:00 | |
| OE5REO-15 | 2026-09-02 12:12:37 | 49.37194 | 12.82744 | 209° | 20km/h | 24758m | 4.8m/s | -49.8°C | 1.0% | 28.0hPa | 2.7V | 03:55:00 | 00:00:00 | 00:00:00 | |
| PETON7-10 | 2026-09-02 12:12:34 | 49.37208 | 12.82751 | 185° | 16km/h | 24742m | 5.3m/s | -49.7°C | 3.6% | 28.1hPa | 2.7V | 03:55:00 | 00:00:00 | 00:00:00 | |
| DO3MHA-11 | 2026-09-02 12:12:33 | 49.37213 | 12.82751 | 185° | 13km/h | 24738m | 4.3m/s | -49.6°C | 3.6% | 28.1hPa | 2.7V | 00:00:00 | 01:29:32 | 00:00:00 | |
| OE5MMP-10 | 2026-09-02 12:12:30 | 49.37223 | 12.82756 | 217° | 16km/h | 24721m | 4.9m/s | -49.6°C | 3.6% | 28.1hPa | 2.7V | 00:00:00 | 01:29:29 | 00:00:00 | |
| DK5PH-5 | 2026-09-02 12:12:29 | 49.37225 | 12.82759 | 218° | 15km/h | 24716m | 5.4m/s | -49.6°C | 3.6% | 28.2hPa | 2.7V | 00:00:00 | 01:29:28 | 00:00:00 | |
| BAUMI2-15 | 2026-09-02 12:12:28 | 49.37227 | 12.82761 | 213° | 15km/h | 24710m | 6.0m/s | 0°C | 0% | 0hPa | 2.7V | 03:55:00 | 01:29:27 | 00:00:00 | |
| OE5DXL-15 | 2026-09-02 12:12:25 | 49.37234 | 12.82769 | 221° | 15km/h | 24696m | 5.7m/s | -49.6°C | 3.5% | 28.3hPa | 2.7V | 03:55:00 | 00:00:00 | 00:00:00 | |
| EDDB2-11 | 2026-09-02 12:12:24 | 49.37238 | 12.82773 | 222° | 20km/h | 24690m | 5.3m/s | -49.8°C | 1.0% | 28.3hPa | 2.7V | 00:00:00 | 00:00:00 | 00:00:00 | |
| DO3MHA-11 | 2026-09-02 12:12:23 | 49.37242 | 12.82779 | 218° | 18km/h | 24686m | 4.3m/s | -49.7°C | 3.6% | 28.3hPa | 2.7V | 03:55:00 | 01:29:22 | 00:00:00 | |
| DL1JEZ-13 | 2026-09-02 12:12:22 | 49.37242 | 12.82779 | 219° | 24km/h | 24686m | 4.3m/s | -49.8°C | 1.1% | 28.4hPa | 2.7V | 00:00:00 | 00:00:00 | 00:00:00 | |
| OE5MMP-10 | 2026-09-02 12:12:20 | 49.37258 | 12.82790 | 188° | 15km/h | 24671m | 5.2m/s | -49.7°C | 3.6% | 28.4hPa | 2.7V | 00:00:00 | 01:29:19 | 00:00:00 | |
| PETON7-10 | 2026-09-02 12:12:19 | 49.37263 | 12.82790 | 173° | 15km/h | 24666m | 4.4m/s | -49.7°C | 3.6% | 28.4hPa | 2.7V | 00:00:00 | 01:29:18 | 00:00:00 | |
| BAUMI2-15 | 2026-09-02 12:12:18 | 49.37267 | 12.82790 | 167° | 13km/h | 24662m | 4.1m/s | 0°C | 0% | 0hPa | 2.7V | 00:00:00 | 01:29:17 | 00:00:00 | |
| BAUMI2-15 | 2026-09-02 12:12:13 | 49.37283 | 12.82794 | 206° | 16km/h | 24637m | 3.9m/s | 0°C | 0% | 0hPa | 2.7V | 00:00:00 | 01:29:12 | 00:00:00 | |
| OE5MMP-10 | 2026-09-02 12:12:11 | 49.37295 | 12.82796 | 167° | 13km/h | 24621m | 5.3m/s | -49.8°C | 3.6% | 28.6hPa | 2.7V | 00:00:00 | 01:29:09 | 00:00:00 | |
| DL6DJ-15 | 2026-09-02 12:12:09 | 49.37299 | 12.82794 | 157° | 16km/h | 24616m | 4.6m/s | -49.8°C | 1.0% | 28.7hPa | 2.7V | 00:00:00 | 00:00:00 | 00:00:00 | |
| SP3BTT-10 | 2026-09-02 12:12:07 | 49.37307 | 12.82789 | 165° | 7km/h | 24607m | 5.2m/s | -49.9°C | 3.6% | 28.7hPa | 2.7V | 00:00:00 | 00:00:00 | 00:00:00 | |
| BAUMI2-15 | 2026-09-02 12:12:06 | 49.37310 | 12.82788 | 179° | 11km/h | 24602m | 5.6m/s | 0°C | 0% | 0hPa | 2.6V | 03:55:00 | 01:29:05 | 00:00:00 | |
| OE5REO-15 | 2026-09-02 12:12:05 | 49.37310 | 12.82788 | 180° | 13km/h | 24602m | 5.6m/s | -50.0°C | 1.1% | 28.7hPa | 2.6V | 03:56:00 | 00:00:00 | 00:00:00 | |
| PETON7-10 | 2026-09-02 12:12:04 | 49.37316 | 12.82789 | 186° | 7km/h | 24592m | 4.3m/s | -50.0°C | 3.6% | 28.7hPa | 2.6V | 00:00:00 | 00:00:00 | 00:00:00 | |
| DO3MHA-11 | 2026-09-02 12:12:03 | 49.37319 | 12.82789 | 170° | 7km/h | 24587m | 5.7m/s | -50.0°C | 3.6% | 28.7hPa | 2.6V | 00:00:00 | 01:29:02 | 00:00:00 | |
| BAUMI2-15 | 2026-09-02 12:12:01 | 49.37323 | 12.82786 | 144° | 9km/h | 24576m | 4.3m/s | 0°C | 0% | 0hPa | 2.7V | 00:00:00 | 01:29:00 | 00:00:00 | |
| OE5MMP-10 | 2026-09-02 12:12:00 | 49.37325 | 12.82784 | 147° | 7km/h | 24572m | 4.5m/s | -49.9°C | 3.6% | 28.8hPa | 2.7V | 03:55:00 | 01:28:59 | 00:00:00 | |
| DK5PH-5 | 2026-09-02 12:11:59 | 49.37326 | 12.82782 | 162° | 9km/h | 24567m | 5.8m/s | 0°C | 0% | 0hPa | 2.7V | 00:00:00 | 01:28:58 | 00:00:00 | |
| BAUMI2-15 | 2026-09-02 12:11:56 | 49.37331 | 12.82781 | 151° | 9km/h | 24551m | 5.6m/s | 0°C | 0% | 0hPa | 2.7V | 00:00:00 | 01:28:55 | 00:00:00 | |
| OE5DXL-15 | 2026-09-02 12:11:55 | 49.37332 | 12.82779 | 129° | 9km/h | 24545m | 5.5m/s | -50.0°C | 3.6% | 28.9hPa | 2.7V | 00:00:00 | 00:00:00 | 00:00:00 | |
| DO3MHA-11 | 2026-09-02 12:11:53 | 49.37335 | 12.82773 | 116° | 9km/h | 24535m | 4.8m/s | -50.0°C | 3.6% | 29.0hPa | 2.7V | 00:00:00 | 01:28:52 | 00:00:00 | |
| OE5WHR-10 | 2026-09-02 12:11:52 | 49.37336 | 12.82770 | 124° | 9km/h | 24530m | 5.8m/s | -50.1°C | 3.6% | 29.0hPa | 2.7V | 03:55:00 | 00:00:00 | 00:00:00 | |
| BAUMI2-15 | 2026-09-02 12:11:51 | 49.37337 | 12.82768 | 141° | 9km/h | 24525m | 5.0m/s | 0°C | 0% | 0hPa | 2.6V | 00:00:00 | 01:28:50 | 00:00:00 | |
| OE5MMP-10 | 2026-09-02 12:11:50 | 49.37338 | 12.82766 | 140° | 7km/h | 24520m | 4.2m/s | -50.1°C | 3.6% | 29.1hPa | 2.6V | 00:00:00 | 01:28:49 | 00:00:00 | |
| DL2RXE-15 | 2026-09-02 12:11:49 | 49.37339 | 12.82764 | 133° | 9km/h | 24515m | 5.4m/s | 0°C | 0% | 0hPa | 2.6V | 00:00:00 | 00:00:00 | 00:00:00 | |
| BAUMI2-15 | 2026-09-02 12:11:46 | 49.37345 | 12.82752 | 127° | 9km/h | 24499m | 4.7m/s | 0°C | 0% | 0hPa | 2.6V | 03:56:00 | 01:28:45 | 00:00:00 | |
| DO3MHA-11 | 2026-09-02 12:11:43 | 49.37349 | 12.82745 | 129° | 7km/h | 24483m | 4.3m/s | -50.1°C | 3.6% | 29.2hPa | 2.6V | 03:56:00 | 01:28:42 | 00:00:00 | |
| BAUMI2-15 | 2026-09-02 12:11:41 | 49.37350 | 12.82742 | 81° | 9km/h | 24472m | 5.7m/s | 0°C | 0% | 0hPa | 2.6V | 00:00:00 | 01:28:40 | 00:00:00 | |
| OE5MMP-10 | 2026-09-02 12:11:40 | 49.37349 | 12.82739 | 56° | 11km/h | 24467m | 4.4m/s | -50.1°C | 3.6% | 29.3hPa | 2.6V | 00:00:00 | 01:28:39 | 00:00:00 | |
| DL6DJ-15 | 2026-09-02 12:11:38 | 49.37346 | 12.82735 | 17° | 9km/h | 24457m | 6.2m/s | -50.2°C | 1.0% | 29.4hPa | 2.6V | 00:00:00 | 00:00:00 | 00:00:00 | |
| DL1JEZ-13 | 2026-09-02 12:11:37 | 49.37345 | 12.82735 | 18° | 9km/h | 24457m | 6.2m/s | -50.2°C | 1.1% | 29.4hPa | 2.6V | 00:00:00 | 00:00:00 | 00:00:00 | |
| BAUMI2-15 | 2026-09-02 12:11:36 | 49.37341 | 12.82733 | 26° | 11km/h | 24447m | 4.1m/s | 0°C | 0% | 0hPa | 2.6V | 00:00:00 | 01:28:35 | 00:00:00 | |
| EDDB2-12 | 2026-09-02 12:11:35 | 49.37340 | 12.82732 | 65° | 5km/h | 24442m | 5.3m/s | -50.4°C | 1.1% | 29.5hPa | 2.6V | 00:00:00 | 00:00:00 | 00:00:00 | |
| PETON7-10 | 2026-09-02 12:11:34 | 49.37340 | 12.82728 | 106° | 9km/h | 24436m | 5.9m/s | -50.4°C | 3.6% | 29.4hPa | 2.6V | 03:56:00 | 01:28:33 | 00:00:00 | |
| DO3MHA-11 | 2026-09-02 12:11:33 | 49.37341 | 12.82724 | 124° | 13km/h | 24431m | 5.0m/s | -50.5°C | 3.7% | 29.5hPa | 2.6V | 00:00:00 | 01:28:32 | 00:00:00 | |
| OE5WHR-10 | 2026-09-02 12:11:31 | 49.37347 | 12.82715 | 143° | 9km/h | 24421m | 5.5m/s | -50.5°C | 3.8% | 29.5hPa | 2.7V | 00:00:00 | 00:00:00 | 00:00:00 | |
| OE5MMP-10 | 2026-09-02 12:11:30 | 49.37350 | 12.82711 | 149° | 11km/h | 24416m | 4.7m/s | -50.6°C | 3.8% | 29.5hPa | 2.7V | 00:00:00 | 01:28:29 | 00:00:00 | |
| DK5PH-5 | 2026-09-02 12:11:29 | 49.37353 | 12.82709 | 146° | 9km/h | 24411m | 3.9m/s | 0°C | 0% | 0hPa | 2.6V | 00:00:00 | 01:28:28 | 00:00:00 | |
| BAUMI2-15 | 2026-09-02 12:11:26 | 49.37356 | 12.82698 | 92° | 11km/h | 24397m | 5.8m/s | 0°C | 0% | 0hPa | 2.6V | 03:56:00 | 01:28:25 | 00:00:00 | |
| OE5DXL-15 | 2026-09-02 12:11:25 | 49.37356 | 12.82693 | 88° | 7km/h | 24392m | 4.6m/s | -50.7°C | 3.7% | 29.6hPa | 2.6V | 00:00:00 | 00:00:00 | 00:00:00 | |
| DO3MHA-11 | 2026-09-02 12:11:23 | 49.37356 | 12.82684 | 95° | 5km/h | 24382m | 5.1m/s | -50.7°C | 3.7% | 29.7hPa | 2.7V | 00:00:00 | 01:28:22 | 00:00:00 | |
| EDDB2-11 | 2026-09-02 12:11:22 | 49.37356 | 12.82681 | 108° | 4km/h | 24376m | 5.9m/s | -50.7°C | 1.1% | 29.7hPa | 2.7V | 00:00:00 | 00:00:00 | 00:00:00 | |
| BAUMI2-15 | 2026-09-02 12:11:21 | 49.37357 | 12.82680 | 169° | 5km/h | 24371m | 4.7m/s | 0°C | 0% | 0hPa | 2.7V | 00:00:00 | 01:28:20 | 00:00:00 | |
| OE5MMP-10 | 2026-09-02 12:11:20 | 49.37358 | 12.82680 | 183° | 7km/h | 24367m | 4.4m/s | -50.6°C | 3.7% | 29.7hPa | 2.7V | 03:56:00 | 01:28:19 | 00:00:00 | |
| PETON7-10 | 2026-09-02 12:11:17 | 49.37362 | 12.82676 | 122° | 9km/h | 24351m | 4.6m/s | -50.7°C | 3.8% | 29.8hPa | 2.7V | 00:00:00 | 00:00:00 | 00:00:00 | |
| DL1JEZ-13 | 2026-09-02 12:11:16 | 49.37362 | 12.82676 | 123° | 7km/h | 24351m | 4.6m/s | -50.8°C | 1.1% | 29.9hPa | 2.7V | 00:00:00 | 00:00:00 | 00:00:00 | |
| BAUMI2-15 | 2026-09-02 12:11:15 | 49.37363 | 12.82672 | 82° | 7km/h | 24342m | 6.0m/s | 0°C | 0% | 0hPa | 2.7V | 00:00:00 | 01:28:14 | 00:00:00 | |
| DO3MHA-11 | 2026-09-02 12:11:13 | 49.37361 | 12.82668 | 49° | 9km/h | 24331m | 4.9m/s | -50.8°C | 3.8% | 29.9hPa | 2.7V | 00:00:00 | 01:28:12 | 00:00:00 | |
| S52SK | 2026-09-02 12:11:12 | 49.37361 | 12.82668 | 50° | 7km/h | 24331m | 4.9m/s | -50.9°C | 1.1% | 30.0hPa | 2.7V | 00:00:00 | 00:00:00 | 00:00:00 | |
| OE5WHR-10 | 2026-09-02 12:11:10 | 49.37360 | 12.82657 | 98° | 7km/h | 24315m | 4.6m/s | -50.7°C | 3.7% | 30.0hPa | 2.7V | 00:00:00 | 01:28:09 | 00:00:00 | |
| HSKMA3-T | 2026-09-02 12:10:50 | 49.37375 | 12.82609 | 91° | 7km/h | 24210m | 5.8m/s | 0°C | 0% | 0hPa | 2.7V | 18:12:15 | 01:27:49 | 00:00:00 | |
| OE5WHR-10 | 2026-09-02 12:10:49 | 49.37375 | 12.82607 | 90° | 5km/h | 24206m | 4.2m/s | -51.0°C | 3.7% | 30.5hPa | 2.7V | 00:00:00 | 00:00:00 | 00:00:00 | |
| HSKMA3-T | 2026-09-02 12:10:30 | 49.37378 | 12.82575 | 98° | 7km/h | 24108m | 4.6m/s | 0°C | 0% | 0hPa | 2.6V | 18:12:15 | 01:27:29 | 00:00:00 | |
| OE5MMP-10 | 2026-09-02 12:10:30 | 49.37378 | 12.82575 | 99° | 7km/h | 24109m | 4.6m/s | -51.2°C | 4.0% | 31.0hPa | 2.6V | 00:00:00 | 01:27:29 | 00:00:00 | |
| OE5WHR-10 | 2026-09-02 12:10:28 | 49.37379 | 12.82568 | 111° | 9km/h | 24098m | 5.1m/s | -51.2°C | 4.0% | 31.0hPa | 2.6V | 03:57:00 | 00:00:00 | 00:00:00 | |
| DK5PH-5 | 2026-09-02 12:10:27 | 49.37380 | 12.82564 | 115° | 13km/h | 24093m | 4.0m/s | 0°C | 0% | 0hPa | 2.6V | 00:00:00 | 01:27:26 | 00:00:00 | |
| OE5DXL-15 | 2026-09-02 12:10:25 | 49.37382 | 12.82558 | 104° | 13km/h | 24084m | 5.8m/s | -51.3°C | 3.9% | 31.1hPa | 2.6V | 03:57:00 | 00:00:00 | 00:00:00 | |
| DO3MHA-11 | 2026-09-02 12:10:23 | 49.37381 | 12.82558 | 359° | 9km/h | 24073m | 4.7m/s | -51.3°C | 3.8% | 31.1hPa | 2.6V | 03:57:00 | 01:27:22 | 00:00:00 | |
| OE5MMP-10 | 2026-09-02 12:10:20 | 49.37378 | 12.82553 | 87° | 13km/h | 24057m | 4.7m/s | -51.2°C | 3.8% | 31.2hPa | 2.6V | 00:00:00 | 01:27:19 | 00:00:00 | |
| PETON7-10 | 2026-09-02 12:10:17 | 49.37380 | 12.82542 | 121° | 13km/h | 24042m | 5.5m/s | -51.1°C | 3.8% | 31.3hPa | 2.6V | 00:00:00 | 00:00:00 | 00:00:00 | |
| OE5REO-15 | 2026-09-02 12:10:15 | 49.37381 | 12.82539 | 129° | 9km/h | 24037m | 4.5m/s | -51.2°C | 1.1% | 31.4hPa | 2.6V | 03:58:00 | 00:00:00 | 00:00:00 | |
| DO3MHA-11 | 2026-09-02 12:10:13 | 49.37387 | 12.82526 | 122° | 13km/h | 24021m | 5.5m/s | -51.3°C | 3.9% | 31.4hPa | 2.6V | 00:00:00 | 01:27:12 | 00:00:00 | |
| DL2RXE-15 | 2026-09-02 12:10:11 | 49.37389 | 12.82520 | 122° | 18km/h | 24016m | 5.2m/s | 0°C | 0% | 0hPa | 2.6V | 00:00:00 | 00:00:00 | 00:00:00 | |
| OE5MMP-10 | 2026-09-02 12:10:10 | 49.37393 | 12.82510 | 128° | 13km/h | 24005m | 5.9m/s | -51.3°C | 3.9% | 31.4hPa | 2.6V | 00:00:00 | 01:27:09 | 00:00:00 | |
| OE5DRO-10 | 2026-09-02 12:10:09 | 49.37395 | 12.82508 | 134° | 16km/h | 24000m | 4.4m/s | -51.2°C | 3.9% | 31.5hPa | 2.6V | 00:00:00 | 00:00:00 | 00:00:00 | |
| OE5WHR-10 | 2026-09-02 12:10:07 | 49.37397 | 12.82503 | 122° | 16km/h | 23991m | 5.1m/s | -51.3°C | 3.9% | 31.5hPa | 2.6V | 00:00:00 | 01:27:06 | 00:00:00 | |
| DL6DJ-15 | 2026-09-02 12:10:05 | 49.37402 | 12.82490 | 119° | 16km/h | 23974m | 5.1m/s | -51.4°C | 1.1% | 31.7hPa | 2.6V | 00:00:00 | 00:00:00 | 00:00:00 | |
| DO3MHA-11 | 2026-09-02 12:10:03 | 49.37404 | 12.82484 | 126° | 20km/h | 23969m | 5.6m/s | -51.4°C | 3.9% | 31.6hPa | 2.6V | 00:00:00 | 01:27:02 | 00:00:00 | |
| EDDB2-12 | 2026-09-02 12:10:02 | 49.37407 | 12.82479 | 127° | 15km/h | 23964m | 5.3m/s | -51.3°C | 1.1% | 31.7hPa | 2.6V | 00:00:00 | 00:00:00 | 00:00:00 | |
| SONCRA | 2026-09-02 12:10:01 | 49.37409 | 12.82474 | 125° | 15km/h | 23959m | 3.9m/s | -51.3°C | 1.1% | 31.7hPa | 2.6V | 00:00:00 | 00:00:00 | 00:00:00 | |
| EDDB2-11 | 2026-09-02 12:09:49 | 49.37437 | 12.82395 | 92° | 16km/h | 23893m | 5.7m/s | -51.5°C | 1.1% | 32.1hPa | 2.6V | 00:00:00 | 00:00:00 | 00:00:00 | |
| PETON7-10 | 2026-09-02 12:09:47 | 49.37437 | 12.82388 | 98° | 16km/h | 23888m | 5.6m/s | -51.4°C | 3.7% | 32.0hPa | 2.6V | 00:00:00 | 00:00:00 | 00:00:00 | |
| OE5WHR-10 | 2026-09-02 12:09:46 | 49.37438 | 12.82382 | 102° | 16km/h | 23883m | 4.4m/s | -51.5°C | 3.7% | 32.0hPa | 2.7V | 00:00:00 | 00:00:00 | 00:00:00 | |
| OE5REO-15 | 2026-09-02 12:09:44 | 49.37438 | 12.82377 | 102° | 16km/h | 23878m | 4.0m/s | -51.7°C | 1.1% | 32.1hPa | 2.6V | 03:58:00 | 00:00:00 | 00:00:00 | |
| DO3MHA-11 | 2026-09-02 12:09:43 | 49.37440 | 12.82362 | 96° | 16km/h | 23868m | 5.7m/s | -51.7°C | 3.9% | 32.1hPa | 2.6V | 03:58:00 | 01:26:42 | 00:00:00 | |
| S52SK | 2026-09-02 12:09:42 | 49.37440 | 12.82362 | 96° | 22km/h | 23868m | 5.7m/s | -51.8°C | 1.2% | 32.2hPa | 2.6V | 03:58:00 | 00:00:00 | 00:00:00 | |
| OE5MMP-10 | 2026-09-02 12:09:40 | 49.37442 | 12.82340 | 109° | 16km/h | 23852m | 6.0m/s | -51.8°C | 4.0% | 32.2hPa | 2.6V | 00:00:00 | 01:26:39 | 00:00:00 | |
| DO3MHA-11 | 2026-09-02 12:09:34 | 49.37445 | 12.82298 | 86° | 16km/h | 23818m | 5.3m/s | -51.9°C | 3.9% | 32.4hPa | 2.6V | 00:00:00 | 01:26:32 | 00:00:00 | |
| PETON7-10 | 2026-09-02 12:09:32 | 49.37445 | 12.82291 | 88° | 16km/h | 23813m | 5.8m/s | -51.8°C | 3.9% | 32.4hPa | 2.7V | 03:58:00 | 00:00:00 | 00:00:00 | |
| EDDB2-12 | 2026-09-02 12:09:31 | 49.37445 | 12.82285 | 89° | 13km/h | 23807m | 4.9m/s | -51.8°C | 1.1% | 32.5hPa | 2.7V | 00:00:00 | 00:00:00 | 00:00:00 | |
| OE5MMP-10 | 2026-09-02 12:09:30 | 49.37445 | 12.82280 | 87° | 18km/h | 23802m | 4.2m/s | -51.8°C | 3.9% | 32.4hPa | 2.7V | 00:00:00 | 01:26:29 | 00:00:00 | |
| OE5DRO-10 | 2026-09-02 12:09:28 | 49.37443 | 12.82270 | 67° | 16km/h | 23793m | 5.2m/s | -51.8°C | 3.9% | 32.5hPa | 2.6V | 03:58:00 | 00:00:00 | 00:00:00 | |
| OE5DXL-15 | 2026-09-02 12:09:25 | 49.37436 | 12.82250 | 63° | 16km/h | 23777m | 4.7m/s | -51.9°C | 3.9% | 32.6hPa | 2.6V | 00:00:00 | 00:00:00 | 00:00:00 | |
| DO3MHA-11 | 2026-09-02 12:09:23 | 49.37432 | 12.82236 | 74° | 16km/h | 23766m | 5.3m/s | -52.0°C | 4.0% | 32.6hPa | 2.6V | 00:00:00 | 01:26:22 | 00:00:00 | |
| OE5MMP-10 | 2026-09-02 12:09:20 | 49.37428 | 12.82217 | 68° | 16km/h | 23749m | 5.1m/s | -52.1°C | 4.0% | 32.7hPa | 2.6V | 03:58:00 | 01:26:19 | 00:00:00 | |
| EDDB2-11 | 2026-09-02 12:09:18 | 49.37423 | 12.82198 | 69° | 13km/h | 23734m | 6.0m/s | -52.1°C | 1.2% | 32.9hPa | 2.6V | 00:00:00 | 00:00:00 | 00:00:00 | |
| DL1JEZ-13 | 2026-09-02 12:09:17 | 49.37423 | 12.82198 | 71° | 15km/h | 23734m | 6.0m/s | -52.1°C | 1.2% | 32.9hPa | 2.6V | 00:00:00 | 00:00:00 | 00:00:00 | |
| PG1ADW-2 | 2026-09-02 12:09:14 | 49.37418 | 12.82184 | 56° | 16km/h | 23718m | 6.2m/s | -52.1°C | 3.9% | 32.9hPa | 2.6V | 00:00:00 | 00:00:00 | 00:00:00 | |
| DO3MHA-11 | 2026-09-02 12:09:13 | 49.37416 | 12.82178 | 52° | 16km/h | 23713m | 5.0m/s | -52.1°C | 3.9% | 32.9hPa | 2.6V | 00:00:00 | 01:26:12 | 00:00:00 | |
| OE5MMP-10 | 2026-09-02 12:09:10 | 49.37408 | 12.82162 | 61° | 13km/h | 23697m | 5.5m/s | -52.1°C | 4.0% | 33.0hPa | 2.6V | 00:00:00 | 01:26:09 | 00:00:00 | |
| OE5DRO-10 | 2026-09-02 12:09:09 | 49.37407 | 12.82158 | 71° | 15km/h | 23692m | 4.6m/s | -52.1°C | 4.0% | 33.0hPa | 2.6V | 00:00:00 | 00:00:00 | 00:00:00 | |
| OE5WHR-10 | 2026-09-02 12:09:04 | 49.37401 | 12.82135 | 77° | 15km/h | 23667m | 5.7m/s | -52.4°C | 4.0% | 33.1hPa | 2.6V | 03:58:00 | 01:26:03 | 00:00:00 | |
| DL6DJ-15 | 2026-09-02 12:09:03 | 49.37400 | 12.82127 | 71° | 11km/h | 23656m | 4.1m/s | -52.3°C | 1.2% | 33.3hPa | 2.6V | 00:00:00 | 00:00:00 | 00:00:00 | |
| EDDB2-12 | 2026-09-02 12:09:00 | 49.37397 | 12.82117 | 59° | 18km/h | 23647m | 6.1m/s | -52.4°C | 1.2% | 33.3hPa | 2.6V | 00:00:00 | 00:00:00 | 00:00:00 | |
| SONCRA | 2026-09-02 12:08:59 | 49.37394 | 12.82110 | 56° | 22km/h | 23641m | 4.8m/s | -52.5°C | 1.2% | 33.3hPa | 2.6V | 00:00:00 | 00:00:00 | 00:00:00 | |
| SONDE2-11 | 2026-09-02 12:08:48 | 49.37372 | 12.82039 | 86° | 11km/h | 23577m | 3.6m/s | -52.7°C | 1.2% | 33.7hPa | 2.6V | 00:00:00 | 00:00:00 | 00:00:00 | |
| PETON7-10 | 2026-09-02 12:08:47 | 49.37372 | 12.82044 | 93° | 16km/h | 23581m | 4.6m/s | -52.7°C | 4.1% | 33.6hPa | 2.6V | 00:00:00 | 00:00:00 | 00:00:00 | |
| OE5WHR-10 | 2026-09-02 12:08:43 | 49.37368 | 12.82024 | 56° | 18km/h | 23562m | 4.8m/s | -52.6°C | 4.1% | 33.7hPa | 2.6V | 00:00:00 | 00:00:00 | 00:00:00 | |
| OE5REO-15 | 2026-09-02 12:08:41 | 49.37365 | 12.82018 | 59° | 18km/h | 23557m | 4.5m/s | -52.7°C | 1.2% | 33.8hPa | 2.7V | 00:00:00 | 00:00:00 | 00:00:00 | |
| OE5MMP-10 | 2026-09-02 12:08:40 | 49.37361 | 12.82006 | 71° | 16km/h | 23546m | 5.0m/s | -52.7°C | 4.1% | 33.8hPa | 2.7V | 03:59:00 | 01:25:39 | 00:00:00 | |
| SP3BTT-10 | 2026-09-02 12:08:35 | 49.37353 | 12.81977 | 72° | 16km/h | 23521m | 4.8m/s | -52.8°C | 4.1% | 33.9hPa | 2.7V | 00:00:00 | 00:00:00 | 00:00:00 | |
| PG1ADW-2 | 2026-09-02 12:08:34 | 49.37352 | 12.81971 | 83° | 20km/h | 23516m | 5.9m/s | -52.9°C | 4.1% | 33.9hPa | 2.6V | 00:00:00 | 00:00:00 | 00:00:00 | |
| DO3MHA-11 | 2026-09-02 12:08:33 | 49.37352 | 12.81965 | 90° | 18km/h | 23510m | 4.7m/s | -53.0°C | 4.1% | 33.9hPa | 2.6V | 00:00:00 | 01:25:32 | 00:00:00 | |
| DL6DJ-15 | 2026-09-02 12:08:32 | 49.37351 | 12.81951 | 79° | 16km/h | 23501m | 6.0m/s | -53.1°C | 1.3% | 34.1hPa | 2.6V | 00:00:00 | 00:00:00 | 00:00:00 | |
| PETON7-10 | 2026-09-02 12:08:31 | 49.37351 | 12.81951 | 80° | 20km/h | 23501m | 6.0m/s | -53.0°C | 4.2% | 34.0hPa | 2.6V | 03:59:00 | 01:25:30 | 00:00:00 | |
| OE5MMP-10 | 2026-09-02 12:08:30 | 49.37350 | 12.81945 | 70° | 20km/h | 23495m | 4.9m/s | -52.9°C | 4.1% | 34.1hPa | 2.6V | 00:00:00 | 01:25:29 | 00:00:00 | |
| SONCRA | 2026-09-02 12:08:28 | 49.37347 | 12.81932 | 69° | 16km/h | 23485m | 5.1m/s | -53.0°C | 1.2% | 34.1hPa | 2.7V | 00:00:00 | 00:00:00 | 00:00:00 | |
| S52SK | 2026-09-02 12:08:24 | 49.37343 | 12.81913 | 74° | 18km/h | 23470m | 3.9m/s | -52.9°C | 1.2% | 34.2hPa | 2.7V | 00:00:00 | 00:00:00 | 00:00:00 | |
| DO3MHA-11 | 2026-09-02 12:08:23 | 49.37339 | 12.81899 | 54° | 24km/h | 23460m | 5.9m/s | -53.0°C | 4.1% | 34.2hPa | 2.7V | 03:59:00 | 01:25:22 | 00:00:00 | |
| OE5WHR-10 | 2026-09-02 12:08:22 | 49.37335 | 12.81892 | 46° | 20km/h | 23455m | 5.0m/s | -53.1°C | 4.2% | 34.3hPa | 2.7V | 00:00:00 | 00:00:00 | 00:00:00 | |
| OE5MMP-10 | 2026-09-02 12:08:20 | 49.37325 | 12.81879 | 44° | 22km/h | 23445m | 5.8m/s | -53.1°C | 4.2% | 34.3hPa | 2.7V | 00:00:00 | 01:25:19 | 00:00:00 | |
| S52SK | 2026-09-02 12:08:19 | 49.37325 | 12.81879 | 44° | 26km/h | 23445m | 5.8m/s | -53.2°C | 1.2% | 34.4hPa | 2.7V | 00:00:00 | 00:00:00 | 00:00:00 | |
| EDDB2-11 | 2026-09-02 12:08:16 | 49.37303 | 12.81848 | 43° | 20km/h | 23419m | 4.0m/s | -53.3°C | 1.2% | 34.5hPa | 2.7V | 00:00:00 | 00:00:00 | 00:00:00 | |
| PG1ADW-2 | 2026-09-02 12:08:14 | 49.37300 | 12.81842 | 55° | 18km/h | 23415m | 4.4m/s | -53.3°C | 4.3% | 34.5hPa | 2.7V | 00:00:00 | 01:25:13 | 00:00:00 | |
| DO3MHA-11 | 2026-09-02 12:08:13 | 49.37297 | 12.81836 | 69° | 18km/h | 23410m | 6.1m/s | -53.2°C | 4.3% | 34.5hPa | 2.7V | 00:00:00 | 01:25:12 | 00:00:00 | |
| OE5DRO-10 | 2026-09-02 12:08:12 | 49.37297 | 12.81829 | 86° | 18km/h | 23404m | 5.3m/s | -53.3°C | 4.3% | 34.5hPa | 2.7V | 03:59:00 | 00:00:00 | 00:00:00 | |
| OE5MMP-10 | 2026-09-02 12:08:10 | 49.37296 | 12.81816 | 84° | 18km/h | 23396m | 4.1m/s | -53.2°C | 4.3% | 34.6hPa | 2.7V | 00:00:00 | 01:25:09 | 00:00:00 | |
| DO3MHA-11 | 2026-09-02 12:08:03 | 49.37274 | 12.81779 | 24° | 15km/h | 23362m | 4.6m/s | -52.9°C | 4.2% | 34.8hPa | 2.7V | 00:00:00 | 01:25:02 | 00:00:00 | |
| DL1JEZ-13 | 2026-09-02 12:08:02 | 49.37274 | 12.81779 | 24° | 15km/h | 23362m | 4.6m/s | -53.0°C | 1.3% | 34.8hPa | 2.6V | 03:59:00 | 00:00:00 | 00:00:00 | |
| DL6DJ-15 | 2026-09-02 12:08:00 | 49.37263 | 12.81778 | 354° | 15km/h | 23346m | 4.8m/s | -53.0°C | 1.3% | 34.9hPa | 2.6V | 00:00:00 | 00:00:00 | 00:00:00 | |
| EDDB2-12 | 2026-09-02 12:07:58 | 49.37257 | 12.81777 | 25° | 11km/h | 23338m | 4.8m/s | -53.0°C | 1.2% | 35.0hPa | 2.6V | 00:00:00 | 00:00:00 | 00:00:00 | |
| SONCRA | 2026-09-02 12:07:57 | 49.37255 | 12.81774 | 53° | 11km/h | 23333m | 6.0m/s | -52.9°C | 1.2% | 35.0hPa | 2.6V | 00:00:00 | 00:00:00 | 00:00:00 | |
| DO3MHA-11 | 2026-09-02 12:07:53 | 49.37245 | 12.81747 | 53° | 20km/h | 23311m | 4.7m/s | -52.7°C | 4.1% | 35.0hPa | 2.6V | 00:00:00 | 01:24:52 | 00:00:00 | |
| OE5MMP-10 | 2026-09-02 12:07:50 | 49.37232 | 12.81728 | 39° | 16km/h | 23298m | 5.4m/s | -52.7°C | 4.0% | 35.1hPa | 2.6V | 00:00:00 | 01:24:49 | 00:00:00 | |
| PETON7-10 | 2026-09-02 12:07:46 | 49.37217 | 12.81719 | 4° | 16km/h | 23277m | 5.2m/s | -52.7°C | 4.1% | 35.2hPa | 2.6V | 00:00:00 | 01:24:45 | 00:00:00 | |
| SONDE2-11 | 2026-09-02 12:07:45 | 49.37208 | 12.81717 | 12° | 15km/h | 23268m | 5.0m/s | -53.0°C | 1.2% | 35.3hPa | 2.6V | 00:00:00 | 00:00:00 | 00:00:00 | |
| EDDB2-11 | 2026-09-02 12:07:44 | 49.37208 | 12.81717 | 12° | 15km/h | 23268m | 5.0m/s | -53.0°C | 1.2% | 35.3hPa | 2.6V | 00:00:00 | 00:00:00 | 00:00:00 | |
| DO3MHA-11 | 2026-09-02 12:07:43 | 49.37205 | 12.81715 | 30° | 16km/h | 23263m | 5.8m/s | -52.8°C | 4.0% | 35.3hPa | 2.6V | 00:00:00 | 01:24:42 | 00:00:00 | |
| DL1JEZ-13 | 2026-09-02 12:07:41 | 49.37202 | 12.81712 | 49° | 15km/h | 23257m | 4.8m/s | -53.0°C | 1.3% | 35.4hPa | 2.6V | 00:00:00 | 00:00:00 | 00:00:00 | |
| OE5WHR-10 | 2026-09-02 12:07:40 | 49.37197 | 12.81702 | 51° | 15km/h | 23248m | 6.0m/s | -53.0°C | 4.1% | 35.4hPa | 2.6V | 00:00:00 | 00:00:00 | 00:00:00 | |
| SP3BTT-10 | 2026-09-02 12:07:34 | 49.37180 | 12.81673 | 31° | 9km/h | 23218m | 4.9m/s | -53.0°C | 4.1% | 35.5hPa | 2.6V | 00:00:00 | 00:00:00 | 00:00:00 | |
| DO3MHA-11 | 2026-09-02 12:07:33 | 49.37177 | 12.81671 | 18° | 13km/h | 23212m | 5.7m/s | -53.0°C | 4.1% | 35.6hPa | 2.6V | 00:00:00 | 01:24:32 | 00:00:00 | |
| PETON7-10 | 2026-09-02 12:07:31 | 49.37170 | 12.81668 | 16° | 13km/h | 23202m | 4.5m/s | -53.2°C | 4.2% | 35.6hPa | 2.7V | 00:00:00 | 00:00:00 | 00:00:00 | |
| OE5MMP-10 | 2026-09-02 12:07:30 | 49.37167 | 12.81666 | 29° | 13km/h | 23197m | 5.8m/s | -53.3°C | 4.2% | 35.7hPa | 2.6V | 00:00:00 | 01:24:29 | 00:00:00 | |
| DL6DJ-15 | 2026-09-02 12:07:29 | 49.37165 | 12.81664 | 52° | 9km/h | 23191m | 5.3m/s | -53.3°C | 1.2% | 35.8hPa | 2.6V | 00:00:00 | 00:00:00 | 00:00:00 | |
| EDDB2-12 | 2026-09-02 12:07:27 | 49.37162 | 12.81656 | 63° | 13km/h | 23182m | 5.4m/s | -53.3°C | 1.2% | 35.8hPa | 2.6V | 00:00:00 | 00:00:00 | 00:00:00 | |
| SONCRA | 2026-09-02 12:07:26 | 49.37160 | 12.81651 | 53° | 15km/h | 23176m | 5.6m/s | -53.5°C | 1.3% | 35.9hPa | 2.6V | 00:00:00 | 00:00:00 | 00:00:00 | |
| DO3MHA-11 | 2026-09-02 12:07:23 | 49.37152 | 12.81638 | 44° | 13km/h | 23163m | 4.7m/s | -53.5°C | 4.3% | 35.8hPa | 2.6V | 00:00:00 | 01:24:22 | 00:00:00 | |
| OE5MMP-10 | 2026-09-02 12:07:20 | 49.37146 | 12.81630 | 23° | 13km/h | 23148m | 4.7m/s | -53.5°C | 4.2% | 35.9hPa | 2.6V | 00:00:00 | 01:24:19 | 00:00:00 | |
| OE5WHR-10 | 2026-09-02 12:07:19 | 49.37143 | 12.81629 | 8° | 7km/h | 23143m | 5.9m/s | -53.6°C | 4.2% | 36.0hPa | 2.6V | 00:00:00 | 00:00:00 | 00:00:00 | |
| PETON7-10 | 2026-09-02 12:07:16 | 49.37132 | 12.81631 | 343° | 7km/h | 23127m | 5.1m/s | -53.6°C | 4.4% | 36.1hPa | 2.6V | 00:00:00 | 00:00:00 | 00:00:00 | |
| EDDB2-11 | 2026-09-02 12:07:14 | 49.37124 | 12.81635 | 342° | 7km/h | 23111m | 4.6m/s | -53.7°C | 1.3% | 36.2hPa | 2.6V | 00:00:00 | 00:00:00 | 00:00:00 | |
| DO3MHA-11 | 2026-09-02 12:07:13 | 49.37124 | 12.81635 | 343° | 7km/h | 23111m | 4.5m/s | -53.6°C | 4.5% | 36.2hPa | 2.6V | 04:00:00 | 01:24:12 | 00:00:00 | |
| OE5MMP-10 | 2026-09-02 12:07:10 | 49.37117 | 12.81637 | 358° | 4km/h | 23096m | 4.4m/s | -53.7°C | 4.5% | 36.2hPa | 2.6V | 00:00:00 | 01:24:09 | 00:00:00 | |
| DO3MHA-11 | 2026-09-02 12:07:03 | 49.37110 | 12.81639 | 304° | 9km/h | 23058m | 4.2m/s | -53.3°C | 4.3% | 36.5hPa | 2.6V | 00:00:00 | 01:24:02 | 00:00:00 | |
| DL6DJ-15 | 2026-09-02 12:06:58 | 49.37110 | 12.81645 | 353° | 2km/h | 23031m | 5.4m/s | -53.1°C | 1.3% | 36.6hPa | 2.7V | 00:00:00 | 00:00:00 | 00:00:00 | |
| EDDB2-12 | 2026-09-02 12:06:56 | 49.37107 | 12.81646 | 327° | 5km/h | 23022m | 4.9m/s | -53.1°C | 1.3% | 36.7hPa | 2.7V | 00:00:00 | 00:00:00 | 00:00:00 | |
| SONCRA | 2026-09-02 12:06:55 | 49.37106 | 12.81648 | 300° | 7km/h | 23016m | 5.9m/s | -53.0°C | 1.3% | 36.7hPa | 2.7V | 00:00:00 | 00:00:00 | 00:00:00 | |
| OE5DXL-15 | 2026-09-02 12:06:53 | 49.37104 | 12.81656 | 289° | 9km/h | 23006m | 4.5m/s | -52.9°C | 4.3% | 36.7hPa | 2.7V | 00:00:00 | 00:00:00 | 00:00:00 | |
| OE5MMP-10 | 2026-09-02 12:06:50 | 49.37097 | 12.81671 | 321° | 9km/h | 22990m | 4.4m/s | -53.0°C | 4.3% | 36.8hPa | 2.6V | 04:01:00 | 01:23:49 | 00:00:00 | |
| NBG1-10 | 2026-09-02 12:06:47 | 49.37090 | 12.81680 | 300° | 7km/h | 22976m | 5.7m/s | -53.0°C | 4.3% | 36.9hPa | 2.6V | 00:00:00 | 01:23:46 | 00:00:00 | |
| PETON7-10 | 2026-09-02 12:06:45 | 49.37090 | 12.81685 | 261° | 7km/h | 22967m | 3.9m/s | -52.9°C | 4.2% | 37.0hPa | 2.6V | 04:01:00 | 00:00:00 | 00:00:00 | |
| SONDE2-11 | 2026-09-02 12:06:43 | 49.37088 | 12.81689 | 348° | 7km/h | 22951m | 5.7m/s | -52.9°C | 1.2% | 37.1hPa | 2.7V | 00:00:00 | 00:00:00 | 00:00:00 | |
| EDDB2-11 | 2026-09-02 12:06:42 | 49.37088 | 12.81689 | 348° | 7km/h | 22951m | 5.7m/s | -52.9°C | 1.2% | 37.1hPa | 2.7V | 00:00:00 | 00:00:00 | 00:00:00 | |
| OE5MMP-10 | 2026-09-02 12:06:40 | 49.37083 | 12.81690 | 349° | 7km/h | 22942m | 4.3m/s | -52.8°C | 4.1% | 37.1hPa | 2.7V | 00:00:00 | 01:23:39 | 00:00:00 | |
| OE5WHR-10 | 2026-09-02 12:06:37 | 49.37079 | 12.81695 | 280° | 7km/h | 22926m | 4.3m/s | -52.5°C | 4.1% | 37.2hPa | 2.7V | 00:00:00 | 00:00:00 | 00:00:00 | |
| OE5MMP-10 | 2026-09-02 12:06:30 | 49.37077 | 12.81716 | 215° | 7km/h | 22890m | 6.7m/s | -52.4°C | 4.1% | 37.4hPa | 2.7V | 00:00:00 | 01:23:29 | 00:00:00 | |
| PETON7-10 | 2026-09-02 12:06:29 | 49.37079 | 12.81717 | 208° | 7km/h | 22884m | 5.4m/s | -52.4°C | 4.2% | 37.4hPa | 2.7V | 00:00:00 | 00:00:00 | 00:00:00 | |
| DL6DJ-15 | 2026-09-02 12:06:27 | 49.37082 | 12.81722 | 238° | 7km/h | 22873m | 6.1m/s | -52.6°C | 1.2% | 37.6hPa | 2.7V | 00:00:00 | 00:00:00 | 00:00:00 | |
| DO8TBO-1 | 2026-09-02 12:06:26 | 49.37082 | 12.81724 | 263° | 9km/h | 22868m | 4.5m/s | -52.5°C | 4.1% | 37.6hPa | 2.7V | 04:01:00 | 01:23:25 | 00:00:00 | |
| EDDB2-12 | 2026-09-02 12:06:25 | 49.37083 | 12.81728 | 269° | 7km/h | 22864m | 4.3m/s | -52.5°C | 1.2% | 37.6hPa | 2.6V | 00:00:00 | 00:00:00 | 00:00:00 | |
| SONCRA | 2026-09-02 12:06:24 | 49.37083 | 12.81733 | 248° | 5km/h | 22853m | 5.4m/s | -52.5°C | 1.2% | 37.7hPa | 2.6V | 00:00:00 | 00:00:00 | 00:00:00 | |
| OE5DXL-15 | 2026-09-02 12:06:23 | 49.37083 | 12.81733 | 249° | 9km/h | 22853m | 5.4m/s | -52.4°C | 4.1% | 37.6hPa | 2.6V | 00:00:00 | 00:00:00 | 00:00:00 | |
| OE5MMP-10 | 2026-09-02 12:06:20 | 49.37084 | 12.81739 | 294° | 7km/h | 22838m | 5.9m/s | -52.3°C | 4.1% | 37.7hPa | 2.6V | 00:00:00 | 01:23:19 | 00:00:00 | |
| OE5WHR-10 | 2026-09-02 12:06:16 | 49.37083 | 12.81744 | 205° | 9km/h | 22817m | 5.3m/s | -52.3°C | 4.0% | 37.8hPa | 2.6V | 04:01:00 | 00:00:00 | 00:00:00 | |
| PETON7-10 | 2026-09-02 12:06:14 | 49.37087 | 12.81746 | 211° | 9km/h | 22808m | 5.1m/s | -52.3°C | 4.1% | 37.9hPa | 2.6V | 00:00:00 | 01:23:13 | 00:00:00 | |
| SONDE2-11 | 2026-09-02 12:06:12 | 49.37091 | 12.81754 | 242° | 9km/h | 22792m | 4.5m/s | -52.3°C | 1.2% | 38.0hPa | 2.6V | 00:00:00 | 00:00:00 | 00:00:00 | |
| NBG1-10 | 2026-09-02 12:06:11 | 49.37090 | 12.81754 | 243° | 15km/h | 22792m | 4.5m/s | -52.2°C | 4.1% | 38.0hPa | 2.6V | 00:00:00 | 01:23:10 | 00:00:00 | |
| OE5MMP-10 | 2026-09-02 12:06:10 | 49.37092 | 12.81758 | 236° | 7km/h | 22787m | 6.0m/s | -52.3°C | 4.0% | 38.0hPa | 2.7V | 00:00:00 | 01:23:09 | 00:00:00 | |
| DL1JEZ-13 | 2026-09-02 12:06:08 | 49.37093 | 12.81761 | 232° | 9km/h | 22781m | 4.8m/s | -52.4°C | 1.3% | 38.1hPa | 2.7V | 00:00:00 | 00:00:00 | 00:00:00 | |
| DL6DJ-15 | 2026-09-02 12:05:56 | 49.37112 | 12.81743 | 163° | 15km/h | 22715m | 5.8m/s | -52.2°C | 1.2% | 38.5hPa | 2.7V | 00:00:00 | 00:00:00 | 00:00:00 | |
| EDDB2-12 | 2026-09-02 12:05:54 | 49.37119 | 12.81740 | 164° | 13km/h | 22705m | 4.3m/s | -52.2°C | 1.2% | 38.6hPa | 2.7V | 00:00:00 | 00:00:00 | 00:00:00 | |
| OE5DXL-15 | 2026-09-02 12:05:53 | 49.37121 | 12.81739 | 161° | 11km/h | 22700m | 5.3m/s | -52.0°C | 4.0% | 38.5hPa | 2.7V | 00:00:00 | 00:00:00 | 00:00:00 | |
| OE5MMP-10 | 2026-09-02 12:05:50 | 49.37123 | 12.81736 | 102° | 11km/h | 22686m | 3.7m/s | -51.9°C | 4.0% | 38.6hPa | 2.7V | 00:00:00 | 01:22:49 | 00:00:00 | |
| SP3BTT-10 | 2026-09-02 12:05:49 | 49.37124 | 12.81734 | 113° | 11km/h | 22681m | 5.4m/s | -51.9°C | 3.9% | 38.6hPa | 2.7V | 00:00:00 | 00:00:00 | 00:00:00 | |
| S52SK | 2026-09-02 12:05:45 | 49.37130 | 12.81720 | 129° | 18km/h | 22666m | 4.2m/s | -52.0°C | 1.2% | 38.8hPa | 2.7V | 00:00:00 | 00:00:00 | 00:00:00 | |
| PETON7-10 | 2026-09-02 12:05:44 | 49.37135 | 12.81710 | 122° | 11km/h | 22655m | 5.4m/s | -52.1°C | 4.0% | 38.8hPa | 2.7V | 00:00:00 | 00:00:00 | 00:00:00 | |
| EDDB2-11 | 2026-09-02 12:05:41 | 49.37139 | 12.81697 | 122° | 5km/h | 22634m | 5.9m/s | -52.2°C | 1.2% | 39.0hPa | 2.7V | 00:00:00 | 00:00:00 | 00:00:00 | |
| OE5MMP-10 | 2026-09-02 12:05:40 | 49.37138 | 12.81697 | 123° | 11km/h | 22635m | 5.8m/s | -52.1°C | 4.0% | 38.9hPa | 2.7V | 00:00:00 | 01:22:39 | 00:00:00 | |
| OE5WHR-10 | 2026-09-02 12:05:34 | 49.37139 | 12.81682 | 80° | 13km/h | 22604m | 5.2m/s | -52.1°C | 4.0% | 39.1hPa | 2.7V | 00:00:00 | 00:00:00 | 00:00:00 | |
| DO8TBO-1 | 2026-09-02 12:05:31 | 49.37140 | 12.81663 | 101° | 11km/h | 22589m | 4.5m/s | -52.2°C | 4.0% | 39.2hPa | 2.7V | 00:00:00 | 01:22:30 | 00:00:00 | |
| OE5MMP-10 | 2026-09-02 12:05:30 | 49.37141 | 12.81656 | 96° | 15km/h | 22583m | 6.0m/s | -52.2°C | 4.0% | 39.2hPa | 2.7V | 00:00:00 | 01:22:29 | 00:00:00 | |
| PETON7-10 | 2026-09-02 12:05:29 | 49.37141 | 12.81650 | 92° | 13km/h | 22577m | 5.4m/s | -52.3°C | 4.0% | 39.3hPa | 2.7V | 04:02:00 | 01:22:28 | 00:00:00 | |
| DL6DJ-15 | 2026-09-02 12:05:25 | 49.37143 | 12.81629 | 91° | 13km/h | 22557m | 3.9m/s | -52.1°C | 1.2% | 39.4hPa | 2.7V | 00:00:00 | 00:00:00 | 00:00:00 | |
| OE5DXL-15 | 2026-09-02 12:05:23 | 49.37141 | 12.81618 | 64° | 9km/h | 22547m | 5.8m/s | -52.0°C | 4.0% | 39.5hPa | 2.7V | 00:00:00 | 00:00:00 | 00:00:00 | |
| SONCRA | 2026-09-02 12:05:22 | 49.37137 | 12.81607 | 64° | 15km/h | 22537m | 4.9m/s | -52.1°C | 1.2% | 39.6hPa | 2.7V | 00:00:00 | 00:00:00 | 00:00:00 | |
| OE5MMP-10 | 2026-09-02 12:05:20 | 49.37136 | 12.81602 | 76° | 9km/h | 22531m | 5.8m/s | -52.2°C | 3.9% | 39.6hPa | 2.7V | 00:00:00 | 01:22:19 | 00:00:00 | |
| PETON7-10 | 2026-09-02 12:05:14 | 49.37138 | 12.81582 | 132° | 9km/h | 22502m | 5.5m/s | -52.2°C | 4.0% | 39.7hPa | 2.7V | 00:00:00 | 00:00:00 | 00:00:00 | |
| OE5WHR-10 | 2026-09-02 12:05:13 | 49.37140 | 12.81580 | 145° | 9km/h | 22496m | 5.3m/s | -52.3°C | 4.0% | 39.8hPa | 2.7V | 00:00:00 | 00:00:00 | 00:00:00 | |
| OE5MMP-10 | 2026-09-02 12:05:10 | 49.37144 | 12.81573 | 106° | 9km/h | 22482m | 4.5m/s | -52.2°C | 4.0% | 39.9hPa | 2.7V | 04:02:00 | 01:22:09 | 00:00:00 | |
| EDDB2-11 | 2026-09-02 12:05:09 | 49.37144 | 12.81571 | 65° | 7km/h | 22476m | 6.4m/s | -52.3°C | 1.2% | 39.9hPa | 2.7V | 00:00:00 | 00:00:00 | 00:00:00 | |
| PG1ADW-2 | 2026-09-02 12:05:08 | 49.37143 | 12.81568 | 47° | 11km/h | 22471m | 4.6m/s | -52.2°C | 4.1% | 39.9hPa | 2.7V | 00:00:00 | 00:00:00 | 00:00:00 | |
| SP3BTT-10 | 2026-09-02 12:05:04 | 49.37136 | 12.81553 | 62° | 5km/h | 22451m | 4.5m/s | -52.5°C | 4.1% | 40.1hPa | 2.7V | 00:00:00 | 00:00:00 | 00:00:00 | |
| EDDB2-12 | 2026-09-02 12:04:52 | 49.37142 | 12.81529 | 70° | 15km/h | 22391m | 5.5m/s | -52.4°C | 1.2% | 40.5hPa | 2.7V | 00:00:00 | 00:00:00 | 00:00:00 | |
| SONCRA | 2026-09-02 12:04:51 | 49.37140 | 12.81518 | 62° | 13km/h | 22382m | 4.0m/s | -52.4°C | 1.2% | 40.5hPa | 2.7V | 00:00:00 | 00:00:00 | 00:00:00 | |
| OE5MMP-10 | 2026-09-02 12:04:50 | 49.37140 | 12.81518 | 63° | 7km/h | 22382m | 4.0m/s | -52.4°C | 4.1% | 40.5hPa | 2.7V | 00:00:00 | 01:21:49 | 00:00:00 | |
| PG1ADW-2 | 2026-09-02 12:04:48 | 49.37136 | 12.81510 | 33° | 9km/h | 22372m | 5.3m/s | -52.4°C | 4.1% | 40.6hPa | 2.7V | 00:00:00 | 01:21:47 | 00:00:00 | |
| PETON7-10 | 2026-09-02 12:04:44 | 49.37130 | 12.81508 | 261° | 11km/h | 22351m | 4.7m/s | -52.5°C | 4.1% | 40.7hPa | 2.7V | 00:00:00 | 01:21:43 | 00:00:00 | |
| SONDE2-11 | 2026-09-02 12:04:39 | 49.37127 | 12.81495 | 88° | 16km/h | 22321m | 5.3m/s | -52.5°C | 1.2% | 41.0hPa | 2.7V | 00:00:00 | 00:00:00 | 00:00:00 | |
| EDDB2-11 | 2026-09-02 12:04:38 | 49.37127 | 12.81495 | 88° | 16km/h | 22321m | 5.3m/s | -52.5°C | 1.2% | 41.0hPa | 2.7V | 00:00:00 | 00:00:00 | 00:00:00 | |
| OE5WHR-10 | 2026-09-02 12:04:31 | 49.37119 | 12.81455 | 78° | 9km/h | 22287m | 5.0m/s | -52.5°C | 4.1% | 41.1hPa | 2.7V | 04:03:00 | 00:00:00 | 00:00:00 | |
| OE5MMP-10 | 2026-09-02 12:04:30 | 49.37119 | 12.81452 | 76° | 11km/h | 22282m | 5.1m/s | -52.5°C | 4.1% | 41.1hPa | 2.7V | 00:00:00 | 01:21:29 | 00:00:00 | |
| PETON7-10 | 2026-09-02 12:04:29 | 49.37119 | 12.81451 | 47° | 11km/h | 22277m | 5.8m/s | -52.5°C | 4.1% | 41.2hPa | 2.6V | 00:00:00 | 00:00:00 | 00:00:00 | |
| PG1ADW-2 | 2026-09-02 12:04:28 | 49.37118 | 12.81450 | 21° | 9km/h | 22271m | 5.2m/s | -52.5°C | 4.1% | 41.2hPa | 2.6V | 04:03:00 | 00:00:00 | 00:00:00 | |
| DL6DJ-15 | 2026-09-02 12:04:23 | 49.37111 | 12.81433 | 71° | 16km/h | 22248m | 4.3m/s | -52.8°C | 1.3% | 41.4hPa | 2.6V | 00:00:00 | 00:00:00 | 00:00:00 | |
| OE5DXL-15 | 2026-09-02 12:04:22 | 49.37109 | 12.81427 | 65° | 9km/h | 22243m | 5.0m/s | -52.7°C | 4.2% | 41.4hPa | 2.6V | 00:00:00 | 00:00:00 | 00:00:00 | |
| EDDB2-12 | 2026-09-02 12:04:21 | 49.37107 | 12.81421 | 51° | 16km/h | 22238m | 5.5m/s | -52.8°C | 1.3% | 41.5hPa | 2.6V | 00:00:00 | 00:00:00 | 00:00:00 | |
| SONCRA | 2026-09-02 12:04:20 | 49.37101 | 12.81413 | 37° | 13km/h | 22229m | 4.3m/s | -52.7°C | 1.3% | 41.5hPa | 2.6V | 00:00:00 | 00:00:00 | 00:00:00 | |
| S52SK | 2026-09-02 12:04:18 | 49.37101 | 12.81413 | 38° | 15km/h | 22229m | 4.3m/s | -52.7°C | 1.3% | 41.5hPa | 2.6V | 00:00:00 | 00:00:00 | 00:00:00 | |
| PETON7-10 | 2026-09-02 12:04:14 | 49.37091 | 12.81409 | 330° | 11km/h | 22204m | 5.1m/s | -52.7°C | 4.2% | 41.6hPa | 2.6V | 04:03:00 | 00:00:00 | 00:00:00 | |
| S52SK | 2026-09-02 12:04:12 | 49.37089 | 12.81411 | 325° | 7km/h | 22199m | 4.4m/s | -52.8°C | 1.3% | 41.7hPa | 2.6V | 00:00:00 | 00:00:00 | 00:00:00 | |
| OE5WHR-10 | 2026-09-02 12:04:10 | 49.37087 | 12.81412 | 39° | 7km/h | 22184m | 4.3m/s | -52.6°C | 4.2% | 41.8hPa | 2.6V | 00:00:00 | 00:00:00 | 00:00:00 | |
| EDDB2-11 | 2026-09-02 12:04:08 | 49.37083 | 12.81411 | 357° | 7km/h | 22170m | 4.0m/s | -52.5°C | 1.2% | 41.9hPa | 2.6V | 00:00:00 | 00:00:00 | 00:00:00 | |
| SP3BTT-10 | 2026-09-02 12:04:03 | 49.37076 | 12.81412 | 328° | 9km/h | 22151m | 4.2m/s | -52.3°C | 4.0% | 42.0hPa | 2.6V | 04:03:00 | 00:00:00 | 00:00:00 | |
| DL6DJ-15 | 2026-09-02 12:03:52 | 49.37063 | 12.81448 | 271° | 2km/h | 22092m | 5.7m/s | -52.3°C | 1.2% | 42.4hPa | 2.6V | 00:00:00 | 00:00:00 | 00:00:00 | |
| EDDB2-12 | 2026-09-02 12:03:50 | 49.37064 | 12.81450 | 256° | 4km/h | 22082m | 4.1m/s | -52.3°C | 1.2% | 42.5hPa | 2.6V | 00:00:00 | 00:00:00 | 00:00:00 | |
| SONCRA | 2026-09-02 12:03:49 | 49.37064 | 12.81452 | 277° | 5km/h | 22078m | 5.6m/s | -52.3°C | 1.2% | 42.5hPa | 2.6V | 00:00:00 | 00:00:00 | 00:00:00 | |
| PG1ADW-2 | 2026-09-02 12:03:48 | 49.37064 | 12.81452 | 278° | 9km/h | 22078m | 5.6m/s | -52.2°C | 4.1% | 42.5hPa | 2.6V | 00:00:00 | 00:00:00 | 00:00:00 | |
| PETON7-10 | 2026-09-02 12:03:42 | 49.37061 | 12.81470 | 275° | 9km/h | 22050m | 4.1m/s | -52.1°C | 4.0% | 42.6hPa | 2.6V | 00:00:00 | 00:00:00 | 00:00:00 | |
| DL1JEZ-13 | 2026-09-02 12:03:41 | 49.37061 | 12.81470 | 276° | 5km/h | 22050m | 4.1m/s | -52.2°C | 1.2% | 42.7hPa | 2.6V | 00:00:00 | 00:00:00 | 00:00:00 | |
| OE5MMP-10 | 2026-09-02 12:03:40 | 49.37060 | 12.81475 | 293° | 11km/h | 22039m | 4.9m/s | -52.1°C | 4.0% | 42.7hPa | 2.6V | 00:00:00 | 01:20:39 | 00:00:00 | |
| EDDB2-11 | 2026-09-02 12:03:36 | 49.37061 | 12.81489 | 235° | 11km/h | 22020m | 4.6m/s | -52.2°C | 1.3% | 42.9hPa | 2.6V | 00:00:00 | 00:00:00 | 00:00:00 | |
| SP3BTT-10 | 2026-09-02 12:03:33 | 49.37066 | 12.81501 | 248° | 13km/h | 22006m | 4.2m/s | -52.1°C | 4.2% | 42.9hPa | 2.6V | 00:00:00 | 00:00:00 | 00:00:00 | |
| OE5MMP-10 | 2026-09-02 12:03:30 | 49.37070 | 12.81510 | 222° | 11km/h | 21991m | 5.1m/s | -52.2°C | 4.1% | 43.1hPa | 2.7V | 04:04:00 | 01:20:29 | 00:00:00 | |
| OE5WHR-10 | 2026-09-02 12:03:28 | 49.37073 | 12.81516 | 251° | 13km/h | 21981m | 5.8m/s | -52.2°C | 4.2% | 43.1hPa | 2.6V | 00:00:00 | 00:00:00 | 00:00:00 | |
| PETON7-10 | 2026-09-02 12:03:25 | 49.37073 | 12.81529 | 271° | 13km/h | 21967m | 5.2m/s | -52.2°C | 4.1% | 43.2hPa | 2.7V | 00:00:00 | 00:00:00 | 00:00:00 | |
| OE5DXL-15 | 2026-09-02 12:03:22 | 49.37074 | 12.81543 | 259° | 13km/h | 21952m | 4.7m/s | -52.0°C | 4.1% | 43.3hPa | 2.7V | 00:00:00 | 00:00:00 | 00:00:00 | |
| DL6DJ-15 | 2026-09-02 12:03:21 | 49.37075 | 12.81554 | 261° | 15km/h | 21942m | 4.1m/s | -51.8°C | 1.2% | 43.4hPa | 2.7V | 00:00:00 | 00:00:00 | 00:00:00 | |
| OE5MMP-10 | 2026-09-02 12:03:20 | 49.37075 | 12.81554 | 262° | 13km/h | 21942m | 4.1m/s | -51.8°C | 4.0% | 43.4hPa | 2.7V | 00:00:00 | 01:20:19 | 00:00:00 | |
| EDDB2-12 | 2026-09-02 12:03:19 | 49.37076 | 12.81560 | 253° | 15km/h | 21938m | 4.2m/s | -51.8°C | 1.2% | 43.4hPa | 2.7V | 00:00:00 | 00:00:00 | 00:00:00 | |
| SONCRA | 2026-09-02 12:03:18 | 49.37080 | 12.81569 | 222° | 11km/h | 21927m | 4.9m/s | -51.9°C | 1.2% | 43.5hPa | 2.7V | 00:00:00 | 00:00:00 | 00:00:00 | |
| OE5MMP-10 | 2026-09-02 12:03:10 | 49.37091 | 12.81592 | 229° | 13km/h | 21895m | 5.3m/s | -51.6°C | 3.9% | 43.7hPa | 2.7V | 00:00:00 | 01:20:09 | 00:00:00 | |
| PG1ADW-2 | 2026-09-02 12:03:08 | 49.37095 | 12.81599 | 226° | 13km/h | 21885m | 4.6m/s | -51.6°C | 4.0% | 43.8hPa | 2.7V | 00:00:00 | 00:00:00 | 00:00:00 | |
| PETON7-10 | 2026-09-02 12:03:07 | 49.37097 | 12.81603 | 237° | 13km/h | 21879m | 5.8m/s | -51.5°C | 4.0% | 43.8hPa | 2.7V | 00:00:00 | 01:20:06 | 00:00:00 | |
| EDDB2-11 | 2026-09-02 12:03:05 | 49.37101 | 12.81613 | 239° | 13km/h | 21870m | 3.7m/s | -51.5°C | 1.2% | 43.9hPa | 2.7V | 00:00:00 | 00:00:00 | 00:00:00 | |
| DL6DJ-15 | 2026-09-02 12:02:50 | 49.37146 | 12.81651 | 205° | 9km/h | 21793m | 5.6m/s | -51.1°C | 1.2% | 44.4hPa | 2.7V | 00:00:00 | 00:00:00 | 00:00:00 | |
| EDDB2-12 | 2026-09-02 12:02:49 | 49.37153 | 12.81653 | 191° | 15km/h | 21783m | 4.3m/s | -51.0°C | 1.2% | 44.5hPa | 2.7V | 00:00:00 | 00:00:00 | 00:00:00 | |
| SONCRA | 2026-09-02 12:02:46 | 49.37157 | 12.81655 | 192° | 15km/h | 21778m | 4.1m/s | -51.0°C | 1.2% | 44.5hPa | 2.7V | 00:00:00 | 00:00:00 | 00:00:00 | |
| OE5MMP-10 | 2026-09-02 12:02:40 | 49.37174 | 12.81660 | 170° | 13km/h | 21750m | 4.8m/s | -50.9°C | 3.8% | 44.7hPa | 2.7V | 04:05:00 | 01:19:39 | 00:00:00 | |
| SONDE2-11 | 2026-09-02 12:02:35 | 49.37191 | 12.81666 | 181° | 11km/h | 21722m | 5.9m/s | -51.1°C | 1.2% | 44.9hPa | 2.7V | 00:00:00 | 00:00:00 | 00:00:00 | |
| EDDB2-11 | 2026-09-02 12:02:34 | 49.37191 | 12.81666 | 181° | 11km/h | 21722m | 5.9m/s | -51.1°C | 1.2% | 44.9hPa | 2.7V | 00:00:00 | 00:00:00 | 00:00:00 | |
| PETON7-10 | 2026-09-02 12:02:33 | 49.37194 | 12.81665 | 159° | 13km/h | 21716m | 5.0m/s | -51.0°C | 4.0% | 44.9hPa | 2.7V | 00:00:00 | 00:00:00 | 00:00:00 | |
| OE5MMP-10 | 2026-09-02 12:02:30 | 49.37201 | 12.81656 | 128° | 15km/h | 21701m | 4.4m/s | -50.9°C | 3.8% | 45.0hPa | 2.7V | 00:00:00 | 01:19:29 | 00:00:00 | |
| PG1ADW-2 | 2026-09-02 12:02:28 | 49.37206 | 12.81647 | 123° | 13km/h | 21692m | 5.6m/s | -51.0°C | 3.8% | 45.1hPa | 2.6V | 00:00:00 | 00:00:00 | 00:00:00 | |
| DL1JEZ-13 | 2026-09-02 12:02:27 | 49.37208 | 12.81641 | 124° | 18km/h | 21687m | 5.0m/s | -51.0°C | 1.2% | 45.2hPa | 2.7V | 00:00:00 | 00:00:00 | 00:00:00 | |
| OE5WHR-10 | 2026-09-02 12:02:25 | 49.37213 | 12.81631 | 133° | 13km/h | 21677m | 5.8m/s | -51.0°C | 3.8% | 45.2hPa | 2.7V | 00:00:00 | 00:00:00 | 00:00:00 | |
| DO8TBO-1 | 2026-09-02 12:02:24 | 49.37216 | 12.81627 | 143° | 16km/h | 21672m | 5.2m/s | -50.9°C | 3.8% | 45.2hPa | 2.6V | 04:05:00 | 01:19:23 | 00:00:00 | |
| OE5DXL-15 | 2026-09-02 12:02:22 | 49.37220 | 12.81624 | 163° | 16km/h | 21662m | 5.2m/s | -50.7°C | 3.7% | 45.3hPa | 2.6V | 04:05:00 | 00:00:00 | 00:00:00 | |
| DL6DJ-15 | 2026-09-02 12:02:19 | 49.37233 | 12.81620 | 179° | 11km/h | 21642m | 5.5m/s | -50.7°C | 1.2% | 45.5hPa | 2.7V | 00:00:00 | 00:00:00 | 00:00:00 | |
| PETON7-10 | 2026-09-02 12:02:18 | 49.37233 | 12.81620 | 180° | 11km/h | 21642m | 5.5m/s | -50.6°C | 3.8% | 45.4hPa | 2.7V | 00:00:00 | 01:19:17 | 00:00:00 | |
| EDDB2-12 | 2026-09-02 12:02:17 | 49.37239 | 12.81619 | 163° | 9km/h | 21633m | 4.3m/s | -50.7°C | 1.2% | 45.5hPa | 2.7V | 00:00:00 | 00:00:00 | 00:00:00 | |
| SONCRA | 2026-09-02 12:02:15 | 49.37241 | 12.81618 | 152° | 11km/h | 21628m | 5.8m/s | -50.7°C | 1.2% | 45.6hPa | 2.7V | 00:00:00 | 00:00:00 | 00:00:00 | |
| OE5MMP-10 | 2026-09-02 12:02:10 | 49.37253 | 12.81603 | 146° | 16km/h | 21604m | 4.0m/s | -50.9°C | 3.8% | 45.7hPa | 2.7V | 00:00:00 | 01:19:09 | 00:00:00 | |
| PG1ADW-2 | 2026-09-02 12:02:08 | 49.37257 | 12.81599 | 152° | 18km/h | 21594m | 5.7m/s | -50.8°C | 3.8% | 45.8hPa | 2.7V | 00:00:00 | 01:19:07 | 00:00:00 | |
| DL1JEZ-13 | 2026-09-02 12:02:05 | 49.37265 | 12.81594 | 162° | 18km/h | 21584m | 4.4m/s | -50.9°C | 1.2% | 45.9hPa | 2.7V | 00:00:00 | 00:00:00 | 00:00:00 | |
| OE5WHR-10 | 2026-09-02 12:02:04 | 49.37274 | 12.81591 | 173° | 20km/h | 21574m | 5.0m/s | -51.0°C | 3.8% | 45.9hPa | 2.7V | 00:00:00 | 00:00:00 | 00:00:00 | |
| DL6DJ-15 | 2026-09-02 12:01:48 | 49.37347 | 12.81527 | 149° | 22km/h | 21491m | 4.0m/s | -51.3°C | 1.2% | 46.5hPa | 2.7V | 00:00:00 | 00:00:00 | 00:00:00 | |
| DL1JEZ-13 | 2026-09-02 12:01:46 | 49.37352 | 12.81522 | 147° | 20km/h | 21486m | 5.1m/s | -51.3°C | 1.2% | 46.6hPa | 2.7V | 04:06:00 | 00:00:00 | 00:00:00 | |
| SONCRA | 2026-09-02 12:01:45 | 49.37359 | 12.81512 | 127° | 18km/h | 21477m | 4.0m/s | -51.4°C | 1.2% | 46.7hPa | 2.7V | 00:00:00 | 00:00:00 | 00:00:00 | |
| OE5WHR-10 | 2026-09-02 12:01:43 | 49.37362 | 12.81505 | 122° | 24km/h | 21472m | 4.5m/s | -51.3°C | 3.9% | 46.6hPa | 2.7V | 00:00:00 | 01:18:42 | 00:00:00 | |
| OE5MMP-10 | 2026-09-02 12:01:40 | 49.37372 | 12.81478 | 119° | 20km/h | 21457m | 4.3m/s | -51.4°C | 3.8% | 46.7hPa | 2.7V | 00:00:00 | 01:18:39 | 00:00:00 | |
| SP3BTT-10 | 2026-09-02 12:01:32 | 49.37397 | 12.81426 | 116° | 22km/h | 21417m | 4.5m/s | -51.5°C | 3.9% | 47.0hPa | 2.7V | 00:00:00 | 00:00:00 | 00:00:00 | |
| OE5MMP-10 | 2026-09-02 12:01:30 | 49.37400 | 12.81412 | 107° | 24km/h | 21407m | 6.0m/s | -51.5°C | 3.9% | 47.1hPa | 2.7V | 00:00:00 | 01:18:29 | 00:00:00 | |
| PG1ADW-2 | 2026-09-02 12:01:28 | 49.37403 | 12.81392 | 99° | 20km/h | 21397m | 4.2m/s | -51.5°C | 3.8% | 47.2hPa | 2.6V | 00:00:00 | 00:00:00 | 00:00:00 | |
| DO8TBO-1 | 2026-09-02 12:01:24 | 49.37406 | 12.81352 | 103° | 18km/h | 21377m | 5.7m/s | -51.7°C | 3.9% | 47.3hPa | 2.6V | 00:00:00 | 01:18:23 | 00:00:00 | |
| OE5WHR-10 | 2026-09-02 12:01:22 | 49.37410 | 12.81337 | 119° | 18km/h | 21367m | 4.5m/s | -51.7°C | 3.9% | 47.4hPa | 2.6V | 00:00:00 | 00:00:00 | 00:00:00 | |
| OE5MMP-10 | 2026-09-02 12:01:20 | 49.37413 | 12.81327 | 117° | 18km/h | 21357m | 5.8m/s | -51.7°C | 3.9% | 47.5hPa | 2.7V | 00:00:00 | 01:18:19 | 00:00:00 | |
| DL6DJ-15 | 2026-09-02 12:01:17 | 49.37417 | 12.81309 | 101° | 16km/h | 21337m | 4.8m/s | -51.9°C | 1.2% | 47.7hPa | 2.7V | 00:00:00 | 00:00:00 | 00:00:00 | |
| EDDB2-12 | 2026-09-02 12:01:15 | 49.37418 | 12.81294 | 89° | 20km/h | 21327m | 5.9m/s | -51.8°C | 1.2% | 47.7hPa | 2.7V | 00:00:00 | 00:00:00 | 00:00:00 | |
| SONCRA | 2026-09-02 12:01:14 | 49.37418 | 12.81285 | 85° | 24km/h | 21322m | 4.6m/s | -51.8°C | 1.2% | 47.8hPa | 2.7V | 00:00:00 | 00:00:00 | 00:00:00 | |
| DO3MHA-11 | 2026-09-02 12:01:13 | 49.37418 | 12.81285 | 86° | 20km/h | 21322m | 4.6m/s | -51.8°C | 3.9% | 47.7hPa | 2.7V | 00:00:00 | 01:18:12 | 00:00:00 | |
| PG1ADW-2 | 2026-09-02 12:01:08 | 49.37416 | 12.81237 | 80° | 20km/h | 21299m | 5.5m/s | -51.9°C | 3.9% | 47.9hPa | 2.7V | 04:06:00 | 00:00:00 | 00:00:00 | |
| DO3MHA-11 | 2026-09-02 12:01:03 | 49.37409 | 12.81206 | 74° | 18km/h | 21275m | 3.8m/s | -52.3°C | 4.0% | 48.1hPa | 2.7V | 00:00:00 | 01:18:02 | 00:00:00 | |
| EDDB2-11 | 2026-09-02 12:01:01 | 49.37404 | 12.81186 | 67° | 18km/h | 21259m | 4.5m/s | -52.7°C | 1.2% | 48.3hPa | 2.7V | 00:00:00 | 00:00:00 | 00:00:00 | |
| DL6DJ-15 | 2026-09-02 12:00:46 | 49.37384 | 12.81075 | 70° | 18km/h | 21187m | 4.5m/s | -52.9°C | 1.3% | 48.8hPa | 2.7V | 00:00:00 | 00:00:00 | 00:00:00 | |
| DF8AY | 2026-09-02 12:00:41 | 49.37380 | 12.81036 | 88° | 16km/h | 21162m | 5.8m/s | -52.8°C | 0.9% | 49hPa | 2.7V | 04:08:20 | 01:17:39 | 00:00:00 | |
| OE5MMP-10 | 2026-09-02 12:00:40 | 49.37380 | 12.81036 | 89° | 18km/h | 21163m | 5.8m/s | -52.8°C | 4.1% | 48.9hPa | 2.6V | 00:00:00 | 01:17:39 | 00:00:00 | |
| PETON7-10 | 2026-09-02 12:00:38 | 49.37380 | 12.81024 | 90° | 20km/h | 21153m | 4.4m/s | -52.8°C | 4.1% | 49.0hPa | 2.6V | 00:00:00 | 00:00:00 | 00:00:00 | |
| DF8AY | 2026-09-02 12:00:20 | 49.37403 | 12.80862 | 101° | 26km/h | 21046m | 5.8m/s | -53°C | 0.9% | 49.9hPa | 2.6V | 04:08:20 | 01:17:16 | 00:00:00 | |
| PETON7-10 | 2026-09-02 12:00:19 | 49.37401 | 12.80879 | 107° | 20km/h | 21056m | 4.3m/s | -53.0°C | 4.2% | 49.7hPa | 2.7V | 00:00:00 | 00:00:00 | 00:00:00 | |
| DF8AY | 2026-09-02 12:00:07 | 49.37402 | 12.80730 | 76° | 24km/h | 20963m | 4.5m/s | -53.2°C | 1% | 50.5hPa | 2.7V | 04:08:20 | 01:16:59 | 00:00:00 | |
| DF8AY | 2026-09-02 11:59:50 | 49.37397 | 12.80657 | 99° | 24km/h | 20907m | 5.8m/s | -53.3°C | 1% | 51hPa | 2.7V | 04:08:20 | 01:16:48 | 00:00:00 | |
| DF8AY | 2026-09-02 11:59:39 | 49.37410 | 12.80558 | 94° | 20km/h | 20846m | 4.7m/s | -53.4°C | 1% | 51.4hPa | 2.6V | 04:08:20 | 01:16:36 | 00:00:00 | |
| DF8AY | 2026-09-02 11:59:28 | 49.37426 | 12.80426 | 103° | 24km/h | 20783m | 4.4m/s | -53.6°C | 1% | 51.9hPa | 2.7V | 04:09:11 | 01:16:24 | 00:00:00 | |
| DF8AY | 2026-09-02 11:59:17 | 49.37440 | 12.80339 | 103° | 33km/h | 20742m | 6.2m/s | -53.9°C | 1% | 52.2hPa | 2.6V | 04:09:11 | 01:16:16 | 00:00:00 | |
| DF8AY | 2026-09-02 11:59:07 | 49.37446 | 12.80223 | 92° | 27km/h | 20690m | 4.8m/s | -53.9°C | 1% | 52.7hPa | 2.6V | 04:09:11 | 01:16:06 | 00:00:00 | |
| DF8AY | 2026-09-02 11:58:56 | 49.37429 | 12.80113 | 64° | 18km/h | 20629m | 5m/s | -54.1°C | 1.1% | 53.2hPa | 2.7V | 04:09:11 | 01:15:54 | 00:00:00 | |
| DL1JEZ-13 | 2026-09-02 11:58:56 | 49.37431 | 12.80119 | 69° | 18km/h | 20635m | 5.9m/s | -54.1°C | 1.4% | 53.2hPa | 2.6V | 04:09:00 | 00:00:00 | 00:00:00 | |
| OE5WHR-10 | 2026-09-02 11:58:55 | 49.37429 | 12.80112 | 65° | 16km/h | 20629m | 5.0m/s | -54.1°C | 4.4% | 53.2hPa | 2.6V | 00:00:00 | 00:00:00 | 00:00:00 | |
| OE5DXL-15 | 2026-09-02 11:58:52 | 49.37422 | 12.80090 | 64° | 15km/h | 20614m | 4.5m/s | -54.1°C | 4.4% | 53.3hPa | 2.6V | 00:00:00 | 00:00:00 | 00:00:00 | |
| DF8AY | 2026-09-02 11:58:45 | 49.37384 | 12.79999 | 45° | 11km/h | 20518m | 5.7m/s | -54.1°C | 1.1% | 54.1hPa | 2.6V | 04:10:02 | 01:15:32 | 00:00:00 | |
| DF8AY | 2026-09-02 11:58:30 | 49.37377 | 12.79988 | 40° | 13km/h | 20504m | 5.3m/s | -54°C | 1.2% | 54.3hPa | 2.7V | 04:10:02 | 01:15:29 | 00:00:00 | |
| DF8AY | 2026-09-02 11:58:20 | 49.37353 | 12.79979 | 360° | 7km/h | 20453m | 5.5m/s | -53.6°C | 1.1% | 54.7hPa | 2.7V | 04:10:02 | 01:15:19 | 00:00:00 | |
| DF8AY | 2026-09-02 11:58:09 | 49.37329 | 12.79976 | 335° | 11km/h | 20396m | 5.6m/s | -53.3°C | 1.1% | 55.2hPa | 2.7V | 04:10:02 | 01:15:08 | 00:00:00 | |
| DF8AY | 2026-09-02 11:57:59 | 49.37310 | 12.79973 | 5° | 7km/h | 20342m | 4.6m/s | -53.2°C | 1% | 55.7hPa | 2.7V | 04:10:02 | 01:14:57 | 00:00:00 | |
| DF8AY | 2026-09-02 11:57:47 | 49.37294 | 12.79972 | 57° | 4km/h | 20285m | 5.7m/s | -52.9°C | 1% | 56.1hPa | 2.6V | 04:10:53 | 01:14:45 | 00:00:00 | |
| DF8AY | 2026-09-02 11:57:36 | 49.37281 | 12.79970 | 32° | 7km/h | 20208m | 4m/s | -52.4°C | 0.9% | 56.8hPa | 2.7V | 04:10:53 | 01:14:29 | 00:00:00 | |
| DF8AY | 2026-09-02 11:57:24 | 49.37279 | 12.79958 | 153° | 5km/h | 20166m | 5.4m/s | -52°C | 0.8% | 57.2hPa | 2.7V | 04:10:53 | 01:14:21 | 00:00:00 | |
| DF8AY | 2026-09-02 11:57:12 | 49.37288 | 12.79945 | 125° | 7km/h | 20109m | 4.8m/s | -52°C | 0.8% | 57.7hPa | 2.6V | 04:10:53 | 01:14:09 | 00:00:00 | |
| DF8AY | 2026-09-02 11:56:58 | 49.37300 | 12.79906 | 80° | 9km/h | 20052m | 4.4m/s | -52°C | 0.8% | 58.2hPa | 2.6V | 04:10:53 | 01:13:57 | 00:00:00 | |
| DF8AY | 2026-09-02 11:56:47 | 49.37316 | 12.79880 | 128° | 9km/h | 19993m | 4.2m/s | -51.7°C | 0.7% | 58.7hPa | 2.6V | 04:11:44 | 01:13:45 | 00:00:00 | |
| DF8AY | 2026-09-02 11:56:36 | 49.37350 | 12.79801 | 126° | 22km/h | 19918m | 5.4m/s | -52°C | 0.8% | 59.4hPa | 2.6V | 04:11:44 | 01:13:29 | 00:00:00 | |
| DF8AY | 2026-09-02 11:56:18 | 49.37377 | 12.79698 | 101° | 26km/h | 19860m | 5.5m/s | -52.4°C | 1% | 59.9hPa | 2.6V | 04:11:44 | 01:13:17 | 00:00:00 | |
| ANDY1245 | 2026-09-02 11:56:18 | 49.37375 | 12.79708 | 100° | 26km/h | 19865m | 3.9m/s | -52.4°C | 0% | 0hPa | 2.6V | 00:00:00 | 00:00:00 | 00:00:00 | |
| DF8AY | 2026-09-02 11:56:08 | 49.37387 | 12.79555 | 87° | 18km/h | 19781m | 4.7m/s | -52.3°C | 0.9% | 60.7hPa | 2.6V | 04:13:26 | 01:13:00 | 00:00:00 | |
| DF8AY | 2026-09-02 11:55:57 | 49.37382 | 12.79525 | 79° | 20km/h | 19763m | 5.4m/s | -52.2°C | 0.9% | 60.9hPa | 2.7V | 04:13:26 | 01:12:56 | 00:00:00 | |
| DF8AY | 2026-09-02 11:55:46 | 49.37379 | 12.79462 | 77° | 18km/h | 19711m | 5.7m/s | -52°C | 0.8% | 61.3hPa | 2.7V | 04:13:26 | 01:12:45 | 00:00:00 | |
| DF8AY | 2026-09-02 11:55:35 | 49.37373 | 12.79400 | 78° | 15km/h | 19632m | 5.6m/s | -51.9°C | 0.9% | 62.1hPa | 2.6V | 04:13:26 | 01:12:28 | 00:00:00 | |
| DF8AY | 2026-09-02 11:55:19 | 49.37374 | 12.79352 | 94° | 16km/h | 19584m | 5.4m/s | -52.3°C | 0.9% | 62.5hPa | 2.6V | 04:13:26 | 01:12:18 | 00:00:00 | |
| DF8AY | 2026-09-02 11:55:06 | 49.37361 | 12.79264 | 96° | 16km/h | 19526m | 4.1m/s | -51.9°C | 0.9% | 63.1hPa | 2.7V | 04:13:26 | 01:12:05 | 00:00:00 | |
| DF8AY | 2026-09-02 11:54:56 | 49.37366 | 12.79183 | 101° | 24km/h | 19479m | 4.3m/s | -52°C | 0.9% | 63.6hPa | 2.6V | 04:13:26 | 01:11:55 | 00:00:00 | |
| SONDE2-11 | 2026-09-02 11:54:49 | 49.37382 | 12.79111 | 104° | 22km/h | 19439m | 5.0m/s | -51.9°C | 1.3% | 64.0hPa | 2.7V | 00:00:00 | 00:00:00 | 00:00:00 | |
| EDDB2-11 | 2026-09-02 11:54:48 | 49.37382 | 12.79111 | 104° | 22km/h | 19439m | 5.0m/s | -51.9°C | 1.3% | 64.0hPa | 2.7V | 00:00:00 | 00:00:00 | 00:00:00 | |
| DF8AY | 2026-09-02 11:54:45 | 49.37404 | 12.78990 | 106° | 38km/h | 19391m | 5.5m/s | -52.2°C | 0.9% | 64.5hPa | 2.7V | 04:13:26 | 01:11:37 | 00:00:00 | |
| DF8AY | 2026-09-02 11:54:29 | 49.37430 | 12.78828 | 95° | 40km/h | 19339m | 4.7m/s | -52.4°C | 0.8% | 65hPa | 2.6V | 04:13:26 | 01:11:26 | 00:00:00 | |
| DF8AY | 2026-09-02 11:54:16 | 49.37427 | 12.78575 | 82° | 40km/h | 19262m | 5.4m/s | -52.3°C | 0.9% | 65.8hPa | 2.7V | 04:14:17 | 01:11:10 | 00:00:00 | |
| DF8AY | 2026-09-02 11:54:06 | 49.37412 | 12.78480 | 80° | 37km/h | 19229m | 5.6m/s | -52.2°C | 0.8% | 66.1hPa | 2.6V | 04:14:17 | 01:11:03 | 00:00:00 | |
| DF8AY | 2026-09-02 11:53:55 | 49.37398 | 12.78348 | 69° | 33km/h | 19187m | 4.7m/s | -52°C | 0.9% | 66.5hPa | 2.7V | 04:14:17 | 01:10:54 | 00:00:00 | |
| DF8AY | 2026-09-02 11:53:45 | 49.37370 | 12.78221 | 85° | 35km/h | 19141m | 5.1m/s | -51.9°C | 0.8% | 67hPa | 2.7V | 04:14:17 | 01:10:44 | 00:00:00 | |
| DF8AY | 2026-09-02 11:53:33 | 49.37358 | 12.78072 | 79° | 27km/h | 19080m | 5.6m/s | -51.9°C | 0.8% | 67.6hPa | 2.7V | 04:15:59 | 01:10:31 | 00:00:00 | |
| DF8AY | 2026-09-02 11:53:21 | 49.37345 | 12.77968 | 81° | 24km/h | 19029m | 4.9m/s | -52.1°C | 0.8% | 68.2hPa | 2.7V | 04:15:59 | 01:10:20 | 00:00:00 | |
| DF8AY | 2026-09-02 11:53:09 | 49.37353 | 12.77780 | 97° | 29km/h | 18951m | 4.4m/s | -52.1°C | 0.9% | 69hPa | 2.7V | 04:15:59 | 01:10:03 | 00:00:00 | |
| DF8AY | 2026-09-02 11:52:58 | 49.37355 | 12.77711 | 95° | 26km/h | 18922m | 4.9m/s | -52.2°C | 0.9% | 69.3hPa | 2.7V | 04:15:59 | 01:09:57 | 00:00:00 | |
| DF8AY | 2026-09-02 11:52:48 | 49.37372 | 12.77604 | 102° | 26km/h | 18870m | 5.5m/s | -51.9°C | 0.8% | 69.9hPa | 2.7V | 04:15:59 | 01:09:46 | 00:00:00 | |
| DF8AY | 2026-09-02 11:52:38 | 49.37385 | 12.77514 | 106° | 29km/h | 18824m | 4.8m/s | -51.8°C | 0.9% | 70.4hPa | 2.7V | 04:15:59 | 01:09:36 | 00:00:00 | |
| DF8AY | 2026-09-02 11:52:27 | 49.37399 | 12.77391 | 108° | 29km/h | 18772m | 4.4m/s | -52.3°C | 0.8% | 71hPa | 2.7V | 04:15:59 | 01:09:25 | 00:00:00 | |
| DF8AY | 2026-09-02 11:52:16 | 49.37430 | 12.77254 | 105° | 38km/h | 18723m | 5.9m/s | -52.7°C | 0.9% | 71.5hPa | 2.7V | 04:15:59 | 01:09:15 | 00:00:00 | |
| DF8AY | 2026-09-02 11:52:06 | 49.37462 | 12.77107 | 107° | 46km/h | 18678m | 4.9m/s | -52.8°C | 0.9% | 72hPa | 2.7V | 04:15:59 | 01:09:05 | 00:00:00 | |
| DF8AY | 2026-09-02 11:51:55 | 49.37489 | 12.76918 | 99° | 46km/h | 18624m | 4.8m/s | -53°C | 0.9% | 72.6hPa | 2.7V | 04:15:59 | 01:08:54 | 00:00:00 | |
| DF8AY | 2026-09-02 11:51:46 | 49.37503 | 12.76730 | 94° | 47km/h | 18577m | 3.5m/s | -53.3°C | 1% | 73.2hPa | 2.7V | 04:17:41 | 01:08:44 | 00:00:00 | |
| DF8AY | 2026-09-02 11:51:35 | 49.37503 | 12.76428 | 90° | 42km/h | 18496m | 4.9m/s | -52.9°C | 0.9% | 74.1hPa | 2.6V | 04:17:41 | 01:08:27 | 00:00:00 | |
| DF8AY | 2026-09-02 11:51:20 | 49.37506 | 12.76284 | 91° | 42km/h | 18450m | 5.1m/s | -52.8°C | 0.9% | 74.6hPa | 2.7V | 04:17:41 | 01:08:18 | 00:00:00 | |
| DF8AY | 2026-09-02 11:51:09 | 49.37513 | 12.76142 | 98° | 31km/h | 18401m | 5.6m/s | -53.2°C | 0.9% | 75.2hPa | 2.6V | 04:17:41 | 01:08:08 | 00:00:00 | |
| DF8AY | 2026-09-02 11:50:58 | 49.37554 | 12.75909 | 107° | 38km/h | 18317m | 4.8m/s | -53.4°C | 1% | 76.1hPa | 2.7V | 04:17:41 | 01:07:50 | 00:00:00 | |
| DL6DJ-15 | 2026-09-02 11:50:55 | 49.37543 | 12.75961 | 102° | 29km/h | 18335m | 4.5m/s | -53.3°C | 1.4% | 75.9hPa | 2.6V | 00:00:00 | 00:00:00 | 00:00:00 | |
| SONCRA | 2026-09-02 11:50:52 | 49.37551 | 12.75923 | 108° | 37km/h | 18322m | 3.9m/s | -53.4°C | 1.4% | 76.1hPa | 2.6V | 00:00:00 | 00:00:00 | 00:00:00 | |
| DF8AY | 2026-09-02 11:50:42 | 49.37574 | 12.75764 | 95° | 42km/h | 18275m | 5.1m/s | -53.5°C | 1% | 76.7hPa | 2.6V | 04:17:41 | 01:07:41 | 00:00:00 | |
| DF8AY | 2026-09-02 11:50:28 | 49.37574 | 12.75532 | 84° | 51km/h | 18210m | 4.1m/s | -53.4°C | 1% | 77.4hPa | 2.6V | 04:17:41 | 01:07:27 | 00:00:00 | |
| DF8AY | 2026-09-02 11:50:18 | 49.37560 | 12.75282 | 91° | 40km/h | 18140m | 4.4m/s | -53.3°C | 1% | 78.3hPa | 2.7V | 04:17:41 | 01:07:12 | 00:00:00 | |
| DF8AY | 2026-09-02 11:50:05 | 49.37561 | 12.75174 | 88° | 35km/h | 18103m | 5.2m/s | -53.5°C | 1% | 78.7hPa | 2.7V | 04:19:23 | 01:07:04 | 00:00:00 | |
| DF8AY | 2026-09-02 11:49:53 | 49.37555 | 12.74982 | 84° | 46km/h | 18046m | 5.2m/s | -53.6°C | 1% | 79.4hPa | 2.7V | 04:19:23 | 01:06:52 | 00:00:00 | |
| DL6DJ-15 | 2026-09-02 11:49:53 | 49.37555 | 12.74982 | 84° | 44km/h | 18046m | 5.2m/s | -53.6°C | 1.4% | 79.4hPa | 2.7V | 00:00:00 | 00:00:00 | 00:00:00 | |
| SONCRA | 2026-09-02 11:49:51 | 49.37551 | 12.74933 | 82° | 40km/h | 18031m | 4.2m/s | -53.7°C | 1.5% | 79.6hPa | 2.7V | 00:00:00 | 00:00:00 | 00:00:00 | |
| DF8AY | 2026-09-02 11:49:43 | 49.37536 | 12.74805 | 83° | 53km/h | 18000m | 3.8m/s | -53.9°C | 1% | 80hPa | 2.7V | 04:19:23 | 01:06:42 | 00:00:00 | |
| DF8AY | 2026-09-02 11:49:35 | 49.37498 | 12.74510 | 84° | 51km/h | 17925m | 3.6m/s | -53.4°C | 1.1% | 80.9hPa | 2.7V | 04:19:23 | 01:06:26 | 00:00:00 | |
| DF8AY | 2026-09-02 11:49:14 | 49.37471 | 12.74312 | 81° | 42km/h | 17866m | 5m/s | -53°C | 1% | 81.7hPa | 2.6V | 04:19:23 | 01:06:13 | 00:00:00 | |
| DF8AY | 2026-09-02 11:49:09 | 49.37458 | 12.74170 | 77° | 31km/h | 17821m | 5.1m/s | -52.8°C | 0.9% | 82.2hPa | 2.6V | 04:19:23 | 01:06:03 | 00:00:00 | |
| DF8AY | 2026-09-02 11:48:52 | 49.37445 | 12.74026 | 94° | 29km/h | 17768m | 4.1m/s | -52.7°C | 1% | 82.9hPa | 2.6V | 04:19:23 | 01:05:51 | 00:00:00 | |
| DL6DJ-15 | 2026-09-02 11:48:51 | 49.37446 | 12.74003 | 89° | 29km/h | 17759m | 5.8m/s | -52.6°C | 1.4% | 83.0hPa | 2.7V | 00:00:00 | 00:00:00 | 00:00:00 | |
| OE5MMP-10 | 2026-09-02 11:48:50 | 49.37445 | 12.74003 | 90° | 29km/h | 17759m | 5.7m/s | -52.6°C | 4.1% | 83.0hPa | 2.7V | 00:00:00 | 01:05:49 | 00:00:00 | |
| DF8AY | 2026-09-02 11:48:41 | 49.37473 | 12.73773 | 102° | 33km/h | 17666m | 4.5m/s | -52.8°C | 0.9% | 84.2hPa | 2.7V | 04:19:23 | 01:05:28 | 00:00:00 | |
| DF8AY | 2026-09-02 11:48:33 | 49.37475 | 12.73760 | 102° | 33km/h | 17662m | 3.8m/s | -52.9°C | 1% | 84.3hPa | 2.7V | 04:19:23 | 01:05:27 | 00:00:00 | |
| DF8AY | 2026-09-02 11:48:16 | 49.37502 | 12.73597 | 103° | 44km/h | 17609m | 3.9m/s | -52.8°C | 0.9% | 85hPa | 2.6V | 04:21:05 | 01:05:15 | 00:00:00 | |
| DF8AY | 2026-09-02 11:48:02 | 49.37512 | 12.73347 | 78° | 35km/h | 17538m | 4.9m/s | -53°C | 1% | 85.9hPa | 2.6V | 04:21:05 | 01:05:00 | 00:00:00 | |
| DF8AY | 2026-09-02 11:47:49 | 49.37499 | 12.73157 | 78° | 38km/h | 17485m | 4.6m/s | -53.1°C | 1% | 86.6hPa | 2.6V | 04:21:05 | 01:04:48 | 00:00:00 | |
| DL6DJ-15 | 2026-09-02 11:47:49 | 49.37496 | 12.73143 | 75° | 35km/h | 17481m | 4.1m/s | -53.0°C | 1.4% | 86.7hPa | 2.6V | 00:00:00 | 00:00:00 | 00:00:00 | |
| SONCRA | 2026-09-02 11:47:46 | 49.37491 | 12.73117 | 69° | 35km/h | 17472m | 5.1m/s | -53.1°C | 1.4% | 86.8hPa | 2.6V | 00:00:00 | 00:00:00 | 00:00:00 | |
| DF8AY | 2026-09-02 11:47:39 | 49.37478 | 12.73015 | 84° | 42km/h | 17440m | 3.8m/s | 0°C | 0% | 87.2hPa | 2.6V | 04:21:05 | 01:04:38 | 00:00:00 | |
| DF8AY | 2026-09-02 11:47:24 | 49.37467 | 12.72808 | 95° | 35km/h | 17372m | 4.4m/s | 0°C | 0% | 88.1hPa | 2.6V | 04:21:05 | 01:04:23 | 00:00:00 | |
| DO3MHA-11 | 2026-09-02 11:47:24 | 49.37467 | 12.72808 | 96° | 37km/h | 17372m | 4.4m/s | -52.9°C | 4.2% | 88.1hPa | 2.6V | 04:20:00 | 01:04:23 | 00:00:00 | |
| OE5WHR-10 | 2026-09-02 11:47:23 | 49.37467 | 12.72781 | 91° | 38km/h | 17362m | 4.5m/s | -52.9°C | 4.2% | 88.3hPa | 2.7V | 00:00:00 | 00:00:00 | 00:00:00 | |
| OE5MMP-10 | 2026-09-02 11:47:20 | 49.37468 | 12.72753 | 94° | 38km/h | 17353m | 5.4m/s | -52.9°C | 4.2% | 88.4hPa | 2.7V | 00:00:00 | 01:04:19 | 00:00:00 | |
| DF8AY | 2026-09-02 11:47:01 | 49.37490 | 12.72465 | 96° | 42km/h | 17267m | 4.4m/s | 0°C | 0% | 89.6hPa | 2.7V | 04:21:05 | 01:04:00 | 00:00:00 | |
| DF8AY | 2026-09-02 11:46:52 | 49.37500 | 12.72307 | 96° | 38km/h | 17220m | 5.2m/s | 0°C | 0% | 90.3hPa | 2.7V | 04:21:05 | 01:03:50 | 00:00:00 | |
| DL6DJ-15 | 2026-09-02 11:46:47 | 49.37498 | 12.72231 | 83° | 40km/h | 17198m | 4.6m/s | -53.0°C | 1.5% | 90.6hPa | 2.6V | 00:00:00 | 00:00:00 | 00:00:00 | |
| DF8AY | 2026-09-02 11:46:41 | 49.37506 | 12.72087 | 102° | 46km/h | 17157m | 4.9m/s | 0°C | 0% | 91.2hPa | 2.6V | 04:21:56 | 01:03:36 | 00:00:00 | |
| DF8AY | 2026-09-02 11:46:35 | 49.37513 | 12.71973 | 90° | 40km/h | 17126m | 5.4m/s | 0°C | 0% | 0hPa | 2.7V | 04:21:56 | 01:03:29 | 00:00:00 | |
| S52SK | 2026-09-02 11:46:35 | 49.37508 | 12.72069 | 100° | 46km/h | 17152m | 4.7m/s | -52.8°C | 1.4% | 91.3hPa | 2.7V | 00:00:00 | 00:00:00 | 00:00:00 | |
| DO3MHA-11 | 2026-09-02 11:46:34 | 49.37510 | 12.72035 | 95° | 40km/h | 17145m | 4.2m/s | -52.7°C | 4.3% | 91.3hPa | 2.7V | 04:21:00 | 01:03:33 | 00:00:00 | |
| OE5REO-15 | 2026-09-02 11:46:33 | 49.37511 | 12.72019 | 96° | 40km/h | 17140m | 5.0m/s | -52.7°C | 0% | 91.4hPa | 2.7V | 04:21:00 | 00:00:00 | 00:00:00 | |
| DF8AY | 2026-09-02 11:46:20 | 49.37517 | 12.71734 | 90° | 38km/h | 17051m | 5.1m/s | 0°C | 0% | 0hPa | 2.7V | 04:21:56 | 01:03:13 | 00:00:00 | |
| DF8AY | 2026-09-02 11:46:08 | 49.37514 | 12.71647 | 84° | 40km/h | 17025m | 5.6m/s | 0°C | 0% | 0hPa | 2.6V | 04:21:56 | 01:03:07 | 00:00:00 | |
| DF8AY | 2026-09-02 11:45:55 | 49.37502 | 12.71455 | 87° | 40km/h | 16967m | 4.5m/s | 0°C | 0% | 0hPa | 2.6V | 04:21:56 | 01:02:54 | 00:00:00 | |
| DF8AY | 2026-09-02 11:45:44 | 49.37496 | 12.71269 | 92° | 38km/h | 16919m | 3.7m/s | 0°C | 0% | 0hPa | 2.6V | 18:12:15 | 01:02:43 | 00:00:00 | |
| DF8AY | 2026-09-02 11:45:33 | 49.37499 | 12.71102 | 88° | 40km/h | 16869m | 4.8m/s | 0°C | 0% | 0hPa | 2.7V | 18:12:15 | 01:02:32 | 00:00:00 | |
| DF8AY | 2026-09-02 11:45:23 | 49.37507 | 12.70956 | 96° | 37km/h | 16824m | 4.3m/s | 0°C | 0% | 0hPa | 2.6V | 18:12:15 | 01:02:22 | 00:00:00 | |
| DF8AY | 2026-09-02 11:45:09 | 49.37525 | 12.70725 | 98° | 42km/h | 16764m | 4m/s | 0°C | 0% | 0hPa | 2.7V | 18:12:15 | 01:02:08 | 00:00:00 | |
| DF8AY | 2026-09-02 11:44:55 | 49.37550 | 12.70480 | 102° | 44km/h | 16702m | 4m/s | 0°C | 0% | 0hPa | 2.6V | 18:12:15 | 01:01:54 | 00:00:00 | |
| OE5WHR-10 | 2026-09-02 11:44:55 | 49.37550 | 12.70480 | 102° | 40km/h | 16702m | 3.9m/s | -52.9°C | 4.4% | 97.8hPa | 2.7V | 00:00:00 | 01:01:54 | 00:00:00 | |
| DO3MHA-11 | 2026-09-02 11:44:54 | 49.37553 | 12.70464 | 101° | 42km/h | 16698m | 5.0m/s | -52.8°C | 4.3% | 97.8hPa | 2.7V | 04:22:00 | 01:01:53 | 00:00:00 | |
| OE5DXL-15 | 2026-09-02 11:44:52 | 49.37556 | 12.70432 | 98° | 40km/h | 16689m | 3.7m/s | -52.8°C | 4.3% | 98.0hPa | 2.6V | 04:22:00 | 00:00:00 | 00:00:00 | |
| OE5MMP-10 | 2026-09-02 11:44:50 | 49.37558 | 12.70400 | 97° | 40km/h | 16680m | 4.0m/s | -52.7°C | 4.3% | 98.1hPa | 2.6V | 00:00:00 | 01:01:49 | 00:00:00 | |
| PG1ADW-2 | 2026-09-02 11:44:48 | 49.37561 | 12.70367 | 100° | 40km/h | 16673m | 4.8m/s | -52.7°C | 4.3% | 98.2hPa | 2.6V | 00:00:00 | 00:00:00 | 00:00:00 | |
| OE5REO-15 | 2026-09-02 11:44:46 | 49.37565 | 12.70336 | 103° | 38km/h | 16664m | 3.7m/s | -52.7°C | 0% | 98.4hPa | 2.6V | 04:23:00 | 00:00:00 | 00:00:00 | |
| DO3MHA-11 | 2026-09-02 11:44:44 | 49.37569 | 12.70307 | 102° | 40km/h | 16655m | 4.4m/s | -52.5°C | 4.3% | 98.5hPa | 2.6V | 00:00:00 | 01:01:43 | 00:00:00 | |
| DL6DJ-15 | 2026-09-02 11:44:42 | 49.37573 | 12.70277 | 100° | 37km/h | 16646m | 5.1m/s | -52.4°C | 1.6% | 98.7hPa | 2.6V | 00:00:00 | 00:00:00 | 00:00:00 | |
| SONCRA | 2026-09-02 11:44:40 | 49.37578 | 12.70233 | 100° | 40km/h | 16631m | 4.6m/s | -52.4°C | 1.5% | 98.9hPa | 2.6V | 00:00:00 | 00:00:00 | 00:00:00 | |
| OE5DRO-10 | 2026-09-02 11:44:36 | 49.37585 | 12.70186 | 105° | 40km/h | 16619m | 4.7m/s | -52.4°C | 4.2% | 99.1hPa | 2.6V | 04:23:00 | 00:00:00 | 00:00:00 | |
| OE5WHR-10 | 2026-09-02 11:44:34 | 49.37591 | 12.70155 | 108° | 40km/h | 16610m | 5.2m/s | -52.4°C | 4.2% | 99.2hPa | 2.6V | 00:00:00 | 00:00:00 | 00:00:00 | |
| OE5MMP-10 | 2026-09-02 11:44:30 | 49.37605 | 12.70095 | 114° | 37km/h | 16591m | 4.1m/s | -52.5°C | 4.3% | 99.5hPa | 2.6V | 00:00:00 | 01:01:29 | 00:00:00 | |
| OE5REO-15 | 2026-09-02 11:44:29 | 49.37605 | 12.70095 | 115° | 37km/h | 16591m | 4.1m/s | -52.5°C | 0% | 99.5hPa | 2.7V | 04:23:00 | 00:00:00 | 00:00:00 | |
| PG1ADW-2 | 2026-09-02 11:44:28 | 49.37612 | 12.70069 | 112° | 42km/h | 16583m | 5.0m/s | -52.6°C | 4.3% | 99.6hPa | 2.7V | 04:23:00 | 00:00:00 | 00:00:00 | |
| EDDB2-11 | 2026-09-02 11:44:27 | 49.37616 | 12.70056 | 109° | 37km/h | 16578m | 4.7m/s | -52.7°C | 1.6% | 99.7hPa | 2.7V | 00:00:00 | 00:00:00 | 00:00:00 | |
| ANDY1245 | 2026-09-02 11:44:26 | 49.37616 | 12.70056 | 110° | 37km/h | 16578m | 4.7m/s | 0°C | 0% | 0hPa | 2.7V | 00:00:00 | 00:00:00 | 00:00:00 | |
| DO3MHA-11 | 2026-09-02 11:44:23 | 49.37627 | 12.70004 | 106° | 44km/h | 16562m | 3.6m/s | -52.6°C | 4.3% | 99.9hPa | 2.7V | 00:00:00 | 01:01:22 | 00:00:00 | |
| OE5DXL-15 | 2026-09-02 11:44:22 | 49.37629 | 12.69990 | 105° | 46km/h | 16558m | 5.0m/s | -52.7°C | 4.3% | 100.0hPa | 2.7V | 00:00:00 | 00:00:00 | 00:00:00 | |
| OE5MMP-10 | 2026-09-02 11:44:20 | 49.37635 | 12.69959 | 107° | 44km/h | 16549m | 3.8m/s | -52.7°C | 4.2% | 100.1hPa | 2.7V | 04:23:00 | 01:01:19 | 00:00:00 | |
| OE5DRO-10 | 2026-09-02 11:44:17 | 49.37647 | 12.69911 | 114° | 46km/h | 16537m | 3.3m/s | -52.7°C | 4.3% | 100.3hPa | 2.7V | 00:00:00 | 00:00:00 | 00:00:00 | |
| OE5REO-15 | 2026-09-02 11:44:14 | 49.37659 | 12.69862 | 107° | 46km/h | 16524m | 3.8m/s | 0°C | 0% | 100.6hPa | 2.7V | 04:23:00 | 00:00:00 | 00:00:00 | |
| SP3BTT-10 | 2026-09-02 11:44:13 | 49.37662 | 12.69845 | 107° | 46km/h | 16520m | 4.1m/s | -52.6°C | 4.3% | 100.6hPa | 2.7V | 04:23:00 | 00:00:00 | 00:00:00 | |
| DL6DJ-15 | 2026-09-02 11:44:11 | 49.37668 | 12.69813 | 106° | 40km/h | 16512m | 3.6m/s | -52.6°C | 1.6% | 100.8hPa | 2.7V | 00:00:00 | 00:00:00 | 00:00:00 | |
| OE5MMP-10 | 2026-09-02 11:44:10 | 49.37671 | 12.69797 | 105° | 47km/h | 16508m | 3.8m/s | -52.6°C | 4.3% | 100.7hPa | 2.7V | 00:00:00 | 01:01:09 | 00:00:00 | |
| SONCRA | 2026-09-02 11:44:09 | 49.37676 | 12.69763 | 100° | 46km/h | 16499m | 4.2m/s | -52.8°C | 1.6% | 101.0hPa | 2.7V | 00:00:00 | 00:00:00 | 00:00:00 | |
| PG1ADW-2 | 2026-09-02 11:44:08 | 49.37676 | 12.69763 | 101° | 47km/h | 16499m | 4.1m/s | -52.7°C | 4.3% | 100.9hPa | 2.7V | 00:00:00 | 01:01:07 | 00:00:00 | |
| DO3MHA-11 | 2026-09-02 11:44:03 | 49.37688 | 12.69673 | 103° | 46km/h | 16478m | 4.8m/s | -52.8°C | 4.3% | 101.3hPa | 2.6V | 04:23:00 | 01:01:02 | 00:00:00 | |
| EDDB2-11 | 2026-09-02 11:43:56 | 49.37700 | 12.69550 | 90° | 44km/h | 16447m | 4.4m/s | -52.8°C | 1.6% | 101.8hPa | 2.6V | 00:00:00 | 00:00:00 | 00:00:00 | |
| DO3MHA-11 | 2026-09-02 11:43:53 | 49.37699 | 12.69498 | 90° | 46km/h | 16434m | 5.6m/s | -52.7°C | 4.3% | 101.9hPa | 2.6V | 00:00:00 | 01:00:52 | 00:00:00 | |
| OE5WHR-10 | 2026-09-02 11:43:52 | 49.37699 | 12.69479 | 92° | 44km/h | 16429m | 4.1m/s | -52.7°C | 4.3% | 102.0hPa | 2.6V | 00:00:00 | 01:00:51 | 00:00:00 | |
| OE5MMP-10 | 2026-09-02 11:43:50 | 49.37701 | 12.69441 | 94° | 42km/h | 16420m | 5.3m/s | -52.7°C | 4.4% | 102.1hPa | 2.6V | 00:00:00 | 01:00:49 | 00:00:00 | |
| PG1ADW-2 | 2026-09-02 11:43:48 | 49.37702 | 12.69405 | 93° | 42km/h | 16411m | 3.9m/s | -52.7°C | 4.3% | 102.3hPa | 2.6V | 00:00:00 | 00:00:00 | 00:00:00 | |
| DO3MHA-11 | 2026-09-02 11:43:43 | 49.37700 | 12.69323 | 88° | 42km/h | 16390m | 3.6m/s | -52.6°C | 4.3% | 102.6hPa | 2.6V | 00:00:00 | 01:00:42 | 00:00:00 | |
| OE5REO-15 | 2026-09-02 11:43:41 | 49.37699 | 12.69308 | 88° | 38km/h | 16386m | 4.2m/s | 0°C | 0% | 102.7hPa | 2.6V | 00:00:00 | 00:00:00 | 00:00:00 | |
| OE5MMP-10 | 2026-09-02 11:43:40 | 49.37699 | 12.69277 | 91° | 44km/h | 16377m | 3.9m/s | -52.7°C | 4.4% | 102.8hPa | 2.6V | 00:00:00 | 01:00:39 | 00:00:00 | |
| OE5DRO-10 | 2026-09-02 11:43:39 | 49.37699 | 12.69261 | 95° | 38km/h | 16373m | 5.0m/s | -52.7°C | 4.3% | 102.9hPa | 2.6V | 00:00:00 | 00:00:00 | 00:00:00 | |
| SONCRA | 2026-09-02 11:43:38 | 49.37702 | 12.69229 | 96° | 44km/h | 16364m | 3.7m/s | -52.7°C | 1.6% | 103.1hPa | 2.7V | 00:00:00 | 00:00:00 | 00:00:00 | |
| DO3MHA-11 | 2026-09-02 11:43:33 | 49.37704 | 12.69158 | 94° | 35km/h | 16348m | 4.6m/s | -52.7°C | 4.4% | 103.3hPa | 2.7V | 00:00:00 | 01:00:32 | 00:00:00 | |
| OE5WHR-10 | 2026-09-02 11:43:31 | 49.37706 | 12.69126 | 93° | 35km/h | 16339m | 3.7m/s | -52.6°C | 4.4% | 103.4hPa | 2.7V | 04:24:00 | 00:00:00 | 00:00:00 | |
| OE5MMP-10 | 2026-09-02 11:43:30 | 49.37706 | 12.69112 | 90° | 35km/h | 16335m | 4.9m/s | -52.7°C | 4.4% | 103.5hPa | 2.7V | 04:24:00 | 01:00:29 | 00:00:00 | |
| PG1ADW-2 | 2026-09-02 11:43:28 | 49.37705 | 12.69087 | 87° | 35km/h | 16326m | 3.9m/s | -52.7°C | 4.4% | 103.6hPa | 2.7V | 00:00:00 | 00:00:00 | 00:00:00 | |
| OM5KV | 2026-09-02 11:43:26 | 49.37705 | 12.69075 | 92° | 29km/h | 16321m | 5.1m/s | -52.7°C | 1.6% | 103.8hPa | 2.7V | 04:24:00 | 00:00:00 | 00:00:00 | |
| EDDB2-11 | 2026-09-02 11:43:25 | 49.37706 | 12.69053 | 97° | 29km/h | 16313m | 3.2m/s | -52.7°C | 1.6% | 103.9hPa | 2.7V | 00:00:00 | 00:00:00 | 00:00:00 | |
| OE5REO-15 | 2026-09-02 11:43:24 | 49.37706 | 12.69053 | 98° | 31km/h | 16313m | 3.2m/s | 0°C | 0% | 103.9hPa | 2.7V | 00:00:00 | 00:00:00 | 00:00:00 | |
| DO3MHA-11 | 2026-09-02 11:43:23 | 49.37708 | 12.69027 | 95° | 38km/h | 16305m | 4.6m/s | -52.7°C | 4.4% | 104.0hPa | 2.7V | 00:00:00 | 01:00:22 | 00:00:00 | |
| OE5DXL-15 | 2026-09-02 11:43:22 | 49.37708 | 12.69012 | 95° | 38km/h | 16300m | 4.0m/s | -52.7°C | 4.4% | 104.0hPa | 2.6V | 00:00:00 | 00:00:00 | 00:00:00 | |
| OM5KV | 2026-09-02 11:43:21 | 49.37708 | 12.69012 | 96° | 40km/h | 16300m | 4.1m/s | -52.7°C | 1.6% | 104.1hPa | 2.6V | 04:24:00 | 00:00:00 | 00:00:00 | |
| OE5MMP-10 | 2026-09-02 11:43:20 | 49.37711 | 12.68981 | 101° | 37km/h | 16291m | 4.3m/s | -52.7°C | 4.4% | 104.2hPa | 2.6V | 00:00:00 | 01:00:19 | 00:00:00 | |
| S52SK | 2026-09-02 11:43:16 | 49.37717 | 12.68934 | 100° | 42km/h | 16278m | 4.4m/s | -52.7°C | 0% | 0hPa | 2.6V | 00:00:00 | 00:00:00 | 00:00:00 | |
| OM5KV | 2026-09-02 11:43:14 | 49.37720 | 12.68904 | 104° | 35km/h | 16269m | 5.2m/s | -52.7°C | 1.6% | 104.6hPa | 2.6V | 04:25:00 | 00:00:00 | 00:00:00 | |
| DO3MHA-11 | 2026-09-02 11:43:13 | 49.37725 | 12.68880 | 104° | 35km/h | 16261m | 3.8m/s | -52.6°C | 4.3% | 104.7hPa | 2.6V | 04:24:00 | 01:00:12 | 00:00:00 | |
| OE5MMP-10 | 2026-09-02 11:43:10 | 49.37729 | 12.68845 | 101° | 38km/h | 16248m | 3.9m/s | -52.6°C | 4.3% | 104.9hPa | 2.6V | 00:00:00 | 01:00:09 | 00:00:00 | |
| DL6DJ-15 | 2026-09-02 11:43:09 | 49.37731 | 12.68832 | 103° | 33km/h | 16244m | 4.8m/s | -52.7°C | 1.6% | 105.0hPa | 2.6V | 00:00:00 | 00:00:00 | 00:00:00 | |
| PG1ADW-2 | 2026-09-02 11:43:08 | 49.37733 | 12.68819 | 107° | 42km/h | 16239m | 4.4m/s | -52.6°C | 4.3% | 105.1hPa | 2.6V | 00:00:00 | 00:00:00 | 00:00:00 | |
| SONCRA | 2026-09-02 11:43:06 | 49.37738 | 12.68792 | 104° | 37km/h | 16231m | 4.4m/s | -52.7°C | 1.6% | 105.2hPa | 2.7V | 00:00:00 | 00:00:00 | 00:00:00 | |
| DO3MHA-11 | 2026-09-02 11:43:03 | 49.37743 | 12.68746 | 100° | 42km/h | 16219m | 3.8m/s | -52.7°C | 4.3% | 105.4hPa | 2.7V | 00:00:00 | 01:00:02 | 00:00:00 | |
| EDDB2-11 | 2026-09-02 11:42:54 | 49.37771 | 12.68607 | 108° | 46km/h | 16179m | 4.8m/s | -52.6°C | 1.6% | 106.0hPa | 2.7V | 00:00:00 | 00:00:00 | 00:00:00 | |
| OM5KV | 2026-09-02 11:42:53 | 49.37775 | 12.68590 | 108° | 46km/h | 16174m | 4.7m/s | -52.6°C | 1.6% | 106.2hPa | 2.7V | 04:25:00 | 00:00:00 | 00:00:00 | |
| OE5DXL-15 | 2026-09-02 11:42:52 | 49.37778 | 12.68573 | 106° | 46km/h | 16170m | 3.7m/s | -52.5°C | 4.3% | 106.1hPa | 2.7V | 00:00:00 | 00:00:00 | 00:00:00 | |
| OE5MMP-10 | 2026-09-02 11:42:50 | 49.37784 | 12.68541 | 108° | 44km/h | 16161m | 4.5m/s | -52.5°C | 4.3% | 106.3hPa | 2.6V | 00:00:00 | 00:59:49 | 00:00:00 | |
| OE5WHR-10 | 2026-09-02 11:42:49 | 49.37787 | 12.68525 | 106° | 46km/h | 16157m | 4.2m/s | -52.5°C | 4.3% | 106.4hPa | 2.6V | 00:00:00 | 00:59:48 | 00:00:00 | |
| PG1ADW-2 | 2026-09-02 11:42:48 | 49.37790 | 12.68509 | 105° | 46km/h | 16152m | 5.3m/s | -52.4°C | 4.3% | 106.5hPa | 2.6V | 04:25:00 | 00:59:47 | 00:00:00 | |
| OM5KV | 2026-09-02 11:42:47 | 49.37790 | 12.68509 | 105° | 42km/h | 16152m | 5.3m/s | -52.5°C | 1.6% | 106.5hPa | 2.6V | 04:25:00 | 00:00:00 | 00:00:00 | |
| DO3MHA-11 | 2026-09-02 11:42:43 | 49.37806 | 12.68426 | 114° | 44km/h | 16132m | 3.9m/s | -52.3°C | 4.3% | 106.8hPa | 2.6V | 00:00:00 | 00:59:42 | 00:00:00 | |
| OE5DRO-10 | 2026-09-02 11:42:42 | 49.37810 | 12.68410 | 114° | 46km/h | 16128m | 3.8m/s | -52.3°C | 4.2% | 106.9hPa | 2.6V | 00:00:00 | 00:00:00 | 00:00:00 | |
| OE5MMP-10 | 2026-09-02 11:42:40 | 49.37819 | 12.68377 | 111° | 44km/h | 16119m | 4.1m/s | -52.2°C | 4.2% | 107.0hPa | 2.7V | 04:25:00 | 00:59:39 | 00:00:00 | |
| DL6DJ-15 | 2026-09-02 11:42:38 | 49.37827 | 12.68346 | 112° | 42km/h | 16111m | 4.5m/s | -52.3°C | 1.6% | 107.2hPa | 2.7V | 00:00:00 | 00:00:00 | 00:00:00 | |
| OM5KV | 2026-09-02 11:42:37 | 49.37827 | 12.68346 | 113° | 44km/h | 16112m | 4.5m/s | -52.3°C | 1.6% | 107.2hPa | 2.7V | 04:25:00 | 00:00:00 | 00:00:00 | |
| OM5KV | 2026-09-02 11:42:36 | 49.37831 | 12.68331 | 115° | 44km/h | 16107m | 4.4m/s | -52.3°C | 1.5% | 107.3hPa | 2.7V | 04:25:00 | 00:00:00 | 00:00:00 | |
| SONCRA | 2026-09-02 11:42:35 | 49.37839 | 12.68300 | 111° | 42km/h | 16099m | 4.4m/s | -52.3°C | 1.5% | 107.4hPa | 2.7V | 00:00:00 | 00:00:00 | 00:00:00 | |
| DO3MHA-11 | 2026-09-02 11:42:33 | 49.37846 | 12.68269 | 106° | 47km/h | 16090m | 3.4m/s | -52.2°C | 4.2% | 107.5hPa | 2.7V | 00:00:00 | 00:59:32 | 00:00:00 | |
| OE5MMP-10 | 2026-09-02 11:42:30 | 49.37857 | 12.68217 | 112° | 49km/h | 16079m | 3.9m/s | -52.3°C | 4.2% | 107.7hPa | 2.7V | 00:00:00 | 00:59:29 | 00:00:00 | |
| OM5KV | 2026-09-02 11:42:29 | 49.37857 | 12.68217 | 113° | 49km/h | 16079m | 4.0m/s | -52.3°C | 1.6% | 107.8hPa | 2.6V | 04:26:00 | 00:00:00 | 00:00:00 | |
| OE5WHR-10 | 2026-09-02 11:42:28 | 49.37867 | 12.68182 | 112° | 49km/h | 16071m | 4.5m/s | -52.3°C | 4.3% | 107.9hPa | 2.6V | 00:00:00 | 00:00:00 | 00:00:00 | |
| SP3BTT-10 | 2026-09-02 11:42:26 | 49.37875 | 12.68147 | 110° | 49km/h | 16062m | 4.0m/s | 0°C | 0% | 0hPa | 2.7V | 00:00:00 | 00:00:00 | 00:00:00 | |
| OM5KV | 2026-09-02 11:42:24 | 49.37879 | 12.68129 | 112° | 47km/h | 16058m | 4.4m/s | -52.3°C | 1.6% | 108.1hPa | 2.7V | 04:26:00 | 00:00:00 | 00:00:00 | |
| DO3MHA-11 | 2026-09-02 11:42:23 | 49.37889 | 12.68095 | 115° | 47km/h | 16049m | 3.3m/s | -52.2°C | 4.3% | 108.2hPa | 2.7V | 04:25:00 | 00:59:22 | 00:00:00 | |
| OE5DXL-15 | 2026-09-02 11:42:22 | 49.37894 | 12.68077 | 113° | 49km/h | 16045m | 4.0m/s | -52.2°C | 4.2% | 108.3hPa | 2.6V | 04:25:00 | 00:00:00 | 00:00:00 | |
| OE5MMP-10 | 2026-09-02 11:42:20 | 49.37903 | 12.68043 | 110° | 49km/h | 16036m | 3.8m/s | -52.3°C | 4.3% | 108.4hPa | 2.6V | 00:00:00 | 00:59:19 | 00:00:00 | |
| OM5KV | 2026-09-02 11:42:17 | 49.37911 | 12.68009 | 112° | 47km/h | 16028m | 4.5m/s | -52.4°C | 1.6% | 108.6hPa | 2.6V | 04:26:00 | 00:00:00 | 00:00:00 | |
| DO3MHA-11 | 2026-09-02 11:42:13 | 49.37927 | 12.67918 | 103° | 53km/h | 16007m | 4.8m/s | -52.0°C | 4.2% | 108.9hPa | 2.6V | 00:00:00 | 00:59:12 | 00:00:00 | |
| S52SK | 2026-09-02 11:42:12 | 49.37927 | 12.67918 | 104° | 51km/h | 16007m | 4.9m/s | -52.1°C | 0% | 0hPa | 2.6V | 00:00:00 | 00:00:00 | 00:00:00 | |
| OM5KV | 2026-09-02 11:42:11 | 49.37930 | 12.67898 | 106° | 53km/h | 16002m | 4.4m/s | -52.0°C | 1.6% | 109.0hPa | 2.6V | 04:26:00 | 00:00:00 | 00:00:00 | |
| OE5MMP-10 | 2026-09-02 11:42:10 | 49.37937 | 12.67858 | 104° | 51km/h | 15994m | 5.3m/s | -52.0°C | 4.1% | 109.1hPa | 2.6V | 00:00:00 | 00:59:09 | 00:00:00 | |
| DO8TBO-1 | 2026-09-02 11:42:08 | 49.37943 | 12.67817 | 105° | 62km/h | 15985m | 4.2m/s | -51.9°C | 4.1% | 109.3hPa | 2.6V | 00:00:00 | 00:59:07 | 00:00:00 | |
| OM5KV | 2026-09-02 11:42:07 | 49.37947 | 12.67798 | 107° | 51km/h | 15980m | 5.3m/s | -51.9°C | 1.5% | 109.4hPa | 2.6V | 04:26:00 | 00:00:00 | 00:00:00 | |
| S52SK | 2026-09-02 11:42:06 | 49.37947 | 12.67798 | 107° | 51km/h | 15980m | 5.3m/s | -51.9°C | 0% | 0hPa | 2.6V | 00:00:00 | 00:00:00 | 00:00:00 | |
| OE5DRO-10 | 2026-09-02 11:42:04 | 49.37958 | 12.67742 | 107° | 49km/h | 15968m | 4.8m/s | -51.9°C | 4.1% | 109.6hPa | 2.6V | 00:00:00 | 00:00:00 | 00:00:00 | |
| DO3MHA-11 | 2026-09-02 11:42:03 | 49.37961 | 12.67723 | 106° | 49km/h | 15963m | 4.1m/s | -51.8°C | 4.1% | 109.7hPa | 2.6V | 00:00:00 | 00:59:02 | 00:00:00 | |
| OE5MMP-10 | 2026-09-02 11:42:00 | 49.37973 | 12.67667 | 112° | 47km/h | 15950m | 4.0m/s | -51.8°C | 4.1% | 109.9hPa | 2.6V | 00:00:00 | 00:58:59 | 00:00:00 | |
| SP3BTT-10 | 2026-09-02 11:41:56 | 49.37989 | 12.67592 | 106° | 58km/h | 15932m | 4.7m/s | 0°C | 0% | 0hPa | 2.6V | 00:00:00 | 00:00:00 | 00:00:00 | |
| OM5KV | 2026-09-02 11:41:55 | 49.37989 | 12.67592 | 106° | 47km/h | 15932m | 4.7m/s | -51.7°C | 1.5% | 110.2hPa | 2.6V | 04:26:00 | 00:00:00 | 00:00:00 | |
| DO3MHA-11 | 2026-09-02 11:41:53 | 49.37999 | 12.67541 | 108° | 49km/h | 15917m | 4.9m/s | -51.6°C | 4.2% | 110.4hPa | 2.6V | 00:00:00 | 00:58:52 | 00:00:00 | |
| OE5DXL-15 | 2026-09-02 11:41:52 | 49.38003 | 12.67525 | 107° | 49km/h | 15913m | 4.5m/s | -51.5°C | 4.1% | 110.5hPa | 2.6V | 00:00:00 | 00:00:00 | 00:00:00 | |
| OM5KV | 2026-09-02 11:41:51 | 49.38006 | 12.67508 | 109° | 44km/h | 15909m | 3.5m/s | -51.6°C | 1.6% | 110.6hPa | 2.6V | 04:26:00 | 00:00:00 | 00:00:00 | |
| OE5MMP-10 | 2026-09-02 11:41:50 | 49.38010 | 12.67492 | 112° | 51km/h | 15905m | 3.8m/s | -51.5°C | 4.1% | 110.6hPa | 2.6V | 04:26:00 | 00:58:49 | 00:00:00 | |
| PG1ADW-2 | 2026-09-02 11:41:48 | 49.38020 | 12.67459 | 119° | 49km/h | 15895m | 4.0m/s | -51.6°C | 4.2% | 110.8hPa | 2.6V | 00:00:00 | 00:00:00 | 00:00:00 | |
| OE5WHR-10 | 2026-09-02 11:41:46 | 49.38032 | 12.67423 | 116° | 49km/h | 15887m | 5.0m/s | -51.6°C | 4.1% | 110.9hPa | 2.6V | 04:26:00 | 00:58:45 | 00:00:00 | |
| OE5DRO-10 | 2026-09-02 11:41:45 | 49.38038 | 12.67405 | 113° | 49km/h | 15882m | 4.0m/s | -51.7°C | 4.1% | 111.0hPa | 2.6V | 00:00:00 | 00:00:00 | 00:00:00 | |
| DO3MHA-11 | 2026-09-02 11:41:43 | 49.38048 | 12.67366 | 114° | 49km/h | 15873m | 5.2m/s | -51.9°C | 4.1% | 111.2hPa | 2.7V | 00:00:00 | 00:58:42 | 00:00:00 | |
| OM5KV | 2026-09-02 11:41:42 | 49.38048 | 12.67366 | 114° | 55km/h | 15873m | 5.3m/s | -51.9°C | 1.5% | 111.2hPa | 2.7V | 04:26:00 | 00:00:00 | 00:00:00 | |
| OE5MMP-10 | 2026-09-02 11:41:40 | 49.38065 | 12.67310 | 115° | 47km/h | 15861m | 3.9m/s | -51.8°C | 4.1% | 111.4hPa | 2.7V | 00:00:00 | 00:58:39 | 00:00:00 | |
| DL6DJ-15 | 2026-09-02 11:41:36 | 49.38090 | 12.67229 | 123° | 42km/h | 15839m | 4.9m/s | -51.6°C | 1.5% | 111.8hPa | 2.7V | 00:00:00 | 00:00:00 | 00:00:00 | |
| DO3MHA-11 | 2026-09-02 11:41:33 | 49.38103 | 12.67201 | 127° | 51km/h | 15831m | 3.9m/s | -51.6°C | 4.0% | 111.9hPa | 2.7V | 04:26:00 | 00:58:32 | 00:00:00 | |
| DL1JEZ-13 | 2026-09-02 11:41:31 | 49.38117 | 12.67170 | 123° | 49km/h | 15822m | 4.4m/s | -51.6°C | 0% | 0hPa | 2.7V | 00:00:00 | 00:00:00 | 00:00:00 | |
| OE5MMP-10 | 2026-09-02 11:41:30 | 49.38123 | 12.67154 | 122° | 53km/h | 15818m | 3.6m/s | -51.4°C | 4.1% | 112.1hPa | 2.7V | 00:00:00 | 00:58:29 | 00:00:00 | |
| PG1ADW-2 | 2026-09-02 11:41:28 | 49.38137 | 12.67120 | 124° | 55km/h | 15810m | 4.6m/s | -51.5°C | 4.0% | 112.3hPa | 2.7V | 00:00:00 | 00:58:27 | 00:00:00 | |
| OM5KV | 2026-09-02 11:41:27 | 49.38137 | 12.67120 | 125° | 53km/h | 15810m | 4.7m/s | -51.6°C | 1.5% | 112.3hPa | 2.7V | 04:27:00 | 00:00:00 | 00:00:00 | |
| OM5KV | 2026-09-02 11:41:26 | 49.38152 | 12.67086 | 123° | 53km/h | 15801m | 4.5m/s | -51.6°C | 0% | 112.5hPa | 2.7V | 04:27:00 | 00:00:00 | 00:00:00 | |
| OE5WHR-10 | 2026-09-02 11:41:25 | 49.38159 | 12.67068 | 120° | 55km/h | 15797m | 4.9m/s | 0°C | 0% | 0hPa | 2.7V | 00:00:00 | 00:00:00 | 00:00:00 | |
| DO3MHA-11 | 2026-09-02 11:41:23 | 49.38172 | 12.67033 | 121° | 53km/h | 15788m | 4.5m/s | -51.5°C | 4.0% | 112.7hPa | 2.6V | 00:00:00 | 00:58:22 | 00:00:00 | |
| OE5DXL-15 | 2026-09-02 11:41:22 | 49.38179 | 12.67016 | 123° | 58km/h | 15784m | 4.4m/s | -51.4°C | 4.0% | 112.8hPa | 2.6V | 00:00:00 | 00:00:00 | 00:00:00 | |
| EDDB2-11 | 2026-09-02 11:41:21 | 49.38186 | 12.66999 | 122° | 49km/h | 15779m | 3.8m/s | -51.5°C | 1.5% | 112.9hPa | 2.7V | 00:00:00 | 00:00:00 | 00:00:00 | |
| OE5MMP-10 | 2026-09-02 11:41:20 | 49.38193 | 12.66982 | 122° | 55km/h | 15775m | 4.8m/s | -51.4°C | 4.0% | 112.9hPa | 2.7V | 00:00:00 | 00:58:19 | 00:00:00 | |
| OM5KV | 2026-09-02 11:41:16 | 49.38213 | 12.66930 | 123° | 55km/h | 15762m | 5.0m/s | -51.5°C | 1.5% | 113.1hPa | 2.7V | 04:27:00 | 00:00:00 | 00:00:00 | |
| OM5KV | 2026-09-02 11:41:14 | 49.38236 | 12.66874 | 122° | 58km/h | 15749m | 5.3m/s | -51.5°C | 0% | 0hPa | 2.7V | 04:27:00 | 00:00:00 | 00:00:00 | |
| OE5MMP-10 | 2026-09-02 11:41:10 | 49.38265 | 12.66797 | 123° | 58km/h | 15731m | 4.0m/s | -51.5°C | 4.0% | 113.7hPa | 2.7V | 00:00:00 | 00:58:09 | 00:00:00 | |
| PG1ADW-2 | 2026-09-02 11:41:08 | 49.38281 | 12.66761 | 124° | 62km/h | 15722m | 5.1m/s | -51.5°C | 4.1% | 113.8hPa | 2.7V | 04:26:00 | 00:00:00 | 00:00:00 | |
| ANDY1245 | 2026-09-02 11:41:07 | 49.38288 | 12.66743 | 123° | 55km/h | 15718m | 3.5m/s | 0°C | 0% | 0hPa | 2.6V | 00:00:00 | 00:00:00 | 00:00:00 | |
| DL6DJ-15 | 2026-09-02 11:41:05 | 49.38310 | 12.66686 | 120° | 60km/h | 15707m | 5.3m/s | -51.7°C | 1.5% | 114.1hPa | 2.6V | 00:00:00 | 00:00:00 | 00:00:00 | |
| OE5WHR-10 | 2026-09-02 11:41:04 | 49.38310 | 12.66686 | 121° | 64km/h | 15707m | 5.3m/s | -51.6°C | 4.1% | 114.0hPa | 2.6V | 00:00:00 | 00:00:00 | 00:00:00 | |
| DO3MHA-11 | 2026-09-02 11:41:03 | 49.38318 | 12.66665 | 121° | 64km/h | 15702m | 4.7m/s | -51.6°C | 4.1% | 114.1hPa | 2.6V | 00:00:00 | 00:58:02 | 00:00:00 | |
| SONCRA | 2026-09-02 11:41:02 | 49.38327 | 12.66644 | 121° | 66km/h | 15698m | 3.9m/s | -51.6°C | 1.5% | 114.2hPa | 2.6V | 00:00:00 | 00:00:00 | 00:00:00 | |
| OE5MMP-10 | 2026-09-02 11:41:00 | 49.38344 | 12.66601 | 122° | 62km/h | 15688m | 4.7m/s | -51.6°C | 4.2% | 114.4hPa | 2.6V | 04:26:00 | 00:57:59 | 00:00:00 | |
| OM5KV | 2026-09-02 11:40:57 | 49.38360 | 12.66558 | 122° | 64km/h | 15679m | 5.0m/s | -51.7°C | 0% | 114.6hPa | 2.7V | 04:27:00 | 00:00:00 | 00:00:00 | |
| SP3BTT-10 | 2026-09-02 11:40:56 | 49.38377 | 12.66515 | 119° | 71km/h | 15671m | 3.0m/s | 0°C | 0% | 0hPa | 2.7V | 00:00:00 | 00:00:00 | 00:00:00 | |
| DO3MHA-11 | 2026-09-02 11:40:53 | 49.38397 | 12.66451 | 115° | 64km/h | 15657m | 3.8m/s | -51.7°C | 4.0% | 114.9hPa | 2.7V | 00:00:00 | 00:57:52 | 00:00:00 | |
| OE5DXL-15 | 2026-09-02 11:40:52 | 49.38404 | 12.66430 | 115° | 69km/h | 15653m | 3.8m/s | -51.7°C | 4.0% | 115.0hPa | 2.7V | 00:00:00 | 00:00:00 | 00:00:00 | |
| PG1ADW-2 | 2026-09-02 11:40:48 | 49.38433 | 12.66343 | 119° | 71km/h | 15637m | 3.7m/s | -51.6°C | 4.0% | 115.3hPa | 2.7V | 00:00:00 | 00:00:00 | 00:00:00 | |
| DO8TBO-1 | 2026-09-02 11:40:46 | 49.38448 | 12.66298 | 117° | 73km/h | 15628m | 4.3m/s | -51.5°C | 4.0% | 115.4hPa | 2.7V | 04:27:00 | 00:57:45 | 00:00:00 | |
| OM5KV | 2026-09-02 11:40:45 | 49.38456 | 12.66275 | 115° | 68km/h | 15624m | 3.8m/s | -51.6°C | 0% | 115.6hPa | 2.7V | 00:00:00 | 00:00:00 | 00:00:00 | |
| DO3MHA-11 | 2026-09-02 11:40:43 | 49.38469 | 12.66225 | 112° | 71km/h | 15615m | 4.4m/s | -51.6°C | 4.1% | 115.7hPa | 2.7V | 04:27:00 | 00:57:42 | 00:00:00 | |
| OE5MMP-10 | 2026-09-02 11:40:40 | 49.38487 | 12.66146 | 106° | 69km/h | 15603m | 4.4m/s | -51.6°C | 4.1% | 115.9hPa | 2.7V | 00:00:00 | 00:57:39 | 00:00:00 | |
| OM5KV | 2026-09-02 11:40:39 | 49.38487 | 12.66146 | 107° | 69km/h | 15603m | 4.5m/s | -51.6°C | 0% | 116.0hPa | 2.7V | 00:00:00 | 00:00:00 | 00:00:00 | |
| OM5KV | 2026-09-02 11:40:38 | 49.38491 | 12.66120 | 106° | 68km/h | 15599m | 3.9m/s | 0°C | 0% | 0hPa | 2.7V | 00:00:00 | 00:00:00 | 00:00:00 | |
| DL6DJ-15 | 2026-09-02 11:40:34 | 49.38529 | 12.65969 | 114° | 69km/h | 15574m | 4.5m/s | -51.8°C | 1.5% | 116.5hPa | 2.7V | 00:00:00 | 00:00:00 | 00:00:00 | |
| DO3MHA-11 | 2026-09-02 11:40:33 | 49.38529 | 12.65969 | 115° | 75km/h | 15574m | 4.5m/s | -51.8°C | 4.1% | 116.4hPa | 2.7V | 00:00:00 | 00:57:32 | 00:00:00 | |
| OM5KV | 2026-09-02 11:40:32 | 49.38530 | 12.65969 | 116° | 71km/h | 15574m | 4.5m/s | 0°C | 0% | 0hPa | 2.7V | 00:00:00 | 00:00:00 | 00:00:00 | |
| SONCRA | 2026-09-02 11:40:31 | 49.38544 | 12.65919 | 113° | 73km/h | 15567m | 3.7m/s | -51.8°C | 1.5% | 116.6hPa | 2.7V | 00:00:00 | 00:00:00 | 00:00:00 | |
| OE5MMP-10 | 2026-09-02 11:40:30 | 49.38551 | 12.65892 | 113° | 75km/h | 15563m | 4.3m/s | -51.8°C | 4.1% | 116.6hPa | 2.7V | 00:00:00 | 00:57:29 | 00:00:00 | |
| OE5DRO-10 | 2026-09-02 11:40:29 | 49.38559 | 12.65864 | 112° | 75km/h | 15559m | 3.6m/s | -51.8°C | 4.1% | 116.7hPa | 2.7V | 00:00:00 | 00:00:00 | 00:00:00 | |
| PG1ADW-2 | 2026-09-02 11:40:28 | 49.38566 | 12.65836 | 110° | 75km/h | 15555m | 3.3m/s | -51.8°C | 4.1% | 116.8hPa | 2.7V | 00:00:00 | 00:00:00 | 00:00:00 | |
| OM5KV | 2026-09-02 11:40:27 | 49.38566 | 12.65836 | 111° | 78km/h | 15555m | 3.4m/s | 0°C | 0% | 0hPa | 2.7V | 00:00:00 | 00:00:00 | 00:00:00 | |
| OM5KV | 2026-09-02 11:40:26 | 49.38572 | 12.65808 | 109° | 77km/h | 15552m | 4.3m/s | -51.9°C | 0% | 116.9hPa | 2.7V | 00:00:00 | 00:00:00 | 00:00:00 | |
| DO3MHA-11 | 2026-09-02 11:40:23 | 49.38592 | 12.65699 | 103° | 75km/h | 15534m | 5.1m/s | -51.9°C | 4.1% | 117.2hPa | 2.7V | 00:00:00 | 00:57:22 | 00:00:00 | |
| OE5MMP-10 | 2026-09-02 11:40:20 | 49.38603 | 12.65616 | 103° | 77km/h | 15521m | 5.3m/s | -51.9°C | 4.1% | 117.4hPa | 2.7V | 00:00:00 | 00:57:19 | 00:00:00 | |
| S52SK | 2026-09-02 11:40:17 | 49.38611 | 12.65560 | 103° | 75km/h | 15512m | 4.2m/s | -51.9°C | 0% | 0hPa | 2.7V | 00:00:00 | 00:00:00 | 00:00:00 | |
| OM5KV | 2026-09-02 11:40:16 | 49.38615 | 12.65532 | 103° | 77km/h | 15508m | 4.7m/s | 0°C | 0% | 0hPa | 2.7V | 00:00:00 | 00:00:00 | 00:00:00 | |
| DO8TBO-1 | 2026-09-02 11:40:15 | 49.38624 | 12.65473 | 104° | 80km/h | 15499m | 4.6m/s | -51.9°C | 4.1% | 117.8hPa | 2.7V | 00:00:00 | 00:57:14 | 00:00:00 | |
| DO3MHA-11 | 2026-09-02 11:40:13 | 49.38633 | 12.65415 | 104° | 78km/h | 15491m | 3.8m/s | -51.8°C | 4.1% | 118.0hPa | 2.7V | 00:00:00 | 00:57:12 | 00:00:00 | |
| S52SK | 2026-09-02 11:40:11 | 49.38638 | 12.65386 | 104° | 78km/h | 15486m | 4.9m/s | -51.9°C | 0% | 0hPa | 2.7V | 00:00:00 | 00:00:00 | 00:00:00 | |
| SP3BTT-10 | 2026-09-02 11:40:10 | 49.38645 | 12.65326 | 99° | 73km/h | 15477m | 3.4m/s | 0°C | 0% | 0hPa | 2.7V | 04:27:00 | 00:00:00 | 00:00:00 | |
| PG1ADW-2 | 2026-09-02 11:40:08 | 49.38651 | 12.65265 | 99° | 80km/h | 15470m | 5.2m/s | -51.9°C | 4.1% | 118.3hPa | 2.7V | 00:00:00 | 00:57:07 | 00:00:00 | |
| OM5KV | 2026-09-02 11:40:06 | 49.38653 | 12.65236 | 99° | 77km/h | 15465m | 4.0m/s | -52.0°C | 0% | 118.5hPa | 2.7V | 00:00:00 | 00:00:00 | 00:00:00 | |
| DL6DJ-15 | 2026-09-02 11:40:03 | 49.38664 | 12.65087 | 98° | 78km/h | 15442m | 4.5m/s | -52.4°C | 1.6% | 118.9hPa | 2.7V | 00:00:00 | 00:00:00 | 00:00:00 | |
| OE5WHR-10 | 2026-09-02 11:40:01 | 49.38668 | 12.65057 | 100° | 80km/h | 15438m | 3.9m/s | -52.3°C | 4.3% | 118.9hPa | 2.7V | 04:27:00 | 00:00:00 | 00:00:00 | |
| OE5MMP-10 | 2026-09-02 11:40:00 | 49.38671 | 12.65026 | 99° | 82km/h | 15434m | 4.1m/s | -52.3°C | 4.3% | 119.0hPa | 2.7V | 00:00:00 | 00:56:59 | 00:00:00 | |
| OM5KV | 2026-09-02 11:39:59 | 49.38671 | 12.65026 | 100° | 82km/h | 15434m | 4.1m/s | 0°C | 0% | 119.0hPa | 2.6V | 00:00:00 | 00:00:00 | 00:00:00 | |
| OM5KV | 2026-09-02 11:39:54 | 49.38685 | 12.64864 | 98° | 82km/h | 15412m | 3.6m/s | 0°C | 0% | 119.4hPa | 2.6V | 00:00:00 | 00:00:00 | 00:00:00 | |
| DO3MHA-11 | 2026-09-02 11:39:53 | 49.38689 | 12.64801 | 95° | 80km/h | 15404m | 4.6m/s | -52.0°C | 4.2% | 119.5hPa | 2.6V | 04:27:00 | 00:56:52 | 00:00:00 | |
| OE5DXL-15 | 2026-09-02 11:39:52 | 49.38690 | 12.64769 | 94° | 77km/h | 15400m | 3.6m/s | -51.9°C | 4.2% | 119.6hPa | 2.6V | 04:27:00 | 00:00:00 | 00:00:00 | |
| DL1JEZ-13 | 2026-09-02 11:39:50 | 49.38693 | 12.64707 | 97° | 78km/h | 15391m | 5.1m/s | -52.0°C | 0% | 0hPa | 2.7V | 00:00:00 | 00:00:00 | 00:00:00 | |
| PG1ADW-2 | 2026-09-02 11:39:48 | 49.38698 | 12.64647 | 98° | 77km/h | 15383m | 3.9m/s | -52.0°C | 4.1% | 119.9hPa | 2.7V | 00:00:00 | 00:00:00 | 00:00:00 | |
| OM5KV | 2026-09-02 11:39:47 | 49.38698 | 12.64647 | 99° | 78km/h | 15383m | 3.9m/s | 0°C | 0% | 0hPa | 2.7V | 00:00:00 | 00:00:00 | 00:00:00 | |
| DO3MHA-11 | 2026-09-02 11:39:43 | 49.38710 | 12.64492 | 98° | 77km/h | 15361m | 4.0m/s | -52.1°C | 4.2% | 120.4hPa | 2.7V | 00:00:00 | 00:56:42 | 00:00:00 | |
| OE5WHR-10 | 2026-09-02 11:39:40 | 49.38715 | 12.64403 | 94° | 73km/h | 15348m | 4.2m/s | -52.0°C | 4.2% | 120.6hPa | 2.7V | 00:00:00 | 00:56:39 | 00:00:00 | |
| OM5KV | 2026-09-02 11:39:36 | 49.38720 | 12.64316 | 98° | 75km/h | 15335m | 4.3m/s | 0°C | 0% | 0hPa | 2.7V | 00:00:00 | 00:00:00 | 00:00:00 | |
| DO3MHA-11 | 2026-09-02 11:39:33 | 49.38730 | 12.64201 | 98° | 73km/h | 15318m | 4.0m/s | -52.1°C | 4.0% | 121.1hPa | 2.7V | 00:00:00 | 00:56:32 | 00:00:00 | |
| DL6DJ-15 | 2026-09-02 11:39:32 | 49.38735 | 12.64144 | 96° | 71km/h | 15309m | 4.3m/s | -52.3°C | 1.6% | 121.3hPa | 2.7V | 00:00:00 | 00:00:00 | 00:00:00 | |
| DO8TBO-1 | 2026-09-02 11:39:31 | 49.38734 | 12.64144 | 97° | 69km/h | 15309m | 4.3m/s | -52.2°C | 4.1% | 121.3hPa | 2.7V | 00:00:00 | 00:56:30 | 00:00:00 | |
| OE5MMP-10 | 2026-09-02 11:39:30 | 49.38736 | 12.64116 | 96° | 73km/h | 15305m | 4.6m/s | -52.2°C | 4.1% | 121.4hPa | 2.7V | 00:00:00 | 00:56:29 | 00:00:00 | |
| PG1ADW-2 | 2026-09-02 11:39:28 | 49.38739 | 12.64058 | 94° | 71km/h | 15296m | 3.6m/s | -52.1°C | 4.0% | 121.6hPa | 2.7V | 04:28:00 | 00:00:00 | 00:00:00 | |
| DO3MHA-11 | 2026-09-02 11:39:23 | 49.38744 | 12.63919 | 92° | 71km/h | 15275m | 4.2m/s | -52.5°C | 4.2% | 121.9hPa | 2.7V | 00:00:00 | 00:56:22 | 00:00:00 | |
| OE5DXL-15 | 2026-09-02 11:39:22 | 49.38745 | 12.63890 | 93° | 69km/h | 15271m | 3.5m/s | -52.5°C | 4.2% | 122.0hPa | 2.7V | 00:00:00 | 00:00:00 | 00:00:00 | |
| OE5MMP-10 | 2026-09-02 11:39:20 | 49.38747 | 12.63834 | 96° | 69km/h | 15263m | 4.6m/s | -52.6°C | 4.3% | 122.2hPa | 2.7V | 04:28:00 | 00:56:19 | 00:00:00 | |
| OE5WHR-10 | 2026-09-02 11:39:19 | 49.38749 | 12.63808 | 96° | 71km/h | 15258m | 4.0m/s | -52.7°C | 4.3% | 122.3hPa | 2.7V | 00:00:00 | 00:00:00 | 00:00:00 | |
| S52SK | 2026-09-02 11:39:18 | 49.38750 | 12.63781 | 96° | 69km/h | 15254m | 4.6m/s | -52.8°C | 0% | 0hPa | 2.7V | 00:00:00 | 00:00:00 | 00:00:00 | |
| EDDB2-11 | 2026-09-02 11:39:17 | 49.38752 | 12.63754 | 93° | 69km/h | 15249m | 4.5m/s | -52.9°C | 1.7% | 122.5hPa | 2.7V | 00:00:00 | 00:00:00 | 00:00:00 | |
| DO3MHA-11 | 2026-09-02 11:39:13 | 49.38754 | 12.63647 | 91° | 71km/h | 15232m | 4.1m/s | -52.9°C | 4.4% | 122.8hPa | 2.7V | 00:00:00 | 00:56:12 | 00:00:00 | |
| OE5MMP-10 | 2026-09-02 11:39:10 | 49.38754 | 12.63565 | 92° | 71km/h | 15218m | 3.9m/s | -53.1°C | 4.3% | 123.0hPa | 2.7V | 00:00:00 | 00:56:09 | 00:00:00 | |
| PG1ADW-2 | 2026-09-02 11:39:08 | 49.38756 | 12.63509 | 93° | 69km/h | 15210m | 3.8m/s | -53.0°C | 4.3% | 123.2hPa | 2.7V | 00:00:00 | 00:00:00 | 00:00:00 | |
| DO3MHA-11 | 2026-09-02 11:39:03 | 49.38757 | 12.63368 | 92° | 68km/h | 15188m | 4.3m/s | -53.1°C | 4.4% | 123.6hPa | 2.7V | 04:28:00 | 00:56:02 | 00:00:00 | |
| EDDB2-11 | 2026-09-02 11:38:46 | 49.38737 | 12.62931 | 82° | 62km/h | 15116m | 5.2m/s | -53.7°C | 1.8% | 125.1hPa | 2.7V | 00:00:00 | 00:00:00 | 00:00:00 | |
| DO3MHA-11 | 2026-09-02 11:38:43 | 49.38730 | 12.62858 | 81° | 64km/h | 15102m | 5.2m/s | -53.6°C | 4.6% | 125.3hPa | 2.7V | 00:00:00 | 00:55:42 | 00:00:00 | |
| OE5MMP-10 | 2026-09-02 11:38:40 | 49.38722 | 12.62784 | 83° | 64km/h | 15089m | 4.6m/s | -53.7°C | 4.7% | 125.5hPa | 2.7V | 00:00:00 | 00:55:39 | 00:00:00 | |
| DL1JEZ-13 | 2026-09-02 11:38:37 | 49.38715 | 12.62711 | 81° | 64km/h | 15076m | 4.4m/s | -53.8°C | 0% | 0hPa | 2.7V | 00:00:00 | 00:00:00 | 00:00:00 | |
| OE5DRO-10 | 2026-09-02 11:38:35 | 49.38710 | 12.62662 | 82° | 57km/h | 15068m | 4.0m/s | -53.8°C | 4.7% | 125.9hPa | 2.7V | 00:00:00 | 00:00:00 | 00:00:00 | |
| S52SK | 2026-09-02 11:38:34 | 49.38710 | 12.62662 | 82° | 64km/h | 15068m | 4.0m/s | -53.9°C | 0% | 0hPa | 2.7V | 00:00:00 | 00:00:00 | 00:00:00 | |
| DO3MHA-11 | 2026-09-02 11:38:33 | 49.38706 | 12.62612 | 85° | 58km/h | 15060m | 3.5m/s | -53.9°C | 4.7% | 126.1hPa | 2.7V | 00:00:00 | 00:55:32 | 00:00:00 | |
| OE5MMP-10 | 2026-09-02 11:38:30 | 49.38699 | 12.62539 | 80° | 55km/h | 15047m | 3.6m/s | -53.9°C | 4.6% | 126.3hPa | 2.7V | 04:29:00 | 00:55:29 | 00:00:00 | |
| DL6DJ-15 | 2026-09-02 11:38:29 | 49.38696 | 12.62516 | 79° | 58km/h | 15043m | 4.9m/s | -54.0°C | 1.8% | 126.4hPa | 2.6V | 00:00:00 | 00:00:00 | 00:00:00 | |
| PG1ADW-2 | 2026-09-02 11:38:28 | 49.38693 | 12.62494 | 79° | 51km/h | 15039m | 4.6m/s | -53.9°C | 4.6% | 126.5hPa | 2.6V | 00:00:00 | 00:00:00 | 00:00:00 | |
| SONCRA | 2026-09-02 11:38:27 | 49.38691 | 12.62473 | 77° | 53km/h | 15034m | 3.9m/s | -53.8°C | 1.8% | 126.6hPa | 2.6V | 00:00:00 | 00:00:00 | 00:00:00 | |
| S52SK | 2026-09-02 11:38:25 | 49.38680 | 12.62414 | 73° | 53km/h | 15022m | 3.2m/s | -53.8°C | 0% | 0hPa | 2.6V | 00:00:00 | 00:00:00 | 00:00:00 | |
| DO3MHA-11 | 2026-09-02 11:38:23 | 49.38675 | 12.62395 | 73° | 53km/h | 15018m | 4.3m/s | -53.7°C | 4.7% | 126.9hPa | 2.6V | 00:00:00 | 00:55:22 | 00:00:00 | |
| OE5DXL-15 | 2026-09-02 11:38:22 | 49.38672 | 12.62376 | 75° | 51km/h | 15014m | 4.4m/s | -53.6°C | 4.8% | 127.0hPa | 2.7V | 00:00:00 | 00:00:00 | 00:00:00 | |
| ANDY1245 | 2026-09-02 11:38:20 | 49.38669 | 12.62357 | 78° | 49km/h | 15010m | 3.3m/s | 0°C | 0% | 0hPa | 2.7V | 04:29:00 | 00:00:00 | 00:00:00 | |
| DO8TBO-1 | 2026-09-02 11:38:17 | 49.38658 | 12.62276 | 81° | 49km/h | 14995m | 3.7m/s | -53.5°C | 4.7% | 127.4hPa | 2.7V | 00:00:00 | 00:55:16 | 00:00:00 | |
| OE5WHR-10 | 2026-09-02 11:38:16 | 49.38656 | 12.62256 | 82° | 51km/h | 14990m | 4.9m/s | -53.4°C | 4.7% | 127.5hPa | 2.7V | 04:29:00 | 00:00:00 | 00:00:00 | |
| EDDB2-11 | 2026-09-02 11:38:15 | 49.38654 | 12.62236 | 82° | 51km/h | 14985m | 4.3m/s | -53.5°C | 1.8% | 127.6hPa | 2.7V | 00:00:00 | 00:00:00 | 00:00:00 | |
| DO3MHA-11 | 2026-09-02 11:38:13 | 49.38651 | 12.62196 | 82° | 49km/h | 14977m | 4.9m/s | -53.5°C | 4.6% | 127.7hPa | 2.7V | 04:29:00 | 00:55:12 | 00:00:00 | |
| OE5MMP-10 | 2026-09-02 11:38:10 | 49.38643 | 12.62138 | 78° | 51km/h | 14964m | 5.1m/s | -53.4°C | 4.6% | 128.0hPa | 2.7V | 00:00:00 | 00:55:09 | 00:00:00 | |
| PG1ADW-2 | 2026-09-02 11:38:08 | 49.38639 | 12.62103 | 82° | 49km/h | 14956m | 4.1m/s | -53.3°C | 4.5% | 128.1hPa | 2.7V | 00:00:00 | 00:00:00 | 00:00:00 | |
| DO3MHA-11 | 2026-09-02 11:38:03 | 49.38637 | 12.62004 | 93° | 51km/h | 14933m | 3.9m/s | -53.2°C | 4.6% | 128.6hPa | 2.7V | 00:00:00 | 00:55:02 | 00:00:00 | |
| DL6DJ-15 | 2026-09-02 11:37:58 | 49.38634 | 12.61902 | 84° | 49km/h | 14911m | 4.9m/s | -53.1°C | 1.8% | 129.1hPa | 2.7V | 00:00:00 | 00:00:00 | 00:00:00 | |
| OE5DRO-10 | 2026-09-02 11:37:57 | 49.38633 | 12.61883 | 85° | 49km/h | 14907m | 3.6m/s | -53.0°C | 4.5% | 129.1hPa | 2.7V | 00:00:00 | 00:00:00 | 00:00:00 | |
| SP3BTT-10 | 2026-09-02 11:37:56 | 49.38632 | 12.61865 | 86° | 64km/h | 14903m | 4.0m/s | 0°C | 0% | 0hPa | 2.7V | 00:00:00 | 00:00:00 | 00:00:00 | |
| OE5WHR-10 | 2026-09-02 11:37:55 | 49.38631 | 12.61845 | 87° | 51km/h | 14898m | 5.1m/s | -53.0°C | 4.6% | 129.3hPa | 2.7V | 00:00:00 | 00:00:00 | 00:00:00 | |
| DO3MHA-11 | 2026-09-02 11:37:53 | 49.38631 | 12.61807 | 92° | 47km/h | 14890m | 4.4m/s | -53.0°C | 4.6% | 129.5hPa | 2.7V | 00:00:00 | 00:54:52 | 00:00:00 | |
| OE5DXL-15 | 2026-09-02 11:37:52 | 49.38632 | 12.61788 | 96° | 51km/h | 14885m | 5.3m/s | -52.9°C | 4.6% | 129.6hPa | 2.7V | 00:00:00 | 00:00:00 | 00:00:00 | |
| OE5MMP-10 | 2026-09-02 11:37:50 | 49.38634 | 12.61753 | 98° | 49km/h | 14876m | 4.3m/s | -52.8°C | 4.6% | 129.7hPa | 2.7V | 00:00:00 | 00:54:49 | 00:00:00 | |
| PG1ADW-2 | 2026-09-02 11:37:48 | 49.38637 | 12.61718 | 96° | 51km/h | 14867m | 3.4m/s | -52.8°C | 4.6% | 129.9hPa | 2.7V | 04:30:00 | 00:00:00 | 00:00:00 | |
| EDDB2-11 | 2026-09-02 11:37:44 | 49.38646 | 12.61625 | 98° | 55km/h | 14843m | 4.6m/s | -52.9°C | 1.9% | 130.4hPa | 2.7V | 00:00:00 | 00:00:00 | 00:00:00 | |
| DO3MHA-11 | 2026-09-02 11:37:43 | 49.38646 | 12.61625 | 99° | 53km/h | 14843m | 4.6m/s | -52.8°C | 4.6% | 130.4hPa | 2.7V | 00:00:00 | 00:54:42 | 00:00:00 | |
| DO8TBO-1 | 2026-09-02 11:37:42 | 49.38648 | 12.61603 | 99° | 55km/h | 14839m | 3.8m/s | -52.7°C | 4.6% | 130.5hPa | 2.7V | 04:30:00 | 00:54:41 | 00:00:00 | |
| OE5MMP-10 | 2026-09-02 11:37:40 | 49.38653 | 12.61559 | 102° | 49km/h | 14830m | 4.7m/s | -52.7°C | 4.5% | 130.7hPa | 2.7V | 04:30:00 | 00:54:39 | 00:00:00 | |
| OE5DRO-10 | 2026-09-02 11:37:38 | 49.38659 | 12.61517 | 102° | 53km/h | 14821m | 5.2m/s | -52.6°C | 4.4% | 130.8hPa | 2.7V | 00:00:00 | 00:00:00 | 00:00:00 | |
| S52SK | 2026-09-02 11:37:35 | 49.38663 | 12.61477 | 100° | 49km/h | 14812m | 3.9m/s | -52.6°C | 0% | 0hPa | 2.7V | 00:00:00 | 00:00:00 | 00:00:00 | |
| OE5WHR-10 | 2026-09-02 11:37:34 | 49.38668 | 12.61442 | 104° | 55km/h | 14802m | 4.6m/s | -52.4°C | 4.4% | 131.2hPa | 2.7V | 00:00:00 | 00:54:33 | 00:00:00 | |
| DO3MHA-11 | 2026-09-02 11:37:33 | 49.38670 | 12.61426 | 106° | 55km/h | 14798m | 3.5m/s | -52.4°C | 4.5% | 131.3hPa | 2.7V | 00:00:00 | 00:54:32 | 00:00:00 | |
| OE5MMP-10 | 2026-09-02 11:37:30 | 49.38679 | 12.61373 | 103° | 57km/h | 14784m | 3.8m/s | -52.2°C | 4.5% | 131.6hPa | 2.7V | 00:00:00 | 00:54:29 | 00:00:00 | |
| ANDY1245 | 2026-09-02 11:37:29 | 49.38679 | 12.61373 | 104° | 55km/h | 14784m | 3.8m/s | 0°C | 0% | 0hPa | 2.7V | 04:30:00 | 00:00:00 | 00:00:00 | |
| PG1ADW-2 | 2026-09-02 11:37:28 | 49.38686 | 12.61328 | 106° | 58km/h | 14777m | 4.4m/s | 0°C | 0% | 0hPa | 2.7V | 00:00:00 | 00:54:27 | 00:00:00 | |
| DL6DJ-15 | 2026-09-02 11:37:27 | 49.38691 | 12.61306 | 107° | 60km/h | 14772m | 5.6m/s | -52.3°C | 1.8% | 131.9hPa | 2.7V | 00:00:00 | 00:00:00 | 00:00:00 | |
| SONCRA | 2026-09-02 11:37:25 | 49.38705 | 12.61240 | 107° | 57km/h | 14758m | 4.8m/s | -52.1°C | 1.8% | 132.2hPa | 2.7V | 00:00:00 | 00:00:00 | 00:00:00 | |
| DO3MHA-11 | 2026-09-02 11:37:23 | 49.38710 | 12.61220 | 107° | 55km/h | 14754m | 3.6m/s | -52.1°C | 4.3% | 132.3hPa | 2.7V | 04:30:00 | 00:54:22 | 00:00:00 | |
| OE5DXL-15 | 2026-09-02 11:37:22 | 49.38713 | 12.61200 | 106° | 62km/h | 14750m | 3.4m/s | -52.1°C | 4.3% | 132.3hPa | 2.7V | 04:30:00 | 00:00:00 | 00:00:00 | |
| OE5MMP-10 | 2026-09-02 11:37:20 | 49.38721 | 12.61162 | 111° | 60km/h | 14740m | 5.8m/s | -52.1°C | 4.3% | 132.5hPa | 2.7V | 00:00:00 | 00:54:19 | 00:00:00 | |
| OE5DRO-10 | 2026-09-02 11:37:19 | 49.38726 | 12.61144 | 112° | 60km/h | 14735m | 4.5m/s | -52.0°C | 4.3% | 132.6hPa | 2.7V | 00:00:00 | 00:00:00 | 00:00:00 | |
| DO3MHA-11 | 2026-09-02 11:37:13 | 49.38752 | 12.61013 | 109° | 64km/h | 14708m | 4.2m/s | -52.0°C | 4.4% | 133.2hPa | 2.7V | 00:00:00 | 00:54:12 | 00:00:00 | |
| DO8TBO-1 | 2026-09-02 11:37:12 | 49.38757 | 12.60989 | 110° | 66km/h | 14704m | 3.3m/s | -52.1°C | 4.4% | 133.3hPa | 2.7V | 00:00:00 | 00:54:11 | 00:00:00 | |
| OE5MMP-10 | 2026-09-02 11:37:10 | 49.38768 | 12.60941 | 110° | 60km/h | 14695m | 5.0m/s | -52.2°C | 4.5% | 133.4hPa | 2.7V | 00:00:00 | 00:54:09 | 00:00:00 | |
| PG1ADW-2 | 2026-09-02 11:37:08 | 49.38780 | 12.60893 | 114° | 66km/h | 14686m | 4.6m/s | -52.3°C | 4.5% | 133.6hPa | 2.7V | 00:00:00 | 00:00:00 | 00:00:00 | |
| DO3MHA-11 | 2026-09-02 11:37:03 | 49.38813 | 12.60786 | 110° | 64km/h | 14663m | 4.4m/s | -52.5°C | 4.4% | 134.1hPa | 2.7V | 00:00:00 | 00:54:02 | 00:00:00 | |
| DL6DJ-15 | 2026-09-02 11:36:56 | 49.38853 | 12.60630 | 111° | 68km/h | 14634m | 4.5m/s | -52.5°C | 1.9% | 134.7hPa | 2.7V | 00:00:00 | 00:00:00 | 00:00:00 | |
| SONCRA | 2026-09-02 11:36:54 | 49.38892 | 12.60478 | 108° | 69km/h | 14608m | 4.5m/s | -52.6°C | 2.0% | 135.3hPa | 2.7V | 00:00:00 | 00:00:00 | 00:00:00 | |
| DO3MHA-11 | 2026-09-02 11:36:53 | 49.38873 | 12.60554 | 113° | 71km/h | 14622m | 5.1m/s | -52.5°C | 4.5% | 134.9hPa | 2.7V | 00:00:00 | 00:53:52 | 00:00:00 | |
| OE5WHR-10 | 2026-09-02 11:36:52 | 49.38879 | 12.60529 | 113° | 71km/h | 14617m | 3.8m/s | -52.4°C | 4.5% | 135.0hPa | 2.7V | 00:00:00 | 00:00:00 | 00:00:00 | |
| OE5MMP-10 | 2026-09-02 11:36:50 | 49.38892 | 12.60477 | 109° | 69km/h | 14609m | 4.4m/s | -52.5°C | 4.6% | 135.2hPa | 2.7V | 04:31:00 | 00:53:49 | 00:00:00 | |
| PG1ADW-2 | 2026-09-02 11:36:48 | 49.38903 | 12.60425 | 108° | 71km/h | 14601m | 4.8m/s | -52.6°C | 4.7% | 135.4hPa | 2.7V | 00:00:00 | 00:00:00 | 00:00:00 | |
| S52SK | 2026-09-02 11:36:46 | 49.38908 | 12.60399 | 108° | 71km/h | 14596m | 4.1m/s | -52.6°C | 0% | 0hPa | 2.7V | 00:00:00 | 00:00:00 | 00:00:00 | |
| DO3MHA-11 | 2026-09-02 11:36:43 | 49.38926 | 12.60295 | 105° | 71km/h | 14579m | 4.0m/s | -52.6°C | 4.6% | 135.8hPa | 2.7V | 00:00:00 | 00:53:42 | 00:00:00 | |
| EDDB2-11 | 2026-09-02 11:36:42 | 49.38936 | 12.60244 | 108° | 68km/h | 14571m | 3.3m/s | -52.6°C | 2.0% | 136.1hPa | 2.7V | 00:00:00 | 00:00:00 | 00:00:00 | |
| S52SK | 2026-09-02 11:36:41 | 49.38936 | 12.60244 | 109° | 68km/h | 14571m | 3.3m/s | -52.6°C | 0% | 0hPa | 2.7V | 00:00:00 | 00:00:00 | 00:00:00 | |
| OE5MMP-10 | 2026-09-02 11:36:39 | 49.38947 | 12.60193 | 109° | 71km/h | 14564m | 4.3m/s | -52.6°C | 4.5% | 136.2hPa | 2.7V | 00:00:00 | 00:53:38 | 00:00:00 | |
| S52SK | 2026-09-02 11:36:35 | 49.38964 | 12.60113 | 109° | 71km/h | 14552m | 4.7m/s | -52.7°C | 0% | 0hPa | 2.7V | 00:00:00 | 00:00:00 | 00:00:00 | |
| DO3MHA-11 | 2026-09-02 11:36:33 | 49.38980 | 12.60033 | 106° | 69km/h | 14539m | 4.9m/s | -52.7°C | 4.5% | 136.7hPa | 2.7V | 04:31:00 | 00:53:32 | 00:00:00 | |
| OE5WHR-10 | 2026-09-02 11:36:31 | 49.38988 | 12.59978 | 103° | 66km/h | 14531m | 3.7m/s | -52.7°C | 4.6% | 136.9hPa | 2.7V | 04:31:00 | 00:53:30 | 00:00:00 | |
| ANDY1245 | 2026-09-02 11:36:30 | 49.38988 | 12.59978 | 103° | 73km/h | 14531m | 3.8m/s | 0°C | 0% | 0hPa | 2.7V | 00:00:00 | 00:00:00 | 00:00:00 | |
| OE5MMP-10 | 2026-09-02 11:36:29 | 49.38996 | 12.59924 | 103° | 66km/h | 14522m | 4.5m/s | -52.6°C | 4.6% | 137.1hPa | 2.7V | 00:00:00 | 00:53:28 | 00:00:00 | |
| PG1ADW-2 | 2026-09-02 11:36:28 | 49.39000 | 12.59898 | 104° | 66km/h | 14518m | 3.9m/s | -52.7°C | 4.5% | 137.1hPa | 2.7V | 00:00:00 | 00:00:00 | 00:00:00 | |
| DL6DJ-15 | 2026-09-02 11:36:25 | 49.39011 | 12.59822 | 102° | 66km/h | 14505m | 3.5m/s | -52.9°C | 2.0% | 137.4hPa | 2.7V | 00:00:00 | 00:00:00 | 00:00:00 | |
| SONCRA | 2026-09-02 11:36:23 | 49.39021 | 12.59749 | 101° | 62km/h | 14492m | 3.8m/s | -53.1°C | 2.0% | 137.7hPa | 2.7V | 00:00:00 | 00:00:00 | 00:00:00 | |
| OE5DXL-15 | 2026-09-02 11:36:22 | 49.39021 | 12.59749 | 102° | 68km/h | 14492m | 3.7m/s | -53.1°C | 4.7% | 137.7hPa | 2.7V | 00:00:00 | 00:00:00 | 00:00:00 | |
| OE5MMP-10 | 2026-09-02 11:36:19 | 49.39030 | 12.59675 | 100° | 66km/h | 14481m | 3.1m/s | -53.4°C | 4.8% | 137.9hPa | 2.7V | 00:00:00 | 00:53:18 | 00:00:00 | |
| DL1JEZ-13 | 2026-09-02 11:36:14 | 49.39042 | 12.59578 | 101° | 64km/h | 14464m | 4.4m/s | 0°C | 0% | 0hPa | 2.7V | 00:00:00 | 00:00:00 | 00:00:00 | |
| DO3MHA-11 | 2026-09-02 11:36:13 | 49.39047 | 12.59527 | 99° | 68km/h | 14455m | 3.7m/s | -53.5°C | 4.9% | 138.5hPa | 2.7V | 00:00:00 | 00:53:12 | 00:00:00 | |
| DO8TBO-1 | 2026-09-02 11:36:12 | 49.39050 | 12.59501 | 99° | 69km/h | 14451m | 4.6m/s | -53.5°C | 5.0% | 138.5hPa | 2.7V | 00:00:00 | 00:53:11 | 00:00:00 | |
| EDDB2-11 | 2026-09-02 11:36:11 | 49.39055 | 12.59450 | 97° | 66km/h | 14443m | 3.7m/s | -53.4°C | 2.1% | 138.8hPa | 2.7V | 00:00:00 | 00:00:00 | 00:00:00 | |
| OE5WHR-10 | 2026-09-02 11:36:10 | 49.39055 | 12.59450 | 98° | 68km/h | 14443m | 3.7m/s | -53.4°C | 4.9% | 138.7hPa | 2.7V | 00:00:00 | 00:00:00 | 00:00:00 | |
| OE5MMP-10 | 2026-09-02 11:36:09 | 49.39057 | 12.59424 | 97° | 68km/h | 14438m | 4.9m/s | -53.4°C | 4.9% | 138.8hPa | 2.7V | 00:00:00 | 00:53:08 | 00:00:00 | |
| PG1ADW-2 | 2026-09-02 11:36:08 | 49.39058 | 12.59397 | 96° | 68km/h | 14433m | 4.6m/s | -53.4°C | 4.9% | 138.9hPa | 2.7V | 04:31:00 | 00:53:07 | 00:00:00 | |
| DO3MHA-11 | 2026-09-02 11:36:03 | 49.39066 | 12.59265 | 97° | 69km/h | 14412m | 4.9m/s | -53.1°C | 4.8% | 139.4hPa | 2.7V | 00:00:00 | 00:53:02 | 00:00:00 | |
| DL6DJ-15 | 2026-09-02 11:35:54 | 49.39098 | 12.59031 | 102° | 64km/h | 14373m | 4.7m/s | -53.2°C | 2.1% | 140.3hPa | 2.7V | 00:00:00 | 00:00:00 | 00:00:00 | |
| SONCRA | 2026-09-02 11:35:52 | 49.39107 | 12.58958 | 98° | 64km/h | 14359m | 5.2m/s | -53.1°C | 2.1% | 140.6hPa | 2.7V | 00:00:00 | 00:00:00 | 00:00:00 | |
| OE5WHR-10 | 2026-09-02 11:35:49 | 49.39112 | 12.58907 | 99° | 71km/h | 14351m | 4.7m/s | -53.1°C | 4.8% | 140.7hPa | 2.7V | 00:00:00 | 00:00:00 | 00:00:00 | |
| PG1ADW-2 | 2026-09-02 11:35:48 | 49.39114 | 12.58882 | 100° | 71km/h | 14346m | 4.7m/s | -53.0°C | 4.8% | 140.8hPa | 2.7V | 00:00:00 | 00:00:00 | 00:00:00 | |
| OE5MMP-10 | 2026-09-02 11:35:46 | 49.39121 | 12.58829 | 101° | 73km/h | 14337m | 4.8m/s | -53.0°C | 4.8% | 141.0hPa | 2.7V | 00:00:00 | 00:52:45 | 00:00:00 | |
| DO3MHA-11 | 2026-09-02 11:35:43 | 49.39133 | 12.58744 | 105° | 73km/h | 14324m | 4.6m/s | -52.9°C | 4.8% | 141.3hPa | 2.7V | 04:32:00 | 00:52:42 | 00:00:00 | |
| DO8TBO-1 | 2026-09-02 11:35:42 | 49.39138 | 12.58716 | 106° | 71km/h | 14320m | 3.8m/s | -52.8°C | 4.8% | 141.4hPa | 2.7V | 00:00:00 | 00:52:41 | 00:00:00 | |
| S52SK | 2026-09-02 11:35:41 | 49.39138 | 12.58716 | 106° | 73km/h | 14320m | 3.8m/s | 0°C | 0% | 0hPa | 2.7V | 00:00:00 | 00:00:00 | 00:00:00 | |
| EDDB2-11 | 2026-09-02 11:35:40 | 49.39151 | 12.58635 | 102° | 71km/h | 14308m | 3.8m/s | -52.8°C | 2.0% | 141.7hPa | 2.7V | 00:00:00 | 00:00:00 | 00:00:00 | |
| OE5MMP-10 | 2026-09-02 11:35:36 | 49.39163 | 12.58556 | 106° | 71km/h | 14295m | 4.0m/s | -52.7°C | 4.7% | 142.0hPa | 2.7V | 00:00:00 | 00:52:35 | 00:00:00 | |
| S52SK | 2026-09-02 11:35:34 | 49.39168 | 12.58531 | 106° | 68km/h | 14291m | 4.1m/s | 0°C | 0% | 0hPa | 2.7V | 00:00:00 | 00:00:00 | 00:00:00 | |
| DO3MHA-11 | 2026-09-02 11:35:32 | 49.39180 | 12.58451 | 103° | 69km/h | 14278m | 4.2m/s | -52.6°C | 4.7% | 142.3hPa | 2.7V | 00:00:00 | 00:52:31 | 00:00:00 | |
| OE5WHR-10 | 2026-09-02 11:35:28 | 49.39197 | 12.58338 | 102° | 71km/h | 14260m | 4.0m/s | -52.5°C | 4.7% | 142.7hPa | 2.7V | 00:00:00 | 00:52:27 | 00:00:00 | |
| OE5MMP-10 | 2026-09-02 11:35:26 | 49.39205 | 12.58282 | 104° | 69km/h | 14252m | 4.5m/s | -52.5°C | 4.7% | 142.9hPa | 2.7V | 00:00:00 | 00:52:25 | 00:00:00 | |
| SP3BTT-10 | 2026-09-02 11:35:24 | 49.39213 | 12.58229 | 103° | 69km/h | 14243m | 4.4m/s | 0°C | 0% | 0hPa | 2.7V | 00:00:00 | 00:00:00 | 00:00:00 | |
| DL6DJ-15 | 2026-09-02 11:35:23 | 49.39217 | 12.58203 | 101° | 68km/h | 14239m | 4.7m/s | -52.4°C | 2.0% | 143.2hPa | 2.7V | 00:00:00 | 00:00:00 | 00:00:00 | |
| OE5DXL-15 | 2026-09-02 11:35:22 | 49.39220 | 12.58177 | 101° | 69km/h | 14234m | 3.9m/s | -52.4°C | 4.6% | 143.3hPa | 2.7V | 00:00:00 | 00:00:00 | 00:00:00 | |
| ANDY1245 | 2026-09-02 11:35:21 | 49.39220 | 12.58177 | 101° | 68km/h | 14234m | 4.0m/s | 0°C | 0% | 0hPa | 2.7V | 00:00:00 | 00:00:00 | 00:00:00 | |
| SONCRA | 2026-09-02 11:35:20 | 49.39230 | 12.58100 | 100° | 68km/h | 14220m | 4.7m/s | -52.4°C | 2.0% | 143.7hPa | 2.7V | 00:00:00 | 00:00:00 | 00:00:00 | |
| OE5MMP-10 | 2026-09-02 11:35:16 | 49.39240 | 12.58017 | 102° | 71km/h | 14208m | 4.1m/s | -52.2°C | 4.6% | 143.9hPa | 2.7V | 00:00:00 | 00:52:15 | 00:00:00 | |
| DO8TBO-1 | 2026-09-02 11:35:12 | 49.39257 | 12.57909 | 104° | 66km/h | 14191m | 4.8m/s | -52.1°C | 4.6% | 144.3hPa | 2.7V | 04:32:00 | 00:52:11 | 00:00:00 | |
| EDDB2-11 | 2026-09-02 11:35:09 | 49.39273 | 12.57803 | 104° | 68km/h | 14173m | 3.7m/s | -52.0°C | 2.0% | 144.7hPa | 2.7V | 00:00:00 | 00:00:00 | 00:00:00 | |
| PG1ADW-2 | 2026-09-02 11:35:08 | 49.39273 | 12.57803 | 105° | 69km/h | 14173m | 3.6m/s | -52.0°C | 4.7% | 144.7hPa | 2.7V | 00:00:00 | 00:00:00 | 00:00:00 | |
| OE5WHR-10 | 2026-09-02 11:35:07 | 49.39277 | 12.57777 | 104° | 69km/h | 14169m | 3.0m/s | -52.0°C | 4.7% | 144.7hPa | 2.7V | 00:00:00 | 00:00:00 | 00:00:00 | |
| OE5MMP-10 | 2026-09-02 11:35:06 | 49.39281 | 12.57751 | 103° | 69km/h | 14165m | 4.9m/s | -52.0°C | 4.6% | 144.8hPa | 2.7V | 04:32:00 | 00:52:05 | 00:00:00 | |
| DL6DJ-15 | 2026-09-02 11:34:52 | 49.39328 | 12.57359 | 94° | 66km/h | 14100m | 5.0m/s | -51.6°C | 1.9% | 146.3hPa | 2.7V | 00:00:00 | 00:00:00 | 00:00:00 | |
| SONCRA | 2026-09-02 11:34:49 | 49.39331 | 12.57307 | 94° | 68km/h | 14092m | 4.7m/s | -51.5°C | 1.9% | 146.5hPa | 2.7V | 00:00:00 | 00:00:00 | 00:00:00 | |
| PG1ADW-2 | 2026-09-02 11:34:48 | 49.39332 | 12.57281 | 96° | 66km/h | 14087m | 4.7m/s | -51.5°C | 4.5% | 146.6hPa | 2.7V | 00:00:00 | 00:51:47 | 00:00:00 | |
| OE5WHR-10 | 2026-09-02 11:34:46 | 49.39336 | 12.57227 | 98° | 66km/h | 14079m | 4.9m/s | -51.5°C | 4.5% | 146.7hPa | 2.7V | 04:33:00 | 00:00:00 | 00:00:00 | |
| EDDB2-11 | 2026-09-02 11:34:38 | 49.39349 | 12.57010 | 92° | 64km/h | 14039m | 5.1m/s | -51.3°C | 1.9% | 147.7hPa | 2.7V | 00:00:00 | 00:00:00 | 00:00:00 | |
| OE5MMP-10 | 2026-09-02 11:34:36 | 49.39349 | 12.56984 | 95° | 68km/h | 14035m | 3.5m/s | -51.2°C | 4.3% | 147.8hPa | 2.7V | 00:00:00 | 00:51:35 | 00:00:00 | |
| PG1ADW-2 | 2026-09-02 11:34:28 | 49.39370 | 12.56774 | 99° | 66km/h | 13999m | 4.0m/s | -51.5°C | 4.4% | 148.6hPa | 2.7V | 04:33:00 | 00:00:00 | 00:00:00 | |
| ANDY1245 | 2026-09-02 11:34:27 | 49.39369 | 12.56774 | 99° | 62km/h | 13999m | 4.1m/s | 0°C | 0% | 0hPa | 2.7V | 00:00:00 | 00:00:00 | 00:00:00 | |
| OE5MMP-10 | 2026-09-02 11:34:26 | 49.39373 | 12.56726 | 96° | 66km/h | 13991m | 4.4m/s | -51.6°C | 4.4% | 148.8hPa | 2.7V | 00:00:00 | 00:51:25 | 00:00:00 | |
| OE5WHR-10 | 2026-09-02 11:34:25 | 49.39375 | 12.56702 | 96° | 66km/h | 13987m | 2.9m/s | -51.7°C | 4.5% | 148.9hPa | 2.7V | 00:00:00 | 00:51:24 | 00:00:00 | |
| OE5DXL-15 | 2026-09-02 11:34:22 | 49.39381 | 12.56628 | 99° | 62km/h | 13974m | 3.7m/s | -51.7°C | 4.5% | 149.1hPa | 2.7V | 00:00:00 | 00:00:00 | 00:00:00 | |
| DL6DJ-15 | 2026-09-02 11:34:21 | 49.39386 | 12.56576 | 97° | 68km/h | 13966m | 3.9m/s | -51.8°C | 2.0% | 149.4hPa | 2.7V | 00:00:00 | 00:00:00 | 00:00:00 | |
| SONCRA | 2026-09-02 11:34:18 | 49.39394 | 12.56498 | 100° | 66km/h | 13952m | 4.0m/s | -51.9°C | 2.0% | 149.7hPa | 2.7V | 00:00:00 | 00:00:00 | 00:00:00 | |
| OE5MMP-10 | 2026-09-02 11:34:16 | 49.39397 | 12.56473 | 100° | 64km/h | 13948m | 4.6m/s | -51.9°C | 4.6% | 149.8hPa | 2.7V | 04:33:00 | 00:51:15 | 00:00:00 | |
| DO3MHA-11 | 2026-09-02 11:34:10 | 49.39410 | 12.56325 | 96° | 64km/h | 13922m | 4.4m/s | -51.8°C | 4.7% | 150.4hPa | 2.7V | 00:00:00 | 00:51:09 | 00:00:00 | |
| PG1ADW-2 | 2026-09-02 11:34:08 | 49.39414 | 12.56276 | 101° | 60km/h | 13914m | 4.8m/s | -51.8°C | 4.7% | 150.6hPa | 2.7V | 00:00:00 | 00:00:00 | 00:00:00 | |
| OE5MMP-10 | 2026-09-02 11:34:06 | 49.39421 | 12.56228 | 104° | 60km/h | 13905m | 3.9m/s | -51.9°C | 4.7% | 150.8hPa | 2.7V | 00:00:00 | 00:51:05 | 00:00:00 | |
| OE5WHR-10 | 2026-09-02 11:34:04 | 49.39428 | 12.56180 | 103° | 57km/h | 13896m | 4.0m/s | -51.8°C | 4.6% | 151.0hPa | 2.7V | 00:00:00 | 00:00:00 | 00:00:00 | |
| DL6DJ-15 | 2026-09-02 11:33:50 | 49.39480 | 12.55849 | 105° | 55km/h | 13828m | 4.5m/s | -51.4°C | 2.1% | 152.6hPa | 2.7V | 00:00:00 | 00:00:00 | 00:00:00 | |
| PG1ADW-2 | 2026-09-02 11:33:48 | 49.39483 | 12.55829 | 104° | 53km/h | 13824m | 4.3m/s | -51.3°C | 4.5% | 152.7hPa | 2.7V | 00:00:00 | 00:00:00 | 00:00:00 | |
| OE5MMP-10 | 2026-09-02 11:33:45 | 49.39494 | 12.55771 | 109° | 51km/h | 13811m | 4.3m/s | -51.2°C | 4.5% | 152.9hPa | 2.7V | 00:00:00 | 00:50:44 | 00:00:00 | |
| OE5WHR-10 | 2026-09-02 11:33:43 | 49.39502 | 12.55733 | 107° | 53km/h | 13803m | 4.6m/s | -51.2°C | 4.5% | 153.1hPa | 2.7V | 00:00:00 | 00:00:00 | 00:00:00 | |
| DO3MHA-11 | 2026-09-02 11:33:40 | 49.39514 | 12.55677 | 111° | 53km/h | 13789m | 4.7m/s | -51.1°C | 4.5% | 153.4hPa | 2.7V | 00:00:00 | 00:50:39 | 00:00:00 | |
| DO8TBO-1 | 2026-09-02 11:33:36 | 49.39531 | 12.55602 | 109° | 58km/h | 13773m | 3.9m/s | -51.0°C | 4.4% | 153.9hPa | 2.7V | 00:00:00 | 00:50:35 | 00:00:00 | |
| OE5MMP-10 | 2026-09-02 11:33:35 | 49.39535 | 12.55583 | 112° | 55km/h | 13768m | 5.3m/s | -51.1°C | 4.4% | 154.0hPa | 2.7V | 00:00:00 | 00:50:34 | 00:00:00 | |
| DO3MHA-11 | 2026-09-02 11:33:30 | 49.39561 | 12.55480 | 111° | 60km/h | 13746m | 4.8m/s | -51.4°C | 4.5% | 154.5hPa | 2.7V | 00:00:00 | 00:50:29 | 00:00:00 | |
| PG1ADW-2 | 2026-09-02 11:33:28 | 49.39571 | 12.55441 | 112° | 58km/h | 13737m | 3.4m/s | -51.5°C | 4.5% | 154.7hPa | 2.7V | 00:00:00 | 00:50:27 | 00:00:00 | |
| OE5MMP-10 | 2026-09-02 11:33:24 | 49.39587 | 12.55361 | 107° | 58km/h | 13721m | 3.9m/s | -51.5°C | 4.5% | 155.1hPa | 2.7V | 04:34:00 | 00:50:23 | 00:00:00 | |
| OE5WHR-10 | 2026-09-02 11:33:22 | 49.39597 | 12.55320 | 114° | 60km/h | 13713m | 3.7m/s | -51.5°C | 4.5% | 155.3hPa | 2.7V | 00:00:00 | 00:50:21 | 00:00:00 | |
| DO3MHA-11 | 2026-09-02 11:33:18 | 49.39621 | 12.55234 | 112° | 60km/h | 13697m | 4.2m/s | -51.6°C | 4.5% | 155.7hPa | 2.7V | 00:00:00 | 00:50:17 | 00:00:00 | |
| SONCRA | 2026-09-02 11:33:16 | 49.39633 | 12.55192 | 113° | 58km/h | 13688m | 4.2m/s | -51.6°C | 2.0% | 155.9hPa | 2.7V | 00:00:00 | 00:00:00 | 00:00:00 | |
| OE5MMP-10 | 2026-09-02 11:33:14 | 49.39645 | 12.55149 | 115° | 60km/h | 13680m | 4.0m/s | -51.6°C | 4.5% | 156.1hPa | 2.7V | 00:00:00 | 00:50:13 | 00:00:00 | |
| DO3MHA-11 | 2026-09-02 11:33:08 | 49.39680 | 12.55019 | 116° | 60km/h | 13656m | 3.5m/s | -51.8°C | 4.7% | 156.7hPa | 2.7V | 00:00:00 | 00:50:07 | 00:00:00 | |
| DO8TBO-1 | 2026-09-02 11:33:06 | 49.39692 | 12.54978 | 114° | 60km/h | 13649m | 4.4m/s | -51.8°C | 4.6% | 156.8hPa | 2.7V | 00:00:00 | 00:50:05 | 00:00:00 | |
| DL6DJ-15 | 2026-09-02 11:32:48 | 49.39802 | 12.54569 | 107° | 55km/h | 13572m | 3.5m/s | -51.7°C | 2.0% | 158.7hPa | 2.7V | 00:00:00 | 00:00:00 | 00:00:00 | |
| OE5MMP-10 | 2026-09-02 11:32:43 | 49.39821 | 12.54481 | 108° | 62km/h | 13557m | 4.3m/s | -51.6°C | 4.5% | 159.1hPa | 2.7V | 00:00:00 | 00:49:42 | 00:00:00 | |
| OE5WHR-10 | 2026-09-02 11:32:40 | 49.39836 | 12.54410 | 108° | 62km/h | 13545m | 5.0m/s | -51.7°C | 4.5% | 159.4hPa | 2.7V | 00:00:00 | 00:00:00 | 00:00:00 | |
| DO3MHA-11 | 2026-09-02 11:32:36 | 49.39853 | 12.54317 | 104° | 60km/h | 13529m | 3.3m/s | -51.7°C | 4.4% | 159.8hPa | 2.7V | 00:00:00 | 00:49:35 | 00:00:00 | |
| OE5MMP-10 | 2026-09-02 11:32:33 | 49.39864 | 12.54252 | 104° | 62km/h | 13517m | 3.3m/s | -52.0°C | 4.5% | 160.1hPa | 2.7V | 04:35:00 | 00:49:32 | 00:00:00 | |
| PG1ADW-2 | 2026-09-02 11:32:28 | 49.39880 | 12.54143 | 104° | 64km/h | 13496m | 3.3m/s | -52.1°C | 4.5% | 160.6hPa | 2.7V | 00:00:00 | 00:00:00 | 00:00:00 | |
| DO3MHA-11 | 2026-09-02 11:32:26 | 49.39887 | 12.54094 | 103° | 64km/h | 13487m | 3.9m/s | -52.1°C | 4.5% | 160.8hPa | 2.7V | 00:00:00 | 00:49:25 | 00:00:00 | |
| OE5MMP-10 | 2026-09-02 11:32:23 | 49.39898 | 12.54019 | 103° | 64km/h | 13475m | 3.4m/s | -52.2°C | 4.5% | 161.1hPa | 2.7V | 00:00:00 | 00:49:22 | 00:00:00 | |
| OE5DXL-15 | 2026-09-02 11:32:22 | 49.39901 | 12.53994 | 101° | 60km/h | 13470m | 5.1m/s | -52.2°C | 4.5% | 161.2hPa | 2.7V | 04:35:00 | 00:00:00 | 00:00:00 | |
| OE5WHR-10 | 2026-09-02 11:32:19 | 49.39908 | 12.53919 | 97° | 62km/h | 13459m | 4.0m/s | -52.2°C | 4.5% | 161.6hPa | 2.7V | 00:00:00 | 00:49:18 | 00:00:00 | |
| DO3MHA-11 | 2026-09-02 11:32:16 | 49.39915 | 12.53850 | 99° | 64km/h | 13448m | 3.7m/s | -52.1°C | 4.6% | 161.8hPa | 2.7V | 00:00:00 | 00:49:15 | 00:00:00 | |
| OE5MMP-10 | 2026-09-02 11:32:13 | 49.39923 | 12.53779 | 103° | 62km/h | 13437m | 3.7m/s | -52.1°C | 4.6% | 162.1hPa | 2.7V | 00:00:00 | 00:49:12 | 00:00:00 | |
| ANDY1245 | 2026-09-02 11:32:11 | 49.39927 | 12.53756 | 105° | 62km/h | 13433m | 4.4m/s | 0°C | 0% | 0hPa | 2.7V | 00:00:00 | 00:00:00 | 00:00:00 | |
| PG1ADW-2 | 2026-09-02 11:32:08 | 49.39942 | 12.53659 | 101° | 58km/h | 13417m | 3.0m/s | -52.0°C | 4.6% | 162.6hPa | 2.7V | 00:00:00 | 00:49:07 | 00:00:00 | |
| DO3MHA-11 | 2026-09-02 11:32:06 | 49.39948 | 12.53611 | 100° | 60km/h | 13409m | 4.4m/s | -52.1°C | 4.6% | 162.8hPa | 2.7V | 04:35:00 | 00:49:05 | 00:00:00 | |
| OE5MMP-10 | 2026-09-02 11:32:03 | 49.39956 | 12.53543 | 101° | 58km/h | 13398m | 4.1m/s | -51.9°C | 4.5% | 163.1hPa | 2.7V | 00:00:00 | 00:49:02 | 00:00:00 | |
| EDDB2-11 | 2026-09-02 11:32:02 | 49.39958 | 12.53520 | 100° | 60km/h | 13394m | 4.0m/s | -52.1°C | 2.0% | 163.2hPa | 2.7V | 00:00:00 | 00:00:00 | 00:00:00 | |
| DL6DJ-15 | 2026-09-02 11:31:46 | 49.40020 | 12.53147 | 106° | 57km/h | 13324m | 3.1m/s | -52.0°C | 2.0% | 165.0hPa | 2.7V | 00:00:00 | 00:00:00 | 00:00:00 | |
| OE5MMP-10 | 2026-09-02 11:31:43 | 49.40028 | 12.53106 | 107° | 58km/h | 13316m | 3.9m/s | -51.9°C | 4.6% | 165.1hPa | 2.7V | 04:36:00 | 00:48:42 | 00:00:00 | |
| OE5WHR-10 | 2026-09-02 11:31:37 | 49.40055 | 12.52979 | 112° | 58km/h | 13293m | 4.5m/s | -51.7°C | 4.6% | 165.7hPa | 2.7V | 00:00:00 | 00:00:00 | 00:00:00 | |
| DO8TBO-1 | 2026-09-02 11:31:36 | 49.40060 | 12.52957 | 113° | 58km/h | 13289m | 3.4m/s | -51.7°C | 4.6% | 165.8hPa | 2.7V | 00:00:00 | 00:48:35 | 00:00:00 | |
| OE5MMP-10 | 2026-09-02 11:31:33 | 49.40077 | 12.52892 | 111° | 57km/h | 13277m | 2.9m/s | -51.6°C | 4.4% | 166.1hPa | 2.7V | 00:00:00 | 00:48:32 | 00:00:00 | |
| DO3MHA-11 | 2026-09-02 11:31:29 | 49.40098 | 12.52810 | 113° | 58km/h | 13261m | 4.0m/s | -51.6°C | 4.3% | 166.5hPa | 2.7V | 00:00:00 | 00:48:28 | 00:00:00 | |
| PG1ADW-2 | 2026-09-02 11:31:28 | 49.40103 | 12.52790 | 112° | 58km/h | 13257m | 4.6m/s | -51.6°C | 4.3% | 166.7hPa | 2.7V | 00:00:00 | 00:00:00 | 00:00:00 | |
| OE5DXL-15 | 2026-09-02 11:31:22 | 49.40138 | 12.52667 | 116° | 60km/h | 13233m | 4.6m/s | -51.3°C | 4.4% | 167.3hPa | 2.7V | 00:00:00 | 00:00:00 | 00:00:00 | |
| DO3MHA-11 | 2026-09-02 11:31:19 | 49.40159 | 12.52603 | 120° | 62km/h | 13221m | 4.0m/s | -51.2°C | 4.4% | 167.6hPa | 2.7V | 00:00:00 | 00:48:18 | 00:00:00 | |
| OE5WHR-10 | 2026-09-02 11:31:16 | 49.40182 | 12.52543 | 121° | 60km/h | 13209m | 4.9m/s | -51.3°C | 4.3% | 167.9hPa | 2.7V | 04:36:00 | 00:48:15 | 00:00:00 | |
| DL6DJ-15 | 2026-09-02 11:31:14 | 49.40198 | 12.52504 | 121° | 57km/h | 13201m | 4.5m/s | -51.4°C | 1.9% | 168.2hPa | 2.7V | 00:00:00 | 00:00:00 | 00:00:00 | |
| OE5MMP-10 | 2026-09-02 11:31:13 | 49.40205 | 12.52485 | 122° | 60km/h | 13196m | 4.0m/s | -51.4°C | 4.2% | 168.2hPa | 2.7V | 00:00:00 | 00:48:12 | 00:00:00 | |
| SONCRA | 2026-09-02 11:31:12 | 49.40212 | 12.52467 | 121° | 53km/h | 13192m | 3.4m/s | -51.5°C | 1.9% | 168.4hPa | 2.7V | 00:00:00 | 00:00:00 | 00:00:00 | |
| PG1ADW-2 | 2026-09-02 11:31:08 | 49.40250 | 12.52367 | 118° | 62km/h | 13174m | 4.1m/s | -51.5°C | 4.4% | 168.8hPa | 2.7V | 04:36:00 | 00:00:00 | 00:00:00 | |
| DO3MHA-11 | 2026-09-02 11:31:06 | 49.40258 | 12.52345 | 117° | 60km/h | 13169m | 4.8m/s | -51.5°C | 4.4% | 168.9hPa | 2.7V | 04:36:00 | 00:48:05 | 00:00:00 | |
| DO9HM | 2026-09-02 11:31:05 | 49.40258 | 12.52345 | 118° | 62km/h | 13169m | 4.9m/s | -51.5°C | 2.0% | 169.0hPa | 2.7V | 04:37:00 | 00:00:00 | 00:00:00 | |
| OE5MMP-10 | 2026-09-02 11:31:03 | 49.40279 | 12.52282 | 121° | 62km/h | 13157m | 4.8m/s | -51.5°C | 4.5% | 169.2hPa | 2.7V | 00:00:00 | 00:48:02 | 00:00:00 | |
| EDDB2-11 | 2026-09-02 11:31:00 | 49.40306 | 12.52224 | 128° | 60km/h | 13145m | 4.3m/s | -51.4°C | 2.0% | 169.6hPa | 2.7V | 00:00:00 | 00:00:00 | 00:00:00 | |
| DO3MHA-11 | 2026-09-02 11:30:56 | 49.40344 | 12.52151 | 129° | 64km/h | 13129m | 3.5m/s | -51.3°C | 4.4% | 170.0hPa | 2.7V | 00:00:00 | 00:47:55 | 00:00:00 | |
| OE5WHR-10 | 2026-09-02 11:30:55 | 49.40354 | 12.52131 | 128° | 66km/h | 13125m | 3.6m/s | -51.3°C | 4.3% | 170.1hPa | 2.7V | 00:00:00 | 00:00:00 | 00:00:00 | |
| OE5MMP-10 | 2026-09-02 11:30:53 | 49.40373 | 12.52092 | 128° | 66km/h | 13116m | 4.4m/s | -51.3°C | 4.3% | 170.3hPa | 2.7V | 04:36:00 | 00:47:52 | 00:00:00 | |
| OE5DXL-15 | 2026-09-02 11:30:52 | 49.40383 | 12.52073 | 128° | 69km/h | 13112m | 3.4m/s | -51.3°C | 4.3% | 170.4hPa | 2.7V | 00:00:00 | 00:00:00 | 00:00:00 | |
| PG1ADW-2 | 2026-09-02 11:30:48 | 49.40424 | 12.51993 | 128° | 68km/h | 13096m | 4.5m/s | -51.3°C | 4.5% | 170.8hPa | 2.7V | 00:00:00 | 00:47:47 | 00:00:00 | |
| DO3MHA-11 | 2026-09-02 11:30:46 | 49.40444 | 12.51953 | 127° | 66km/h | 13089m | 4.1m/s | -51.3°C | 4.5% | 171.0hPa | 2.7V | 00:00:00 | 00:47:45 | 00:00:00 | |
| ANDY1245 | 2026-09-02 11:30:45 | 49.40454 | 12.51932 | 127° | 68km/h | 13084m | 4.4m/s | 0°C | 0% | 0hPa | 2.7V | 00:00:00 | 00:00:00 | 00:00:00 | |
| OE5MMP-10 | 2026-09-02 11:30:43 | 49.40473 | 12.51889 | 124° | 66km/h | 13076m | 4.9m/s | -51.3°C | 4.5% | 171.4hPa | 2.7V | 00:00:00 | 00:47:42 | 00:00:00 | |
| SONCRA | 2026-09-02 11:30:41 | 49.40491 | 12.51847 | 120° | 64km/h | 13068m | 3.8m/s | -51.4°C | 2.1% | 171.6hPa | 2.7V | 00:00:00 | 00:00:00 | 00:00:00 | |
| OE5DRO-10 | 2026-09-02 11:30:39 | 49.40507 | 12.51803 | 120° | 73km/h | 13059m | 4.3m/s | -51.4°C | 4.5% | 171.9hPa | 2.7V | 00:00:00 | 00:00:00 | 00:00:00 | |
| DO8TBO-1 | 2026-09-02 11:30:36 | 49.40532 | 12.51736 | 122° | 75km/h | 13046m | 4.4m/s | -51.3°C | 4.5% | 172.1hPa | 2.7V | 00:00:00 | 00:47:35 | 00:00:00 | |
| OE5WHR-10 | 2026-09-02 11:30:34 | 49.40551 | 12.51692 | 127° | 75km/h | 13037m | 3.5m/s | -51.3°C | 4.4% | 172.4hPa | 2.7V | 00:00:00 | 00:00:00 | 00:00:00 | |
| OE5MMP-10 | 2026-09-02 11:30:33 | 49.40562 | 12.51670 | 130° | 73km/h | 13032m | 5.2m/s | -51.3°C | 4.3% | 172.5hPa | 2.7V | 00:00:00 | 00:47:32 | 00:00:00 | |
| PG1ADW-2 | 2026-09-02 11:30:28 | 49.40624 | 12.51566 | 128° | 75km/h | 13010m | 3.0m/s | -51.1°C | 4.4% | 173.1hPa | 2.7V | 00:00:00 | 00:00:00 | 00:00:00 | |
| OE5MMP-10 | 2026-09-02 11:30:23 | 49.40675 | 12.51449 | 123° | 78km/h | 12988m | 5.4m/s | -51.1°C | 4.4% | 173.7hPa | 2.7V | 00:00:00 | 00:47:22 | 00:00:00 | |
| OE5DXL-15 | 2026-09-02 11:30:22 | 49.40686 | 12.51423 | 124° | 80km/h | 12983m | 3.9m/s | -51.1°C | 4.5% | 173.8hPa | 2.7V | 00:00:00 | 00:00:00 | 00:00:00 | |
| OE5DRO-10 | 2026-09-02 11:30:19 | 49.40720 | 12.51347 | 128° | 78km/h | 12970m | 3.1m/s | -51.0°C | 4.5% | 174.1hPa | 2.7V | 00:00:00 | 00:00:00 | 00:00:00 | |
| DO9HM | 2026-09-02 11:30:18 | 49.40732 | 12.51323 | 130° | 80km/h | 12966m | 4.0m/s | -51.1°C | 2.1% | 174.3hPa | 2.7V | 00:00:00 | 00:00:00 | 00:00:00 | |
| OE5MMP-10 | 2026-09-02 11:30:13 | 49.40794 | 12.51205 | 124° | 78km/h | 12945m | 3.7m/s | -51.5°C | 4.5% | 174.9hPa | 2.7V | 00:00:00 | 00:47:12 | 00:00:00 | |
| DL6DJ-15 | 2026-09-02 11:30:12 | 49.40803 | 12.51182 | 121° | 68km/h | 12941m | 4.6m/s | -51.6°C | 2.2% | 174.9hPa | 2.7V | 00:00:00 | 00:00:00 | 00:00:00 | |
| SONCRA | 2026-09-02 11:30:10 | 49.40822 | 12.51136 | 121° | 73km/h | 12931m | 4.7m/s | -51.6°C | 2.1% | 175.3hPa | 2.7V | 00:00:00 | 00:00:00 | 00:00:00 | |
| PG1ADW-2 | 2026-09-02 11:30:08 | 49.40843 | 12.51084 | 122° | 82km/h | 12922m | 4.9m/s | -51.7°C | 4.5% | 175.4hPa | 2.7V | 00:00:00 | 00:00:00 | 00:00:00 | |
| DO8TBO-1 | 2026-09-02 11:30:06 | 49.40865 | 12.51027 | 120° | 82km/h | 12909m | 7.2m/s | -51.7°C | 4.5% | 175.8hPa | 2.7V | 04:37:00 | 00:47:05 | 00:00:00 | |
| EDDB2-11 | 2026-09-02 11:29:58 | 49.40947 | 12.50789 | 117° | 82km/h | 12871m | 4.7m/s | -51.9°C | 2.2% | 176.9hPa | 2.7V | 00:00:00 | 00:00:00 | 00:00:00 | |
| DO9HM | 2026-09-02 11:29:57 | 49.40956 | 12.50760 | 118° | 82km/h | 12867m | 4.7m/s | -51.8°C | 2.2% | 177.0hPa | 2.7V | 00:00:00 | 00:00:00 | 00:00:00 | |
| OE5DXL-15 | 2026-09-02 11:29:52 | 49.40999 | 12.50626 | 117° | 80km/h | 12845m | 4.5m/s | -51.8°C | 4.8% | 177.6hPa | 2.7V | 04:37:00 | 00:00:00 | 00:00:00 | |
| OE5DRO-10 | 2026-09-02 11:29:49 | 49.41025 | 12.50543 | 115° | 80km/h | 12832m | 4.5m/s | -51.8°C | 4.8% | 177.9hPa | 2.7V | 04:38:00 | 00:00:00 | 00:00:00 | |
| PG1ADW-2 | 2026-09-02 11:29:48 | 49.41034 | 12.50514 | 115° | 80km/h | 12828m | 3.0m/s | -51.8°C | 4.8% | 178.0hPa | 2.7V | 00:00:00 | 00:00:00 | 00:00:00 | |
| DO3MHA-11 | 2026-09-02 11:29:45 | 49.41060 | 12.50428 | 115° | 78km/h | 12816m | 3.7m/s | -51.8°C | 4.8% | 178.3hPa | 2.7V | 00:00:00 | 00:46:44 | 00:00:00 | |
| OE5MMP-10 | 2026-09-02 11:29:42 | 49.41085 | 12.50342 | 114° | 80km/h | 12804m | 4.0m/s | -51.9°C | 4.9% | 178.7hPa | 2.7V | 00:00:00 | 00:46:41 | 00:00:00 | |
| DL6DJ-15 | 2026-09-02 11:29:41 | 49.41093 | 12.50314 | 115° | 77km/h | 12800m | 4.7m/s | -52.0°C | 2.4% | 178.8hPa | 2.7V | 00:00:00 | 00:00:00 | 00:00:00 | |
| SONCRA | 2026-09-02 11:29:39 | 49.41111 | 12.50261 | 115° | 75km/h | 12791m | 4.6m/s | -51.9°C | 2.3% | 179.1hPa | 2.7V | 00:00:00 | 00:00:00 | 00:00:00 | |
| DO9HM | 2026-09-02 11:29:36 | 49.41136 | 12.50180 | 117° | 78km/h | 12778m | 5.1m/s | -51.9°C | 2.4% | 179.4hPa | 2.7V | 00:00:00 | 00:00:00 | 00:00:00 | |
| DO3MHA-11 | 2026-09-02 11:29:35 | 49.41145 | 12.50152 | 117° | 80km/h | 12774m | 3.7m/s | -51.8°C | 5.0% | 179.5hPa | 2.7V | 00:00:00 | 00:46:34 | 00:00:00 | |
| OE5MMP-10 | 2026-09-02 11:29:32 | 49.41172 | 12.50066 | 116° | 80km/h | 12762m | 3.1m/s | -51.8°C | 4.9% | 179.9hPa | 2.7V | 00:00:00 | 00:46:31 | 00:00:00 | |
| OE5WHR-10 | 2026-09-02 11:29:31 | 49.41181 | 12.50038 | 118° | 82km/h | 12758m | 4.5m/s | -51.7°C | 4.9% | 179.9hPa | 2.7V | 04:38:00 | 00:00:00 | 00:00:00 | |
| OE5DRO-10 | 2026-09-02 11:29:29 | 49.41201 | 12.49985 | 120° | 82km/h | 12750m | 3.9m/s | -51.7°C | 4.9% | 180.2hPa | 2.7V | 00:00:00 | 00:00:00 | 00:00:00 | |
| PG1ADW-2 | 2026-09-02 11:29:28 | 49.41210 | 12.49958 | 120° | 84km/h | 12746m | 5.3m/s | -51.7°C | 4.9% | 180.3hPa | 2.7V | 04:38:00 | 00:46:27 | 00:00:00 | |
| EDDB2-11 | 2026-09-02 11:29:27 | 49.41220 | 12.49931 | 118° | 78km/h | 12741m | 4.1m/s | -51.7°C | 2.4% | 180.5hPa | 2.7V | 00:00:00 | 00:00:00 | 00:00:00 | |
| OE5MMP-10 | 2026-09-02 11:29:22 | 49.41270 | 12.49793 | 119° | 84km/h | 12721m | 4.3m/s | -51.8°C | 5.0% | 181.0hPa | 2.7V | 00:00:00 | 00:46:21 | 00:00:00 | |
| OE5MMP-10 | 2026-09-02 11:29:12 | 49.41371 | 12.49506 | 118° | 88km/h | 12680m | 4.0m/s | -51.6°C | 4.9% | 182.1hPa | 2.7V | 04:38:00 | 00:46:11 | 00:00:00 | |
| OE5WHR-10 | 2026-09-02 11:29:10 | 49.41392 | 12.49449 | 120° | 86km/h | 12672m | 3.6m/s | -51.5°C | 4.8% | 182.4hPa | 2.7V | 00:00:00 | 00:46:09 | 00:00:00 | |
| PG1ADW-2 | 2026-09-02 11:29:08 | 49.41413 | 12.49390 | 119° | 86km/h | 12664m | 4.9m/s | -51.6°C | 4.9% | 182.6hPa | 2.7V | 00:00:00 | 00:00:00 | 00:00:00 | |
| DO8TBO-1 | 2026-09-02 11:29:06 | 49.41434 | 12.49329 | 118° | 84km/h | 12656m | 3.9m/s | -51.6°C | 4.8% | 182.8hPa | 2.7V | 00:00:00 | 00:46:05 | 00:00:00 | |
| EDDB2-11 | 2026-09-02 11:28:56 | 49.41527 | 12.49034 | 114° | 84km/h | 12614m | 3.7m/s | -52.3°C | 2.6% | 184.0hPa | 2.7V | 00:00:00 | 00:00:00 | 00:00:00 | |
| OE5DXL-15 | 2026-09-02 11:28:52 | 49.41564 | 12.48912 | 114° | 82km/h | 12598m | 5.1m/s | -52.4°C | 5.3% | 184.5hPa | 2.7V | 00:00:00 | 00:00:00 | 00:00:00 | |
| OE5DRO-10 | 2026-09-02 11:28:51 | 49.41573 | 12.48880 | 113° | 82km/h | 12594m | 3.6m/s | -52.4°C | 5.3% | 184.6hPa | 2.7V | 00:00:00 | 00:00:00 | 00:00:00 | |
| OE5WHR-10 | 2026-09-02 11:28:49 | 49.41589 | 12.48817 | 113° | 82km/h | 12586m | 4.4m/s | -52.3°C | 5.3% | 184.8hPa | 2.7V | 00:00:00 | 00:00:00 | 00:00:00 | |
| PG1ADW-2 | 2026-09-02 11:28:48 | 49.41598 | 12.48786 | 113° | 82km/h | 12582m | 3.5m/s | -52.3°C | 5.3% | 184.9hPa | 2.7V | 00:00:00 | 00:00:00 | 00:00:00 | |
| OE5MMP-10 | 2026-09-02 11:28:42 | 49.41641 | 12.48603 | 111° | 80km/h | 12558m | 4.0m/s | 0°C | 0% | 0hPa | 2.7V | 00:00:00 | 00:45:41 | 00:00:00 | |
| DO3MHA-11 | 2026-09-02 11:28:41 | 49.41648 | 12.48572 | 110° | 82km/h | 12553m | 4.5m/s | -52.1°C | 5.3% | 185.7hPa | 2.7V | 04:39:00 | 00:45:40 | 00:00:00 | |
| DL6DJ-15 | 2026-09-02 11:28:39 | 49.41662 | 12.48512 | 109° | 80km/h | 12546m | 3.0m/s | -52.1°C | 2.7% | 186.0hPa | 2.7V | 00:00:00 | 00:00:00 | 00:00:00 | |
| SONCRA | 2026-09-02 11:28:37 | 49.41684 | 12.48426 | 112° | 77km/h | 12535m | 2.8m/s | -51.9°C | 2.7% | 186.3hPa | 2.7V | 00:00:00 | 00:00:00 | 00:00:00 | |
| DO8TBO-1 | 2026-09-02 11:28:36 | 49.41684 | 12.48426 | 113° | 80km/h | 12535m | 2.8m/s | -51.9°C | 5.3% | 186.3hPa | 2.7V | 00:00:00 | 00:45:35 | 00:00:00 | |
| OE5MMP-10 | 2026-09-02 11:28:32 | 49.41711 | 12.48308 | 108° | 80km/h | 12519m | 3.5m/s | 0°C | 0% | 0hPa | 2.7V | 00:00:00 | 00:45:31 | 00:00:00 | |
| DO3MHA-11 | 2026-09-02 11:28:31 | 49.41718 | 12.48277 | 109° | 80km/h | 12515m | 4.2m/s | -51.7°C | 5.3% | 186.8hPa | 2.7V | 00:00:00 | 00:45:30 | 00:00:00 | |
| DO9HM | 2026-09-02 11:28:29 | 49.41725 | 12.48247 | 111° | 82km/h | 12511m | 3.8m/s | -51.7°C | 2.7% | 187.0hPa | 2.7V | 00:00:00 | 00:00:00 | 00:00:00 | |
| OE5WHR-10 | 2026-09-02 11:28:28 | 49.41739 | 12.48188 | 111° | 80km/h | 12503m | 4.9m/s | -51.6°C | 5.3% | 187.2hPa | 2.7V | 00:00:00 | 00:00:00 | 00:00:00 | |
| EDDB2-11 | 2026-09-02 11:28:25 | 49.41761 | 12.48105 | 113° | 77km/h | 12491m | 4.4m/s | -51.5°C | 2.7% | 187.6hPa | 2.7V | 00:00:00 | 00:00:00 | 00:00:00 | |
| OE5MMP-10 | 2026-09-02 11:28:22 | 49.41784 | 12.48019 | 112° | 78km/h | 12479m | 4.7m/s | 0°C | 0% | 0hPa | 2.7V | 04:39:00 | 00:45:21 | 00:00:00 | |
| DO3MHA-11 | 2026-09-02 11:28:20 | 49.41799 | 12.47960 | 111° | 80km/h | 12471m | 4.9m/s | -51.3°C | 5.4% | 188.1hPa | 2.7V | 00:00:00 | 00:45:19 | 00:00:00 | |
| OE5MMP-10 | 2026-09-02 11:28:12 | 49.41856 | 12.47727 | 115° | 82km/h | 12439m | 2.8m/s | 0°C | 0% | 0hPa | 2.7V | 00:00:00 | 00:45:11 | 00:00:00 | |
| DO3MHA-11 | 2026-09-02 11:28:08 | 49.41889 | 12.47612 | 113° | 84km/h | 12422m | 3.8m/s | -51.2°C | 5.3% | 189.5hPa | 2.7V | 00:00:00 | 00:45:07 | 00:00:00 | |
| OE5WHR-10 | 2026-09-02 11:28:07 | 49.41897 | 12.47582 | 112° | 84km/h | 12418m | 5.0m/s | -51.2°C | 5.4% | 189.7hPa | 2.7V | 00:00:00 | 00:45:06 | 00:00:00 | |
| SONCRA | 2026-09-02 11:28:06 | 49.41912 | 12.47523 | 110° | 82km/h | 12408m | 4.9m/s | -51.3°C | 3.0% | 190.0hPa | 2.7V | 00:00:00 | 00:00:00 | 00:00:00 | |
| EDDB2-11 | 2026-09-02 11:27:54 | 49.41995 | 12.47184 | 112° | 82km/h | 12363m | 3.6m/s | -51.3°C | 3.3% | 191.3hPa | 2.7V | 00:00:00 | 00:00:00 | 00:00:00 | |
| OE5DRO-10 | 2026-09-02 11:27:53 | 49.42003 | 12.47154 | 113° | 86km/h | 12359m | 4.6m/s | -51.3°C | 5.9% | 191.4hPa | 2.7V | 00:00:00 | 00:00:00 | 00:00:00 | |
| OE5DXL-15 | 2026-09-02 11:27:52 | 49.42011 | 12.47123 | 112° | 86km/h | 12355m | 3.4m/s | -51.3°C | 6.0% | 191.5hPa | 2.7V | 00:00:00 | 00:00:00 | 00:00:00 | |
| PG1ADW-2 | 2026-09-02 11:27:48 | 49.42040 | 12.46999 | 110° | 86km/h | 12340m | 4.5m/s | -51.2°C | 6.0% | 192.0hPa | 2.7V | 04:40:00 | 00:00:00 | 00:00:00 | |
| OE5WHR-10 | 2026-09-02 11:27:46 | 49.42054 | 12.46937 | 111° | 86km/h | 12332m | 3.6m/s | -51.3°C | 6.0% | 192.2hPa | 2.7V | 04:40:00 | 00:00:00 | 00:00:00 | |
| DL6DJ-15 | 2026-09-02 11:27:37 | 49.42138 | 12.46633 | 112° | 86km/h | 12290m | 3.6m/s | -51.3°C | 3.6% | 193.5hPa | 2.7V | 00:00:00 | 00:00:00 | 00:00:00 | |
| DO8TBO-1 | 2026-09-02 11:27:36 | 49.42138 | 12.46633 | 113° | 86km/h | 12290m | 3.5m/s | -51.2°C | 6.2% | 193.4hPa | 2.7V | 04:40:00 | 00:44:35 | 00:00:00 | |
| OE5DRO-10 | 2026-09-02 11:27:34 | 49.42154 | 12.46571 | 113° | 86km/h | 12282m | 4.3m/s | -51.2°C | 6.1% | 193.7hPa | 2.7V | 00:00:00 | 00:00:00 | 00:00:00 | |
| OE5MMP-10 | 2026-09-02 11:27:29 | 49.42199 | 12.46419 | 117° | 86km/h | 12262m | 4.4m/s | 0°C | 0% | 0hPa | 2.7V | 00:00:00 | 00:44:28 | 00:00:00 | |
| PG1ADW-2 | 2026-09-02 11:27:28 | 49.42208 | 12.46389 | 118° | 86km/h | 12258m | 3.5m/s | 0°C | 0% | 0hPa | 2.7V | 00:00:00 | 00:00:00 | 00:00:00 | |
| OE5WHR-10 | 2026-09-02 11:27:25 | 49.42239 | 12.46301 | 119° | 86km/h | 12246m | 3.7m/s | -51.1°C | 6.4% | 194.8hPa | 2.7V | 00:00:00 | 00:00:00 | 00:00:00 | |
| EDDB2-11 | 2026-09-02 11:27:23 | 49.42258 | 12.46243 | 115° | 82km/h | 12239m | 2.3m/s | -51.1°C | 3.9% | 195.1hPa | 2.7V | 00:00:00 | 00:00:00 | 00:00:00 | |
| OE5DXL-15 | 2026-09-02 11:27:22 | 49.42267 | 12.46213 | 115° | 86km/h | 12236m | 4.0m/s | -51.2°C | 6.6% | 195.1hPa | 2.7V | 04:40:00 | 00:00:00 | 00:00:00 | |
| OE5MMP-10 | 2026-09-02 11:27:19 | 49.42294 | 12.46120 | 114° | 88km/h | 12225m | 3.2m/s | 0°C | 0% | 0hPa | 2.7V | 04:40:00 | 00:44:18 | 00:00:00 | |
| OE5DRO-10 | 2026-09-02 11:27:15 | 49.42331 | 12.46001 | 118° | 86km/h | 12210m | 3.6m/s | -51.9°C | 6.9% | 195.8hPa | 2.7V | 00:00:00 | 00:00:00 | 00:00:00 | |
| DO9HM | 2026-09-02 11:27:10 | 49.42369 | 12.45877 | 113° | 89km/h | 12194m | 4.2m/s | -52.2°C | 4.5% | 196.3hPa | 2.7V | 04:41:00 | 00:00:00 | 00:00:00 | |
| OE5MMP-10 | 2026-09-02 11:27:08 | 49.42392 | 12.45783 | 108° | 84km/h | 12182m | 3.4m/s | 0°C | 0% | 0hPa | 2.7V | 00:00:00 | 00:44:07 | 00:00:00 | |
| DO8TBO-1 | 2026-09-02 11:27:06 | 49.42404 | 12.45720 | 107° | 80km/h | 12174m | 3.9m/s | -52.3°C | 7.5% | 196.9hPa | 2.7V | 00:00:00 | 00:44:05 | 00:00:00 | |
| SONCRA | 2026-09-02 11:27:04 | 49.42422 | 12.45624 | 105° | 84km/h | 12162m | 3.9m/s | -52.3°C | 4.6% | 197.3hPa | 2.7V | 00:00:00 | 00:00:00 | 00:00:00 | |
| OE5MMP-10 | 2026-09-02 11:26:56 | 49.42467 | 12.45408 | 110° | 78km/h | 12134m | 4.4m/s | 0°C | 0% | 0hPa | 2.7V | 00:00:00 | 00:43:55 | 00:00:00 | |
| OE5DXL-15 | 2026-09-02 11:26:52 | 49.42493 | 12.45289 | 107° | 80km/h | 12119m | 2.7m/s | -52.6°C | 8.0% | 198.6hPa | 2.7V | 00:00:00 | 00:00:00 | 00:00:00 | |
| ANDY1245 | 2026-09-02 11:26:51 | 49.42493 | 12.45289 | 107° | 80km/h | 12119m | 2.7m/s | 0°C | 0% | 0hPa | 2.7V | 00:00:00 | 00:00:00 | 00:00:00 | |
| DO9HM | 2026-09-02 11:26:50 | 49.42505 | 12.45228 | 107° | 82km/h | 12110m | 3.8m/s | -52.7°C | 5.1% | 198.9hPa | 2.7V | 04:41:00 | 00:00:00 | 00:00:00 | |
| DO3MHA-11 | 2026-09-02 11:26:49 | 49.42510 | 12.45198 | 106° | 80km/h | 12107m | 3.2m/s | -52.8°C | 8.1% | 199.0hPa | 2.7V | 00:00:00 | 00:43:48 | 00:00:00 | |
| PG1ADW-2 | 2026-09-02 11:26:48 | 49.42515 | 12.45168 | 105° | 80km/h | 12103m | 4.3m/s | 0°C | 0% | 0hPa | 2.7V | 00:00:00 | 00:43:47 | 00:00:00 | |
| OE5WHR-10 | 2026-09-02 11:26:43 | 49.42546 | 12.45021 | 111° | 80km/h | 12084m | 4.0m/s | -52.8°C | 8.2% | 199.7hPa | 2.7V | 00:00:00 | 00:00:00 | 00:00:00 | |
| OE5MMP-10 | 2026-09-02 11:26:40 | 49.42565 | 12.44936 | 109° | 80km/h | 12072m | 4.8m/s | 0°C | 0% | 0hPa | 2.7V | 00:00:00 | 00:43:39 | 00:00:00 | |
| DO3MHA-11 | 2026-09-02 11:26:37 | 49.42583 | 12.44847 | 106° | 80km/h | 12060m | 4.2m/s | -52.8°C | 8.3% | 200.4hPa | 2.7V | 04:41:00 | 00:43:36 | 00:00:00 | |
| DO8TBO-1 | 2026-09-02 11:26:36 | 49.42588 | 12.44817 | 106° | 80km/h | 12056m | 3.5m/s | -52.9°C | 8.3% | 200.5hPa | 2.7V | 00:00:00 | 00:43:35 | 00:00:00 | |
| DL6DJ-15 | 2026-09-02 11:26:34 | 49.42599 | 12.44757 | 106° | 80km/h | 12048m | 3.8m/s | -52.9°C | 5.3% | 200.8hPa | 2.7V | 00:00:00 | 00:00:00 | 00:00:00 | |
| SONCRA | 2026-09-02 11:26:33 | 49.42610 | 12.44697 | 105° | 78km/h | 12040m | 4.7m/s | -52.9°C | 5.3% | 201.1hPa | 2.7V | 00:00:00 | 00:00:00 | 00:00:00 | |
| PG1ADW-2 | 2026-09-02 11:26:28 | 49.42631 | 12.44577 | 106° | 78km/h | 12023m | 3.4m/s | 0°C | 0% | 0hPa | 2.7V | 00:00:00 | 00:00:00 | 00:00:00 | |
| DO9HM | 2026-09-02 11:26:25 | 49.42647 | 12.44487 | 107° | 80km/h | 12012m | 2.7m/s | -52.9°C | 5.5% | 202.0hPa | 2.7V | 04:41:00 | 00:00:00 | 00:00:00 | |
| OE5WHR-10 | 2026-09-02 11:26:22 | 49.42665 | 12.44396 | 107° | 78km/h | 12000m | 4.1m/s | -52.8°C | 8.6% | 202.3hPa | 2.7V | 00:00:00 | 00:00:00 | 00:00:00 | |
| EDDB2-11 | 2026-09-02 11:26:21 | 49.42671 | 12.44366 | 105° | 80km/h | 11995m | 4.8m/s | -52.9°C | 5.6% | 202.5hPa | 2.7V | 00:00:00 | 00:00:00 | 00:00:00 | |
| OE5MMP-10 | 2026-09-02 11:26:20 | 49.42677 | 12.44336 | 106° | 80km/h | 11991m | 3.1m/s | 0°C | 0% | 0hPa | 2.7V | 00:00:00 | 00:43:19 | 00:00:00 | |
| OE5DRO-10 | 2026-09-02 11:26:18 | 49.42688 | 12.44275 | 107° | 77km/h | 11983m | 4.0m/s | -52.8°C | 8.7% | 202.8hPa | 2.7V | 00:00:00 | 00:00:00 | 00:00:00 | |
| DO3MHA-11 | 2026-09-02 11:26:10 | 49.42732 | 12.44043 | 109° | 77km/h | 11951m | 3.9m/s | -52.8°C | 9.3% | 203.9hPa | 2.7V | 00:00:00 | 00:43:09 | 00:00:00 | |
| PG1ADW-2 | 2026-09-02 11:26:08 | 49.42745 | 12.43987 | 110° | 78km/h | 11943m | 4.6m/s | 0°C | 0% | 0hPa | 2.7V | 00:00:00 | 00:00:00 | 00:00:00 | |
| DO8TBO-1 | 2026-09-02 11:26:06 | 49.42758 | 12.43929 | 109° | 77km/h | 11935m | 3.7m/s | -52.9°C | 9.6% | 204.4hPa | 2.7V | 00:00:00 | 00:43:05 | 00:00:00 | |
| DL6DJ-15 | 2026-09-02 11:26:03 | 49.42777 | 12.43845 | 108° | 75km/h | 11923m | 4.3m/s | -52.9°C | 6.7% | 204.8hPa | 2.7V | 00:00:00 | 00:00:00 | 00:00:00 | |
| OE5WHR-10 | 2026-09-02 11:26:01 | 49.42789 | 12.43788 | 109° | 77km/h | 11915m | 3.6m/s | -52.7°C | 10.1% | 205.0hPa | 2.7V | 04:41:00 | 00:43:00 | 00:00:00 | |
| DO3MHA-11 | 2026-09-02 11:26:00 | 49.42795 | 12.43761 | 109° | 75km/h | 11910m | 4.9m/s | -52.8°C | 10.3% | 205.2hPa | 2.7V | 00:00:00 | 00:42:59 | 00:00:00 | |
| OE5DRO-10 | 2026-09-02 11:25:59 | 49.42801 | 12.43733 | 109° | 77km/h | 11906m | 3.4m/s | -52.7°C | 10.4% | 205.3hPa | 2.7V | 00:00:00 | 00:00:00 | 00:00:00 | |
| OE5DXL-15 | 2026-09-02 11:25:52 | 49.42840 | 12.43540 | 108° | 77km/h | 11879m | 4.7m/s | -52.6°C | 11.1% | 206.1hPa | 2.7V | 00:00:00 | 00:00:00 | 00:00:00 | |
| DO3MHA-11 | 2026-09-02 11:25:50 | 49.42852 | 12.43484 | 108° | 78km/h | 11870m | 4.2m/s | -52.6°C | 10.9% | 206.4hPa | 2.7V | 00:00:00 | 00:42:49 | 00:00:00 | |
| DO9HM | 2026-09-02 11:25:43 | 49.42893 | 12.43282 | 108° | 78km/h | 11841m | 3.9m/s | -53.2°C | 8.7% | 207.4hPa | 2.7V | 04:42:00 | 00:00:00 | 00:00:00 | |
| DO3MHA-11 | 2026-09-02 11:25:40 | 49.42912 | 12.43196 | 109° | 78km/h | 11828m | 4.3m/s | -53.2°C | 12.7% | 207.8hPa | 2.7V | 04:42:00 | 00:42:39 | 00:00:00 | |
| OE5MMP-10 | 2026-09-02 11:25:37 | 49.42930 | 12.43110 | 110° | 77km/h | 11816m | 5.0m/s | 0°C | 0% | 0hPa | 2.7V | 00:00:00 | 00:42:36 | 00:00:00 | |
| DO8TBO-1 | 2026-09-02 11:25:36 | 49.42937 | 12.43081 | 110° | 77km/h | 11812m | 4.1m/s | -53.3°C | 13.1% | 208.3hPa | 2.7V | 00:00:00 | 00:42:35 | 00:00:00 | |
| DL6DJ-15 | 2026-09-02 11:25:33 | 49.42964 | 12.42967 | 111° | 77km/h | 11795m | 4.6m/s | -53.4°C | 9.5% | 208.9hPa | 2.7V | 00:00:00 | 00:00:00 | 00:00:00 | |
| DO3MHA-11 | 2026-09-02 11:25:30 | 49.42979 | 12.42913 | 114° | 71km/h | 11787m | 3.1m/s | -53.4°C | 13.3% | 209.1hPa | 2.7V | 00:00:00 | 00:42:29 | 00:00:00 | |
| OE5MMP-10 | 2026-09-02 11:25:27 | 49.42999 | 12.42836 | 110° | 78km/h | 11776m | 3.2m/s | 0°C | 0% | 0hPa | 2.7V | 00:00:00 | 00:42:26 | 00:00:00 | |
| OE5DXL-15 | 2026-09-02 11:25:22 | 49.43026 | 12.42706 | 106° | 77km/h | 11757m | 4.4m/s | -53.6°C | 14.5% | 210.1hPa | 2.7V | 00:00:00 | 00:00:00 | 00:00:00 | |
| OE5DRO-10 | 2026-09-02 11:25:21 | 49.43031 | 12.42678 | 106° | 78km/h | 11753m | 3.4m/s | -53.7°C | 14.5% | 210.3hPa | 2.7V | 00:00:00 | 00:00:00 | 00:00:00 | |
| DO3MHA-11 | 2026-09-02 11:25:20 | 49.43037 | 12.42649 | 107° | 80km/h | 11749m | 5.0m/s | -53.7°C | 14.8% | 210.3hPa | 2.7V | 00:00:00 | 00:42:19 | 00:00:00 | |
| OE5WHR-10 | 2026-09-02 11:25:19 | 49.43042 | 12.42620 | 108° | 78km/h | 11744m | 4.3m/s | -53.7°C | 15.1% | 210.5hPa | 2.7V | 00:00:00 | 00:00:00 | 00:00:00 | |
| ANDY1245 | 2026-09-02 11:25:14 | 49.43064 | 12.42499 | 105° | 80km/h | 11728m | 4.1m/s | 0°C | 0% | 0hPa | 2.7V | 00:00:00 | 00:00:00 | 00:00:00 | |
| DO3MHA-11 | 2026-09-02 11:25:10 | 49.43088 | 12.42351 | 104° | 78km/h | 11708m | 3.8m/s | -53.9°C | 15.7% | 211.7hPa | 2.7V | 00:00:00 | 00:42:09 | 00:00:00 | |
| ANDY1245 | 2026-09-02 11:25:08 | 49.43093 | 12.42322 | 105° | 78km/h | 11705m | 4.0m/s | 0°C | 0% | 0hPa | 2.7V | 00:00:00 | 00:00:00 | 00:00:00 | |
| DO8TBO-1 | 2026-09-02 11:25:06 | 49.43108 | 12.42233 | 105° | 73km/h | 11692m | 4.7m/s | -54.0°C | 16.0% | 212.2hPa | 2.7V | 04:42:00 | 00:42:05 | 00:00:00 | |
| DL6DJ-15 | 2026-09-02 11:25:01 | 49.43134 | 12.42086 | 105° | 75km/h | 11672m | 3.7m/s | -54.1°C | 12.5% | 212.9hPa | 2.7V | 00:00:00 | 00:00:00 | 00:00:00 | |
| SONCRA | 2026-09-02 11:24:59 | 49.43167 | 12.41890 | 103° | 75km/h | 11644m | 4.1m/s | -54.1°C | -1.0% | 213.9hPa | 2.7V | 00:00:00 | 00:00:00 | 00:00:00 | |
| EDDB2-11 | 2026-09-02 11:24:48 | 49.43196 | 12.41723 | 105° | 73km/h | 11621m | 4.6m/s | -54.2°C | 13.7% | 214.6hPa | 2.7V | 00:00:00 | 00:00:00 | 00:00:00 | |
| OE5DRO-10 | 2026-09-02 11:24:43 | 49.43215 | 12.41586 | 100° | 73km/h | 11600m | 4.5m/s | -54.1°C | 18.2% | 215.3hPa | 2.7V | 00:00:00 | 00:00:00 | 00:00:00 | |
| DO3MHA-11 | 2026-09-02 11:24:40 | 49.43223 | 12.41506 | 98° | 73km/h | 11587m | 4.6m/s | -54.1°C | 18.6% | 215.7hPa | 2.7V | 00:00:00 | 00:41:39 | 00:00:00 | |
| DO9HM | 2026-09-02 11:24:38 | 49.43225 | 12.41479 | 98° | 69km/h | 11583m | 3.3m/s | -54.1°C | 14.3% | 215.8hPa | 2.7V | 04:44:00 | 00:00:00 | 00:00:00 | |
| OE5WHR-10 | 2026-09-02 11:24:37 | 49.43229 | 12.41425 | 98° | 75km/h | 11575m | 4.0m/s | -54.0°C | 19.0% | 216.1hPa | 2.7V | 00:00:00 | 00:00:00 | 00:00:00 | |
| DO8TBO-1 | 2026-09-02 11:24:36 | 49.43232 | 12.41397 | 100° | 75km/h | 11572m | 3.4m/s | -54.1°C | 19.2% | 216.2hPa | 2.7V | 00:00:00 | 00:41:35 | 00:00:00 | |
| DO3MHA-11 | 2026-09-02 11:24:30 | 49.43255 | 12.41228 | 103° | 73km/h | 11548m | 4.9m/s | -53.9°C | 19.2% | 217.0hPa | 2.7V | 00:00:00 | 00:41:29 | 00:00:00 | |
| OE5DRO-10 | 2026-09-02 11:24:24 | 49.43273 | 12.41063 | 99° | 77km/h | 11524m | 3.6m/s | -54.0°C | 19.7% | 217.8hPa | 2.7V | 00:00:00 | 00:00:00 | 00:00:00 | |
| OE5DXL-15 | 2026-09-02 11:24:23 | 49.43278 | 12.41007 | 96° | 77km/h | 11517m | 4.6m/s | -53.9°C | 20.3% | 218.1hPa | 2.7V | 00:00:00 | 00:00:00 | 00:00:00 | |
| DO3MHA-11 | 2026-09-02 11:24:20 | 49.43282 | 12.40948 | 97° | 78km/h | 11509m | 3.5m/s | -53.9°C | 20.7% | 218.4hPa | 2.7V | 00:00:00 | 00:41:19 | 00:00:00 | |
| EDDB2-11 | 2026-09-02 11:24:17 | 49.43293 | 12.40829 | 97° | 77km/h | 11494m | 4.5m/s | -54.0°C | 16.6% | 218.9hPa | 2.7V | 00:00:00 | 00:00:00 | 00:00:00 | |
| OE5WHR-10 | 2026-09-02 11:24:16 | 49.43293 | 12.40829 | 98° | 77km/h | 11494m | 4.4m/s | -54.0°C | 21.3% | 218.9hPa | 2.7V | 04:43:00 | 00:00:00 | 00:00:00 | |
| DO3MHA-11 | 2026-09-02 11:24:10 | 49.43311 | 12.40649 | 99° | 77km/h | 11470m | 3.5m/s | -54.0°C | 22.3% | 219.7hPa | 2.7V | 00:00:00 | 00:41:09 | 00:00:00 | |
| OE5MMP-10 | 2026-09-02 11:24:07 | 49.43320 | 12.40560 | 100° | 75km/h | 11459m | 3.1m/s | 0°C | 0% | 0hPa | 2.7V | 00:00:00 | 00:41:06 | 00:00:00 | |
| DO8TBO-1 | 2026-09-02 11:24:06 | 49.43323 | 12.40530 | 99° | 75km/h | 11455m | 3.0m/s | -54.2°C | 23.8% | 220.2hPa | 2.7V | 00:00:00 | 00:41:05 | 00:00:00 | |
| OE5DRO-10 | 2026-09-02 11:24:05 | 49.43326 | 12.40500 | 98° | 75km/h | 11452m | 4.5m/s | -54.2°C | 23.9% | 220.3hPa | 2.7V | 00:00:00 | 00:00:00 | 00:00:00 | |
| DL6DJ-15 | 2026-09-02 11:23:59 | 49.43337 | 12.40325 | 95° | 75km/h | 11427m | 4.2m/s | -54.5°C | 20.3% | 221.2hPa | 2.7V | 00:00:00 | 00:00:00 | 00:00:00 | |
| SONCRA | 2026-09-02 11:23:57 | 49.43341 | 12.40267 | 96° | 73km/h | 11419m | 4.9m/s | 0°C | -1.0% | 221.4hPa | 2.7V | 00:00:00 | 00:00:00 | 00:00:00 | |
| EDDB2-11 | 2026-09-02 11:23:46 | 49.43358 | 12.39919 | 94° | 73km/h | 11372m | 3.8m/s | -54.7°C | 22.9% | 223.1hPa | 2.7V | 00:00:00 | 00:00:00 | 00:00:00 | |
| DO3MHA-11 | 2026-09-02 11:23:40 | 49.43370 | 12.39775 | 100° | 73km/h | 11353m | 3.7m/s | -54.6°C | 29.5% | 223.7hPa | 2.7V | 00:00:00 | 00:40:39 | 00:00:00 | |
| DO9HM | 2026-09-02 11:23:37 | 49.43377 | 12.39690 | 96° | 75km/h | 11342m | 3.1m/s | -54.6°C | 24.5% | 224.1hPa | 2.7V | 04:44:00 | 00:00:00 | 00:00:00 | |
| DO8TBO-1 | 2026-09-02 11:23:36 | 49.43379 | 12.39662 | 94° | 73km/h | 11339m | 3.8m/s | -54.6°C | 30.4% | 224.1hPa | 2.7V | 00:00:00 | 00:40:35 | 00:00:00 | |
| OE5WHR-10 | 2026-09-02 11:23:34 | 49.43380 | 12.39605 | 93° | 73km/h | 11330m | 3.6m/s | -54.5°C | 31.2% | 224.5hPa | 2.7V | 00:00:00 | 00:00:00 | 00:00:00 | |
| ANDY1245 | 2026-09-02 11:23:31 | 49.43382 | 12.39549 | 95° | 73km/h | 11323m | 4.5m/s | 0°C | 0% | 0hPa | 2.7V | 00:00:00 | 00:00:00 | 00:00:00 | |
| DO3MHA-11 | 2026-09-02 11:23:30 | 49.43385 | 12.39492 | 95° | 75km/h | 11315m | 4.6m/s | -54.7°C | 32.8% | 225.0hPa | 2.7V | 00:00:00 | 00:40:29 | 00:00:00 | |
| DL6DJ-15 | 2026-09-02 11:23:28 | 49.43389 | 12.39433 | 95° | 77km/h | 11307m | 4.4m/s | -54.8°C | 27.9% | 225.3hPa | 2.7V | 00:00:00 | 00:00:00 | 00:00:00 | |
| OE5DRO-10 | 2026-09-02 11:23:27 | 49.43390 | 12.39403 | 96° | 71km/h | 11304m | 3.7m/s | -54.7°C | 34.3% | 225.4hPa | 2.7V | 04:44:00 | 00:00:00 | 00:00:00 | |
| SONCRA | 2026-09-02 11:23:26 | 49.43393 | 12.39372 | 95° | 77km/h | 11300m | 3.3m/s | 0°C | -1.0% | 225.6hPa | 2.7V | 00:00:00 | 00:00:00 | 00:00:00 | |
| OE5DXL-15 | 2026-09-02 11:23:22 | 49.43397 | 12.39259 | 92° | 71km/h | 11285m | 3.7m/s | -55.0°C | 36.9% | 226.1hPa | 2.7V | 00:00:00 | 00:00:00 | 00:00:00 | |
| DO3MHA-11 | 2026-09-02 11:23:20 | 49.43398 | 12.39207 | 93° | 73km/h | 11277m | 4.5m/s | -55.3°C | 38.0% | 226.4hPa | 2.7V | 00:00:00 | 00:40:19 | 00:00:00 | |
| DO9HM | 2026-09-02 11:23:19 | 49.43402 | 12.39129 | 96° | 69km/h | 11267m | 4.5m/s | -55.4°C | 32.3% | 226.8hPa | 2.7V | 04:44:00 | 00:00:00 | 00:00:00 | |
| EDDB2-11 | 2026-09-02 11:23:15 | 49.43409 | 12.39043 | 96° | 77km/h | 11254m | 3.6m/s | -55.3°C | 33.1% | 227.3hPa | 2.7V | 00:00:00 | 00:00:00 | 00:00:00 | |
| OE5WHR-10 | 2026-09-02 11:23:13 | 49.43410 | 12.39013 | 95° | 73km/h | 11251m | 3.4m/s | -55.3°C | 39.4% | 227.3hPa | 2.7V | 00:00:00 | 00:00:00 | 00:00:00 | |
| DO3MHA-11 | 2026-09-02 11:23:10 | 49.43412 | 12.38923 | 89° | 71km/h | 11240m | 3.8m/s | -55.4°C | 39.9% | 227.7hPa | 2.7V | 04:44:00 | 00:40:09 | 00:00:00 | |
| OE5DRO-10 | 2026-09-02 11:23:08 | 49.43411 | 12.38868 | 89° | 71km/h | 11232m | 3.0m/s | -55.5°C | 40.5% | 228.0hPa | 2.7V | 00:00:00 | 00:00:00 | 00:00:00 | |
| DO8TBO-1 | 2026-09-02 11:23:06 | 49.43410 | 12.38814 | 88° | 73km/h | 11224m | 3.6m/s | -55.5°C | 41.4% | 228.3hPa | 2.7V | 00:00:00 | 00:40:05 | 00:00:00 | |
| DL6DJ-15 | 2026-09-02 11:22:57 | 49.43416 | 12.38568 | 89° | 69km/h | 11192m | 2.9m/s | -55.5°C | 36.5% | 229.5hPa | 2.7V | 00:00:00 | 00:00:00 | 00:00:00 | |
| SONCRA | 2026-09-02 11:22:56 | 49.43416 | 12.38483 | 92° | 75km/h | 11182m | 3.4m/s | 0°C | -1.0% | 229.8hPa | 2.7V | 00:00:00 | 00:00:00 | 00:00:00 | |
| OE5DXL-15 | 2026-09-02 11:22:52 | 49.43418 | 12.38425 | 95° | 73km/h | 11175m | 3.0m/s | -55.5°C | 44.4% | 230.0hPa | 2.7V | 00:00:00 | 00:00:00 | 00:00:00 | |
| DO3MHA-11 | 2026-09-02 11:22:50 | 49.43421 | 12.38366 | 94° | 73km/h | 11168m | 4.3m/s | -55.5°C | 44.6% | 230.4hPa | 2.7V | 00:00:00 | 00:39:49 | 00:00:00 | |
| OE5DRO-10 | 2026-09-02 11:22:48 | 49.43424 | 12.38308 | 95° | 73km/h | 11161m | 3.9m/s | -55.6°C | 44.5% | 230.6hPa | 2.7V | 00:00:00 | 00:00:00 | 00:00:00 | |
| EDDB2-11 | 2026-09-02 11:22:44 | 49.43431 | 12.38170 | 94° | 71km/h | 11142m | 3.4m/s | -55.5°C | 36.6% | 231.3hPa | 2.7V | 00:00:00 | 00:00:00 | 00:00:00 | |
| DO3MHA-11 | 2026-09-02 11:22:40 | 49.43436 | 12.38086 | 94° | 75km/h | 11131m | 4.3m/s | -55.5°C | 44.6% | 231.6hPa | 2.7V | 00:00:00 | 00:39:39 | 00:00:00 | |
| DO8TBO-1 | 2026-09-02 11:22:36 | 49.43439 | 12.37969 | 94° | 73km/h | 11116m | 3.6m/s | -55.3°C | 44.0% | 232.2hPa | 2.7V | 04:45:00 | 00:39:35 | 00:00:00 | |
| OE5WHR-10 | 2026-09-02 11:22:31 | 49.43443 | 12.37825 | 95° | 73km/h | 11096m | 4.0m/s | -55.2°C | 42.5% | 232.9hPa | 2.7V | 04:45:00 | 00:00:00 | 00:00:00 | |
| DO3MHA-11 | 2026-09-02 11:22:30 | 49.43445 | 12.37798 | 95° | 73km/h | 11093m | 3.5m/s | -55.2°C | 41.9% | 233.1hPa | 2.7V | 00:00:00 | 00:39:29 | 00:00:00 | |
| OE5DRO-10 | 2026-09-02 11:22:29 | 49.43446 | 12.37771 | 95° | 75km/h | 11088m | 5.1m/s | -55.1°C | 41.0% | 233.2hPa | 2.7V | 00:00:00 | 00:00:00 | 00:00:00 | |
| DL6DJ-15 | 2026-09-02 11:22:26 | 49.43451 | 12.37689 | 97° | 71km/h | 11075m | 4.0m/s | -55.2°C | 34.0% | 233.7hPa | 2.7V | 00:00:00 | 00:00:00 | 00:00:00 | |
| SONCRA | 2026-09-02 11:22:24 | 49.43455 | 12.37634 | 94° | 71km/h | 11067m | 4.4m/s | 0°C | -1.0% | 234.1hPa | 2.7V | 00:00:00 | 00:00:00 | 00:00:00 | |
| OE5DXL-15 | 2026-09-02 11:22:22 | 49.43458 | 12.37576 | 94° | 75km/h | 11059m | 4.3m/s | -55.0°C | 41.2% | 234.3hPa | 2.7V | 04:45:00 | 00:00:00 | 00:00:00 | |
| DO3MHA-11 | 2026-09-02 11:22:20 | 49.43460 | 12.37516 | 94° | 75km/h | 11052m | 3.2m/s | -54.9°C | 41.9% | 234.6hPa | 2.7V | 04:45:00 | 00:39:19 | 00:00:00 | |
| DO9HM | 2026-09-02 11:22:14 | 49.43464 | 12.37369 | 95° | 73km/h | 11032m | 3.0m/s | -54.9°C | 36.6% | 235.3hPa | 2.7V | 00:00:00 | 00:00:00 | 00:00:00 | |
| EDDB2-11 | 2026-09-02 11:22:13 | 49.43468 | 12.37284 | 92° | 73km/h | 11021m | 3.8m/s | 0°C | -1.0% | 235.8hPa | 2.7V | 00:00:00 | 00:00:00 | 00:00:00 | |
| DO3MHA-11 | 2026-09-02 11:22:10 | 49.43470 | 12.37227 | 94° | 75km/h | 11014m | 4.3m/s | -54.9°C | 45.4% | 235.9hPa | 2.7V | 00:00:00 | 00:39:09 | 00:00:00 | |
| DO8TBO-1 | 2026-09-02 11:22:06 | 49.43473 | 12.37112 | 90° | 78km/h | 10999m | 3.0m/s | -54.8°C | 45.1% | 236.5hPa | 2.7V | 00:00:00 | 00:39:05 | 00:00:00 | |
| OE5DRO-10 | 2026-09-02 11:22:04 | 49.43473 | 12.37054 | 92° | 80km/h | 10991m | 3.9m/s | -54.8°C | 44.8% | 236.8hPa | 2.7V | 00:00:00 | 00:00:00 | 00:00:00 | |
| DL6DJ-15 | 2026-09-02 11:21:55 | 49.43476 | 12.36794 | 92° | 77km/h | 10956m | 3.7m/s | -54.7°C | 37.6% | 238.2hPa | 2.7V | 00:00:00 | 00:00:00 | 00:00:00 | |
| SONCRA | 2026-09-02 11:21:53 | 49.43479 | 12.36734 | 93° | 77km/h | 10948m | 3.0m/s | 0°C | -1.0% | -1.0hPa | 2.7V | 00:00:00 | 00:00:00 | 00:00:00 | |
| OE5DXL-15 | 2026-09-02 11:21:52 | 49.43480 | 12.36703 | 93° | 82km/h | 10945m | 2.9m/s | -54.6°C | 45.1% | 238.5hPa | 2.7V | 00:00:00 | 00:00:00 | 00:00:00 | |
| DO3MHA-11 | 2026-09-02 11:21:50 | 49.43480 | 12.36640 | 90° | 82km/h | 10937m | 3.3m/s | -54.5°C | 44.5% | 238.8hPa | 2.7V | 00:00:00 | 00:38:49 | 00:00:00 | |
| OE5WHR-10 | 2026-09-02 11:21:49 | 49.43480 | 12.36608 | 90° | 82km/h | 10934m | 3.0m/s | -54.6°C | 44.3% | 238.9hPa | 2.7V | 00:00:00 | 00:38:48 | 00:00:00 | |
| DO3MHA-11 | 2026-09-02 11:21:40 | 49.43484 | 12.36324 | 94° | 82km/h | 10899m | 3.4m/s | -54.4°C | 45.0% | 240.2hPa | 2.7V | 00:00:00 | 00:38:39 | 00:00:00 | |
| OE5DRO-10 | 2026-09-02 11:21:39 | 49.43485 | 12.36293 | 94° | 82km/h | 10895m | 5.0m/s | -54.4°C | 45.1% | 240.4hPa | 2.7V | 04:46:00 | 00:00:00 | 00:00:00 | |
| DO8TBO-1 | 2026-09-02 11:21:36 | 49.43488 | 12.36198 | 93° | 82km/h | 10882m | 4.0m/s | -54.4°C | 46.5% | 240.9hPa | 2.7V | 00:00:00 | 00:38:35 | 00:00:00 | |
| DO9HM | 2026-09-02 11:21:33 | 49.43490 | 12.36135 | 93° | 82km/h | 10874m | 4.6m/s | -54.4°C | 40.1% | 241.2hPa | 2.7V | 04:46:00 | 00:00:00 | 00:00:00 | |
| DO3MHA-11 | 2026-09-02 11:21:30 | 49.43494 | 12.36007 | 94° | 82km/h | 10858m | 3.7m/s | -54.4°C | 48.0% | 241.8hPa | 2.7V | 04:46:00 | 00:38:29 | 00:00:00 | |
| OE5WHR-10 | 2026-09-02 11:21:28 | 49.43496 | 12.35942 | 92° | 84km/h | 10850m | 3.7m/s | -54.4°C | 48.5% | 242.1hPa | 2.7V | 00:00:00 | 00:00:00 | 00:00:00 | |
| DL6DJ-15 | 2026-09-02 11:21:24 | 49.43499 | 12.35782 | 89° | 82km/h | 10830m | 4.8m/s | -54.3°C | 40.3% | 242.9hPa | 2.7V | 00:00:00 | 00:00:00 | 00:00:00 | |
| OE5DXL-15 | 2026-09-02 11:21:22 | 49.43499 | 12.35749 | 90° | 84km/h | 10826m | 3.4m/s | -54.3°C | 47.0% | 243.0hPa | 2.7V | 00:00:00 | 00:00:00 | 00:00:00 | |
| DO3MHA-11 | 2026-09-02 11:21:20 | 49.43499 | 12.35686 | 90° | 84km/h | 10817m | 4.5m/s | -54.2°C | 47.7% | 243.3hPa | 2.7V | 00:00:00 | 00:38:19 | 00:00:00 | |
| DO9HM | 2026-09-02 11:21:12 | 49.43488 | 12.35458 | 87° | 89km/h | 10787m | 4.9m/s | -54.1°C | 44.5% | 244.6hPa | 2.7V | 04:47:00 | 00:00:00 | 00:00:00 | |
| DO3MHA-11 | 2026-09-02 11:21:10 | 49.43483 | 12.35360 | 84° | 82km/h | 10774m | 3.9m/s | -54.0°C | 53.0% | 244.9hPa | 2.7V | 00:00:00 | 00:38:09 | 00:00:00 | |
| DM0DOS-11 | 2026-09-02 11:21:07 | 49.43475 | 12.35110 | 93° | 84km/h | 10745m | 4m/s | 0°C | 0% | 0hPa | 2.8V | 00:00:00 | 00:38:01 | 00:00:00 | |
| DO8TBO-1 | 2026-09-02 11:21:06 | 49.43473 | 12.35238 | 88° | 88km/h | 10761m | 4.1m/s | -53.9°C | 54.5% | 245.5hPa | 2.7V | 00:00:00 | 00:38:05 | 00:00:00 | |
| DL6DJ-15 | 2026-09-02 11:20:53 | 49.43466 | 12.34765 | 79° | 91km/h | 10693m | 6.2m/s | -53.5°C | 52.1% | 248.1hPa | 2.7V | 00:00:00 | 00:00:00 | 00:00:00 | |
| OE5DXL-15 | 2026-09-02 11:20:52 | 49.43466 | 12.34765 | 80° | 93km/h | 10693m | 6.2m/s | -53.5°C | 60.1% | 248.0hPa | 2.7V | 00:00:00 | 00:00:00 | 00:00:00 | |
| DO9HM | 2026-09-02 11:20:51 | 49.43467 | 12.34765 | 81° | 93km/h | 10693m | 6.2m/s | -53.5°C | 52.1% | 248.1hPa | 2.7V | 04:47:00 | 00:00:00 | 00:00:00 | |
| DO3MHA-11 | 2026-09-02 11:20:50 | 49.43458 | 12.34695 | 81° | 88km/h | 10683m | 3.7m/s | -53.4°C | 63.1% | 248.4hPa | 2.7V | 00:00:00 | 00:37:49 | 00:00:00 | |
| OE5WHR-10 | 2026-09-02 11:20:46 | 49.43443 | 12.34556 | 79° | 93km/h | 10666m | 5.5m/s | -53.3°C | 66.5% | 249.1hPa | 2.7V | 04:47:00 | 00:37:45 | 00:00:00 | |
| DO3MHA-11 | 2026-09-02 11:20:40 | 49.43416 | 12.34364 | 83° | 95km/h | 10642m | 4.6m/s | -53.3°C | 69.1% | 250.0hPa | 2.7V | 04:47:00 | 00:37:39 | 00:00:00 | |
| OE5DRO-10 | 2026-09-02 11:20:37 | 49.43406 | 12.34253 | 81° | 97km/h | 10620m | 8.9m/s | -53.1°C | 69.3% | 250.8hPa | 2.7V | 00:00:00 | 00:00:00 | 00:00:00 | |
| DO8TBO-1 | 2026-09-02 11:20:36 | 49.43402 | 12.34218 | 78° | 99km/h | 10612m | 7.6m/s | -53.0°C | 70.1% | 251.1hPa | 2.7V | 00:00:00 | 00:37:35 | 00:00:00 | |
| DO9HM | 2026-09-02 11:20:31 | 49.43373 | 12.34040 | 81° | 99km/h | 10586m | 4.1m/s | -52.8°C | 65.9% | 252.2hPa | 2.7V | 04:47:00 | 00:00:00 | 00:00:00 | |
| DO3MHA-11 | 2026-09-02 11:20:30 | 49.43368 | 12.34002 | 81° | 99km/h | 10582m | 5.1m/s | -52.7°C | 74.9% | 252.4hPa | 2.7V | 00:00:00 | 00:37:29 | 00:00:00 | |
| OE5WHR-10 | 2026-09-02 11:20:25 | 49.43345 | 12.33816 | 77° | 100km/h | 10560m | 4.6m/s | -52.6°C | 75.5% | 253.2hPa | 2.7V | 00:00:00 | 00:00:00 | 00:00:00 | |
| DL6DJ-15 | 2026-09-02 11:20:22 | 49.43324 | 12.33665 | 80° | 95km/h | 10543m | 3.9m/s | -52.4°C | 65.6% | 253.9hPa | 2.9V | 00:00:00 | 00:00:00 | 00:00:00 | |
| DO3MHA-11 | 2026-09-02 11:20:20 | 49.43320 | 12.33628 | 83° | 102km/h | 10540m | 3.5m/s | -52.4°C | 74.6% | 254.0hPa | 2.9V | 00:00:00 | 00:37:19 | 00:00:00 | |
| OE5DRO-10 | 2026-09-02 11:20:18 | 49.43313 | 12.33552 | 82° | 104km/h | 10531m | 3.8m/s | -52.3°C | 77.0% | 254.5hPa | 2.9V | 00:00:00 | 00:00:00 | 00:00:00 | |
| DO3MHA-11 | 2026-09-02 11:20:10 | 49.43269 | 12.33240 | 79° | 100km/h | 10499m | 4.7m/s | -52.0°C | 78.0% | 255.6hPa | 2.9V | 00:00:00 | 00:37:09 | 00:00:00 | |
| DO8TBO-1 | 2026-09-02 11:20:06 | 49.43253 | 12.33089 | 84° | 106km/h | 10483m | 3.9m/s | -51.9°C | 81.1% | 256.3hPa | 2.9V | 04:47:00 | 00:37:05 | 00:00:00 | |
| OE5WHR-10 | 2026-09-02 11:20:04 | 49.43246 | 12.33013 | 81° | 106km/h | 10477m | 3.1m/s | -51.8°C | 81.2% | 256.5hPa | 2.9V | 00:00:00 | 00:00:00 | 00:00:00 | |
| DO3MHA-11 | 2026-09-02 11:20:00 | 49.43218 | 12.32853 | 72° | 106km/h | 10460m | 5.0m/s | -51.7°C | 75.9% | 257.1hPa | 2.9V | 00:00:00 | 00:36:59 | 00:00:00 | |
| OE5DRO-10 | 2026-09-02 11:19:59 | 49.43209 | 12.32812 | 72° | 106km/h | 10456m | 3.4m/s | -51.6°C | 76.1% | 257.4hPa | 2.9V | 04:47:00 | 00:00:00 | 00:00:00 | |
| OE5DXL-15 | 2026-09-02 11:19:52 | 49.43157 | 12.32532 | 79° | 106km/h | 10423m | 5.6m/s | -51.4°C | 79.3% | 258.6hPa | 2.9V | 04:47:00 | 00:00:00 | 00:00:00 | |
| DO9HM | 2026-09-02 11:19:50 | 49.43147 | 12.32457 | 79° | 100km/h | 10413m | 4.3m/s | -51.3°C | 71.9% | 259.2hPa | 2.9V | 04:48:00 | 00:00:00 | 00:00:00 | |
| NBG1-10 | 2026-09-02 11:19:47 | 49.43130 | 12.32339 | 78° | 104km/h | 10399m | 5.4m/s | -51.2°C | 79.7% | 259.6hPa | 2.9V | 00:00:00 | 00:36:46 | 00:00:00 | |
| OE5WHR-10 | 2026-09-02 11:19:43 | 49.43106 | 12.32176 | 78° | 106km/h | 10380m | 4.7m/s | 0°C | 0% | 0hPa | 2.9V | 00:00:00 | 00:36:42 | 00:00:00 | |
| DO3MHA-11 | 2026-09-02 11:19:40 | 49.43088 | 12.32053 | 77° | 106km/h | 10367m | 4.7m/s | -50.9°C | 81.1% | 260.9hPa | 2.9V | 00:00:00 | 00:36:39 | 00:00:00 | |
| DO8TBO-1 | 2026-09-02 11:19:36 | 49.43063 | 12.31892 | 78° | 104km/h | 10352m | 2.6m/s | -50.7°C | 81.1% | 261.6hPa | 2.9V | 00:00:00 | 00:36:35 | 00:00:00 | |
| DO9HM | 2026-09-02 11:19:30 | 49.43026 | 12.31654 | 76° | 106km/h | 10329m | 4.7m/s | -50.6°C | 70.7% | 262.5hPa | 2.7V | 04:49:00 | 00:00:00 | 00:00:00 | |
| AM1SDL-15 | 2026-09-02 11:19:24 | 49.42983 | 12.31419 | 76° | 106km/h | 10307m | 4.3m/s | 0°C | 0% | 0hPa | 2.7V | 00:00:00 | 00:36:23 | 00:00:00 | |
| OE5WHR-10 | 2026-09-02 11:19:22 | 49.42970 | 12.31339 | 77° | 104km/h | 10301m | 3.7m/s | 0°C | 0% | 0hPa | 2.7V | 00:00:00 | 00:00:00 | 00:00:00 | |
| DO3MHA-11 | 2026-09-02 11:19:20 | 49.42959 | 12.31261 | 79° | 104km/h | 10293m | 2.9m/s | -50.2°C | 78.2% | 263.8hPa | 2.7V | 00:00:00 | 00:36:19 | 00:00:00 | |
| DL6DJ-15 | 2026-09-02 11:19:19 | 49.42954 | 12.31222 | 78° | 102km/h | 10289m | 4.0m/s | -50.3°C | 70.1% | 264.1hPa | 2.7V | 00:00:00 | 00:00:00 | 00:00:00 | |
| AM1SDL-15 | 2026-09-02 11:19:12 | 49.42906 | 12.30946 | 74° | 99km/h | 10263m | 4.0m/s | 0°C | 0% | 0hPa | 2.7V | 00:00:00 | 00:36:11 | 00:00:00 | |
| DO3MHA-11 | 2026-09-02 11:19:10 | 49.42892 | 12.30869 | 75° | 102km/h | 10255m | 3.0m/s | -49.9°C | 77.8% | 265.4hPa | 2.7V | 00:00:00 | 00:36:09 | 00:00:00 | |
| DG1MFX-10 | 2026-09-02 11:19:09 | 49.42892 | 12.30870 | 76° | 100km/h | 10255m | 3.1m/s | 0°C | 0% | 0hPa | 2.9V | 00:00:00 | 00:00:00 | 00:00:00 | |
| DO9HM | 2026-09-02 11:19:08 | 49.42886 | 12.30832 | 77° | 102km/h | 10252m | 4.3m/s | -49.9°C | 69.9% | 265.6hPa | 2.9V | 04:49:00 | 00:00:00 | 00:00:00 | |
| DO8TBO-1 | 2026-09-02 11:19:06 | 49.42867 | 12.30715 | 77° | 102km/h | 10240m | 4.2m/s | -49.8°C | 77.6% | 266.0hPa | 2.9V | 00:00:00 | 00:36:05 | 00:00:00 | |
| DL6DJ-15 | 2026-09-02 11:18:48 | 49.42750 | 12.30026 | 77° | 99km/h | 10175m | 3.4m/s | -49.4°C | 73.2% | 268.8hPa | 2.9V | 00:00:00 | 00:00:00 | 00:00:00 | |
| DO9HM | 2026-09-02 11:18:47 | 49.42750 | 12.30025 | 78° | 99km/h | 10175m | 3.4m/s | -49.4°C | 73.3% | 268.8hPa | 2.9V | 04:49:00 | 00:00:00 | 00:00:00 | |
| OE5DRO-10 | 2026-09-02 11:18:42 | 49.42708 | 12.29798 | 74° | 102km/h | 10154m | 3.6m/s | -49.1°C | 79.7% | 269.7hPa | 2.9V | 00:00:00 | 00:00:00 | 00:00:00 | |
| DO3MHA-11 | 2026-09-02 11:18:40 | 49.42695 | 12.29718 | 77° | 102km/h | 10146m | 3.0m/s | -49.0°C | 80.1% | 269.9hPa | 2.9V | 00:00:00 | 00:35:39 | 00:00:00 | |
| OE5WHR-10 | 2026-09-02 11:18:38 | 49.42682 | 12.29638 | 78° | 100km/h | 10139m | 4.0m/s | 0°C | 0% | 0hPa | 2.9V | 00:00:00 | 00:35:37 | 00:00:00 | |
| DO8TBO-1 | 2026-09-02 11:18:36 | 49.42671 | 12.29561 | 79° | 100km/h | 10131m | 3.6m/s | -48.9°C | 75.9% | 270.6hPa | 2.9V | 00:00:00 | 00:35:35 | 00:00:00 | |
| DO3MHA-11 | 2026-09-02 11:18:30 | 49.42638 | 12.29332 | 77° | 100km/h | 10108m | 4.5m/s | -48.7°C | 73.8% | 271.6hPa | 2.9V | 00:00:00 | 00:35:29 | 00:00:00 | |
| DO9HM | 2026-09-02 11:18:25 | 49.42611 | 12.29182 | 75° | 99km/h | 10092m | 4.1m/s | -48.6°C | 67.0% | 272.2hPa | 2.9V | 00:00:00 | 00:00:00 | 00:00:00 | |
| OE5DRO-10 | 2026-09-02 11:18:23 | 49.42590 | 12.29070 | 76° | 102km/h | 10081m | 4.2m/s | -48.5°C | 75.5% | 272.6hPa | 2.9V | 04:49:00 | 00:00:00 | 00:00:00 | |
| OE5DXL-15 | 2026-09-02 11:18:22 | 49.42584 | 12.29030 | 77° | 100km/h | 10078m | 3.0m/s | -48.4°C | 75.9% | 272.8hPa | 2.9V | 00:00:00 | 00:00:00 | 00:00:00 | |
| DO3MHA-11 | 2026-09-02 11:18:20 | 49.42573 | 12.28952 | 79° | 102km/h | 10070m | 4.0m/s | -48.4°C | 74.7% | 273.2hPa | 2.9V | 00:00:00 | 00:35:19 | 00:00:00 | |
| DL6DJ-15 | 2026-09-02 11:18:17 | 49.42557 | 12.28837 | 76° | 100km/h | 10058m | 4.9m/s | -48.4°C | 66.1% | 273.7hPa | 2.9V | 00:00:00 | 00:00:00 | 00:00:00 | |
| OE5WHR-10 | 2026-09-02 11:18:16 | 49.42551 | 12.28799 | 77° | 100km/h | 10054m | 3.1m/s | 0°C | 0% | 0hPa | 2.9V | 00:00:00 | 00:00:00 | 00:00:00 | |
| DO3MHA-11 | 2026-09-02 11:18:10 | 49.42516 | 12.28569 | 77° | 100km/h | 10031m | 2.7m/s | -48.0°C | 73.3% | 274.7hPa | 2.9V | 04:49:00 | 00:35:09 | 00:00:00 | |
| DO8TBO-1 | 2026-09-02 11:18:06 | 49.42494 | 12.28418 | 79° | 99km/h | 10016m | 4.1m/s | -48.0°C | 74.7% | 275.3hPa | 2.7V | 00:00:00 | 00:35:05 | 00:00:00 | |
| DO9HM | 2026-09-02 11:18:05 | 49.42494 | 12.28418 | 80° | 100km/h | 10016m | 4.2m/s | -48.0°C | 67.1% | 275.4hPa | 2.9V | 00:00:00 | 00:00:00 | 00:00:00 | |
| OE5DRO-10 | 2026-09-02 11:18:04 | 49.42484 | 12.28341 | 79° | 100km/h | 10008m | 3.5m/s | -47.9°C | 74.7% | 275.7hPa | 2.9V | 00:00:00 | 00:00:00 | 00:00:00 | |
| DL6DJ-15 | 2026-09-02 11:17:47 | 49.42378 | 12.27666 | 74° | 100km/h | 9936m | 4.0m/s | -47.5°C | 52.4% | 278.8hPa | 2.9V | 00:00:00 | 00:00:00 | 00:00:00 | |
| OE5DRO-10 | 2026-09-02 11:17:45 | 49.42371 | 12.27628 | 76° | 97km/h | 9932m | 4.0m/s | -47.4°C | 58.8% | 278.9hPa | 2.9V | 00:00:00 | 00:00:00 | 00:00:00 | |
| DO9HM | 2026-09-02 11:17:41 | 49.42354 | 12.27516 | 78° | 97km/h | 9921m | 4.3m/s | -47.3°C | 49.5% | 279.5hPa | 2.9V | 04:50:00 | 00:00:00 | 00:00:00 | |
| DO3MHA-11 | 2026-09-02 11:17:40 | 49.42342 | 12.27445 | 76° | 97km/h | 9913m | 3.7m/s | -47.2°C | 55.4% | 279.8hPa | 2.9V | 00:00:00 | 00:34:39 | 00:00:00 | |
| DO8TBO-1 | 2026-09-02 11:17:36 | 49.42322 | 12.27297 | 81° | 95km/h | 9897m | 3.8m/s | -47.0°C | 55.9% | 280.4hPa | 2.7V | 04:50:00 | 00:34:35 | 00:00:00 | |
| DO3MHA-11 | 2026-09-02 11:17:30 | 49.42293 | 12.27079 | 79° | 97km/h | 9873m | 3.8m/s | -46.8°C | 56.7% | 281.4hPa | 2.7V | 00:00:00 | 00:34:29 | 00:00:00 | |
| OE5DRO-10 | 2026-09-02 11:17:26 | 49.42274 | 12.26936 | 77° | 95km/h | 9857m | 5.0m/s | -46.7°C | 56.2% | 282.1hPa | 2.7V | 00:00:00 | 00:00:00 | 00:00:00 | |
| OE5DXL-15 | 2026-09-02 11:17:22 | 49.42252 | 12.26788 | 80° | 95km/h | 9840m | 4.3m/s | -46.5°C | 57.1% | 282.8hPa | 2.7V | 04:50:00 | 00:00:00 | 00:00:00 | |
| DO9HM | 2026-09-02 11:17:21 | 49.42248 | 12.26750 | 82° | 100km/h | 9836m | 3.8m/s | -46.5°C | 51.2% | 283.0hPa | 2.7V | 04:50:00 | 00:00:00 | 00:00:00 | |
| DO3MHA-11 | 2026-09-02 11:17:20 | 49.42244 | 12.26712 | 82° | 93km/h | 9832m | 5.0m/s | -46.4°C | 57.9% | 283.2hPa | 2.7V | 04:50:00 | 00:34:19 | 00:00:00 | |
| DL6DJ-15 | 2026-09-02 11:17:15 | 49.42224 | 12.26530 | 79° | 86km/h | 9811m | 3.6m/s | -46.3°C | 57.9% | 284.1hPa | 2.7V | 00:00:00 | 00:00:00 | 00:00:00 | |
| DO3MHA-11 | 2026-09-02 11:17:10 | 49.42201 | 12.26356 | 78° | 93km/h | 9791m | 3.8m/s | -46.1°C | 69.5% | 285.0hPa | 2.7V | 00:00:00 | 00:34:09 | 00:00:00 | |
| OE5DRO-10 | 2026-09-02 11:17:07 | 49.42185 | 12.26246 | 78° | 95km/h | 9779m | 4.2m/s | -46.0°C | 69.1% | 285.4hPa | 2.9V | 00:00:00 | 00:00:00 | 00:00:00 | |
| DO8TBO-1 | 2026-09-02 11:17:06 | 49.42180 | 12.26210 | 80° | 93km/h | 9774m | 5.2m/s | -46.0°C | 69.3% | 285.6hPa | 2.9V | 00:00:00 | 00:34:05 | 00:00:00 | |
| DO3MHA-11 | 2026-09-02 11:17:00 | 49.42158 | 12.25999 | 77° | 95km/h | 9750m | 4.2m/s | -45.8°C | 67.9% | 286.7hPa | 2.9V | 00:00:00 | 00:33:59 | 00:00:00 | |
| OE5DXL-15 | 2026-09-02 11:16:52 | 49.42112 | 12.25709 | 76° | 93km/h | 9717m | 4.4m/s | -45.6°C | 64.2% | 288.1hPa | 2.9V | 00:00:00 | 00:00:00 | 00:00:00 | |
| AM1SDL-15 | 2026-09-02 11:16:51 | 49.42106 | 12.25674 | 76° | 93km/h | 9713m | 3.4m/s | 0°C | 0% | 0hPa | 2.9V | 00:00:00 | 00:33:50 | 00:00:00 | |
| DO3MHA-11 | 2026-09-02 11:16:50 | 49.42100 | 12.25639 | 77° | 95km/h | 9710m | 3.6m/s | -45.5°C | 62.4% | 288.4hPa | 2.9V | 00:00:00 | 00:33:49 | 00:00:00 | |
| OE5DRO-10 | 2026-09-02 11:16:48 | 49.42090 | 12.25568 | 78° | 93km/h | 9701m | 3.8m/s | -45.3°C | 62.3% | 288.8hPa | 2.9V | 04:51:00 | 00:00:00 | 00:00:00 | |
| DL6DJ-15 | 2026-09-02 11:16:44 | 49.42067 | 12.25425 | 76° | 93km/h | 9686m | 3.6m/s | -45.2°C | 54.8% | 289.5hPa | 2.9V | 00:00:00 | 00:00:00 | 00:00:00 | |
| DO3MHA-11 | 2026-09-02 11:16:40 | 49.42047 | 12.25281 | 79° | 91km/h | 9670m | 4.3m/s | -45.1°C | 59.8% | 290.2hPa | 2.9V | 00:00:00 | 00:33:39 | 00:00:00 | |
| DO9HM | 2026-09-02 11:16:39 | 49.42047 | 12.25281 | 80° | 91km/h | 9670m | 4.4m/s | -45.1°C | 53.8% | 290.2hPa | 2.9V | 04:51:00 | 00:00:00 | 00:00:00 | |
| DO8TBO-1 | 2026-09-02 11:16:36 | 49.42025 | 12.25145 | 75° | 93km/h | 9654m | 4.2m/s | -45.0°C | 59.4% | 290.9hPa | 2.9V | 00:00:00 | 00:33:35 | 00:00:00 | |
| OE5WHR-10 | 2026-09-02 11:16:33 | 49.42009 | 12.25041 | 78° | 91km/h | 9642m | 5.1m/s | 0°C | 0% | 0hPa | 2.9V | 00:00:00 | 00:33:32 | 00:00:00 | |
| DO3MHA-11 | 2026-09-02 11:16:30 | 49.41994 | 12.24935 | 78° | 93km/h | 9630m | 4.5m/s | -44.9°C | 59.7% | 291.9hPa | 2.9V | 04:51:00 | 00:33:29 | 00:00:00 | |
| OE5DRO-10 | 2026-09-02 11:16:29 | 49.41988 | 12.24898 | 77° | 91km/h | 9626m | 4.4m/s | -44.9°C | 59.0% | 292.1hPa | 2.9V | 00:00:00 | 00:00:00 | 00:00:00 | |
| OE5DXL-15 | 2026-09-02 11:16:22 | 49.41945 | 12.24654 | 78° | 93km/h | 9591m | 6.7m/s | -44.6°C | 55.6% | 293.6hPa | 2.9V | 00:00:00 | 00:00:00 | 00:00:00 | |
| DO9HM | 2026-09-02 11:16:20 | 49.41936 | 12.24586 | 81° | 91km/h | 9581m | 4.0m/s | -44.6°C | 49.6% | 294.1hPa | 2.9V | 04:51:00 | 00:00:00 | 00:00:00 | |
| DL6DJ-15 | 2026-09-02 11:16:13 | 49.41910 | 12.24347 | 78° | 89km/h | 9549m | 3.1m/s | -44.3°C | 48.2% | 295.5hPa | 2.9V | 00:00:00 | 00:00:00 | 00:00:00 | |
| OE5WHR-10 | 2026-09-02 11:16:12 | 49.41906 | 12.24313 | 79° | 91km/h | 9546m | 4.2m/s | 0°C | 0% | 0hPa | 2.9V | 00:00:00 | 00:00:00 | 00:00:00 | |
| DO3MHA-11 | 2026-09-02 11:16:10 | 49.41896 | 12.24243 | 79° | 97km/h | 9538m | 3.5m/s | -44.3°C | 50.6% | 295.9hPa | 2.9V | 00:00:00 | 00:33:09 | 00:00:00 | |
| DO8TBO-1 | 2026-09-02 11:16:06 | 49.41883 | 12.24090 | 86° | 93km/h | 9522m | 4.8m/s | -44.2°C | 47.0% | 296.7hPa | 2.9V | 00:00:00 | 00:33:05 | 00:00:00 | |
| DO3MHA-11 | 2026-09-02 11:16:00 | 49.41886 | 12.23873 | 91° | 91km/h | 9491m | 5.1m/s | -43.9°C | 48.7% | 298.0hPa | 2.9V | 00:00:00 | 00:32:59 | 00:00:00 | |
| DO9HM | 2026-09-02 11:15:58 | 49.41885 | 12.23838 | 89° | 93km/h | 9485m | 5.4m/s | -43.9°C | 44.9% | 298.2hPa | 2.9V | 04:52:00 | 00:00:00 | 00:00:00 | |
| OE5DXL-15 | 2026-09-02 11:15:52 | 49.41869 | 12.23587 | 81° | 82km/h | 9453m | 4.0m/s | -43.8°C | 52.8% | 299.7hPa | 2.9V | 00:00:00 | 00:00:00 | 00:00:00 | |
| OE5DRO-10 | 2026-09-02 11:15:51 | 49.41866 | 12.23555 | 83° | 75km/h | 9448m | 5.3m/s | -43.8°C | 52.9% | 299.9hPa | 2.9V | 00:00:00 | 00:00:00 | 00:00:00 | |
| DO3MHA-11 | 2026-09-02 11:15:50 | 49.41863 | 12.23525 | 84° | 91km/h | 9443m | 5.0m/s | -43.7°C | 53.7% | 300.1hPa | 2.9V | 00:00:00 | 00:32:49 | 00:00:00 | |
| DL6DJ-15 | 2026-09-02 11:15:42 | 49.41862 | 12.23249 | 85° | 104km/h | 9398m | 7.9m/s | -43.4°C | 45.2% | 302.0hPa | 2.9V | 00:00:00 | 00:00:00 | 00:00:00 | |
| DO3MHA-11 | 2026-09-02 11:15:40 | 49.41856 | 12.23169 | 84° | 86km/h | 9386m | 4.9m/s | -43.2°C | 50.4% | 302.6hPa | 2.9V | 04:52:00 | 00:32:39 | 00:00:00 | |
| DO9HM | 2026-09-02 11:15:37 | 49.41849 | 12.23094 | 81° | 97km/h | 9375m | 5.5m/s | -43.2°C | 44.4% | 303.1hPa | 2.9V | 04:52:00 | 00:00:00 | 00:00:00 | |
| DO8TBO-1 | 2026-09-02 11:15:36 | 49.41839 | 12.23025 | 76° | 77km/h | 9364m | 4.8m/s | -43.1°C | 48.6% | 303.6hPa | 2.9V | 00:00:00 | 00:32:35 | 00:00:00 | |
| DO3MHA-11 | 2026-09-02 11:15:30 | 49.41819 | 12.22852 | 89° | 69km/h | 9333m | 4.8m/s | -42.8°C | 47.2% | 305.0hPa | 2.9V | 00:00:00 | 00:32:29 | 00:00:00 | |
| OE5DXL-15 | 2026-09-02 11:15:22 | 49.41827 | 12.22636 | 87° | 80km/h | 9289m | 4.6m/s | -42.3°C | 46.3% | 307.1hPa | 2.9V | 00:00:00 | 00:00:00 | 00:00:00 | |
| DB0NH | 2026-09-02 11:15:21 | 49.41826 | 12.22609 | 85° | 80km/h | 9284m | 5.5m/s | -42.3°C | 46.8% | 307.4hPa | 2.9V | 00:00:00 | 00:32:20 | 00:00:00 | |
| DO3MHA-11 | 2026-09-02 11:15:20 | 49.41824 | 12.22581 | 85° | 77km/h | 9279m | 4.7m/s | -42.2°C | 47.5% | 307.6hPa | 2.9V | 00:00:00 | 00:32:19 | 00:00:00 | |
| DO9HM | 2026-09-02 11:15:16 | 49.41822 | 12.22493 | 93° | 75km/h | 9263m | 7.1m/s | -42.1°C | 43.5% | 308.4hPa | 2.9V | 04:53:00 | 00:00:00 | 00:00:00 | |
| DL6DJ-15 | 2026-09-02 11:15:11 | 49.41814 | 12.22316 | 80° | 86km/h | 9219m | 7.2m/s | -41.9°C | 46.5% | 310.4hPa | 2.9V | 00:00:00 | 00:00:00 | 00:00:00 | |
| DO3MHA-11 | 2026-09-02 11:15:10 | 49.41811 | 12.22283 | 82° | 89km/h | 9212m | 7.6m/s | -41.9°C | 52.2% | 310.7hPa | 2.9V | 00:00:00 | 00:32:09 | 00:00:00 | |
| DO8TBO-1 | 2026-09-02 11:15:06 | 49.41801 | 12.22142 | 89° | 78km/h | 9192m | 4.0m/s | -41.8°C | 52.8% | 311.7hPa | 2.9V | 04:52:00 | 00:32:05 | 00:00:00 | |
| DO3MHA-11 | 2026-09-02 11:15:00 | 49.41822 | 12.21941 | 110° | 75km/h | 9158m | 5.7m/s | -41.5°C | 52.9% | 313.3hPa | 2.7V | 00:00:00 | 00:31:59 | 00:00:00 | |
| DO9HM | 2026-09-02 11:14:55 | 49.41847 | 12.21834 | 109° | 75km/h | 9137m | 4.1m/s | -41.5°C | 50.2% | 314.2hPa | 2.7V | 04:53:00 | 00:00:00 | 00:00:00 | |
| OE5DXL-15 | 2026-09-02 11:14:52 | 49.41866 | 12.21716 | 100° | 73km/h | 9118m | 4.1m/s | -41.3°C | 55.7% | 315.1hPa | 2.7V | 04:52:00 | 00:00:00 | 00:00:00 | |
| DB0NH | 2026-09-02 11:14:51 | 49.41869 | 12.21687 | 100° | 73km/h | 9114m | 4.4m/s | -41.3°C | 55.7% | 315.3hPa | 2.7V | 00:00:00 | 00:31:50 | 00:00:00 | |
| DO3MHA-11 | 2026-09-02 11:14:50 | 49.41872 | 12.21659 | 102° | 73km/h | 9110m | 4.6m/s | -41.2°C | 55.8% | 315.5hPa | 2.7V | 04:53:00 | 00:31:49 | 00:00:00 | |
| DO3MHA-11 | 2026-09-02 11:14:40 | 49.41918 | 12.21383 | 98° | 73km/h | 9062m | 6.4m/s | -41.0°C | 57.1% | 317.6hPa | 2.7V | 00:00:00 | 00:31:39 | 00:00:00 | |
| DO8TBO-1 | 2026-09-02 11:14:36 | 49.41935 | 12.21271 | 109° | 73km/h | 9037m | 6.8m/s | -40.8°C | 57.4% | 318.8hPa | 2.9V | 00:00:00 | 00:31:35 | 00:00:00 | |
| DO9HM | 2026-09-02 11:14:34 | 49.41940 | 12.21247 | 108° | 66km/h | 9029m | 8.5m/s | -40.8°C | 52.3% | 319.1hPa | 2.9V | 04:53:00 | 00:00:00 | 00:00:00 | |
| DO3MHA-11 | 2026-09-02 11:14:30 | 49.41969 | 12.21114 | 110° | 71km/h | 8996m | 7.6m/s | -40.4°C | 57.3% | 320.6hPa | 2.9V | 00:00:00 | 00:31:29 | 00:00:00 | |
| OE5DXL-15 | 2026-09-02 11:14:22 | 49.42003 | 12.20901 | 100° | 71km/h | 8957m | 5.7m/s | -40.1°C | 56.6% | 322.5hPa | 2.9V | 00:00:00 | 00:00:00 | 00:00:00 | |
| DB0NH | 2026-09-02 11:14:21 | 49.42006 | 12.20873 | 100° | 71km/h | 8952m | 4.5m/s | -40.0°C | 57.1% | 322.8hPa | 2.9V | 00:00:00 | 00:31:20 | 00:00:00 | |
| DO3MHA-11 | 2026-09-02 11:14:20 | 49.42009 | 12.20846 | 103° | 77km/h | 8946m | 7.2m/s | -40.0°C | 57.3% | 323.0hPa | 2.9V | 00:00:00 | 00:31:19 | 00:00:00 | |
| DO9HM | 2026-09-02 11:14:14 | 49.42049 | 12.20680 | 115° | 82km/h | 8916m | 3.3m/s | -39.8°C | 51.7% | 324.5hPa | 2.9V | 04:54:00 | 00:00:00 | 00:00:00 | |
| DO3MHA-11 | 2026-09-02 11:14:10 | 49.42082 | 12.20567 | 115° | 68km/h | 8899m | 7.2m/s | -39.6°C | 55.2% | 325.2hPa | 2.9V | 00:00:00 | 00:31:09 | 00:00:00 | |
| DL6DJ-15 | 2026-09-02 11:14:09 | 49.42095 | 12.20515 | 105° | 68km/h | 8887m | 5.6m/s | -39.5°C | 49.4% | 325.9hPa | 2.9V | 00:00:00 | 00:00:00 | 00:00:00 | |
| DO8TBO-1 | 2026-09-02 11:14:06 | 49.42101 | 12.20466 | 99° | 73km/h | 8876m | 5.6m/s | -39.4°C | 53.0% | 326.3hPa | 2.9V | 00:00:00 | 00:31:05 | 00:00:00 | |
| DO3MHA-11 | 2026-09-02 11:14:00 | 49.42120 | 12.20317 | 109° | 69km/h | 8844m | 5.8m/s | -39.1°C | 51.9% | 327.8hPa | 2.9V | 04:53:00 | 00:30:59 | 00:00:00 | |
| OE5DXL-15 | 2026-09-02 11:13:52 | 49.42153 | 12.20107 | 101° | 75km/h | 8798m | 4.6m/s | -38.7°C | 50.0% | 329.9hPa | 2.9V | 00:00:00 | 00:00:00 | 00:00:00 | |
| DB0NH | 2026-09-02 11:13:51 | 49.42157 | 12.20080 | 103° | 75km/h | 8793m | 4.8m/s | -38.6°C | 49.9% | 330.1hPa | 2.9V | 00:00:00 | 00:30:50 | 00:00:00 | |
| DO3MHA-11 | 2026-09-02 11:13:50 | 49.42161 | 12.20052 | 104° | 78km/h | 8790m | 3.4m/s | -38.6°C | 49.6% | 330.4hPa | 2.9V | 00:00:00 | 00:30:49 | 00:00:00 | |
| DF2AP-13 | 2026-09-02 11:13:46 | 49.42181 | 12.19929 | 103° | 73km/h | 8772m | 3.6m/s | 0°C | 0% | 0hPa | 2.9V | 00:00:00 | 00:30:45 | 00:00:00 | |
| DO3MHA-11 | 2026-09-02 11:13:40 | 49.42202 | 12.19756 | 100° | 73km/h | 8745m | 3.2m/s | -38.2°C | 44.4% | 332.6hPa | 2.9V | 00:00:00 | 00:30:39 | 00:00:00 | |
| DL6DJ-15 | 2026-09-02 11:13:38 | 49.42214 | 12.19667 | 104° | 77km/h | 8732m | 2.9m/s | -38.1°C | 40.7% | 333.2hPa | 2.9V | 00:00:00 | 00:00:00 | 00:00:00 | |
| DO8TBO-1 | 2026-09-02 11:13:36 | 49.42219 | 12.19638 | 105° | 69km/h | 8729m | 3.1m/s | -38.0°C | 44.4% | 333.4hPa | 2.9V | 00:00:00 | 00:30:35 | 00:00:00 | |
| DO3MHA-11 | 2026-09-02 11:13:30 | 49.42239 | 12.19482 | 100° | 71km/h | 8704m | 4.2m/s | -37.8°C | 45.4% | 334.5hPa | 2.9V | 00:00:00 | 00:30:29 | 00:00:00 | |
| OE5DRO-10 | 2026-09-02 11:13:29 | 49.42242 | 12.19455 | 103° | 75km/h | 8699m | 5.1m/s | -37.8°C | 45.2% | 334.8hPa | 2.9V | 04:54:00 | 00:00:00 | 00:00:00 | |
| OE5DXL-15 | 2026-09-02 11:13:22 | 49.42273 | 12.19262 | 97° | 69km/h | 8670m | 5.5m/s | -37.5°C | 44.7% | 336.2hPa | 2.7V | 00:00:00 | 00:00:00 | 00:00:00 | |
| DB0NH | 2026-09-02 11:13:21 | 49.42274 | 12.19238 | 93° | 69km/h | 8665m | 4.3m/s | -37.4°C | 44.7% | 336.4hPa | 2.7V | 04:54:00 | 00:30:20 | 00:00:00 | |
| DO3MHA-11 | 2026-09-02 11:13:20 | 49.42275 | 12.19214 | 93° | 69km/h | 8661m | 5.2m/s | -37.4°C | 44.5% | 336.7hPa | 2.7V | 00:00:00 | 00:30:19 | 00:00:00 | |
| DF2AP-13 | 2026-09-02 11:13:16 | 49.42283 | 12.19106 | 99° | 68km/h | 8641m | 7.3m/s | 0°C | 0% | 0hPa | 2.7V | 00:00:00 | 00:30:15 | 00:00:00 | |
| DO3MHA-11 | 2026-09-02 11:13:10 | 49.42305 | 12.18951 | 102° | 71km/h | 8612m | 4.1m/s | -36.9°C | 47.3% | 339.1hPa | 2.7V | 04:54:00 | 00:30:09 | 00:00:00 | |
| DO9HM | 2026-09-02 11:13:08 | 49.42312 | 12.18899 | 106° | 66km/h | 8602m | 6.2m/s | -36.9°C | 44.7% | 339.5hPa | 2.9V | 04:55:00 | 00:00:00 | 00:00:00 | |
| DL6DJ-15 | 2026-09-02 11:13:07 | 49.42320 | 12.18851 | 102° | 64km/h | 8593m | 4.1m/s | -36.8°C | 45.2% | 340.0hPa | 2.9V | 00:00:00 | 00:00:00 | 00:00:00 | |
| DO8TBO-1 | 2026-09-02 11:13:06 | 49.42320 | 12.18851 | 103° | 71km/h | 8593m | 4.1m/s | -36.8°C | 49.3% | 340.0hPa | 2.9V | 00:00:00 | 00:30:05 | 00:00:00 | |
| DO3MHA-11 | 2026-09-02 11:13:00 | 49.42334 | 12.18680 | 99° | 69km/h | 8565m | 4.3m/s | -36.5°C | 43.2% | 341.3hPa | 2.9V | 00:00:00 | 00:29:59 | 00:00:00 | |
| OE5DXL-15 | 2026-09-02 11:12:52 | 49.42362 | 12.18470 | 100° | 71km/h | 8531m | 3.8m/s | -36.2°C | 41.1% | 343.1hPa | 2.9V | 00:00:00 | 00:00:00 | 00:00:00 | |
| DB0NH | 2026-09-02 11:12:51 | 49.42365 | 12.18442 | 99° | 69km/h | 8527m | 4.9m/s | -36.1°C | 39.6% | 343.2hPa | 2.9V | 00:00:00 | 00:29:50 | 00:00:00 | |
| DO3MHA-11 | 2026-09-02 11:12:50 | 49.42368 | 12.18414 | 98° | 69km/h | 8523m | 3.2m/s | -36.1°C | 37.9% | 343.4hPa | 2.7V | 00:00:00 | 00:29:49 | 00:00:00 | |
| DO9HM | 2026-09-02 11:12:48 | 49.42371 | 12.18359 | 96° | 69km/h | 8515m | 3.1m/s | -36.1°C | 32.8% | 343.9hPa | 2.7V | 04:55:00 | 00:00:00 | 00:00:00 | |
| DF2AP-13 | 2026-09-02 11:12:46 | 49.42376 | 12.18306 | 100° | 68km/h | 8507m | 4.8m/s | 0°C | 0% | 0hPa | 2.7V | 04:55:00 | 00:29:45 | 00:00:00 | |
| OE5DRO-10 | 2026-09-02 11:12:45 | 49.42379 | 12.18279 | 104° | 69km/h | 8503m | 4.1m/s | -35.9°C | 35.5% | 344.5hPa | 2.7V | 00:00:00 | 00:00:00 | 00:00:00 | |
| DO3MHA-11 | 2026-09-02 11:12:40 | 49.42400 | 12.18152 | 101° | 73km/h | 8486m | 4.0m/s | -35.8°C | 35.3% | 345.3hPa | 2.7V | 00:00:00 | 00:29:39 | 00:00:00 | |
| DL6DJ-15 | 2026-09-02 11:12:36 | 49.42416 | 12.18017 | 97° | 71km/h | 8462m | 3.7m/s | -35.6°C | 31.7% | 346.5hPa | 2.9V | 00:00:00 | 00:00:00 | 00:00:00 | |
| DO3MHA-11 | 2026-09-02 11:12:30 | 49.42433 | 12.17876 | 103° | 71km/h | 8443m | 4.5m/s | -35.4°C | 35.1% | 347.4hPa | 2.9V | 00:00:00 | 00:29:29 | 00:00:00 | |
| DO9HM | 2026-09-02 11:12:26 | 49.42445 | 12.17797 | 105° | 68km/h | 8431m | 4.2m/s | -35.3°C | 31.9% | 348.1hPa | 2.9V | 04:55:00 | 00:00:00 | 00:00:00 | |
| OE5DXL-15 | 2026-09-02 11:12:22 | 49.42461 | 12.17663 | 100° | 71km/h | 8413m | 3.8m/s | -35.1°C | 34.7% | 348.8hPa | 2.9V | 04:55:00 | 00:00:00 | 00:00:00 | |
| DB0NH | 2026-09-02 11:12:21 | 49.42464 | 12.17634 | 102° | 73km/h | 8409m | 3.9m/s | -35.1°C | 34.8% | 349.1hPa | 2.9V | 00:00:00 | 00:29:20 | 00:00:00 | |
| DO3MHA-11 | 2026-09-02 11:12:20 | 49.42469 | 12.17606 | 104° | 69km/h | 8406m | 3.2m/s | -35.1°C | 34.8% | 349.2hPa | 2.9V | 04:55:00 | 00:29:19 | 00:00:00 | |
| DO3MHA-11 | 2026-09-02 11:12:10 | 49.42506 | 12.17342 | 104° | 69km/h | 8369m | 4.3m/s | -34.7°C | 33.5% | 351.1hPa | 2.9V | 00:00:00 | 00:29:09 | 00:00:00 | |
| DO9HM | 2026-09-02 11:12:06 | 49.42523 | 12.17238 | 104° | 73km/h | 8357m | 3.1m/s | -34.6°C | 30.3% | 351.9hPa | 2.9V | 04:55:00 | 00:00:00 | 00:00:00 | |
| DL6DJ-15 | 2026-09-02 11:12:04 | 49.42531 | 12.17183 | 101° | 69km/h | 8350m | 4.3m/s | -34.6°C | 29.6% | 352.2hPa | 2.9V | 00:00:00 | 00:00:00 | 00:00:00 | |
| OE5DRO-10 | 2026-09-02 11:12:02 | 49.42538 | 12.17130 | 103° | 71km/h | 8343m | 3.3m/s | -34.4°C | 32.7% | 352.5hPa | 2.9V | 00:00:00 | 00:00:00 | 00:00:00 | |
| DO3MHA-11 | 2026-09-02 11:12:00 | 49.42546 | 12.17079 | 105° | 71km/h | 8336m | 3.4m/s | -34.4°C | 32.4% | 352.9hPa | 2.9V | 00:00:00 | 00:28:59 | 00:00:00 | |
| OE5DXL-15 | 2026-09-02 11:11:52 | 49.42579 | 12.16864 | 104° | 69km/h | 8308m | 3.1m/s | -34.1°C | 31.0% | 354.3hPa | 2.9V | 00:00:00 | 00:00:00 | 00:00:00 | |
| DO3MHA-11 | 2026-09-02 11:11:50 | 49.42586 | 12.16808 | 101° | 66km/h | 8300m | 3.3m/s | -34.0°C | 31.3% | 354.7hPa | 2.9V | 00:00:00 | 00:28:49 | 00:00:00 | |
| DO9HM | 2026-09-02 11:11:45 | 49.42599 | 12.16700 | 102° | 68km/h | 8285m | 3.7m/s | -33.9°C | 28.2% | 355.5hPa | 2.9V | 04:56:00 | 00:00:00 | 00:00:00 | |
| DO3MHA-11 | 2026-09-02 11:11:40 | 49.42619 | 12.16560 | 103° | 71km/h | 8262m | 5.1m/s | -33.7°C | 30.6% | 356.5hPa | 2.9V | 00:00:00 | 00:28:39 | 00:00:00 | |
| DH8WE-5 | 2026-09-02 11:11:37 | 49.42626 | 12.16505 | 104° | 73km/h | 8250m | 8.3m/s | 0°C | 0% | 0hPa | 2.9V | 00:00:00 | 00:00:00 | 00:00:00 | |
| DO8TBO-1 | 2026-09-02 11:11:36 | 49.42636 | 12.16450 | 107° | 71km/h | 8235m | 6.3m/s | -33.5°C | 29.7% | 357.8hPa | 2.9V | 00:00:00 | 00:28:35 | 00:00:00 | |
| DL6DJ-15 | 2026-09-02 11:11:33 | 49.42651 | 12.16372 | 107° | 69km/h | 8216m | 4.6m/s | -33.3°C | 27.0% | 358.9hPa | 2.9V | 00:00:00 | 00:00:00 | 00:00:00 | |
| DO3MHA-11 | 2026-09-02 11:11:30 | 49.42664 | 12.16292 | 101° | 68km/h | 8200m | 5.1m/s | -33.2°C | 29.4% | 359.7hPa | 2.9V | 04:56:00 | 00:28:29 | 00:00:00 | |
| DO9HM | 2026-09-02 11:11:25 | 49.42678 | 12.16163 | 101° | 68km/h | 8177m | 4.5m/s | -33.0°C | 26.0% | 361.0hPa | 2.9V | 04:56:00 | 00:00:00 | 00:00:00 | |
| OE5DXL-15 | 2026-09-02 11:11:22 | 49.42687 | 12.16084 | 100° | 73km/h | 8162m | 4.0m/s | -32.8°C | 28.1% | 361.6hPa | 2.9V | 00:00:00 | 00:00:00 | 00:00:00 | |
| DO3MHA-11 | 2026-09-02 11:11:20 | 49.42694 | 12.16032 | 105° | 73km/h | 8154m | 3.5m/s | -32.7°C | 28.0% | 362.2hPa | 2.9V | 00:00:00 | 00:28:19 | 00:00:00 | |
| DO3MHA-11 | 2026-09-02 11:11:10 | 49.42747 | 12.15759 | 108° | 71km/h | 8118m | 3.7m/s | -32.4°C | 27.6% | 364.0hPa | 2.9V | 00:00:00 | 00:28:09 | 00:00:00 | |
| DO8TBO-1 | 2026-09-02 11:11:06 | 49.42767 | 12.15649 | 103° | 73km/h | 8104m | 3.1m/s | -32.2°C | 27.4% | 364.7hPa | 2.9V | 00:00:00 | 00:28:05 | 00:00:00 | |
| DO9HM | 2026-09-02 11:11:04 | 49.42776 | 12.15594 | 105° | 73km/h | 8097m | 3.6m/s | -32.3°C | 24.9% | 365.1hPa | 2.9V | 04:56:00 | 00:00:00 | 00:00:00 | |
| DL6DJ-15 | 2026-09-02 11:11:02 | 49.42785 | 12.15541 | 104° | 68km/h | 8089m | 4.5m/s | -32.2°C | 24.8% | 365.5hPa | 2.9V | 00:00:00 | 00:00:00 | 00:00:00 | |
| DO3MHA-11 | 2026-09-02 11:11:00 | 49.42794 | 12.15490 | 106° | 73km/h | 8082m | 4.2m/s | -32.1°C | 27.4% | 365.8hPa | 2.9V | 00:00:00 | 00:27:59 | 00:00:00 | |
| OE5DXL-15 | 2026-09-02 11:10:52 | 49.42834 | 12.15272 | 104° | 75km/h | 8053m | 3.7m/s | -31.9°C | 26.9% | 367.3hPa | 2.9V | 00:00:00 | 00:00:00 | 00:00:00 | |
| DO3MHA-11 | 2026-09-02 11:10:50 | 49.42843 | 12.15218 | 105° | 73km/h | 8047m | 2.6m/s | -31.8°C | 27.1% | 367.6hPa | 2.9V | 00:00:00 | 00:27:49 | 00:00:00 | |
| DO3MHA-11 | 2026-09-02 11:10:40 | 49.42897 | 12.14946 | 109° | 78km/h | 8015m | 2.9m/s | -31.7°C | 30.6% | 369.4hPa | 2.9V | 04:57:00 | 00:27:39 | 00:00:00 | |
| DO9HM | 2026-09-02 11:10:38 | 49.42914 | 12.14862 | 106° | 78km/h | 8006m | 3.5m/s | -31.6°C | 27.8% | 369.8hPa | 2.7V | 04:57:00 | 00:00:00 | 00:00:00 | |
| DO8TBO-1 | 2026-09-02 11:10:36 | 49.42919 | 12.14832 | 106° | 73km/h | 8003m | 3.9m/s | -31.6°C | 30.0% | 369.9hPa | 2.7V | 00:00:00 | 00:27:35 | 00:00:00 | |
| DL6DJ-15 | 2026-09-02 11:10:31 | 49.42945 | 12.14678 | 103° | 75km/h | 7988m | 4.8m/s | -31.5°C | 28.5% | 370.8hPa | 2.9V | 00:00:00 | 00:00:00 | 00:00:00 | |
| DO3MHA-11 | 2026-09-02 11:10:30 | 49.42949 | 12.14649 | 102° | 71km/h | 7983m | 5.6m/s | -31.4°C | 30.9% | 371.1hPa | 2.9V | 00:00:00 | 00:27:29 | 00:00:00 | |
| OE5DXL-15 | 2026-09-02 11:10:22 | 49.43001 | 12.14442 | 118° | 68km/h | 7945m | 2.6m/s | -31.0°C | 32.9% | 373.1hPa | 2.9V | 00:00:00 | 00:00:00 | 00:00:00 | |
| DO3MHA-11 | 2026-09-02 11:10:20 | 49.43015 | 12.14393 | 108° | 71km/h | 7938m | 6.0m/s | -31.0°C | 34.1% | 373.5hPa | 2.9V | 00:00:00 | 00:27:19 | 00:00:00 | |
| DO3MHA-11 | 2026-09-02 11:10:10 | 49.43063 | 12.14127 | 113° | 66km/h | 7880m | 4.8m/s | -30.5°C | 35.6% | 376.5hPa | 2.9V | 00:00:00 | 00:27:09 | 00:00:00 | |
| DO8TBO-1 | 2026-09-02 11:10:06 | 49.43082 | 12.14036 | 101° | 69km/h | 7855m | 6.0m/s | -30.3°C | 40.8% | 377.8hPa | 2.9V | 04:57:00 | 00:27:05 | 00:00:00 | |
| DO3MHA-11 | 2026-09-02 11:10:00 | 49.43107 | 12.13877 | 111° | 64km/h | 7822m | 5.6m/s | -30.1°C | 52.6% | 379.4hPa | 2.9V | 00:00:00 | 00:26:59 | 00:00:00 | |
| OE5DRO-10 | 2026-09-02 11:09:57 | 49.43124 | 12.13797 | 102° | 66km/h | 7807m | 5.0m/s | -30.0°C | 54.2% | 380.3hPa | 2.9V | 00:00:00 | 00:00:00 | 00:00:00 | |
| OE5DXL-15 | 2026-09-02 11:09:52 | 49.43129 | 12.13684 | 90° | 71km/h | 7782m | 2.4m/s | -29.8°C | 57.8% | 381.7hPa | 2.9V | 04:57:00 | 00:00:00 | 00:00:00 | |
| DO3MHA-11 | 2026-09-02 11:09:50 | 49.43129 | 12.13633 | 91° | 69km/h | 7774m | 3.8m/s | -29.8°C | 63.4% | 382.0hPa | 2.9V | 04:58:00 | 00:26:49 | 00:00:00 | |
| DO9HM | 2026-09-02 11:09:46 | 49.43132 | 12.13548 | 97° | 75km/h | 7759m | 5.4m/s | -29.8°C | 68.3% | 383.0hPa | 2.9V | 04:58:00 | 00:00:00 | 00:00:00 | |
| DO3MHA-11 | 2026-09-02 11:09:40 | 49.43161 | 12.13370 | 105° | 77km/h | 7718m | 5.6m/s | -29.5°C | 87.2% | 385.0hPa | 2.9V | 00:00:00 | 00:26:39 | 00:00:00 | |
| OE5DRO-10 | 2026-09-02 11:09:38 | 49.43168 | 12.13311 | 98° | 82km/h | 7710m | 4.7m/s | -29.4°C | 87.5% | 385.5hPa | 2.7V | 04:58:00 | 00:00:00 | 00:00:00 | |
| DO8TBO-1 | 2026-09-02 11:09:36 | 49.43173 | 12.13246 | 96° | 69km/h | 7702m | 4.7m/s | -29.4°C | 87.2% | 386.0hPa | 2.7V | 00:00:00 | 00:26:35 | 00:00:00 | |
| DO3MHA-11 | 2026-09-02 11:09:30 | 49.43184 | 12.13077 | 94° | 73km/h | 7668m | 8.4m/s | -29.1°C | 86.1% | 387.7hPa | 2.7V | 00:00:00 | 00:26:29 | 00:00:00 | |
| DL6DJ-15 | 2026-09-02 11:09:29 | 49.43185 | 12.13052 | 93° | 64km/h | 7661m | 5.2m/s | -29.1°C | 82.2% | 388.1hPa | 2.7V | 00:00:00 | 00:00:00 | 00:00:00 | |
| DO9HM | 2026-09-02 11:09:27 | 49.43188 | 12.13001 | 98° | 68km/h | 7651m | 5.9m/s | -29.0°C | 82.1% | 388.8hPa | 2.7V | 04:58:00 | 00:00:00 | 00:00:00 | |
| DB0NH | 2026-09-02 11:09:25 | 49.43193 | 12.12945 | 100° | 75km/h | 7640m | 5.0m/s | -28.8°C | 86.8% | 389.3hPa | 2.7V | 00:00:00 | 00:26:24 | 00:00:00 | |
| OE5DXL-15 | 2026-09-02 11:09:22 | 49.43202 | 12.12853 | 97° | 69km/h | 7625m | 4.7m/s | -28.7°C | 86.8% | 390.1hPa | 2.7V | 00:00:00 | 00:00:00 | 00:00:00 | |
| DO3MHA-11 | 2026-09-02 11:09:20 | 49.43208 | 12.12790 | 101° | 66km/h | 7616m | 4.6m/s | -28.6°C | 85.8% | 390.5hPa | 2.7V | 00:00:00 | 00:26:19 | 00:00:00 | |
| OE5DRO-10 | 2026-09-02 11:09:19 | 49.43212 | 12.12759 | 103° | 68km/h | 7611m | 4.8m/s | -28.5°C | 85.9% | 390.8hPa | 2.7V | 00:00:00 | 00:00:00 | 00:00:00 | |
| DO3MHA-11 | 2026-09-02 11:09:10 | 49.43236 | 12.12544 | 100° | 68km/h | 7569m | 5.2m/s | -28.1°C | 84.9% | 393.1hPa | 2.9V | 00:00:00 | 00:26:09 | 00:00:00 | |
| DO9HM | 2026-09-02 11:09:07 | 49.43246 | 12.12480 | 104° | 64km/h | 7556m | 5.4m/s | -28.0°C | 81.3% | 394.0hPa | 2.9V | 04:59:00 | 00:00:00 | 00:00:00 | |
| DL6DJ-15 | 2026-09-02 11:08:58 | 49.43253 | 12.12224 | 93° | 71km/h | 7501m | 7.6m/s | -27.5°C | 77.3% | 397.0hPa | 2.9V | 00:00:00 | 00:00:00 | 00:00:00 | |
| OE5DXL-15 | 2026-09-02 11:08:52 | 49.43265 | 12.12068 | 103° | 69km/h | 7455m | 7.3m/s | -27.1°C | 77.8% | 399.5hPa | 2.9V | 00:00:00 | 00:00:00 | 00:00:00 | |
| DO3MHA-11 | 2026-09-02 11:08:50 | 49.43275 | 12.12014 | 107° | 71km/h | 7442m | 6.4m/s | -26.9°C | 77.3% | 400.2hPa | 2.9V | 00:00:00 | 00:25:49 | 00:00:00 | |
| OE5DRO-10 | 2026-09-02 11:08:48 | 49.43285 | 12.11961 | 107° | 69km/h | 7430m | 7.0m/s | -26.8°C | 77.7% | 400.8hPa | 2.9V | 00:00:00 | 00:00:00 | 00:00:00 | |
| DB0NH | 2026-09-02 11:08:46 | 49.43293 | 12.11910 | 102° | 69km/h | 7419m | 4.4m/s | -26.7°C | 77.6% | 401.5hPa | 2.9V | 00:00:00 | 00:25:45 | 00:00:00 | |
| DO9HM | 2026-09-02 11:08:45 | 49.43296 | 12.11884 | 101° | 68km/h | 7413m | 6.3m/s | -26.7°C | 73.0% | 401.8hPa | 2.9V | 04:59:00 | 00:00:00 | 00:00:00 | |
| DO3MHA-11 | 2026-09-02 11:08:40 | 49.43303 | 12.11741 | 96° | 69km/h | 7390m | 3.7m/s | -26.4°C | 76.7% | 403.0hPa | 2.9V | 00:00:00 | 00:25:39 | 00:00:00 | |
| DO8TBO-1 | 2026-09-02 11:08:36 | 49.43314 | 12.11629 | 102° | 66km/h | 7366m | 7.5m/s | -26.2°C | 74.0% | 404.3hPa | 2.9V | 00:00:00 | 00:25:35 | 00:00:00 | |
| DO3MHA-11 | 2026-09-02 11:08:30 | 49.43337 | 12.11482 | 102° | 68km/h | 7331m | 4.1m/s | -25.9°C | 73.6% | 406.5hPa | 2.9V | 00:00:00 | 00:25:29 | 00:00:00 | |
| OE5DRO-10 | 2026-09-02 11:08:29 | 49.43340 | 12.11457 | 101° | 68km/h | 7327m | 5.6m/s | -25.9°C | 73.1% | 406.7hPa | 2.9V | 00:00:00 | 00:00:00 | 00:00:00 | |
| DL6DJ-15 | 2026-09-02 11:08:27 | 49.43347 | 12.11405 | 99° | 69km/h | 7317m | 4.8m/s | -25.8°C | 68.6% | 407.3hPa | 2.9V | 00:00:00 | 00:00:00 | 00:00:00 | |
| OE5DXL-15 | 2026-09-02 11:08:22 | 49.43360 | 12.11275 | 96° | 58km/h | 7294m | 4.1m/s | -25.7°C | 73.8% | 408.6hPa | 2.9V | 00:00:00 | 00:00:00 | 00:00:00 | |
| DB0NH | 2026-09-02 11:08:16 | 49.43374 | 12.11115 | 107° | 55km/h | 7267m | 3.8m/s | -25.8°C | 76.6% | 410.1hPa | 2.9V | 04:59:00 | 00:25:15 | 00:00:00 | |
| DO9HM | 2026-09-02 11:08:13 | 49.43392 | 12.11042 | 113° | 66km/h | 7255m | 3.0m/s | -26.0°C | 76.2% | 410.8hPa | 2.9V | 05:00:00 | 00:00:00 | 00:00:00 | |
| OE5DRO-10 | 2026-09-02 11:08:11 | 49.43410 | 12.10977 | 111° | 51km/h | 7243m | 5.0m/s | -26.1°C | 84.1% | 411.4hPa | 2.9V | 00:00:00 | 00:00:00 | 00:00:00 | |
| DO3MHA-11 | 2026-09-02 11:08:10 | 49.43410 | 12.10977 | 111° | 60km/h | 7243m | 5.0m/s | -26.1°C | 84.1% | 411.4hPa | 2.9V | 04:59:00 | 00:25:09 | 00:00:00 | |
| DO8TBO-1 | 2026-09-02 11:08:05 | 49.43424 | 12.10864 | 95° | 51km/h | 7211m | 5.5m/s | -26.0°C | 89.1% | 413.2hPa | 2.9V | 00:00:00 | 00:25:04 | 00:00:00 | |
| DL6DJ-15 | 2026-09-02 11:07:56 | 49.43457 | 12.10693 | 106° | 37km/h | 7171m | 4.8m/s | -25.9°C | 91.6% | 415.6hPa | 2.9V | 00:00:00 | 00:00:00 | 00:00:00 | |
| OE5DXL-15 | 2026-09-02 11:07:52 | 49.43473 | 12.10632 | 117° | 53km/h | 7147m | 6.3m/s | -25.6°C | 95.7% | 416.9hPa | 2.9V | 00:00:00 | 00:00:00 | 00:00:00 | |
| DO3MHA-11 | 2026-09-02 11:07:50 | 49.43484 | 12.10593 | 112° | 51km/h | 7136m | 6.6m/s | -25.6°C | 95.8% | 417.5hPa | 2.9V | 00:00:00 | 00:24:49 | 00:00:00 | |
| DB0NH | 2026-09-02 11:07:46 | 49.43501 | 12.10514 | 109° | 53km/h | 7111m | 7.0m/s | -25.4°C | 95.3% | 418.9hPa | 2.9V | 00:00:00 | 00:24:45 | 00:00:00 | |
| NBG1-10 | 2026-09-02 11:07:44 | 49.43510 | 12.10478 | 112° | 60km/h | 7099m | 3.9m/s | -25.3°C | 96.3% | 419.7hPa | 2.9V | 00:00:00 | 00:24:43 | 00:00:00 | |
| DO3MHA-11 | 2026-09-02 11:07:40 | 49.43524 | 12.10402 | 101° | 55km/h | 7083m | 3.7m/s | -25.2°C | 97.9% | 420.7hPa | 2.9V | 00:00:00 | 00:24:39 | 00:00:00 | |
| DO8TBO-1 | 2026-09-02 11:07:35 | 49.43540 | 12.10301 | 108° | 62km/h | 7061m | 4.0m/s | -25.1°C | 98.1% | 422.0hPa | 2.9V | 00:00:00 | 00:24:34 | 00:00:00 | |
| OE5DRO-10 | 2026-09-02 11:07:32 | 49.43553 | 12.10240 | 108° | 55km/h | 7050m | 4.3m/s | -25.0°C | 98.1% | 422.7hPa | 2.9V | 00:00:00 | 00:00:00 | 00:00:00 | |
| DO3MHA-11 | 2026-09-02 11:07:30 | 49.43561 | 12.10199 | 106° | 55km/h | 7042m | 3.6m/s | -24.9°C | 98.4% | 423.2hPa | 2.9V | 00:00:00 | 00:24:29 | 00:00:00 | |
| DL6DJ-15 | 2026-09-02 11:07:25 | 49.43582 | 12.10094 | 107° | 53km/h | 7021m | 4.3m/s | -24.8°C | 93.9% | 424.4hPa | 2.9V | 00:00:00 | 00:00:00 | 00:00:00 | |
| DO9HM | 2026-09-02 11:07:24 | 49.43582 | 12.10094 | 108° | 55km/h | 7017m | 3.3m/s | -24.8°C | 93.9% | 424.4hPa | 2.9V | 05:01:00 | 00:00:00 | 00:00:00 | |
| OE5DXL-15 | 2026-09-02 11:07:22 | 49.43595 | 12.10034 | 108° | 55km/h | 7009m | 4.8m/s | -24.7°C | 99.7% | 425.0hPa | 2.9V | 00:00:00 | 00:00:00 | 00:00:00 | |
| DO3MHA-11 | 2026-09-02 11:07:20 | 49.43603 | 12.09992 | 105° | 55km/h | 7001m | 4.2m/s | -24.7°C | 98.9% | 425.5hPa | 2.9V | 00:00:00 | 00:24:19 | 00:00:00 | |
| DB0NH | 2026-09-02 11:07:16 | 49.43615 | 12.09913 | 104° | 57km/h | 6986m | 3.6m/s | -24.6°C | 99.6% | 426.3hPa | 2.9V | 05:00:00 | 00:24:15 | 00:00:00 | |
| OE5DRO-10 | 2026-09-02 11:07:13 | 49.43628 | 12.09851 | 115° | 57km/h | 6975m | 4.1m/s | -24.5°C | 99.8% | 427.1hPa | 2.9V | 00:00:00 | 00:00:00 | 00:00:00 | |
| DO3MHA-11 | 2026-09-02 11:07:10 | 49.43647 | 12.09795 | 119° | 53km/h | 6963m | 3.6m/s | -24.5°C | 98.8% | 427.6hPa | 2.9V | 05:00:00 | 00:24:09 | 00:00:00 | |
| DO9HM | 2026-09-02 11:07:03 | 49.43664 | 12.09686 | 105° | 53km/h | 6929m | 7.4m/s | -24.5°C | 94.6% | 429.6hPa | 2.7V | 05:01:00 | 00:00:00 | 00:00:00 | |
| DO3MHA-11 | 2026-09-02 11:07:00 | 49.43689 | 12.09595 | 118° | 57km/h | 6904m | 6.5m/s | -24.3°C | 0% | 431.0hPa | 2.7V | 00:00:00 | 00:23:59 | 00:00:00 | |
| NBG1-10 | 2026-09-02 11:06:57 | 49.43708 | 12.09523 | 108° | 64km/h | 6890m | 5.2m/s | -24.2°C | 0% | 431.9hPa | 2.7V | 00:00:00 | 00:23:56 | 00:00:00 | |
| OE5DRO-10 | 2026-09-02 11:06:54 | 49.43719 | 12.09461 | 102° | 66km/h | 6870m | 7.1m/s | 0°C | 0% | 0hPa | 2.7V | 00:00:00 | 00:00:00 | 00:00:00 | |
| OE5DXL-15 | 2026-09-02 11:06:52 | 49.43724 | 12.09425 | 105° | 66km/h | 6859m | 5.4m/s | -23.9°C | 0% | 433.7hPa | 2.7V | 00:00:00 | 00:00:00 | 00:00:00 | |
| DO9HM | 2026-09-02 11:06:42 | 49.43781 | 12.09225 | 114° | 73km/h | 6817m | 4.1m/s | -23.7°C | 99.1% | 436.2hPa | 2.9V | 05:01:00 | 00:00:00 | 00:00:00 | |
| DO3MHA-11 | 2026-09-02 11:06:40 | 49.43800 | 12.09142 | 106° | 69km/h | 6803m | 5.4m/s | -23.5°C | 0% | 437.0hPa | 2.9V | 00:00:00 | 00:23:39 | 00:00:00 | |
| OE5DRO-10 | 2026-09-02 11:06:35 | 49.43820 | 12.09000 | 103° | 66km/h | 6774m | 6.6m/s | 0°C | 0% | 0hPa | 2.9V | 00:00:00 | 00:00:00 | 00:00:00 | |
| DO3MHA-11 | 2026-09-02 11:06:30 | 49.43848 | 12.08888 | 118° | 66km/h | 6744m | 5.5m/s | -23.1°C | 0% | 0hPa | 2.9V | 00:00:00 | 00:23:29 | 00:00:00 | |
| NBG1-10 | 2026-09-02 11:06:24 | 49.43867 | 12.08751 | 98° | 66km/h | 6709m | 5.9m/s | -22.8°C | 0% | 442.5hPa | 2.9V | 00:00:00 | 00:23:23 | 00:00:00 | |
| DL6DJ-15 | 2026-09-02 11:06:23 | 49.43872 | 12.08693 | 97° | 77km/h | 6698m | 5.0m/s | -22.8°C | 99.2% | 443.2hPa | 2.9V | 00:00:00 | 00:00:00 | 00:00:00 | |
| OE5DXL-15 | 2026-09-02 11:06:22 | 49.43872 | 12.08693 | 98° | 68km/h | 6698m | 5.0m/s | -22.7°C | 0% | 443.2hPa | 2.9V | 00:00:00 | 00:00:00 | 00:00:00 | |
| DO3MHA-11 | 2026-09-02 11:06:20 | 49.43879 | 12.08633 | 103° | 69km/h | 6689m | 4.7m/s | -22.6°C | 0% | 443.6hPa | 2.9V | 00:00:00 | 00:23:19 | 00:00:00 | |
| OE5DRO-10 | 2026-09-02 11:06:16 | 49.43899 | 12.08517 | 107° | 66km/h | 6668m | 5.4m/s | 0°C | 0% | 0hPa | 2.9V | 00:00:00 | 00:00:00 | 00:00:00 | |
| DO3MHA-11 | 2026-09-02 11:06:10 | 49.43929 | 12.08376 | 105° | 64km/h | 6632m | 5.2m/s | -22.2°C | 0% | 447.2hPa | 2.9V | 05:01:00 | 00:23:09 | 00:00:00 | |
| DO9HM | 2026-09-02 11:06:03 | 49.43956 | 12.08203 | 106° | 58km/h | 6599m | 5.1m/s | -22.0°C | 96.2% | 449.4hPa | 2.9V | 05:01:00 | 00:00:00 | 00:00:00 | |
| DL6DJ-15 | 2026-09-02 11:05:52 | 49.44001 | 12.07910 | 107° | 71km/h | 6548m | 4.1m/s | -21.6°C | 95.7% | 452.4hPa | 2.9V | 00:00:00 | 00:00:00 | 00:00:00 | |
| NBG1-10 | 2026-09-02 11:05:51 | 49.44001 | 12.07910 | 108° | 64km/h | 6549m | 4.1m/s | -21.5°C | 99.6% | 452.4hPa | 2.9V | 00:00:00 | 00:22:50 | 00:00:00 | |
| DO3MHA-11 | 2026-09-02 11:05:50 | 49.44006 | 12.07884 | 108° | 64km/h | 6544m | 4.8m/s | -21.5°C | 99.6% | 452.7hPa | 2.9V | 00:00:00 | 00:22:49 | 00:00:00 | |
| DO9HM | 2026-09-02 11:05:41 | 49.44042 | 12.07692 | 103° | 60km/h | 6510m | 5.2m/s | -21.2°C | 93.7% | 454.9hPa | 2.9V | 05:02:00 | 00:00:00 | 00:00:00 | |
| DO3MHA-11 | 2026-09-02 11:05:40 | 49.44047 | 12.07648 | 99° | 66km/h | 6500m | 4.7m/s | -21.1°C | 96.6% | 455.6hPa | 2.9V | 00:00:00 | 00:22:39 | 00:00:00 | |
| DO3MHA-11 | 2026-09-02 11:05:30 | 49.44085 | 12.07400 | 103° | 60km/h | 6456m | 5.0m/s | -20.8°C | 96.3% | 458.3hPa | 2.9V | 00:00:00 | 00:22:29 | 00:00:00 | |
| OE5DXL-15 | 2026-09-02 11:05:22 | 49.44097 | 12.07216 | 101° | 68km/h | 6421m | 5.3m/s | -20.6°C | 95.8% | 460.5hPa | 2.9V | 05:02:00 | 00:00:00 | 00:00:00 | |
| DL6DJ-15 | 2026-09-02 11:05:21 | 49.44104 | 12.07172 | 106° | 60km/h | 6409m | 6.5m/s | -20.6°C | 90.9% | 461.2hPa | 2.9V | 00:00:00 | 00:00:00 | 00:00:00 | |
| DO3MHA-11 | 2026-09-02 11:05:20 | 49.44104 | 12.07172 | 107° | 71km/h | 6410m | 6.5m/s | -20.6°C | 94.6% | 461.1hPa | 2.9V | 00:00:00 | 00:22:19 | 00:00:00 | |
| NBG1-10 | 2026-09-02 11:05:18 | 49.44113 | 12.07123 | 106° | 66km/h | 6395m | 8.3m/s | -20.5°C | 93.1% | 462.0hPa | 2.9V | 00:00:00 | 00:22:17 | 00:00:00 | |
| DO3MHA-11 | 2026-09-02 11:05:10 | 49.44140 | 12.06898 | 100° | 66km/h | 6348m | 6.3m/s | -20.2°C | 95.9% | 465.0hPa | 2.9V | 05:02:00 | 00:22:09 | 00:00:00 | |
| DL6DJ-15 | 2026-09-02 11:04:50 | 49.44197 | 12.06387 | 99° | 53km/h | 6251m | 4.1m/s | -19.5°C | 88.6% | 471.2hPa | 2.9V | 00:00:00 | 00:00:00 | 00:00:00 | |
| NBG1-10 | 2026-09-02 11:04:45 | 49.44208 | 12.06308 | 103° | 60km/h | 6231m | 5.9m/s | -19.4°C | 91.4% | 472.5hPa | 2.9V | 05:03:00 | 00:21:44 | 00:00:00 | |
| DO3MHA-11 | 2026-09-02 11:04:40 | 49.44224 | 12.06195 | 106° | 68km/h | 6196m | 9.1m/s | -19.2°C | 91.3% | 474.5hPa | 2.9V | 00:00:00 | 00:21:39 | 00:00:00 | |
| DO9HM | 2026-09-02 11:04:39 | 49.44224 | 12.06195 | 107° | 62km/h | 6196m | 9.2m/s | -19.3°C | 87.9% | 474.6hPa | 2.9V | 05:03:00 | 00:00:00 | 00:00:00 | |
| DO3MHA-11 | 2026-09-02 11:04:30 | 49.44267 | 12.05945 | 100° | 60km/h | 6136m | 4.2m/s | -18.8°C | 88.0% | 478.5hPa | 2.9V | 00:00:00 | 00:21:29 | 00:00:00 | |
| OE5DXL-15 | 2026-09-02 11:04:22 | 49.44283 | 12.05758 | 95° | 64km/h | 6093m | 4.0m/s | -18.4°C | 83.4% | 481.1hPa | 2.9V | 00:00:00 | 00:00:00 | 00:00:00 | |
| DO3MHA-11 | 2026-09-02 11:04:20 | 49.44287 | 12.05717 | 103° | 68km/h | 6084m | 3.1m/s | -18.3°C | 81.8% | 481.7hPa | 2.9V | 00:00:00 | 00:21:19 | 00:00:00 | |
| DO8TBO-1 | 2026-09-02 11:04:19 | 49.44291 | 12.05695 | 105° | 68km/h | 6080m | 3.8m/s | -18.3°C | 80.1% | 481.9hPa | 2.9V | 00:00:00 | 00:21:18 | 00:00:00 | |
| DO9HM | 2026-09-02 11:04:18 | 49.44291 | 12.05695 | 106° | 60km/h | 6080m | 3.9m/s | -18.4°C | 77.2% | 482.0hPa | 2.9V | 05:03:00 | 00:00:00 | 00:00:00 | |
| DO3MHA-11 | 2026-09-02 11:04:10 | 49.44320 | 12.05459 | 106° | 60km/h | 6034m | 4.6m/s | -17.9°C | 76.7% | 484.9hPa | 2.9V | 05:03:00 | 00:21:09 | 00:00:00 | |
| NBG1-10 | 2026-09-02 11:04:04 | 49.44332 | 12.05327 | 89° | 69km/h | 6003m | 6.4m/s | -17.6°C | 73.7% | 486.9hPa | 2.9V | 00:00:00 | 00:21:03 | 00:00:00 | |
| DL6DJ-15 | 2026-09-02 11:03:48 | 49.44358 | 12.04876 | 95° | 71km/h | 5902m | 3.5m/s | -16.9°C | 63.5% | 493.6hPa | 2.9V | 00:00:00 | 00:00:00 | 00:00:00 | |
| DO8TBO-1 | 2026-09-02 11:03:46 | 49.44360 | 12.04849 | 97° | 68km/h | 5898m | 4.5m/s | -16.8°C | 65.4% | 493.7hPa | 2.9V | 05:04:00 | 00:20:45 | 00:00:00 | |
| DO3MHA-11 | 2026-09-02 11:03:40 | 49.44377 | 12.04699 | 100° | 71km/h | 5874m | 3.8m/s | -16.7°C | 67.1% | 495.4hPa | 2.9V | 00:00:00 | 00:20:39 | 00:00:00 | |
| DO9HM | 2026-09-02 11:03:36 | 49.44386 | 12.04618 | 101° | 73km/h | 5863m | 4.4m/s | -16.7°C | 66.9% | 496.2hPa | 2.9V | 05:04:00 | 00:00:00 | 00:00:00 | |
| NBG1-10 | 2026-09-02 11:03:31 | 49.44389 | 12.04450 | 85° | 66km/h | 5842m | 3.2m/s | -16.5°C | 70.8% | 497.5hPa | 2.9V | 00:00:00 | 00:20:30 | 00:00:00 | |
| DO3MHA-11 | 2026-09-02 11:03:30 | 49.44388 | 12.04422 | 87° | 73km/h | 5839m | 2.6m/s | -16.4°C | 71.1% | 497.7hPa | 2.9V | 00:00:00 | 00:20:29 | 00:00:00 | |
| DB0NH | 2026-09-02 11:03:29 | 49.44387 | 12.04394 | 88° | 66km/h | 5837m | 3.0m/s | -16.4°C | 71.6% | 497.8hPa | 2.9V | 00:00:00 | 00:20:28 | 00:00:00 | |
| OE5DXL-15 | 2026-09-02 11:03:22 | 49.44396 | 12.04192 | 106° | 64km/h | 5797m | 5.4m/s | -16.2°C | 74.7% | 500.4hPa | 2.9V | 00:00:00 | 00:00:00 | 00:00:00 | |
| DO3MHA-11 | 2026-09-02 11:03:20 | 49.44406 | 12.04147 | 109° | 58km/h | 5786m | 4.5m/s | -16.2°C | 77.0% | 501.1hPa | 2.9V | 00:00:00 | 00:20:19 | 00:00:00 | |
| DL6DJ-15 | 2026-09-02 11:03:16 | 49.44419 | 12.04058 | 97° | 60km/h | 5768m | 5.1m/s | -16.1°C | 78.7% | 502.4hPa | 2.9V | 00:00:00 | 00:00:00 | 00:00:00 | |
| DO8TBO-1 | 2026-09-02 11:03:12 | 49.44429 | 12.03967 | 105° | 64km/h | 5743m | 5.7m/s | -15.9°C | 80.6% | 504.1hPa | 2.9V | 00:00:00 | 00:20:11 | 00:00:00 | |
| DL6DJ-15 | 2026-09-02 11:02:45 | 49.44491 | 12.03304 | 96° | 53km/h | 5614m | 6.8m/s | -14.8°C | 78.1% | 513.0hPa | 2.9V | 00:00:00 | 00:00:00 | 00:00:00 | |
| DO8TBO-1 | 2026-09-02 11:02:42 | 49.44497 | 12.03235 | 99° | 64km/h | 5599m | 4.3m/s | -14.6°C | 81.3% | 514.0hPa | 2.9V | 00:00:00 | 00:19:41 | 00:00:00 | |
| DO3MHA-11 | 2026-09-02 11:02:40 | 49.44501 | 12.03186 | 98° | 58km/h | 5587m | 7.7m/s | -14.6°C | 81.7% | 514.8hPa | 2.9V | 00:00:00 | 00:19:39 | 00:00:00 | |
| DO9HM | 2026-09-02 11:02:33 | 49.44500 | 12.03061 | 84° | 60km/h | 5559m | 3.4m/s | -14.6°C | 82.5% | 516.8hPa | 2.9V | 05:05:00 | 00:00:00 | 00:00:00 | |
| DO3MHA-11 | 2026-09-02 11:02:30 | 49.44498 | 12.02958 | 95° | 64km/h | 5544m | 4.6m/s | -14.4°C | 84.6% | 517.8hPa | 2.9V | 00:00:00 | 00:19:29 | 00:00:00 | |
| DB0NH | 2026-09-02 11:02:27 | 49.44504 | 12.02876 | 96° | 47km/h | 5528m | 6.3m/s | -14.3°C | 84.2% | 518.8hPa | 2.9V | 00:00:00 | 00:19:26 | 00:00:00 | |
| NBG1-10 | 2026-09-02 11:02:25 | 49.44505 | 12.02828 | 87° | 62km/h | 5518m | 4.0m/s | -14.2°C | 84.2% | 519.5hPa | 2.9V | 00:00:00 | 00:19:24 | 00:00:00 | |
| OE5DXL-15 | 2026-09-02 11:02:22 | 49.44499 | 12.02760 | 82° | 69km/h | 5503m | 6.2m/s | 0°C | 0% | 0hPa | 2.9V | 00:00:00 | 00:00:00 | 00:00:00 | |
| DO3MHA-11 | 2026-09-02 11:02:20 | 49.44496 | 12.02708 | 87° | 69km/h | 5493m | 3.5m/s | -14.0°C | 82.5% | 521.2hPa | 2.9V | 00:00:00 | 00:19:19 | 00:00:00 | |
| DL6DJ-15 | 2026-09-02 11:02:14 | 49.44497 | 12.02539 | 91° | 64km/h | 5466m | 5.1m/s | -13.7°C | 78.2% | 523.1hPa | 2.9V | 00:00:00 | 00:00:00 | 00:00:00 | |
| DO8TBO-1 | 2026-09-02 11:02:12 | 49.44498 | 12.02488 | 93° | 60km/h | 5453m | 5.8m/s | -13.6°C | 79.6% | 0hPa | 2.9V | 00:00:00 | 00:19:11 | 00:00:00 | |
| DO3MHA-11 | 2026-09-02 11:02:10 | 49.44500 | 12.02437 | 95° | 62km/h | 5446m | 4.4m/s | -13.5°C | 79.0% | 524.5hPa | 3.0V | 05:05:00 | 00:19:09 | 00:00:00 | |
| DO3MHA-11 | 2026-09-02 11:02:00 | 49.44496 | 12.02203 | 84° | 51km/h | 5410m | 3.5m/s | -13.3°C | 78.2% | 527.0hPa | 2.9V | 00:00:00 | 00:18:59 | 00:00:00 | |
| NBG1-10 | 2026-09-02 11:01:52 | 49.44476 | 12.02047 | 89° | 62km/h | 5381m | 4.3m/s | -13.0°C | 76.6% | 529.0hPa | 2.9V | 00:00:00 | 00:18:51 | 00:00:00 | |
| DO9HM | 2026-09-02 11:01:51 | 49.44476 | 12.02047 | 90° | 46km/h | 5381m | 4.3m/s | -13.1°C | 74.4% | 529.0hPa | 2.9V | 05:06:00 | 00:00:00 | 00:00:00 | |
| DO3MHA-11 | 2026-09-02 11:01:50 | 49.44478 | 12.02010 | 99° | 68km/h | 5372m | 4.2m/s | -13.0°C | 76.4% | 529.6hPa | 2.9V | 00:00:00 | 00:18:49 | 00:00:00 | |
| DL6DJ-15 | 2026-09-02 11:01:43 | 49.44481 | 12.01826 | 77° | 69km/h | 5338m | 5.7m/s | -12.8°C | 73.1% | 531.9hPa | 2.9V | 00:00:00 | 00:00:00 | 00:00:00 | |
| DO8TBO-1 | 2026-09-02 11:01:42 | 49.44476 | 12.01799 | 73° | 64km/h | 5332m | 6.3m/s | -12.7°C | 75.5% | 532.3hPa | 2.9V | 00:00:00 | 00:18:41 | 00:00:00 | |
| DO3MHA-11 | 2026-09-02 11:01:40 | 49.44466 | 12.01750 | 72° | 66km/h | 5322m | 3.9m/s | -12.7°C | 76.0% | 533.1hPa | 2.9V | 00:00:00 | 00:18:39 | 00:00:00 | |
| DO9HM | 2026-09-02 11:01:31 | 49.44450 | 12.01541 | 91° | 60km/h | 5282m | 3.8m/s | -12.7°C | 76.3% | 535.8hPa | 3.0V | 05:06:00 | 00:00:00 | 00:00:00 | |
| DO3MHA-11 | 2026-09-02 11:01:30 | 49.44449 | 12.01499 | 86° | 53km/h | 5275m | 4.8m/s | -12.6°C | 77.9% | 536.3hPa | 3.0V | 00:00:00 | 00:18:29 | 00:00:00 | |
| DO3MHA-11 | 2026-09-02 11:01:20 | 49.44423 | 12.01296 | 79° | 66km/h | 5220m | 5.3m/s | -12.2°C | 76.7% | 540.2hPa | 3.0V | 00:00:00 | 00:18:19 | 00:00:00 | |
| NBG1-10 | 2026-09-02 11:01:19 | 49.44420 | 12.01273 | 79° | 62km/h | 5215m | 5.7m/s | -12.1°C | 76.9% | 540.6hPa | 3.0V | 05:06:00 | 00:18:18 | 00:00:00 | |
| DL6DJ-15 | 2026-09-02 11:01:13 | 49.44389 | 12.01093 | 72° | 68km/h | 5184m | 4.0m/s | -12.1°C | 68.6% | 542.7hPa | 2.9V | 00:00:00 | 00:00:00 | 00:00:00 | |
| DO8TBO-1 | 2026-09-02 11:01:12 | 49.44389 | 12.01093 | 73° | 60km/h | 5184m | 4.0m/s | -12.0°C | 70.7% | 542.7hPa | 2.9V | 00:00:00 | 00:18:11 | 00:00:00 | |
| DO3MHA-11 | 2026-09-02 11:01:10 | 49.44380 | 12.01048 | 75° | 57km/h | 5177m | 4.5m/s | -11.9°C | 72.4% | 543.2hPa | 2.9V | 05:06:00 | 00:18:09 | 00:00:00 | |
| DO3MHA-11 | 2026-09-02 11:01:00 | 49.44379 | 12.00826 | 85° | 60km/h | 5133m | 4.8m/s | -11.7°C | 64.3% | 546.3hPa | 2.9V | 00:00:00 | 00:17:59 | 00:00:00 | |
| DO3MHA-11 | 2026-09-02 11:00:50 | 49.44359 | 12.00598 | 94° | 58km/h | 5087m | 5.8m/s | -11.4°C | 54.3% | 549.4hPa | 2.9V | 00:00:00 | 00:17:49 | 00:00:00 | |
| NBG1-10 | 2026-09-02 11:00:46 | 49.44353 | 12.00498 | 76° | 60km/h | 5065m | 5.4m/s | -11.2°C | 53.7% | 551.1hPa | 2.9V | 00:00:00 | 00:17:45 | 00:00:00 | |
| DO8TBO-1 | 2026-09-02 11:00:42 | 49.44340 | 12.00415 | 85° | 60km/h | 5047m | 4.4m/s | -11.0°C | 54.8% | 552.5hPa | 2.9V | 05:07:00 | 00:17:41 | 00:00:00 | |
| DL6DJ-15 | 2026-09-02 11:00:41 | 49.44340 | 12.00396 | 92° | 49km/h | 5042m | 5.4m/s | -11.0°C | 53.6% | 552.8hPa | 2.9V | 00:00:00 | 00:00:00 | 00:00:00 | |
| DO3MHA-11 | 2026-09-02 11:00:40 | 49.44341 | 12.00375 | 96° | 66km/h | 5036m | 6.1m/s | -10.9°C | 56.2% | 553.1hPa | 2.9V | 00:00:00 | 00:17:39 | 00:00:00 | |
| DO3MHA-11 | 2026-09-02 11:00:30 | 49.44314 | 12.00127 | 71° | 58km/h | 4989m | 4.0m/s | -10.5°C | 56.9% | 556.7hPa | 2.9V | 00:00:00 | 00:17:29 | 00:00:00 | |
| DO9HM | 2026-09-02 11:00:29 | 49.44314 | 12.00127 | 72° | 55km/h | 4989m | 4.0m/s | -10.5°C | 55.3% | 556.7hPa | 2.9V | 05:07:00 | 00:00:00 | 00:00:00 | |
| DO3MHA-11 | 2026-09-02 11:00:20 | 49.44305 | 11.99901 | 78° | 62km/h | 4946m | 4.5m/s | -10.2°C | 56.1% | 559.8hPa | 2.9V | 00:00:00 | 00:17:19 | 00:00:00 | |
| NBG1-10 | 2026-09-02 11:00:13 | 49.44274 | 11.99743 | 81° | 53km/h | 4920m | 3.5m/s | -10.0°C | 55.4% | 561.7hPa | 2.9V | 00:00:00 | 00:17:12 | 00:00:00 | |
| DO8TBO-1 | 2026-09-02 11:00:12 | 49.44272 | 11.99718 | 88° | 53km/h | 4917m | 3.3m/s | -9.9°C | 54.9% | 561.9hPa | 2.9V | 00:00:00 | 00:17:11 | 00:00:00 | |
| DO3MHA-11 | 2026-09-02 11:00:10 | 49.44273 | 11.99665 | 93° | 49km/h | 4908m | 4.8m/s | -9.9°C | 53.4% | 562.6hPa | 2.9V | 05:07:00 | 00:17:09 | 00:00:00 | |
| DO9HM | 2026-09-02 11:00:09 | 49.44273 | 11.99665 | 94° | 66km/h | 4908m | 4.8m/s | -9.9°C | 51.9% | 562.6hPa | 2.9V | 05:07:00 | 00:00:00 | 00:00:00 | |
| DO3MHA-11 | 2026-09-02 11:00:00 | 49.44286 | 11.99476 | 89° | 57km/h | 4859m | 4.1m/s | -9.6°C | 47.1% | 566.3hPa | 2.9V | 00:00:00 | 00:16:59 | 00:00:00 | |
| DO3MHA-11 | 2026-09-02 10:59:50 | 49.44254 | 11.99265 | 84° | 47km/h | 4821m | 4.0m/s | -9.3°C | 47.5% | 569.0hPa | 2.9V | 00:00:00 | 00:16:49 | 00:00:00 | |
| DO9HM | 2026-09-02 10:59:46 | 49.44256 | 11.99208 | 97° | 49km/h | 4807m | 5.1m/s | -9.3°C | 45.8% | 569.8hPa | 2.9V | 05:08:00 | 00:00:00 | 00:00:00 | |
| DO3MHA-11 | 2026-09-02 10:59:40 | 49.44266 | 11.99085 | 98° | 55km/h | 4778m | 4.0m/s | -8.9°C | 46.3% | 572.0hPa | 2.9V | 00:00:00 | 00:16:39 | 00:00:00 | |
| DL6DJ-15 | 2026-09-02 10:59:39 | 49.44268 | 11.99066 | 100° | 49km/h | 4774m | 3.6m/s | -9.0°C | 45.2% | 572.3hPa | 2.9V | 00:00:00 | 00:00:00 | 00:00:00 | |
| DO8TBO-1 | 2026-09-02 10:59:37 | 49.44272 | 11.99025 | 99° | 49km/h | 4768m | 3.6m/s | -8.8°C | 46.9% | 572.8hPa | 2.9V | 00:00:00 | 00:16:36 | 00:00:00 | |
| DO3MHA-11 | 2026-09-02 10:59:30 | 49.44262 | 11.98880 | 75° | 44km/h | 4739m | 4.9m/s | -8.5°C | 45.1% | 575.0hPa | 2.9V | 00:00:00 | 00:16:29 | 00:00:00 | |
| DO3MHA-11 | 2026-09-02 10:59:20 | 49.44274 | 11.98712 | 98° | 46km/h | 4698m | 5.1m/s | -8.1°C | 44.4% | 578.2hPa | 2.9V | 00:00:00 | 00:16:19 | 00:00:00 | |
| DO3MHA-11 | 2026-09-02 10:59:11 | 49.44245 | 11.98544 | 77° | 49km/h | 4657m | 4.4m/s | -7.8°C | 37.9% | 581.4hPa | 2.9V | 05:08:00 | 00:16:09 | 00:00:00 | |
| DL6DJ-15 | 2026-09-02 10:59:08 | 49.44240 | 11.98497 | 87° | 58km/h | 4648m | 4.3m/s | -7.8°C | 35.5% | 582.1hPa | 3.0V | 00:00:00 | 00:00:00 | 00:00:00 | |
| NBG1-10 | 2026-09-02 10:59:07 | 49.44240 | 11.98475 | 93° | 44km/h | 4645m | 4.0m/s | -7.7°C | 36.6% | 582.4hPa | 3.0V | 00:00:00 | 00:16:06 | 00:00:00 | |
| DO9HM | 2026-09-02 10:59:04 | 49.44242 | 11.98434 | 101° | 47km/h | 4636m | 4.6m/s | -7.7°C | 35.4% | 582.9hPa | 3.0V | 05:09:00 | 00:00:00 | 00:00:00 | |
| DO3MHA-11 | 2026-09-02 10:59:00 | 49.44250 | 11.98361 | 89° | 40km/h | 4613m | 4.3m/s | -7.4°C | 36.1% | 584.6hPa | 3.0V | 00:00:00 | 00:15:59 | 00:00:00 | |
| DO3MHA-11 | 2026-09-02 10:58:50 | 49.44211 | 11.98215 | 76° | 38km/h | 4567m | 3.5m/s | -6.9°C | 35.7% | 588.3hPa | 3.0V | 00:00:00 | 00:15:49 | 00:00:00 | |
| DB0NH | 2026-09-02 10:58:46 | 49.44206 | 11.98168 | 90° | 38km/h | 4544m | 5.8m/s | -6.8°C | 35.0% | 590.1hPa | 3.0V | 05:09:00 | 00:15:45 | 00:00:00 | |
| DO9HM | 2026-09-02 10:58:44 | 49.44208 | 11.98140 | 97° | 40km/h | 4534m | 5.9m/s | -6.8°C | 34.5% | 590.7hPa | 3.0V | 05:09:00 | 00:00:00 | 00:00:00 | |
| DO3MHA-11 | 2026-09-02 10:58:40 | 49.44210 | 11.98063 | 84° | 49km/h | 4515m | 4.7m/s | -6.6°C | 32.7% | 592.1hPa | 3.0V | 00:00:00 | 00:15:39 | 00:00:00 | |
| DO8TBO-1 | 2026-09-02 10:58:37 | 49.44200 | 11.97997 | 72° | 47km/h | 4499m | 6.0m/s | 0°C | 0% | 0hPa | 3.0V | 00:00:00 | 00:15:36 | 00:00:00 | |
| NBG1-10 | 2026-09-02 10:58:34 | 49.44185 | 11.97945 | 65° | 44km/h | 4484m | 4.6m/s | -6.6°C | 28.9% | 594.4hPa | 3.0V | 00:00:00 | 00:15:33 | 00:00:00 | |
| DO3MHA-11 | 2026-09-02 10:58:30 | 49.44169 | 11.97891 | 65° | 49km/h | 4464m | 5.9m/s | -6.4°C | 28.9% | 595.8hPa | 3.0V | 00:00:00 | 00:15:29 | 00:00:00 | |
| DO9HM | 2026-09-02 10:58:23 | 49.44144 | 11.97791 | 75° | 57km/h | 4436m | 6.0m/s | -6.5°C | 26.3% | 597.9hPa | 3.0V | 05:09:00 | 00:00:00 | 00:00:00 | |
| DO3MHA-11 | 2026-09-02 10:58:20 | 49.44135 | 11.97705 | 93° | 47km/h | 4416m | 3.6m/s | -6.3°C | 25.6% | 599.4hPa | 3.0V | 00:00:00 | 00:15:19 | 00:00:00 | |
| DO3MHA-11 | 2026-09-02 10:58:10 | 49.44114 | 11.97529 | 62° | 33km/h | 4351m | 8.0m/s | -6.0°C | 27.7% | 604.3hPa | 3.0V | 05:09:00 | 00:15:09 | 00:00:00 | |
| DO8TBO-1 | 2026-09-02 10:58:07 | 49.44104 | 11.97487 | 82° | 35km/h | 4329m | 7.4m/s | 0°C | 0% | 0hPa | 3.0V | 00:00:00 | 00:15:06 | 00:00:00 | |
| DL6DJ-15 | 2026-09-02 10:58:06 | 49.44103 | 11.97463 | 93° | 27km/h | 4317m | 4.9m/s | -6.1°C | 33.8% | 606.9hPa | 3.0V | 00:00:00 | 00:00:00 | 00:00:00 | |
| DO9HM | 2026-09-02 10:58:02 | 49.44103 | 11.97442 | 88° | 26km/h | 4310m | 3.2m/s | -6.0°C | 33.9% | 607.5hPa | 3.0V | 05:10:00 | 00:00:00 | 00:00:00 | |
| NBG1-10 | 2026-09-02 10:58:01 | 49.44101 | 11.97422 | 72° | 38km/h | 4302m | 4.0m/s | -5.9°C | 34.9% | 608.2hPa | 3.0V | 05:09:00 | 00:15:00 | 00:00:00 | |
| DO3MHA-11 | 2026-09-02 10:58:00 | 49.44099 | 11.97411 | 67° | 44km/h | 4298m | 5.0m/s | -5.9°C | 36.0% | 608.4hPa | 3.0V | 00:00:00 | 00:14:59 | 00:00:00 | |
| DO3MHA-11 | 2026-09-02 10:57:50 | 49.44077 | 11.97243 | 78° | 33km/h | 4246m | 6.3m/s | -5.7°C | 43.3% | 612.6hPa | 3.0V | 00:00:00 | 00:14:49 | 00:00:00 | |
| DB0NH | 2026-09-02 10:57:42 | 49.44079 | 11.97142 | 99° | 35km/h | 4203m | 5.3m/s | -5.5°C | 45.5% | 615.8hPa | 3.0V | 00:00:00 | 00:14:41 | 00:00:00 | |
| DO3MHA-11 | 2026-09-02 10:57:40 | 49.44081 | 11.97114 | 95° | 37km/h | 4193m | 6.2m/s | -5.4°C | 45.4% | 616.5hPa | 3.0V | 00:00:00 | 00:14:39 | 00:00:00 | |
| DO9HM | 2026-09-02 10:57:36 | 49.44071 | 11.97073 | 50° | 35km/h | 4171m | 5.0m/s | -5.4°C | 0% | 0hPa | 3.0V | 05:10:00 | 00:00:00 | 00:00:00 | |
| DL6DJ-15 | 2026-09-02 10:57:35 | 49.44060 | 11.97051 | 52° | 40km/h | 4160m | 5.4m/s | -5.3°C | 50.7% | 619.4hPa | 3.0V | 00:00:00 | 00:00:00 | 00:00:00 | |
| DO3MHA-11 | 2026-09-02 10:57:30 | 49.44040 | 11.96992 | 77° | 35km/h | 4138m | 5.9m/s | -5.1°C | 54.1% | 621.0hPa | 3.0V | 00:00:00 | 00:14:29 | 00:00:00 | |
| NBG1-10 | 2026-09-02 10:57:28 | 49.44038 | 11.96962 | 92° | 33km/h | 4125m | 6.6m/s | -5.0°C | 47.7% | 621.9hPa | 3.0V | 00:00:00 | 00:14:27 | 00:00:00 | |
| DO3MHA-11 | 2026-09-02 10:57:20 | 49.44027 | 11.96862 | 63° | 31km/h | 4072m | 8.0m/s | -4.6°C | 45.1% | 626.2hPa | 3.0V | 00:00:00 | 00:14:19 | 00:00:00 | |
| DO9HM | 2026-09-02 10:57:15 | 49.43998 | 11.96809 | 44° | 26km/h | 4041m | 6.1m/s | -4.4°C | 0% | 0hPa | 3.0V | 05:11:00 | 00:00:00 | 00:00:00 | |
| DO3MHA-11 | 2026-09-02 10:57:10 | 49.43990 | 11.96767 | 93° | 31km/h | 4012m | 5.8m/s | -4.2°C | 46.9% | 631.0hPa | 3.0V | 05:10:00 | 00:14:09 | 00:00:00 | |
| DL6DJ-15 | 2026-09-02 10:57:04 | 49.43974 | 11.96701 | 54° | 38km/h | 3968m | 5.3m/s | -3.9°C | 47.3% | 634.4hPa | 3.0V | 00:00:00 | 00:00:00 | 00:00:00 | |
| DO3MHA-11 | 2026-09-02 10:57:00 | 49.43955 | 11.96655 | 63° | 35km/h | 3952m | 5.2m/s | -3.8°C | 47.6% | 635.6hPa | 3.0V | 00:00:00 | 00:13:59 | 00:00:00 | |
| DO9HM | 2026-09-02 10:56:55 | 49.43932 | 11.96580 | 71° | 29km/h | 3926m | 6.1m/s | -3.5°C | 0% | 0hPa | 3.0V | 05:11:00 | 00:00:00 | 00:00:00 | |
| DO3MHA-11 | 2026-09-02 10:56:50 | 49.43929 | 11.96535 | 93° | 38km/h | 3897m | 4.1m/s | -3.2°C | 43.9% | 640.2hPa | 3.0V | 00:00:00 | 00:13:49 | 00:00:00 | |
| DB0NH | 2026-09-02 10:56:41 | 49.43888 | 11.96418 | 49° | 38km/h | 3847m | 5.1m/s | -2.8°C | 42.0% | 644.3hPa | 3.0V | 00:00:00 | 00:13:40 | 00:00:00 | |
| DL6DJ-15 | 2026-09-02 10:56:33 | 49.43863 | 11.96291 | 89° | 24km/h | 3800m | 6.7m/s | -2.5°C | 40.8% | 648.3hPa | 3.0V | 00:00:00 | 00:00:00 | 00:00:00 | |
| DO9HM | 2026-09-02 10:56:29 | 49.43859 | 11.96260 | 66° | 33km/h | 3783m | 5.3m/s | -2.4°C | 0% | 0hPa | 3.0V | 05:12:00 | 00:00:00 | 00:00:00 | |
| NBG1-10 | 2026-09-02 10:56:22 | 49.43818 | 11.96178 | 50° | 35km/h | 3741m | 5.8m/s | -2.1°C | 43.3% | 653.1hPa | 3.0V | 00:00:00 | 00:13:21 | 00:00:00 | |
| DO3MHA-11 | 2026-09-02 10:56:20 | 49.43813 | 11.96163 | 74° | 37km/h | 3729m | 6.4m/s | -2.0°C | 44.2% | 654.1hPa | 3.0V | 00:00:00 | 00:13:19 | 00:00:00 | |
| DO3MHA-11 | 2026-09-02 10:56:10 | 49.43786 | 11.96023 | 65° | 38km/h | 3676m | 5.6m/s | -1.7°C | 43.9% | 658.5hPa | 3.0V | 05:11:00 | 00:13:09 | 00:00:00 | |
| DO9HM | 2026-09-02 10:56:09 | 49.43782 | 11.96009 | 66° | 35km/h | 3670m | 5.4m/s | -1.7°C | 0% | 0hPa | 3.0V | 05:12:00 | 00:00:00 | 00:00:00 | |
| DL6DJ-15 | 2026-09-02 10:56:01 | 49.43769 | 11.95894 | 75° | 38km/h | 3628m | 4.8m/s | -1.5°C | 36.8% | 662.5hPa | 3.0V | 00:00:00 | 00:00:00 | 00:00:00 | |
| DO3MHA-11 | 2026-09-02 10:56:00 | 49.43766 | 11.95879 | 71° | 35km/h | 3623m | 5.0m/s | -1.4°C | 36.3% | 662.8hPa | 3.0V | 00:00:00 | 00:12:59 | 00:00:00 | |
| DO3MHA-11 | 2026-09-02 10:55:50 | 49.43714 | 11.95778 | 59° | 27km/h | 3571m | 4.4m/s | -1.2°C | 38.3% | 667.1hPa | 3.0V | 00:00:00 | 00:12:49 | 00:00:00 | |
| NBG1-10 | 2026-09-02 10:55:49 | 49.43710 | 11.95766 | 73° | 29km/h | 3566m | 5.4m/s | -1.1°C | 37.9% | 667.7hPa | 3.0V | 00:00:00 | 00:12:48 | 00:00:00 | |
| DO9HM | 2026-09-02 10:55:48 | 49.43708 | 11.95753 | 81° | 35km/h | 3561m | 6.0m/s | -1.1°C | 0% | 0hPa | 3.0V | 05:12:00 | 00:00:00 | 00:00:00 | |
| DO3MHA-11 | 2026-09-02 10:55:40 | 49.43711 | 11.95675 | 98° | 29km/h | 3516m | 6.2m/s | -0.7°C | 30.5% | 671.6hPa | 3.0V | 00:00:00 | 00:12:39 | 00:00:00 | |
| DO3MHA-11 | 2026-09-02 10:55:30 | 49.43685 | 11.95566 | 80° | 37km/h | 3458m | 7.4m/s | -0.4°C | 27.6% | 676.7hPa | 3.0V | 00:00:00 | 00:12:29 | 00:00:00 | |
| DO9HM | 2026-09-02 10:55:26 | 49.43684 | 11.95523 | 90° | 37km/h | 3438m | 4.9m/s | -0.4°C | 0% | 0hPa | 3.0V | 05:12:00 | 00:00:00 | 00:00:00 | |
| DO3MHA-11 | 2026-09-02 10:55:20 | 49.43653 | 11.95442 | 42° | 24km/h | 3401m | 5.2m/s | -0.0°C | 27.3% | 681.3hPa | 3.0V | 00:00:00 | 00:12:19 | 00:00:00 | |
| NBG1-10 | 2026-09-02 10:55:16 | 49.43644 | 11.95414 | 88° | 29km/h | 3379m | 5.8m/s | 0.0°C | 27.3% | 683.2hPa | 3.0V | 00:00:00 | 00:12:15 | 00:00:00 | |
| DO3MHA-11 | 2026-09-02 10:55:10 | 49.43642 | 11.95358 | 58° | 31km/h | 3345m | 5.9m/s | 0.2°C | 26.8% | 686.2hPa | 3.0V | 05:12:00 | 00:12:09 | 00:00:00 | |
| DO9HM | 2026-09-02 10:55:08 | 49.43629 | 11.95340 | 39° | 31km/h | 3330m | 4.9m/s | 0.4°C | 0% | 0hPa | 3.0V | 05:12:00 | 00:00:00 | 00:00:00 | |
| DL6DJ-15 | 2026-09-02 10:54:59 | 49.43601 | 11.95208 | 89° | 31km/h | 3273m | 6.3m/s | 0.9°C | 24.3% | 692.4hPa | 3.0V | 00:00:00 | 00:00:00 | 00:00:00 | |
| DO3MHA-11 | 2026-09-02 10:54:50 | 49.43576 | 11.95149 | 35° | 26km/h | 3240m | 4.4m/s | 1.1°C | 22.0% | 694.9hPa | 3.0V | 00:00:00 | 00:11:49 | 00:00:00 | |
| NBG1-10 | 2026-09-02 10:54:43 | 49.43557 | 11.95089 | 98° | 29km/h | 3207m | 6.8m/s | 1.2°C | 21.7% | 698.0hPa | 3.0V | 05:13:00 | 00:11:42 | 00:00:00 | |
| DO3MHA-11 | 2026-09-02 10:54:40 | 49.43558 | 11.95067 | 72° | 31km/h | 3192m | 4.6m/s | 1.3°C | 21.5% | 699.2hPa | 3.0V | 00:00:00 | 00:11:39 | 00:00:00 | |
| DO3MHA-11 | 2026-09-02 10:54:30 | 49.43518 | 11.94958 | 69° | 24km/h | 3142m | 4.9m/s | 1.7°C | 21.2% | 703.9hPa | 3.0V | 00:00:00 | 00:11:29 | 00:00:00 | |
| DL6DJ-15 | 2026-09-02 10:54:29 | 49.43513 | 11.94939 | 67° | 24km/h | 3130m | 6.3m/s | 1.8°C | 20.8% | 704.9hPa | 3.0V | 00:00:00 | 00:00:00 | 00:00:00 | |
| DO9HM | 2026-09-02 10:54:24 | 49.43510 | 11.94903 | 91° | 26km/h | 3110m | 4.1m/s | 0°C | 0% | 0hPa | 3.0V | 00:00:00 | 00:00:00 | 00:00:00 | |
| DO3MHA-11 | 2026-09-02 10:54:20 | 49.43509 | 11.94870 | 68° | 31km/h | 3095m | 5.0m/s | 2.1°C | 20.7% | 707.7hPa | 3.0V | 00:00:00 | 00:11:19 | 00:00:00 | |
| DO3MHA-11 | 2026-09-02 10:54:10 | 49.43461 | 11.94765 | 61° | 33km/h | 3050m | 3.9m/s | 2.4°C | 20.7% | 711.7hPa | 3.0V | 05:13:00 | 00:11:09 | 00:00:00 | |
| DO9HM | 2026-09-02 10:54:02 | 49.43440 | 11.94668 | 84° | 27km/h | 3019m | 4.1m/s | 0°C | 0% | 0hPa | 3.0V | 00:00:00 | 00:00:00 | 00:00:00 | |
| DL6DJ-15 | 2026-09-02 10:53:57 | 49.43425 | 11.94634 | 35° | 29km/h | 2991m | 3.5m/s | 2.8°C | 20.5% | 717.0hPa | 3.0V | 00:00:00 | 00:00:00 | 00:00:00 | |
| DO3MHA-11 | 2026-09-02 10:53:50 | 49.43399 | 11.94561 | 86° | 26km/h | 2960m | 5.8m/s | 2.6°C | 22.8% | 719.8hPa | 3.0V | 00:00:00 | 00:10:49 | 00:00:00 | |
| DO3MHA-11 | 2026-09-02 10:53:40 | 49.43365 | 11.94477 | 59° | 38km/h | 2915m | 4.3m/s | 2.0°C | 32.1% | 723.6hPa | 3.0V | 00:00:00 | 00:10:39 | 00:00:00 | |
| NBG1-10 | 2026-09-02 10:53:37 | 49.43348 | 11.94429 | 66° | 31km/h | 2901m | 4.8m/s | 1.9°C | 35.0% | 724.9hPa | 3.0V | 00:00:00 | 00:10:36 | 00:00:00 | |
| DB0NH | 2026-09-02 10:53:34 | 49.43333 | 11.94385 | 57° | 33km/h | 2886m | 4.4m/s | 1.9°C | 36.0% | 726.2hPa | 3.0V | 00:00:00 | 00:10:33 | 00:00:00 | |
| DO9HM | 2026-09-02 10:53:32 | 49.43328 | 11.94374 | 55° | 31km/h | 2882m | 4.4m/s | 0°C | 0% | 0hPa | 3.0V | 00:00:00 | 00:00:00 | 00:00:00 | |
| DO3MHA-11 | 2026-09-02 10:53:30 | 49.43318 | 11.94348 | 72° | 26km/h | 2867m | 5.5m/s | 2.2°C | 35.4% | 727.9hPa | 3.0V | 00:00:00 | 00:10:29 | 00:00:00 | |
| DL6DJ-15 | 2026-09-02 10:53:26 | 49.43312 | 11.94318 | 62° | 22km/h | 2845m | 6.0m/s | 2.2°C | -1.0% | 729.9hPa | 3.0V | 00:00:00 | 00:00:00 | 00:00:00 | |
| DO3MHA-11 | 2026-09-02 10:53:20 | 49.43302 | 11.94250 | 91° | 38km/h | 2815m | 6.3m/s | 2.4°C | 37.2% | 732.5hPa | 3.0V | 00:00:00 | 00:10:19 | 00:00:00 | |
| DO3MHA-11 | 2026-09-02 10:53:10 | 49.43299 | 11.94107 | 104° | 35km/h | 2765m | 6.1m/s | 2.2°C | 47.8% | 737.2hPa | 3.0V | 05:14:00 | 00:10:09 | 00:00:00 | |
| DB0NH | 2026-09-02 10:53:04 | 49.43308 | 11.94044 | 103° | 37km/h | 2737m | 6.6m/s | 1.8°C | 48.5% | 739.8hPa | 2.9V | 00:00:00 | 00:10:03 | 00:00:00 | |
| DL6DJ-15 | 2026-09-02 10:52:55 | 49.43316 | 11.93903 | 85° | 24km/h | 2688m | 5.8m/s | 0°C | -1.0% | -1.0hPa | 2.9V | 00:00:00 | 00:00:00 | 00:00:00 | |
| DO3MHA-11 | 2026-09-02 10:52:50 | 49.43313 | 11.93851 | 81° | 40km/h | 2660m | 5.8m/s | 1.7°C | 0% | 746.8hPa | 2.9V | 00:00:00 | 00:09:49 | 00:00:00 | |
| DO3MHA-11 | 2026-09-02 10:52:40 | 49.43304 | 11.93696 | 75° | 40km/h | 2598m | 4.4m/s | 2.0°C | 0% | 752.5hPa | 2.9V | 00:00:00 | 00:09:39 | 00:00:00 | |
| DB0NH | 2026-09-02 10:52:35 | 49.43297 | 11.93612 | 90° | 37km/h | 2561m | 5.5m/s | 2.2°C | 0% | 756.2hPa | 3.0V | 00:00:00 | 00:09:33 | 00:00:00 | |
| NBG1-10 | 2026-09-02 10:52:31 | 49.43291 | 11.93562 | 68° | 38km/h | 2545m | 6.8m/s | 2.2°C | 0% | 757.6hPa | 3.0V | 00:00:00 | 00:09:30 | 00:00:00 | |
| DO3MHA-11 | 2026-09-02 10:52:30 | 49.43287 | 11.93548 | 64° | 35km/h | 2539m | 5.3m/s | 2.3°C | 0% | 758.4hPa | 3.0V | 00:00:00 | 00:09:29 | 00:00:00 | |
| DO9HM | 2026-09-02 10:52:26 | 49.43276 | 11.93513 | 80° | 27km/h | 2522m | 5.3m/s | 0°C | 0% | 0hPa | 3.0V | 00:00:00 | 00:00:00 | 00:00:00 | |
| DO3MHA-11 | 2026-09-02 10:52:20 | 49.43274 | 11.93419 | 76° | 37km/h | 2485m | 5.3m/s | 2.8°C | 97.0% | 763.2hPa | 3.0V | 00:00:00 | 00:09:19 | 00:00:00 | |
| DO3MHA-11 | 2026-09-02 10:52:10 | 49.43269 | 11.93276 | 81° | 42km/h | 2428m | 3.5m/s | 3.2°C | 98.5% | 768.7hPa | 3.0V | 05:15:00 | 00:09:09 | 00:00:00 | |
| DB0NH | 2026-09-02 10:52:04 | 49.43266 | 11.93188 | 86° | 40km/h | 2392m | 4.9m/s | 3.7°C | 93.9% | 772.3hPa | 3.0V | 05:15:00 | 00:09:03 | 00:00:00 | |
| DO3MHA-11 | 2026-09-02 10:52:00 | 49.43251 | 11.93120 | 63° | 40km/h | 2369m | 6.1m/s | 3.7°C | 98.2% | 774.3hPa | 3.0V | 00:00:00 | 00:08:59 | 00:00:00 | |
| NBG1-10 | 2026-09-02 10:51:59 | 49.43243 | 11.93096 | 66° | 40km/h | 2357m | 6.0m/s | 3.7°C | 98.5% | 775.6hPa | 3.0V | 00:00:00 | 00:08:57 | 00:00:00 | |
| DO3MHA-11 | 2026-09-02 10:51:50 | 49.43233 | 11.92967 | 73° | 40km/h | 2316m | 4.5m/s | 4.1°C | 97.2% | 779.6hPa | 3.0V | 00:00:00 | 00:08:49 | 00:00:00 | |
| DO3MHA-11 | 2026-09-02 10:51:40 | 49.43184 | 11.92830 | 58° | 37km/h | 2263m | 7.0m/s | 4.6°C | 95.3% | 784.8hPa | 3.0V | 00:00:00 | 00:08:39 | 00:00:00 | |
| DB0NH | 2026-09-02 10:51:34 | 49.43164 | 11.92748 | 87° | 40km/h | 2231m | 4.8m/s | 4.9°C | 94.1% | 787.9hPa | 3.0V | 00:00:00 | 00:08:33 | 00:00:00 | |
| DO3MHA-11 | 2026-09-02 10:51:30 | 49.43160 | 11.92692 | 76° | 40km/h | 2208m | 4.9m/s | 5.1°C | 93.4% | 790.1hPa | 3.0V | 00:00:00 | 00:08:29 | 00:00:00 | |
| NBG1-10 | 2026-09-02 10:51:25 | 49.43144 | 11.92624 | 87° | 40km/h | 2183m | 4.8m/s | 5.4°C | 92.1% | 792.5hPa | 3.0V | 05:16:00 | 00:08:24 | 00:00:00 | |
| DO3MHA-11 | 2026-09-02 10:51:20 | 49.43145 | 11.92542 | 89° | 42km/h | 2156m | 5.5m/s | 5.6°C | 90.9% | 795.1hPa | 3.0V | 00:00:00 | 00:08:19 | 00:00:00 | |
| DO3MHA-11 | 2026-09-02 10:51:10 | 49.43110 | 11.92393 | 62° | 40km/h | 2114m | 3.5m/s | 5.8°C | 93.5% | 799.2hPa | 3.0V | 05:16:00 | 00:08:09 | 00:00:00 | |
| DB0NH | 2026-09-02 10:51:04 | 49.43099 | 11.92297 | 96° | 35km/h | 2087m | 4.8m/s | 6.0°C | 93.0% | 801.7hPa | 3.0V | 00:00:00 | 00:08:03 | 00:00:00 | |
| DO3MHA-11 | 2026-09-02 10:51:00 | 49.43109 | 11.92245 | 109° | 33km/h | 2065m | 4.5m/s | 6.2°C | 91.4% | 803.8hPa | 3.0V | 00:00:00 | 00:07:59 | 00:00:00 | |
| NBG1-10 | 2026-09-02 10:50:52 | 49.43106 | 11.92138 | 71° | 31km/h | 2024m | 4.5m/s | 6.5°C | 91.1% | 808.0hPa | 3.0V | 00:00:00 | 00:07:51 | 00:00:00 | |
| DO3MHA-11 | 2026-09-02 10:50:50 | 49.43104 | 11.92121 | 96° | 37km/h | 2016m | 3.9m/s | 6.5°C | 92.6% | 808.8hPa | 3.0V | 00:00:00 | 00:07:49 | 00:00:00 | |
| DO3MHA-11 | 2026-09-02 10:50:40 | 49.43112 | 11.91973 | 94° | 29km/h | 1969m | 4.1m/s | 6.9°C | 93.1% | 813.4hPa | 3.0V | 00:00:00 | 00:07:39 | 00:00:00 | |
| DB0NH | 2026-09-02 10:50:34 | 49.43116 | 11.91904 | 82° | 31km/h | 1944m | 3.3m/s | 7.1°C | 93.3% | 815.8hPa | 3.0V | 00:00:00 | 00:07:33 | 00:00:00 | |
| DO3MHA-11 | 2026-09-02 10:50:30 | 49.43104 | 11.91870 | 55° | 27km/h | 1929m | 4.4m/s | 7.3°C | 91.7% | 817.3hPa | 3.0V | 00:00:00 | 00:07:29 | 00:00:00 | |
| DO3MHA-11 | 2026-09-02 10:50:20 | 49.43088 | 11.91772 | 90° | 42km/h | 1878m | 6.1m/s | 7.8°C | 88.0% | 822.6hPa | 3.0V | 00:00:00 | 00:07:19 | 00:00:00 | |
| NBG1-10 | 2026-09-02 10:50:19 | 49.43087 | 11.91756 | 84° | 35km/h | 1873m | 5.4m/s | 7.8°C | 88.2% | 823.0hPa | 3.0V | 00:00:00 | 00:07:18 | 00:00:00 | |
| DO3MHA-11 | 2026-09-02 10:50:10 | 49.43076 | 11.91613 | 100° | 31km/h | 1829m | 4.6m/s | 8.2°C | 85.7% | 827.2hPa | 3.0V | 05:17:00 | 00:07:09 | 00:00:00 | |
| DB0NH | 2026-09-02 10:50:04 | 49.43066 | 11.91556 | 67° | 31km/h | 1801m | 4.8m/s | 8.5°C | 82.7% | 830.1hPa | 3.0V | 00:00:00 | 00:07:03 | 00:00:00 | |
| DO3MHA-11 | 2026-09-02 10:50:00 | 49.43060 | 11.91495 | 96° | 29km/h | 1780m | 5.3m/s | 8.7°C | 81.5% | 832.2hPa | 3.0V | 00:00:00 | 00:06:59 | 00:00:00 | |
| DO3MHA-11 | 2026-09-02 10:49:50 | 49.43056 | 11.91388 | 75° | 26km/h | 1731m | 4.5m/s | 9.1°C | 80.6% | 837.1hPa | 3.0V | 00:00:00 | 00:06:49 | 00:00:00 | |
| NBG1-10 | 2026-09-02 10:49:46 | 49.43055 | 11.91335 | 105° | 31km/h | 1711m | 4.1m/s | 9.3°C | 79.3% | 839.2hPa | 3.0V | 00:00:00 | 00:06:45 | 00:00:00 | |
| DO3MHA-11 | 2026-09-02 10:49:41 | 49.43058 | 11.91290 | 73° | 31km/h | 1682m | 6.4m/s | 9.6°C | 78.9% | 842.1hPa | 3.0V | 00:00:00 | 00:06:39 | 00:00:00 | |
| DB0NH | 2026-09-02 10:49:34 | 49.43056 | 11.91209 | 102° | 33km/h | 1643m | 6.6m/s | 0°C | 0% | 0hPa | 3.0V | 00:00:00 | 00:06:33 | 00:00:00 | |
| DO3MHA-11 | 2026-09-02 10:49:30 | 49.43059 | 11.91171 | 78° | 37km/h | 1620m | 6.5m/s | 10.0°C | 79.6% | 848.3hPa | 3.0V | 00:00:00 | 00:06:29 | 00:00:00 | |
| DO3MHA-11 | 2026-09-02 10:49:20 | 49.43058 | 11.91028 | 93° | 29km/h | 1565m | 6.2m/s | 10.2°C | 85.1% | 854.0hPa | 3.0V | 00:00:00 | 00:06:19 | 00:00:00 | |
| NBG1-10 | 2026-09-02 10:49:13 | 49.43054 | 11.90948 | 108° | 20km/h | 1528m | 4.1m/s | 10.6°C | 80.5% | 857.9hPa | 3.0V | 00:00:00 | 00:06:12 | 00:00:00 | |
| DO3MHA-11 | 2026-09-02 10:49:10 | 49.43062 | 11.90919 | 109° | 27km/h | 1508m | 6.7m/s | 10.7°C | 79.1% | 859.9hPa | 3.0V | 05:18:00 | 00:06:09 | 00:00:00 | |
| DB0NH | 2026-09-02 10:49:04 | 49.43075 | 11.90845 | 113° | 20km/h | 1479m | 4.5m/s | 0°C | 0% | 0hPa | 0V | 00:00:00 | 00:06:03 | 00:00:00 | |
| DO3MHA-11 | 2026-09-02 10:49:00 | 49.43083 | 11.90822 | 96° | 18km/h | 1457m | 4.7m/s | 11.2°C | 77.4% | 865.3hPa | 0V | 00:00:00 | 00:05:59 | 00:00:00 | |
| DO3MHA-11 | 2026-09-02 10:48:50 | 49.43084 | 11.90756 | 168° | 13km/h | 1399m | 5.8m/s | 0°C | 0% | 0hPa | 0V | 00:00:00 | 00:05:49 | 00:00:00 | |
| NBG1-10 | 2026-09-02 10:48:40 | 49.43079 | 11.90709 | 108° | 16km/h | 1351m | 6.2m/s | 0°C | 0% | 0hPa | 0V | 00:00:00 | 00:05:39 | 00:00:00 | |
| DO3MHA-11 | 2026-09-02 10:48:40 | 49.43079 | 11.90709 | 108° | 18km/h | 1351m | 6.2m/s | 0°C | 0% | 0hPa | 0V | 00:00:00 | 00:05:39 | 00:00:00 | |
| DO3MHA-11 | 2026-09-02 10:48:30 | 49.43103 | 11.90652 | 123° | 16km/h | 1293m | 5.2m/s | 0°C | 0% | 0hPa | 0V | 00:00:00 | 00:05:29 | 00:00:00 | |
| DO3MHA-11 | 2026-09-02 10:48:10 | 49.43058 | 11.90555 | 354° | 7km/h | 1181m | 6.6m/s | 0°C | 0% | 0hPa | 0V | 05:19:00 | 00:05:09 | 00:00:00 | |
| NBG1-10 | 2026-09-02 10:48:07 | 49.43055 | 11.90551 | 64° | 13km/h | 1166m | 3.2m/s | 0°C | 0% | 0hPa | 0V | 05:19:00 | 00:05:06 | 00:00:00 |